<?xml version='1.0' encoding='UTF-8'?><gpx version="1.1" creator="JPX - https://github.com/jenetics/jpx" xmlns="http://www.topografix.com/GPX/1/1"><trk><trkseg><trkpt lat="43.58734178723448" lon="11.328814166124022"><ele>322.0</ele><time>2026-04-26T17:03:10.516Z</time></trkpt><trkpt lat="43.587333613359405" lon="11.328652153846283"><ele>322.0</ele><time>2026-04-26T17:03:12.516Z</time></trkpt><trkpt lat="43.58731662855655" lon="11.32854348673765"><ele>322.0</ele><time>2026-04-26T17:03:13.516Z</time></trkpt><trkpt lat="43.587300440829615" lon="11.32843812785845"><ele>322.0</ele><time>2026-04-26T17:03:14.516Z</time></trkpt><trkpt lat="43.58725735413882" lon="11.328330185823784"><ele>322.0</ele><time>2026-04-26T17:03:15.516Z</time></trkpt><trkpt lat="43.58717955035604" lon="11.328231366108005"><ele>322.0</ele><time>2026-04-26T17:03:16.516Z</time></trkpt><trkpt lat="43.58710031883069" lon="11.328142225353119"><ele>322.0</ele><time>2026-04-26T17:03:17.516Z</time></trkpt><trkpt lat="43.587038821160455" lon="11.328018155211602"><ele>322.0</ele><time>2026-04-26T17:03:18.516Z</time></trkpt><trkpt lat="43.58697952560199" lon="11.327914850267447"><ele>322.0</ele><time>2026-04-26T17:03:19.516Z</time></trkpt><trkpt lat="43.58693882137056" lon="11.327804340188704"><ele>322.0</ele><time>2026-04-26T17:03:20.516Z</time></trkpt><trkpt lat="43.58688742362122" lon="11.327692632425267"><ele>320.8333333333333</ele><time>2026-04-26T17:03:21.516Z</time></trkpt><trkpt lat="43.58684977393808" lon="11.327558494690303"><ele>319.66666666666663</ele><time>2026-04-26T17:03:22.516Z</time></trkpt><trkpt lat="43.58681554911734" lon="11.327447079165438"><ele>318.5</ele><time>2026-04-26T17:03:23.516Z</time></trkpt><trkpt lat="43.58677331268395" lon="11.327346517534838"><ele>317.3333333333333</ele><time>2026-04-26T17:03:24.516Z</time></trkpt><trkpt lat="43.58671146828371" lon="11.327283211173615"><ele>316.1666666666667</ele><time>2026-04-26T17:03:25.516Z</time></trkpt><trkpt lat="43.58664204073583" lon="11.327246214845665"><ele>315.0</ele><time>2026-04-26T17:03:26.516Z</time></trkpt><trkpt lat="43.5865496425472" lon="11.327216425132159"><ele>315.0</ele><time>2026-04-26T17:03:28.998Z</time></trkpt><trkpt lat="43.58647027725589" lon="11.327158374914484"><ele>315.0</ele><time>2026-04-26T17:03:30.998Z</time></trkpt><trkpt lat="43.58642748584354" lon="11.327075292731719"><ele>315.0</ele><time>2026-04-26T17:03:31.998Z</time></trkpt><trkpt lat="43.58638843571662" lon="11.32697340113205"><ele>315.0</ele><time>2026-04-26T17:03:32.998Z</time></trkpt><trkpt lat="43.586350261260904" lon="11.326874277377579"><ele>315.0</ele><time>2026-04-26T17:03:33.998Z</time></trkpt><trkpt lat="43.58632450431988" lon="11.32677384939866"><ele>315.0</ele><time>2026-04-26T17:03:34.998Z</time></trkpt><trkpt lat="43.58627288589508" lon="11.326705510835534"><ele>315.0</ele><time>2026-04-26T17:03:35.998Z</time></trkpt><trkpt lat="43.58620482974842" lon="11.326691178449328"><ele>315.0</ele><time>2026-04-26T17:03:36.998Z</time></trkpt><trkpt lat="43.58612941719371" lon="11.326733388961317"><ele>315.0</ele><time>2026-04-26T17:03:37.998Z</time></trkpt><trkpt lat="43.58604998230788" lon="11.326779965366304"><ele>315.0</ele><time>2026-04-26T17:03:38.998Z</time></trkpt><trkpt lat="43.58598596101483" lon="11.326807391886035"><ele>315.0</ele><time>2026-04-26T17:03:39.998Z</time></trkpt><trkpt lat="43.58592404509043" lon="11.326823505900036"><ele>315.0</ele><time>2026-04-26T17:03:40.998Z</time></trkpt><trkpt lat="43.58581917076141" lon="11.326727762596766"><ele>313.0</ele><time>2026-04-26T17:03:42.998Z</time></trkpt><trkpt lat="43.58580620750009" lon="11.326620295739648"><ele>311.0</ele><time>2026-04-26T17:03:43.998Z</time></trkpt><trkpt lat="43.58579525151584" lon="11.326486412965028"><ele>309.0</ele><time>2026-04-26T17:03:44.998Z</time></trkpt><trkpt lat="43.585771781897435" lon="11.326341596841838"><ele>307.0</ele><time>2026-04-26T17:03:45.998Z</time></trkpt><trkpt lat="43.58572231915357" lon="11.326228844697582"><ele>305.0</ele><time>2026-04-26T17:03:46.998Z</time></trkpt><trkpt lat="43.58564786532616" lon="11.326151248947518"><ele>305.0</ele><time>2026-04-26T17:03:47.998Z</time></trkpt><trkpt lat="43.58555732058032" lon="11.326090690214915"><ele>305.0</ele><time>2026-04-26T17:03:48.998Z</time></trkpt><trkpt lat="43.585462586760286" lon="11.32601958112328"><ele>305.0</ele><time>2026-04-26T17:03:49.998Z</time></trkpt><trkpt lat="43.58536729099881" lon="11.32594417766842"><ele>305.0</ele><time>2026-04-26T17:03:50.998Z</time></trkpt><trkpt lat="43.585285007918266" lon="11.325879683132015"><ele>305.0</ele><time>2026-04-26T17:03:51.998Z</time></trkpt><trkpt lat="43.58520922160769" lon="11.325829020784354"><ele>303.6666666666667</ele><time>2026-04-26T17:03:52.998Z</time></trkpt><trkpt lat="43.58513513568529" lon="11.325792025016938"><ele>302.33333333333337</ele><time>2026-04-26T17:03:53.998Z</time></trkpt><trkpt lat="43.58506271809056" lon="11.325768370516903"><ele>301.0</ele><time>2026-04-26T17:03:54.998Z</time></trkpt><trkpt lat="43.585019188958896" lon="11.325654992343212"><ele>299.6666666666667</ele><time>2026-04-26T17:03:55.998Z</time></trkpt><trkpt lat="43.58495037395799" lon="11.325604905641695"><ele>298.3333333333333</ele><time>2026-04-26T17:03:56.998Z</time></trkpt><trkpt lat="43.584877136476514" lon="11.325558058514963"><ele>297.0</ele><time>2026-04-26T17:03:57.998Z</time></trkpt><trkpt lat="43.58480410221688" lon="11.325516179006037"><ele>297.0</ele><time>2026-04-26T17:03:58.998Z</time></trkpt><trkpt lat="43.58474934146812" lon="11.325460960251545"><ele>297.0</ele><time>2026-04-26T17:03:59.998Z</time></trkpt><trkpt lat="43.584691526834675" lon="11.325394460268337"><ele>297.0</ele><time>2026-04-26T17:04:00.998Z</time></trkpt><trkpt lat="43.584688111626654" lon="11.325261779248454"><ele>297.0</ele><time>2026-04-26T17:04:01.998Z</time></trkpt><trkpt lat="43.58465595676582" lon="11.325126269016796"><ele>297.0</ele><time>2026-04-26T17:04:02.998Z</time></trkpt><trkpt lat="43.584621437986534" lon="11.32498591122278"><ele>297.0</ele><time>2026-04-26T17:04:03.998Z</time></trkpt><trkpt lat="43.584578869924115" lon="11.324863737241953"><ele>297.0</ele><time>2026-04-26T17:04:04.998Z</time></trkpt><trkpt lat="43.5845388932806" lon="11.324750361646332"><ele>297.0</ele><time>2026-04-26T17:04:05.998Z</time></trkpt><trkpt lat="43.58447614366093" lon="11.324672625958133"><ele>297.0</ele><time>2026-04-26T17:04:06.998Z</time></trkpt><trkpt lat="43.58439499911242" lon="11.324618943469778"><ele>297.0</ele><time>2026-04-26T17:04:07.997Z</time></trkpt><trkpt lat="43.58431454148622" lon="11.324581420041323"><ele>297.0</ele><time>2026-04-26T17:04:08.997Z</time></trkpt><trkpt lat="43.58425780353273" lon="11.324493795849351"><ele>292.8</ele><time>2026-04-26T17:04:09.997Z</time></trkpt><trkpt lat="43.58417622596838" lon="11.324391768452454"><ele>288.6</ele><time>2026-04-26T17:04:10.997Z</time></trkpt><trkpt lat="43.584104342088835" lon="11.32426217548269"><ele>284.40000000000003</ele><time>2026-04-26T17:04:11.997Z</time></trkpt><trkpt lat="43.58404292524964" lon="11.324139812529216"><ele>280.2</ele><time>2026-04-26T17:04:12.997Z</time></trkpt><trkpt lat="43.583992499192014" lon="11.32401164273141"><ele>276.0</ele><time>2026-04-26T17:04:13.997Z</time></trkpt><trkpt lat="43.58397658145838" lon="11.32387147112509"><ele>275.40000000000003</ele><time>2026-04-26T17:04:14.997Z</time></trkpt><trkpt lat="43.58396169133638" lon="11.323743477329002"><ele>274.8</ele><time>2026-04-26T17:04:15.997Z</time></trkpt><trkpt lat="43.58394779172408" lon="11.323594344789235"><ele>274.20000000000005</ele><time>2026-04-26T17:04:16.997Z</time></trkpt><trkpt lat="43.58391662810336" lon="11.32343421873694"><ele>273.6</ele><time>2026-04-26T17:04:17.997Z</time></trkpt><trkpt lat="43.58391929316554" lon="11.323287510148964"><ele>273.0</ele><time>2026-04-26T17:04:18.997Z</time></trkpt><trkpt lat="43.58390817142046" lon="11.323142867648086"><ele>272.1666666666667</ele><time>2026-04-26T17:04:19.997Z</time></trkpt><trkpt lat="43.58390313029915" lon="11.32301234421057"><ele>271.3333333333333</ele><time>2026-04-26T17:04:20.997Z</time></trkpt><trkpt lat="43.58390123114181" lon="11.322905194396029"><ele>270.5</ele><time>2026-04-26T17:04:21.997Z</time></trkpt><trkpt lat="43.583893599848594" lon="11.322772992244007"><ele>269.66666666666663</ele><time>2026-04-26T17:04:22.997Z</time></trkpt><trkpt lat="43.58386557577686" lon="11.32265880524659"><ele>268.8333333333333</ele><time>2026-04-26T17:04:23.997Z</time></trkpt><trkpt lat="43.58382129851295" lon="11.322558979307727"><ele>268.0</ele><time>2026-04-26T17:04:24.997Z</time></trkpt><trkpt lat="43.58375555860705" lon="11.322469738192956"><ele>268.0</ele><time>2026-04-26T17:04:25.997Z</time></trkpt><trkpt lat="43.58369008809136" lon="11.322398879905942"><ele>268.0</ele><time>2026-04-26T17:04:26.997Z</time></trkpt><trkpt lat="43.583625839968114" lon="11.32231501660678"><ele>268.0</ele><time>2026-04-26T17:04:27.997Z</time></trkpt><trkpt lat="43.58358250144889" lon="11.322222394171341"><ele>268.0</ele><time>2026-04-26T17:04:28.997Z</time></trkpt><trkpt lat="43.58356188394989" lon="11.322123324932697"><ele>268.0</ele><time>2026-04-26T17:04:29.997Z</time></trkpt><trkpt lat="43.58354796789796" lon="11.322013191278643"><ele>268.0</ele><time>2026-04-26T17:04:30.997Z</time></trkpt><trkpt lat="43.58353120207988" lon="11.321871264230506"><ele>264.6</ele><time>2026-04-26T17:04:31.997Z</time></trkpt><trkpt lat="43.58352549657756" lon="11.321717389491075"><ele>261.20000000000005</ele><time>2026-04-26T17:04:32.997Z</time></trkpt><trkpt lat="43.5835273306469" lon="11.321570138345756"><ele>257.8</ele><time>2026-04-26T17:04:33.997Z</time></trkpt><trkpt lat="43.583519382637185" lon="11.321439226036222"><ele>254.4</ele><time>2026-04-26T17:04:34.997Z</time></trkpt><trkpt lat="43.58347390053514" lon="11.321319061178746"><ele>251.0</ele><time>2026-04-26T17:04:35.997Z</time></trkpt><trkpt lat="43.58343937430052" lon="11.321194676152194"><ele>251.00000000000003</ele><time>2026-04-26T17:04:36.997Z</time></trkpt><trkpt lat="43.583402888204795" lon="11.321085388827475"><ele>251.0</ele><time>2026-04-26T17:04:37.997Z</time></trkpt><trkpt lat="43.58337049614592" lon="11.32098863786373"><ele>251.0</ele><time>2026-04-26T17:04:38.997Z</time></trkpt><trkpt lat="43.58333954520017" lon="11.320890244357141"><ele>251.0</ele><time>2026-04-26T17:04:39.997Z</time></trkpt><trkpt lat="43.58332372169807" lon="11.320786708286581"><ele>251.00000000000003</ele><time>2026-04-26T17:04:40.997Z</time></trkpt><trkpt lat="43.5833207665697" lon="11.320681622000578"><ele>251.0</ele><time>2026-04-26T17:04:41.997Z</time></trkpt><trkpt lat="43.58331197211872" lon="11.320589445550393"><ele>251.20000000000002</ele><time>2026-04-26T17:04:42.997Z</time></trkpt><trkpt lat="43.58328538687158" lon="11.320407351377339"><ele>251.40000000000003</ele><time>2026-04-26T17:04:44.997Z</time></trkpt><trkpt lat="43.58327486490889" lon="11.320316091847445"><ele>251.6</ele><time>2026-04-26T17:04:45.997Z</time></trkpt><trkpt lat="43.583268649263815" lon="11.320219254231027"><ele>251.8</ele><time>2026-04-26T17:04:46.997Z</time></trkpt><trkpt lat="43.58324607684659" lon="11.320062436160404"><ele>252.0</ele><time>2026-04-26T17:04:48.997Z</time></trkpt><trkpt lat="43.583216976763026" lon="11.319951010726179"><ele>252.0</ele><time>2026-04-26T17:04:50.997Z</time></trkpt><trkpt lat="43.58314057019775" lon="11.320125223388505"><ele>252.0</ele><time>2026-04-26T17:04:57.997Z</time></trkpt><trkpt lat="43.583176779183354" lon="11.320289036475543"><ele>252.0</ele><time>2026-04-26T17:04:58.997Z</time></trkpt><trkpt lat="43.583188702104714" lon="11.320425702977117"><ele>252.0</ele><time>2026-04-26T17:04:59.997Z</time></trkpt><trkpt lat="43.58319443259164" lon="11.320565902809522"><ele>251.8</ele><time>2026-04-26T17:05:00.997Z</time></trkpt><trkpt lat="43.58320857811431" lon="11.320710155925218"><ele>251.6</ele><time>2026-04-26T17:05:01.997Z</time></trkpt><trkpt lat="43.583224909840965" lon="11.320861422128072"><ele>251.40000000000003</ele><time>2026-04-26T17:05:02.997Z</time></trkpt><trkpt lat="43.583239304309785" lon="11.32101022986808"><ele>251.20000000000002</ele><time>2026-04-26T17:05:03.997Z</time></trkpt><trkpt lat="43.583256694706996" lon="11.32114343838692"><ele>251.0</ele><time>2026-04-26T17:05:04.997Z</time></trkpt><trkpt lat="43.58325680997472" lon="11.321265686787887"><ele>251.0</ele><time>2026-04-26T17:05:05.997Z</time></trkpt><trkpt lat="43.58328526113926" lon="11.321382610969891"><ele>251.00000000000003</ele><time>2026-04-26T17:05:06.997Z</time></trkpt><trkpt lat="43.583294020106095" lon="11.321512429030228"><ele>251.00000000000003</ele><time>2026-04-26T17:05:07.997Z</time></trkpt><trkpt lat="43.58331178162273" lon="11.321647954266538"><ele>251.0</ele><time>2026-04-26T17:05:08.997Z</time></trkpt><trkpt lat="43.58332564765371" lon="11.32178590313955"><ele>251.0</ele><time>2026-04-26T17:05:09.997Z</time></trkpt><trkpt lat="43.58333569769414" lon="11.321926946284748"><ele>251.0</ele><time>2026-04-26T17:05:10.997Z</time></trkpt><trkpt lat="43.58334412327055" lon="11.322063673388746"><ele>251.00000000000003</ele><time>2026-04-26T17:05:11.997Z</time></trkpt><trkpt lat="43.58336574019863" lon="11.322210115255196"><ele>251.00000000000003</ele><time>2026-04-26T17:05:12.997Z</time></trkpt><trkpt lat="43.583379129060674" lon="11.322357997901374"><ele>251.0</ele><time>2026-04-26T17:05:14Z</time></trkpt><trkpt lat="43.58339508459241" lon="11.322507479633991"><ele>251.0</ele><time>2026-04-26T17:05:15Z</time></trkpt><trkpt lat="43.5834080067699" lon="11.322654496004102"><ele>251.0</ele><time>2026-04-26T17:05:16Z</time></trkpt><trkpt lat="43.58342400950422" lon="11.322794544473544"><ele>251.00000000000003</ele><time>2026-04-26T17:05:17Z</time></trkpt><trkpt lat="43.583435532455034" lon="11.322942605791104"><ele>251.00000000000003</ele><time>2026-04-26T17:05:18Z</time></trkpt><trkpt lat="43.58344736392079" lon="11.323081431710147"><ele>251.0</ele><time>2026-04-26T17:05:19Z</time></trkpt><trkpt lat="43.58345897678698" lon="11.323229314864871"><ele>251.0</ele><time>2026-04-26T17:05:20Z</time></trkpt><trkpt lat="43.58347546028528" lon="11.32336764883865"><ele>251.0</ele><time>2026-04-26T17:05:21Z</time></trkpt><trkpt lat="43.583488160061144" lon="11.323512545877488"><ele>251.00000000000003</ele><time>2026-04-26T17:05:22Z</time></trkpt><trkpt lat="43.583502588133335" lon="11.323651269732643"><ele>251.00000000000003</ele><time>2026-04-26T17:05:23Z</time></trkpt><trkpt lat="43.583508999021255" lon="11.32379545578167"><ele>251.0</ele><time>2026-04-26T17:05:24Z</time></trkpt><trkpt lat="43.583522291840744" lon="11.323935469528063"><ele>251.0</ele><time>2026-04-26T17:05:25Z</time></trkpt><trkpt lat="43.583535520688585" lon="11.324068676071873"><ele>251.8</ele><time>2026-04-26T17:05:26Z</time></trkpt><trkpt lat="43.58354755514055" lon="11.324213077053274"><ele>252.60000000000002</ele><time>2026-04-26T17:05:27Z</time></trkpt><trkpt lat="43.58356556381295" lon="11.324343473360603"><ele>253.4</ele><time>2026-04-26T17:05:28Z</time></trkpt><trkpt lat="43.58357848122729" lon="11.32447810033047"><ele>254.2</ele><time>2026-04-26T17:05:29Z</time></trkpt><trkpt lat="43.58359056495758" lon="11.324609599092598"><ele>255.0</ele><time>2026-04-26T17:05:30Z</time></trkpt><trkpt lat="43.58360232060603" lon="11.324752636720122"><ele>255.8</ele><time>2026-04-26T17:05:31Z</time></trkpt><trkpt lat="43.58361562231687" lon="11.324885871376894"><ele>256.6</ele><time>2026-04-26T17:05:32Z</time></trkpt><trkpt lat="43.5836310744179" lon="11.325026784615936"><ele>257.4</ele><time>2026-04-26T17:05:33Z</time></trkpt><trkpt lat="43.583645698548196" lon="11.325159865056722"><ele>258.2</ele><time>2026-04-26T17:05:34Z</time></trkpt><trkpt lat="43.58365682185111" lon="11.325288667269952"><ele>259.0</ele><time>2026-04-26T17:05:35Z</time></trkpt><trkpt lat="43.58367065963125" lon="11.325402216796235"><ele>259.0</ele><time>2026-04-26T17:05:36Z</time></trkpt><trkpt lat="43.58367417654318" lon="11.325502932237306"><ele>259.0</ele><time>2026-04-26T17:05:37Z</time></trkpt><trkpt lat="43.58368670160503" lon="11.325651988452238"><ele>259.0</ele><time>2026-04-26T17:05:39Z</time></trkpt><trkpt lat="43.58363004464487" lon="11.325704789741142"><ele>259.0</ele><time>2026-04-26T17:05:42Z</time></trkpt><trkpt lat="43.583587521302334" lon="11.325639923002601"><ele>259.0</ele><time>2026-04-26T17:05:44Z</time></trkpt><trkpt lat="43.583509223915435" lon="11.325609805983719"><ele>259.0</ele><time>2026-04-26T17:05:46Z</time></trkpt><trkpt lat="43.583453864126504" lon="11.32556333995974"><ele>259.0</ele><time>2026-04-26T17:05:47Z</time></trkpt><trkpt lat="43.583410106341724" lon="11.325495452301258"><ele>259.0</ele><time>2026-04-26T17:05:48Z</time></trkpt><trkpt lat="43.58336701596394" lon="11.325426611316415"><ele>259.0</ele><time>2026-04-26T17:05:49Z</time></trkpt><trkpt lat="43.583274191796015" lon="11.325317708688647"><ele>259.0</ele><time>2026-04-26T17:05:51Z</time></trkpt><trkpt lat="43.58322402093182" lon="11.32526516459879"><ele>259.0</ele><time>2026-04-26T17:05:52Z</time></trkpt><trkpt lat="43.58316828260077" lon="11.32521842962609"><ele>259.0</ele><time>2026-04-26T17:05:53Z</time></trkpt><trkpt lat="43.583064238790335" lon="11.325162197203257"><ele>259.0</ele><time>2026-04-26T17:05:55Z</time></trkpt><trkpt lat="43.58295257340167" lon="11.325118516840737"><ele>259.0</ele><time>2026-04-26T17:05:57Z</time></trkpt><trkpt lat="43.5828534441641" lon="11.325054578865869"><ele>259.0</ele><time>2026-04-26T17:05:58.999Z</time></trkpt><trkpt lat="43.58276533254789" lon="11.324960232283281"><ele>259.0</ele><time>2026-04-26T17:06:00.999Z</time></trkpt><trkpt lat="43.58265492697385" lon="11.324897454816835"><ele>261.3333333333333</ele><time>2026-04-26T17:06:02.999Z</time></trkpt><trkpt lat="43.582566786905716" lon="11.324881897307602"><ele>263.66666666666663</ele><time>2026-04-26T17:06:03.999Z</time></trkpt><trkpt lat="43.5824709693644" lon="11.324858246477868"><ele>266.0</ele><time>2026-04-26T17:06:04.999Z</time></trkpt><trkpt lat="43.5823858325732" lon="11.32483296679299"><ele>268.3333333333333</ele><time>2026-04-26T17:06:05.999Z</time></trkpt><trkpt lat="43.58231736406499" lon="11.324814975690671"><ele>270.6666666666667</ele><time>2026-04-26T17:06:06.999Z</time></trkpt><trkpt lat="43.58225029450053" lon="11.324796189614876"><ele>273.0</ele><time>2026-04-26T17:06:07.999Z</time></trkpt><trkpt lat="43.582187426919205" lon="11.324777602849004"><ele>273.0</ele><time>2026-04-26T17:06:08.999Z</time></trkpt><trkpt lat="43.5820836436439" lon="11.324795666879412"><ele>273.0</ele><time>2026-04-26T17:06:10.999Z</time></trkpt><trkpt lat="43.582011263225354" lon="11.324837495592234"><ele>273.0</ele><time>2026-04-26T17:06:12.999Z</time></trkpt><trkpt lat="43.58190566846855" lon="11.324882248601646"><ele>273.0</ele><time>2026-04-26T17:06:14.999Z</time></trkpt><trkpt lat="43.58179903205982" lon="11.324928941678797"><ele>273.0</ele><time>2026-04-26T17:06:16.999Z</time></trkpt><trkpt lat="43.58169123317348" lon="11.324989622264054"><ele>274.6</ele><time>2026-04-26T17:06:18.999Z</time></trkpt><trkpt lat="43.58159098669983" lon="11.325041995658388"><ele>276.20000000000005</ele><time>2026-04-26T17:06:20.999Z</time></trkpt><trkpt lat="43.581524735047175" lon="11.325063573532997"><ele>277.8</ele><time>2026-04-26T17:06:21.999Z</time></trkpt><trkpt lat="43.58141341760607" lon="11.32512923993115"><ele>279.40000000000003</ele><time>2026-04-26T17:06:23.999Z</time></trkpt><trkpt lat="43.58128618582274" lon="11.325183438357657"><ele>281.0</ele><time>2026-04-26T17:06:25.999Z</time></trkpt><trkpt lat="43.58118195893529" lon="11.325219724258712"><ele>283.1666666666667</ele><time>2026-04-26T17:06:27.999Z</time></trkpt><trkpt lat="43.58106065812661" lon="11.325275216872564"><ele>285.33333333333337</ele><time>2026-04-26T17:06:29.999Z</time></trkpt><trkpt lat="43.580999772188825" lon="11.325305696906762"><ele>287.5</ele><time>2026-04-26T17:06:30.999Z</time></trkpt><trkpt lat="43.58093452372275" lon="11.32534179268344"><ele>289.6666666666667</ele><time>2026-04-26T17:06:31.999Z</time></trkpt><trkpt lat="43.58086669985338" lon="11.325381786060298"><ele>291.8333333333333</ele><time>2026-04-26T17:06:32.999Z</time></trkpt><trkpt lat="43.58079969631961" lon="11.325421491234007"><ele>294.0</ele><time>2026-04-26T17:06:33.999Z</time></trkpt><trkpt lat="43.58072776539016" lon="11.325453054879016"><ele>294.0</ele><time>2026-04-26T17:06:34.999Z</time></trkpt><trkpt lat="43.58066021263967" lon="11.325489526263553"><ele>294.0</ele><time>2026-04-26T17:06:35.999Z</time></trkpt><trkpt lat="43.58057649786515" lon="11.32552003873358"><ele>294.0</ele><time>2026-04-26T17:06:37.999Z</time></trkpt><trkpt lat="43.58049676251578" lon="11.325413166485278"><ele>294.0</ele><time>2026-04-26T17:06:39.999Z</time></trkpt><trkpt lat="43.58041987920578" lon="11.32531565201088"><ele>294.0</ele><time>2026-04-26T17:06:41.999Z</time></trkpt><trkpt lat="43.58034816104255" lon="11.325312584084221"><ele>294.0</ele><time>2026-04-26T17:06:44.999Z</time></trkpt><trkpt lat="43.58028241607575" lon="11.325300844938608"><ele>296.1666666666667</ele><time>2026-04-26T17:06:46.999Z</time></trkpt><trkpt lat="43.580195970943045" lon="11.325345536125193"><ele>298.3333333333333</ele><time>2026-04-26T17:06:49.999Z</time></trkpt><trkpt lat="43.580116724591896" lon="11.325403394760157"><ele>300.5</ele><time>2026-04-26T17:06:52.999Z</time></trkpt><trkpt lat="43.58006867528268" lon="11.325487848384101"><ele>302.66666666666663</ele><time>2026-04-26T17:06:54.999Z</time></trkpt><trkpt lat="43.58002239481433" lon="11.325556807301592"><ele>304.8333333333333</ele><time>2026-04-26T17:06:56.999Z</time></trkpt><trkpt lat="43.57995461304854" lon="11.325612818492859"><ele>307.0</ele><time>2026-04-26T17:06:58.999Z</time></trkpt><trkpt lat="43.579882973365685" lon="11.325657428151679"><ele>307.0</ele><time>2026-04-26T17:07:01.999Z</time></trkpt><trkpt lat="43.57982936072037" lon="11.3255858895716"><ele>307.0</ele><time>2026-04-26T17:07:04.999Z</time></trkpt><trkpt lat="43.57977507458113" lon="11.325539611124796"><ele>307.0</ele><time>2026-04-26T17:07:15.999Z</time></trkpt><trkpt lat="43.57970481628425" lon="11.325460325000732"><ele>307.0</ele><time>2026-04-26T17:07:20Z</time></trkpt><trkpt lat="43.57968128440316" lon="11.325303242878325"><ele>307.0</ele><time>2026-04-26T17:07:22Z</time></trkpt><trkpt lat="43.57966072217567" lon="11.325185296141951"><ele>307.0</ele><time>2026-04-26T17:07:23Z</time></trkpt><trkpt lat="43.57963160091063" lon="11.325049222431236"><ele>307.0</ele><time>2026-04-26T17:07:24Z</time></trkpt><trkpt lat="43.57958267157092" lon="11.324864276264531"><ele>307.0</ele><time>2026-04-26T17:07:25Z</time></trkpt><trkpt lat="43.57954382235904" lon="11.324687536025616"><ele>307.0</ele><time>2026-04-26T17:07:26Z</time></trkpt><trkpt lat="43.57952285119062" lon="11.324534859473152"><ele>307.0</ele><time>2026-04-26T17:07:27Z</time></trkpt><trkpt lat="43.57951450713436" lon="11.32439642043493"><ele>305.4</ele><time>2026-04-26T17:07:28Z</time></trkpt><trkpt lat="43.579522790523136" lon="11.324251792716653"><ele>303.79999999999995</ele><time>2026-04-26T17:07:29Z</time></trkpt><trkpt lat="43.579551621975675" lon="11.324097405187311"><ele>302.2</ele><time>2026-04-26T17:07:30Z</time></trkpt><trkpt lat="43.57960111401636" lon="11.323948173428695"><ele>300.59999999999997</ele><time>2026-04-26T17:07:31Z</time></trkpt><trkpt lat="43.57963653201214" lon="11.323808621768997"><ele>299.0</ele><time>2026-04-26T17:07:32Z</time></trkpt><trkpt lat="43.57964236313482" lon="11.323669153770762"><ele>298.2</ele><time>2026-04-26T17:07:33Z</time></trkpt><trkpt lat="43.57961707872037" lon="11.323531050566363"><ele>297.4</ele><time>2026-04-26T17:07:34Z</time></trkpt><trkpt lat="43.57959459506703" lon="11.323394227165297"><ele>296.6</ele><time>2026-04-26T17:07:35Z</time></trkpt><trkpt lat="43.57959605850108" lon="11.323251925174695"><ele>295.8</ele><time>2026-04-26T17:07:36Z</time></trkpt><trkpt lat="43.57963143612814" lon="11.323113098233033"><ele>295.0</ele><time>2026-04-26T17:07:37Z</time></trkpt><trkpt lat="43.57968982339625" lon="11.32298710783725"><ele>294.2</ele><time>2026-04-26T17:07:38Z</time></trkpt><trkpt lat="43.57974852908973" lon="11.322852260106835"><ele>293.4</ele><time>2026-04-26T17:07:39Z</time></trkpt><trkpt lat="43.57980541488786" lon="11.322714130954923"><ele>292.6</ele><time>2026-04-26T17:07:40Z</time></trkpt><trkpt lat="43.57985387705227" lon="11.322586822717897"><ele>291.8</ele><time>2026-04-26T17:07:41Z</time></trkpt><trkpt lat="43.57989637407985" lon="11.32247733193865"><ele>291.0</ele><time>2026-04-26T17:07:42Z</time></trkpt><trkpt lat="43.579931673636054" lon="11.32238173861694"><ele>291.0</ele><time>2026-04-26T17:07:43Z</time></trkpt><trkpt lat="43.579958902326496" lon="11.322286616617745"><ele>291.0</ele><time>2026-04-26T17:07:44Z</time></trkpt><trkpt lat="43.57998808746987" lon="11.322192606982938"><ele>291.0</ele><time>2026-04-26T17:07:45Z</time></trkpt><trkpt lat="43.57995072707498" lon="11.32207647897576"><ele>291.0</ele><time>2026-04-26T17:07:46Z</time></trkpt><trkpt lat="43.57987675881099" lon="11.322009034796437"><ele>291.0</ele><time>2026-04-26T17:07:47Z</time></trkpt><trkpt lat="43.579785670352194" lon="11.321997977294101"><ele>291.0</ele><time>2026-04-26T17:07:48Z</time></trkpt><trkpt lat="43.579693404554725" lon="11.322030313118395"><ele>289.3333333333333</ele><time>2026-04-26T17:07:49Z</time></trkpt><trkpt lat="43.57960491266792" lon="11.322097341694143"><ele>287.6666666666667</ele><time>2026-04-26T17:07:50Z</time></trkpt><trkpt lat="43.57953167488523" lon="11.322153085508232"><ele>286.0</ele><time>2026-04-26T17:07:51Z</time></trkpt><trkpt lat="43.579453786905916" lon="11.322150546888992"><ele>284.33333333333337</ele><time>2026-04-26T17:07:52Z</time></trkpt><trkpt lat="43.57939371961562" lon="11.322073959302264"><ele>282.6666666666667</ele><time>2026-04-26T17:07:53Z</time></trkpt><trkpt lat="43.57937116406077" lon="11.32195640193578"><ele>281.0</ele><time>2026-04-26T17:07:54Z</time></trkpt><trkpt lat="43.57940233306788" lon="11.321843092388807"><ele>281.0</ele><time>2026-04-26T17:07:55Z</time></trkpt><trkpt lat="43.579479679753106" lon="11.321770509710955"><ele>281.0</ele><time>2026-04-26T17:07:56Z</time></trkpt><trkpt lat="43.57957042834381" lon="11.321725631626025"><ele>281.0</ele><time>2026-04-26T17:07:57Z</time></trkpt><trkpt lat="43.57967303057519" lon="11.32168893028848"><ele>281.0</ele><time>2026-04-26T17:07:58Z</time></trkpt><trkpt lat="43.57977657557507" lon="11.321635020813368"><ele>281.0</ele><time>2026-04-26T17:07:59Z</time></trkpt><trkpt lat="43.579864905882346" lon="11.321566921179135"><ele>281.0</ele><time>2026-04-26T17:08:00Z</time></trkpt><trkpt lat="43.57993600933843" lon="11.321477264389664"><ele>281.0</ele><time>2026-04-26T17:08:01Z</time></trkpt><trkpt lat="43.58000736811169" lon="11.321380268211328"><ele>281.0</ele><time>2026-04-26T17:08:02Z</time></trkpt><trkpt lat="43.58005419691644" lon="11.321269337901109"><ele>281.0</ele><time>2026-04-26T17:08:03Z</time></trkpt><trkpt lat="43.58009114411777" lon="11.321162465069916"><ele>281.0</ele><time>2026-04-26T17:08:04Z</time></trkpt><trkpt lat="43.58012803042739" lon="11.321056781963966"><ele>279.33333333333337</ele><time>2026-04-26T17:08:05Z</time></trkpt><trkpt lat="43.58016678466788" lon="11.320952008715897"><ele>277.6666666666667</ele><time>2026-04-26T17:08:06Z</time></trkpt><trkpt lat="43.580195861479034" lon="11.320840918950985"><ele>276.0</ele><time>2026-04-26T17:08:06.999Z</time></trkpt><trkpt lat="43.58027402552557" lon="11.32077767839474"><ele>274.3333333333333</ele><time>2026-04-26T17:08:07.999Z</time></trkpt><trkpt lat="43.580364367528674" lon="11.320776589281042"><ele>272.66666666666663</ele><time>2026-04-26T17:08:08.999Z</time></trkpt><trkpt lat="43.5804524563519" lon="11.320756892305868"><ele>271.0</ele><time>2026-04-26T17:08:09.999Z</time></trkpt><trkpt lat="43.58051949589752" lon="11.320786734419727"><ele>271.0</ele><time>2026-04-26T17:08:10.999Z</time></trkpt><trkpt lat="43.580600112445346" lon="11.32081097784349"><ele>271.0</ele><time>2026-04-26T17:08:11.999Z</time></trkpt><trkpt lat="43.58066409144005" lon="11.320825836345426"><ele>271.0</ele><time>2026-04-26T17:08:12.999Z</time></trkpt><trkpt lat="43.58074022616032" lon="11.32082710416242"><ele>271.0</ele><time>2026-04-26T17:08:13.999Z</time></trkpt><trkpt lat="43.580801506568655" lon="11.32079907532112"><ele>271.0</ele><time>2026-04-26T17:08:14.999Z</time></trkpt><trkpt lat="43.58085956067302" lon="11.320726445288757"><ele>271.0</ele><time>2026-04-26T17:08:15.999Z</time></trkpt><trkpt lat="43.58088128872107" lon="11.32060236873892"><ele>268.40000000000003</ele><time>2026-04-26T17:08:16.999Z</time></trkpt><trkpt lat="43.58085207307979" lon="11.320500808936258"><ele>265.8</ele><time>2026-04-26T17:08:17.999Z</time></trkpt><trkpt lat="43.58080357776055" lon="11.320414295787723"><ele>263.20000000000005</ele><time>2026-04-26T17:08:18.999Z</time></trkpt><trkpt lat="43.58071762187554" lon="11.320350487735348"><ele>260.6</ele><time>2026-04-26T17:08:19.999Z</time></trkpt><trkpt lat="43.58062418052695" lon="11.320355544690502"><ele>258.0</ele><time>2026-04-26T17:08:20.999Z</time></trkpt><trkpt lat="43.58051802453693" lon="11.320354854296367"><ele>258.0</ele><time>2026-04-26T17:08:21.999Z</time></trkpt><trkpt lat="43.58040665986413" lon="11.320352657497388"><ele>258.0</ele><time>2026-04-26T17:08:22.999Z</time></trkpt><trkpt lat="43.580300143376604" lon="11.320332347932094"><ele>258.0</ele><time>2026-04-26T17:08:23.999Z</time></trkpt><trkpt lat="43.58020231599415" lon="11.320269335597317"><ele>258.0</ele><time>2026-04-26T17:08:24.999Z</time></trkpt><trkpt lat="43.580113212139885" lon="11.32020578973135"><ele>258.0</ele><time>2026-04-26T17:08:25.999Z</time></trkpt><trkpt lat="43.580030243942325" lon="11.320129112896565"><ele>258.1666666666667</ele><time>2026-04-26T17:08:26.999Z</time></trkpt><trkpt lat="43.579949238195724" lon="11.320049744381409"><ele>258.3333333333333</ele><time>2026-04-26T17:08:27.999Z</time></trkpt><trkpt lat="43.579874267253096" lon="11.319969961104645"><ele>258.5</ele><time>2026-04-26T17:08:28.999Z</time></trkpt><trkpt lat="43.579812925802464" lon="11.319897389551295"><ele>258.66666666666663</ele><time>2026-04-26T17:08:29.999Z</time></trkpt><trkpt lat="43.5797557723244" lon="11.319828320645446"><ele>258.8333333333333</ele><time>2026-04-26T17:08:30.999Z</time></trkpt><trkpt lat="43.57974007356957" lon="11.319710708360368"><ele>259.0</ele><time>2026-04-26T17:08:31.999Z</time></trkpt><trkpt lat="43.579777879472225" lon="11.319591159615266"><ele>257.3333333333333</ele><time>2026-04-26T17:08:32.999Z</time></trkpt><trkpt lat="43.579783569706244" lon="11.319463662378444"><ele>255.66666666666666</ele><time>2026-04-26T17:08:33.999Z</time></trkpt><trkpt lat="43.5798035364709" lon="11.319353837693845"><ele>254.0</ele><time>2026-04-26T17:08:34.999Z</time></trkpt><trkpt lat="43.579826163185466" lon="11.319243814780485"><ele>252.33333333333331</ele><time>2026-04-26T17:08:35.999Z</time></trkpt><trkpt lat="43.579851031274515" lon="11.319136674659067"><ele>250.66666666666666</ele><time>2026-04-26T17:08:36.999Z</time></trkpt><trkpt lat="43.57989777960683" lon="11.31905703407525"><ele>249.0</ele><time>2026-04-26T17:08:37.999Z</time></trkpt><trkpt lat="43.57997342258654" lon="11.319013436057721"><ele>249.0</ele><time>2026-04-26T17:08:38.999Z</time></trkpt><trkpt lat="43.5800735556777" lon="11.319038554782708"><ele>249.0</ele><time>2026-04-26T17:08:39.999Z</time></trkpt><trkpt lat="43.580186097931616" lon="11.319008549895283"><ele>249.0</ele><time>2026-04-26T17:08:40.999Z</time></trkpt><trkpt lat="43.580314909781734" lon="11.318995387635237"><ele>249.0</ele><time>2026-04-26T17:08:41.999Z</time></trkpt><trkpt lat="43.58045683585115" lon="11.318986439286402"><ele>247.79999999999998</ele><time>2026-04-26T17:08:42.999Z</time></trkpt><trkpt lat="43.580575611438924" lon="11.318971326344261"><ele>246.59999999999997</ele><time>2026-04-26T17:08:43.999Z</time></trkpt><trkpt lat="43.58065762165416" lon="11.318974144490696"><ele>245.4</ele><time>2026-04-26T17:08:44.999Z</time></trkpt><trkpt lat="43.58074619145697" lon="11.318976148485323"><ele>244.2</ele><time>2026-04-26T17:08:46.999Z</time></trkpt><trkpt lat="43.58072563699949" lon="11.318861448066853"><ele>243.0</ele><time>2026-04-26T17:08:52.999Z</time></trkpt><trkpt lat="43.58064409393192" lon="11.318605305261345"><ele>241.66666666666669</ele><time>2026-04-26T17:08:53.999Z</time></trkpt><trkpt lat="43.58048254246737" lon="11.318470322702577"><ele>240.33333333333334</ele><time>2026-04-26T17:08:54.999Z</time></trkpt><trkpt lat="43.58035354742931" lon="11.318398056324277"><ele>239.0</ele><time>2026-04-26T17:08:55.999Z</time></trkpt><trkpt lat="43.58021374281693" lon="11.31831979064663"><ele>239.0</ele><time>2026-04-26T17:08:56.999Z</time></trkpt><trkpt lat="43.58006260162739" lon="11.318242486116345"><ele>239.0</ele><time>2026-04-26T17:08:57.999Z</time></trkpt><trkpt lat="43.57993809907897" lon="11.318187048608518"><ele>239.0</ele><time>2026-04-26T17:08:58.999Z</time></trkpt><trkpt lat="43.57973431935627" lon="11.31847536294016"><ele>239.0</ele><time>2026-04-26T17:08:59.999Z</time></trkpt><trkpt lat="43.57960612767211" lon="11.318460044814557"><ele>239.0</ele><time>2026-04-26T17:09:00.999Z</time></trkpt><trkpt lat="43.579472354499984" lon="11.318457854593147"><ele>239.0</ele><time>2026-04-26T17:09:01.999Z</time></trkpt><trkpt lat="43.57934068005603" lon="11.318450697139264"><ele>239.0</ele><time>2026-04-26T17:09:02.999Z</time></trkpt><trkpt lat="43.57921305149328" lon="11.318440766366953"><ele>239.75</ele><time>2026-04-26T17:09:03.999Z</time></trkpt><trkpt lat="43.57909559024613" lon="11.31843023990693"><ele>240.5</ele><time>2026-04-26T17:09:04.999Z</time></trkpt><trkpt lat="43.57897713033148" lon="11.318419499898585"><ele>241.25</ele><time>2026-04-26T17:09:05.999Z</time></trkpt><trkpt lat="43.5788657303677" lon="11.318413995719556"><ele>242.0</ele><time>2026-04-26T17:09:06.999Z</time></trkpt><trkpt lat="43.57875820392385" lon="11.318407806572585"><ele>241.6</ele><time>2026-04-26T17:09:07.999Z</time></trkpt><trkpt lat="43.57866083549314" lon="11.318412692776104"><ele>241.2</ele><time>2026-04-26T17:09:08.999Z</time></trkpt><trkpt lat="43.57856997100458" lon="11.318457764248109"><ele>240.8</ele><time>2026-04-26T17:09:09.999Z</time></trkpt><trkpt lat="43.57848561062841" lon="11.318542335873905"><ele>240.4</ele><time>2026-04-26T17:09:10.999Z</time></trkpt><trkpt lat="43.57840665178929" lon="11.318647033228897"><ele>240.0</ele><time>2026-04-26T17:09:11.999Z</time></trkpt><trkpt lat="43.5783324175414" lon="11.318757780831271"><ele>240.0</ele><time>2026-04-26T17:09:12.999Z</time></trkpt><trkpt lat="43.578260707692955" lon="11.318865966170643"><ele>240.0</ele><time>2026-04-26T17:09:13.999Z</time></trkpt><trkpt lat="43.57819270160725" lon="11.318977435197207"><ele>240.0</ele><time>2026-04-26T17:09:14.999Z</time></trkpt><trkpt lat="43.578128359161305" lon="11.319091673358963"><ele>240.0</ele><time>2026-04-26T17:09:15.999Z</time></trkpt><trkpt lat="43.57806442925234" lon="11.31921341600629"><ele>240.0</ele><time>2026-04-26T17:09:16.999Z</time></trkpt><trkpt lat="43.5780027658339" lon="11.319332698508008"><ele>239.8</ele><time>2026-04-26T17:09:17.999Z</time></trkpt><trkpt lat="43.57794808885113" lon="11.319453414459781"><ele>239.6</ele><time>2026-04-26T17:09:18.999Z</time></trkpt><trkpt lat="43.577876978723125" lon="11.319558722051058"><ele>239.39999999999998</ele><time>2026-04-26T17:09:19.999Z</time></trkpt><trkpt lat="43.577816890684666" lon="11.319685527960825"><ele>239.2</ele><time>2026-04-26T17:09:20.999Z</time></trkpt><trkpt lat="43.57776046822524" lon="11.319808495625526"><ele>239.0</ele><time>2026-04-26T17:09:21.999Z</time></trkpt><trkpt lat="43.57770213323285" lon="11.31991757557995"><ele>240.0</ele><time>2026-04-26T17:09:22.999Z</time></trkpt><trkpt lat="43.57763111868727" lon="11.319987710064417"><ele>240.99999999999997</ele><time>2026-04-26T17:09:23.999Z</time></trkpt><trkpt lat="43.57755046913404" lon="11.320027306166558"><ele>241.99999999999997</ele><time>2026-04-26T17:09:24.999Z</time></trkpt><trkpt lat="43.577455348889366" lon="11.320050047374732"><ele>243.0</ele><time>2026-04-26T17:09:26Z</time></trkpt><trkpt lat="43.577361270040164" lon="11.32008780170781"><ele>244.0</ele><time>2026-04-26T17:09:27Z</time></trkpt><trkpt lat="43.57726626695758" lon="11.320096465532972"><ele>243.99999999999997</ele><time>2026-04-26T17:09:28Z</time></trkpt><trkpt lat="43.57717134180258" lon="11.320125764352714"><ele>244.0</ele><time>2026-04-26T17:09:29Z</time></trkpt><trkpt lat="43.57707934305487" lon="11.320140518608193"><ele>244.0</ele><time>2026-04-26T17:09:30Z</time></trkpt><trkpt lat="43.57698950813724" lon="11.320142026346"><ele>244.0</ele><time>2026-04-26T17:09:31Z</time></trkpt><trkpt lat="43.576906662114325" lon="11.320157822335242"><ele>243.99999999999997</ele><time>2026-04-26T17:09:32Z</time></trkpt><trkpt lat="43.576825672839135" lon="11.320173264346696"><ele>244.0</ele><time>2026-04-26T17:09:33Z</time></trkpt><trkpt lat="43.576754724883706" lon="11.320186791840305"><ele>243.6</ele><time>2026-04-26T17:09:34Z</time></trkpt><trkpt lat="43.576648323192444" lon="11.32019527023486"><ele>243.2</ele><time>2026-04-26T17:09:36Z</time></trkpt><trkpt lat="43.57658344287354" lon="11.319947781361856"><ele>242.79999999999998</ele><time>2026-04-26T17:09:39Z</time></trkpt><trkpt lat="43.57657686859746" lon="11.319844254369315"><ele>242.39999999999998</ele><time>2026-04-26T17:09:40Z</time></trkpt><trkpt lat="43.576566957754586" lon="11.31974955717673"><ele>242.0</ele><time>2026-04-26T17:09:41Z</time></trkpt><trkpt lat="43.57655937366746" lon="11.319605338779844"><ele>241.33333333333334</ele><time>2026-04-26T17:09:43Z</time></trkpt><trkpt lat="43.57653728179103" lon="11.3195133494985"><ele>240.66666666666669</ele><time>2026-04-26T17:09:45Z</time></trkpt><trkpt lat="43.57643575182354" lon="11.319433971684616"><ele>240.0</ele><time>2026-04-26T17:09:47Z</time></trkpt><trkpt lat="43.576366100868036" lon="11.319428789104974"><ele>239.33333333333331</ele><time>2026-04-26T17:09:48Z</time></trkpt><trkpt lat="43.57629937479504" lon="11.319450325996788"><ele>238.66666666666666</ele><time>2026-04-26T17:09:49Z</time></trkpt><trkpt lat="43.576222345572965" lon="11.319481881154516"><ele>238.0</ele><time>2026-04-26T17:09:50Z</time></trkpt><trkpt lat="43.5761029379488" lon="11.319562636195629"><ele>237.99999999999997</ele><time>2026-04-26T17:09:52Z</time></trkpt><trkpt lat="43.57603513130461" lon="11.319662944435652"><ele>238.0</ele><time>2026-04-26T17:09:53Z</time></trkpt><trkpt lat="43.575983997363906" lon="11.319756513590306"><ele>238.0</ele><time>2026-04-26T17:09:54Z</time></trkpt><trkpt lat="43.575915281785086" lon="11.31985397436851"><ele>238.0</ele><time>2026-04-26T17:09:55Z</time></trkpt><trkpt lat="43.575846374882744" lon="11.319896586596114"><ele>237.99999999999997</ele><time>2026-04-26T17:09:56Z</time></trkpt><trkpt lat="43.57577099858614" lon="11.319893848966709"><ele>238.0</ele><time>2026-04-26T17:09:57Z</time></trkpt><trkpt lat="43.575687612299504" lon="11.319859394596312"><ele>238.16666666666666</ele><time>2026-04-26T17:09:58Z</time></trkpt><trkpt lat="43.575596623846835" lon="11.319815828588027"><ele>238.33333333333331</ele><time>2026-04-26T17:09:59Z</time></trkpt><trkpt lat="43.57549426952759" lon="11.319782353794304"><ele>238.5</ele><time>2026-04-26T17:10:00Z</time></trkpt><trkpt lat="43.57541202238574" lon="11.319756966612614"><ele>238.66666666666669</ele><time>2026-04-26T17:10:01Z</time></trkpt><trkpt lat="43.57533752910128" lon="11.319728861642764"><ele>238.83333333333334</ele><time>2026-04-26T17:10:02Z</time></trkpt><trkpt lat="43.575263663034114" lon="11.319702345780037"><ele>239.0</ele><time>2026-04-26T17:10:03Z</time></trkpt><trkpt lat="43.57518638705071" lon="11.3196763018927"><ele>239.0</ele><time>2026-04-26T17:10:04Z</time></trkpt><trkpt lat="43.57508970177936" lon="11.319612806827474"><ele>238.99999999999997</ele><time>2026-04-26T17:10:06Z</time></trkpt><trkpt lat="43.57502656957671" lon="11.319574095983356"><ele>238.99999999999997</ele><time>2026-04-26T17:10:07Z</time></trkpt><trkpt lat="43.57493504935245" lon="11.319552865170786"><ele>239.0</ele><time>2026-04-26T17:10:08Z</time></trkpt><trkpt lat="43.57484179329357" lon="11.319571096614464"><ele>239.0</ele><time>2026-04-26T17:10:09Z</time></trkpt><trkpt lat="43.57475514140739" lon="11.319618201638436"><ele>239.00000000000003</ele><time>2026-04-26T17:10:10Z</time></trkpt><trkpt lat="43.57468477144521" lon="11.319669425676647"><ele>239.0</ele><time>2026-04-26T17:10:11Z</time></trkpt><trkpt lat="43.57457998704098" lon="11.319727895029196"><ele>239.0</ele><time>2026-04-26T17:10:12.999Z</time></trkpt><trkpt lat="43.57451240877491" lon="11.319723017959873"><ele>239.0</ele><time>2026-04-26T17:10:13.999Z</time></trkpt><trkpt lat="43.57444112149949" lon="11.319717559069154"><ele>239.00000000000003</ele><time>2026-04-26T17:10:14.999Z</time></trkpt><trkpt lat="43.57437724732982" lon="11.319739149934918"><ele>239.0</ele><time>2026-04-26T17:10:15.999Z</time></trkpt><trkpt lat="43.57429825274269" lon="11.319786534755586"><ele>239.50000000000003</ele><time>2026-04-26T17:10:16.999Z</time></trkpt><trkpt lat="43.57422608379087" lon="11.319845609911313"><ele>240.0</ele><time>2026-04-26T17:10:17.999Z</time></trkpt><trkpt lat="43.574157848347554" lon="11.319872820773595"><ele>240.5</ele><time>2026-04-26T17:10:18.999Z</time></trkpt><trkpt lat="43.57408500046487" lon="11.3198877921167"><ele>241.0</ele><time>2026-04-26T17:10:19.999Z</time></trkpt><trkpt lat="43.57401867657909" lon="11.319933341397045"><ele>241.50000000000003</ele><time>2026-04-26T17:10:20.999Z</time></trkpt><trkpt lat="43.5739365316549" lon="11.319990920198116"><ele>242.0</ele><time>2026-04-26T17:10:21.999Z</time></trkpt><trkpt lat="43.57383261443945" lon="11.320038441140778"><ele>242.00000000000003</ele><time>2026-04-26T17:10:22.999Z</time></trkpt><trkpt lat="43.57374660634222" lon="11.320070794684229"><ele>242.0</ele><time>2026-04-26T17:10:23.999Z</time></trkpt><trkpt lat="43.573677860854424" lon="11.320131740061129"><ele>242.0</ele><time>2026-04-26T17:10:24.999Z</time></trkpt><trkpt lat="43.57361500321287" lon="11.320227012426084"><ele>242.0</ele><time>2026-04-26T17:10:25.999Z</time></trkpt><trkpt lat="43.57355930550855" lon="11.3203378155566"><ele>242.00000000000003</ele><time>2026-04-26T17:10:26.999Z</time></trkpt><trkpt lat="43.57351225187569" lon="11.320431268634518"><ele>242.0</ele><time>2026-04-26T17:10:27.999Z</time></trkpt><trkpt lat="43.573452121811876" lon="11.32050737361145"><ele>242.6</ele><time>2026-04-26T17:10:28.999Z</time></trkpt><trkpt lat="43.57337774109293" lon="11.32057958757306"><ele>243.2</ele><time>2026-04-26T17:10:29.999Z</time></trkpt><trkpt lat="43.573304127009244" lon="11.320640253884338"><ele>243.8</ele><time>2026-04-26T17:10:30.999Z</time></trkpt><trkpt lat="43.57322161242881" lon="11.320692646420818"><ele>244.4</ele><time>2026-04-26T17:10:31.999Z</time></trkpt><trkpt lat="43.57313360523461" lon="11.320752096212352"><ele>245.0</ele><time>2026-04-26T17:10:32.999Z</time></trkpt><trkpt lat="43.573047495899615" lon="11.320807123115072"><ele>245.00000000000003</ele><time>2026-04-26T17:10:33.999Z</time></trkpt><trkpt lat="43.57296802308895" lon="11.320849854978848"><ele>245.0</ele><time>2026-04-26T17:10:34.999Z</time></trkpt><trkpt lat="43.57288974988933" lon="11.320900918600925"><ele>245.0</ele><time>2026-04-26T17:10:35.999Z</time></trkpt><trkpt lat="43.57282224152891" lon="11.32094814554896"><ele>245.0</ele><time>2026-04-26T17:10:36.999Z</time></trkpt><trkpt lat="43.57274892004679" lon="11.321015465709603"><ele>245.00000000000003</ele><time>2026-04-26T17:10:37.999Z</time></trkpt><trkpt lat="43.572692184958065" lon="11.321090618919662"><ele>245.0</ele><time>2026-04-26T17:10:38.999Z</time></trkpt><trkpt lat="43.57263233393339" lon="11.321169204471902"><ele>244.50000000000003</ele><time>2026-04-26T17:10:39.999Z</time></trkpt><trkpt lat="43.57257017013717" lon="11.321231883500415"><ele>244.0</ele><time>2026-04-26T17:10:40.999Z</time></trkpt><trkpt lat="43.57251619185634" lon="11.32128436004254"><ele>243.5</ele><time>2026-04-26T17:10:41.999Z</time></trkpt><trkpt lat="43.572421532439684" lon="11.32135585385464"><ele>243.0</ele><time>2026-04-26T17:10:43.999Z</time></trkpt><trkpt lat="43.572320069669004" lon="11.321380382461268"><ele>242.50000000000003</ele><time>2026-04-26T17:10:45.999Z</time></trkpt><trkpt lat="43.572248630224564" lon="11.321382313479344"><ele>242.0</ele><time>2026-04-26T17:10:47.999Z</time></trkpt><trkpt lat="43.57215575130131" lon="11.321379377039628"><ele>242.0</ele><time>2026-04-26T17:13:06.999Z</time></trkpt><trkpt lat="43.57205671467476" lon="11.321352820429643"><ele>242.0</ele><time>2026-04-26T17:13:08.999Z</time></trkpt><trkpt lat="43.571995669482256" lon="11.321327397824922"><ele>242.0</ele><time>2026-04-26T17:13:09.999Z</time></trkpt><trkpt lat="43.57189296278182" lon="11.32129044468107"><ele>242.0</ele><time>2026-04-26T17:13:11.999Z</time></trkpt><trkpt lat="43.5718253857259" lon="11.32116608772423"><ele>242.0</ele><time>2026-04-26T17:13:13.999Z</time></trkpt><trkpt lat="43.571782764670075" lon="11.321060678425537"><ele>242.33333333333334</ele><time>2026-04-26T17:13:14.999Z</time></trkpt><trkpt lat="43.571717502080624" lon="11.320941418087719"><ele>242.66666666666669</ele><time>2026-04-26T17:13:15.999Z</time></trkpt><trkpt lat="43.57165748002205" lon="11.320855443078345"><ele>243.0</ele><time>2026-04-26T17:13:16.999Z</time></trkpt><trkpt lat="43.57160057309274" lon="11.32078216363045"><ele>243.33333333333331</ele><time>2026-04-26T17:13:17.999Z</time></trkpt><trkpt lat="43.57153097229142" lon="11.320717158125662"><ele>243.66666666666666</ele><time>2026-04-26T17:13:18.999Z</time></trkpt><trkpt lat="43.571464869763076" lon="11.320681488949583"><ele>244.0</ele><time>2026-04-26T17:13:19.999Z</time></trkpt><trkpt lat="43.57135275431655" lon="11.32070241680173"><ele>244.0</ele><time>2026-04-26T17:13:21.999Z</time></trkpt><trkpt lat="43.571273027440995" lon="11.320765710658135"><ele>243.99999999999997</ele><time>2026-04-26T17:13:23.999Z</time></trkpt><trkpt lat="43.57127878728457" lon="11.320639824723065"><ele>243.99999999999997</ele><time>2026-04-26T17:13:26.999Z</time></trkpt><trkpt lat="43.571414938194415" lon="11.320561399208547"><ele>244.0</ele><time>2026-04-26T17:13:28.999Z</time></trkpt><trkpt lat="43.571518341662475" lon="11.32049759739813"><ele>244.0</ele><time>2026-04-26T17:13:29.999Z</time></trkpt><trkpt lat="43.57163413233695" lon="11.320415194349343"><ele>245.2</ele><time>2026-04-26T17:13:30.999Z</time></trkpt><trkpt lat="43.57174478625408" lon="11.320343443757922"><ele>246.39999999999998</ele><time>2026-04-26T17:13:31.999Z</time></trkpt><trkpt lat="43.57182402283844" lon="11.320284391529942"><ele>247.6</ele><time>2026-04-26T17:13:32.999Z</time></trkpt><trkpt lat="43.57189546800681" lon="11.32022864944137"><ele>248.8</ele><time>2026-04-26T17:13:33.999Z</time></trkpt><trkpt lat="43.571961550146284" lon="11.320155233403964"><ele>250.0</ele><time>2026-04-26T17:13:34.999Z</time></trkpt><trkpt lat="43.572021871238285" lon="11.320065431337529"><ele>248.99999999999997</ele><time>2026-04-26T17:13:35.999Z</time></trkpt><trkpt lat="43.57208220859024" lon="11.320006723623024"><ele>248.0</ele><time>2026-04-26T17:13:36.999Z</time></trkpt><trkpt lat="43.57211634578749" lon="11.31993062594592"><ele>247.0</ele><time>2026-04-26T17:13:38Z</time></trkpt><trkpt lat="43.57209254180553" lon="11.319842431608787"><ele>246.0</ele><time>2026-04-26T17:13:39Z</time></trkpt><trkpt lat="43.57205353518797" lon="11.319762196717335"><ele>244.99999999999997</ele><time>2026-04-26T17:13:40Z</time></trkpt><trkpt lat="43.5719584068199" lon="11.319700101842518"><ele>244.0</ele><time>2026-04-26T17:13:42Z</time></trkpt><trkpt lat="43.571911136188135" lon="11.319629737455355"><ele>245.2</ele><time>2026-04-26T17:13:47Z</time></trkpt><trkpt lat="43.571799336877056" lon="11.319625932798346"><ele>246.39999999999998</ele><time>2026-04-26T17:13:49Z</time></trkpt><trkpt lat="43.57174393779897" lon="11.319670487077984"><ele>247.6</ele><time>2026-04-26T17:13:50Z</time></trkpt><trkpt lat="43.57166920767697" lon="11.319704855295651"><ele>248.8</ele><time>2026-04-26T17:13:51Z</time></trkpt><trkpt lat="43.57157515738641" lon="11.319746842964287"><ele>250.0</ele><time>2026-04-26T17:13:52Z</time></trkpt><trkpt lat="43.57147414428654" lon="11.319793238508533"><ele>250.0</ele><time>2026-04-26T17:13:53Z</time></trkpt><trkpt lat="43.57136389536595" lon="11.319844186298495"><ele>250.0</ele><time>2026-04-26T17:13:54Z</time></trkpt><trkpt lat="43.571246387902065" lon="11.319900920799398"><ele>250.0</ele><time>2026-04-26T17:13:55Z</time></trkpt><trkpt lat="43.57113098813315" lon="11.319963898464641"><ele>250.0</ele><time>2026-04-26T17:13:56Z</time></trkpt><trkpt lat="43.57101155990297" lon="11.32002290692267"><ele>252.25</ele><time>2026-04-26T17:13:57Z</time></trkpt><trkpt lat="43.57089375455629" lon="11.320083905487435"><ele>254.5</ele><time>2026-04-26T17:13:58Z</time></trkpt><trkpt lat="43.57077871986145" lon="11.320143824628149"><ele>256.75</ele><time>2026-04-26T17:13:59Z</time></trkpt><trkpt lat="43.57066037475701" lon="11.320204225822089"><ele>259.0</ele><time>2026-04-26T17:14:00Z</time></trkpt><trkpt lat="43.57053561531479" lon="11.32025896248034"><ele>259.0</ele><time>2026-04-26T17:14:01Z</time></trkpt><trkpt lat="43.57041018838193" lon="11.320307905324345"><ele>259.0</ele><time>2026-04-26T17:14:02Z</time></trkpt><trkpt lat="43.57028010799281" lon="11.320350987434583"><ele>259.0</ele><time>2026-04-26T17:14:03Z</time></trkpt><trkpt lat="43.570148885506846" lon="11.32038928215521"><ele>259.0</ele><time>2026-04-26T17:14:04Z</time></trkpt><trkpt lat="43.57002236292673" lon="11.320420487233056"><ele>259.75</ele><time>2026-04-26T17:14:05Z</time></trkpt><trkpt lat="43.56989815854253" lon="11.32045260660906"><ele>260.5</ele><time>2026-04-26T17:14:06Z</time></trkpt><trkpt lat="43.56978047639706" lon="11.320481346841353"><ele>261.25</ele><time>2026-04-26T17:14:07Z</time></trkpt><trkpt lat="43.569665710578306" lon="11.320516706831869"><ele>262.0</ele><time>2026-04-26T17:14:07.999Z</time></trkpt><trkpt lat="43.56954326185208" lon="11.32053534733253"><ele>263.0</ele><time>2026-04-26T17:14:08.999Z</time></trkpt><trkpt lat="43.56943810785798" lon="11.320580419240192"><ele>264.0</ele><time>2026-04-26T17:14:09.999Z</time></trkpt><trkpt lat="43.569341966001794" lon="11.320642793752713"><ele>265.0</ele><time>2026-04-26T17:14:10.999Z</time></trkpt><trkpt lat="43.56927358216566" lon="11.320758059264799"><ele>266.0</ele><time>2026-04-26T17:14:11.999Z</time></trkpt><trkpt lat="43.56923392664275" lon="11.320902196014103"><ele>267.0</ele><time>2026-04-26T17:14:12.999Z</time></trkpt><trkpt lat="43.56921558780935" lon="11.321066500093087"><ele>267.0</ele><time>2026-04-26T17:14:13.999Z</time></trkpt><trkpt lat="43.56933093809482" lon="11.321235997173853"><ele>267.0</ele><time>2026-04-26T17:14:14.999Z</time></trkpt><trkpt lat="43.56935969880432" lon="11.321430929390381"><ele>267.0</ele><time>2026-04-26T17:14:15.999Z</time></trkpt><trkpt lat="43.56934813133559" lon="11.321646495611413"><ele>265.6666666666667</ele><time>2026-04-26T17:14:16.999Z</time></trkpt><trkpt lat="43.56929170336211" lon="11.321817416489859"><ele>264.33333333333337</ele><time>2026-04-26T17:14:17.999Z</time></trkpt><trkpt lat="43.56920865690433" lon="11.321996962703354"><ele>263.0</ele><time>2026-04-26T17:14:18.999Z</time></trkpt><trkpt lat="43.56911200610147" lon="11.322185751498496"><ele>260.33333333333337</ele><time>2026-04-26T17:14:19.999Z</time></trkpt><trkpt lat="43.569027250568176" lon="11.322350689868383"><ele>257.6666666666667</ele><time>2026-04-26T17:14:20.999Z</time></trkpt><trkpt lat="43.56892538624871" lon="11.322500572547964"><ele>255.0</ele><time>2026-04-26T17:14:21.999Z</time></trkpt><trkpt lat="43.5688126288571" lon="11.322655159036877"><ele>255.25</ele><time>2026-04-26T17:14:22.999Z</time></trkpt><trkpt lat="43.56867872352987" lon="11.322765814762032"><ele>255.5</ele><time>2026-04-26T17:14:23.999Z</time></trkpt><trkpt lat="43.56858396827068" lon="11.322906432856794"><ele>255.75</ele><time>2026-04-26T17:14:24.999Z</time></trkpt><trkpt lat="43.568494948812294" lon="11.32304597528899"><ele>256.0</ele><time>2026-04-26T17:14:25.999Z</time></trkpt><trkpt lat="43.56841262670945" lon="11.323193551449991"><ele>256.0</ele><time>2026-04-26T17:14:26.999Z</time></trkpt><trkpt lat="43.568341995977214" lon="11.3233475083906"><ele>256.0</ele><time>2026-04-26T17:14:27.999Z</time></trkpt><trkpt lat="43.56828136536277" lon="11.323501570562343"><ele>256.0</ele><time>2026-04-26T17:14:28.999Z</time></trkpt><trkpt lat="43.5682064618233" lon="11.323659032645628"><ele>256.0</ele><time>2026-04-26T17:14:29.999Z</time></trkpt><trkpt lat="43.56816356860576" lon="11.32383254811376"><ele>255.0</ele><time>2026-04-26T17:14:30.999Z</time></trkpt><trkpt lat="43.56812143283888" lon="11.324015047383046"><ele>254.0</ele><time>2026-04-26T17:14:31.999Z</time></trkpt><trkpt lat="43.56808580152873" lon="11.324179164059435"><ele>253.0</ele><time>2026-04-26T17:14:32.999Z</time></trkpt><trkpt lat="43.568058349605515" lon="11.324325451287834"><ele>252.0</ele><time>2026-04-26T17:14:33.999Z</time></trkpt><trkpt lat="43.56800554673771" lon="11.324460224235873"><ele>252.0</ele><time>2026-04-26T17:14:34.999Z</time></trkpt><trkpt lat="43.567979479517476" lon="11.324636625929262"><ele>252.0</ele><time>2026-04-26T17:14:35.999Z</time></trkpt><trkpt lat="43.567946802771196" lon="11.324799740496035"><ele>252.0</ele><time>2026-04-26T17:14:36.999Z</time></trkpt><trkpt lat="43.56789402687996" lon="11.324957731101037"><ele>252.0</ele><time>2026-04-26T17:14:37.999Z</time></trkpt><trkpt lat="43.567855163987296" lon="11.325113795820975"><ele>252.0</ele><time>2026-04-26T17:14:38.999Z</time></trkpt><trkpt lat="43.56784434898413" lon="11.325288575796268"><ele>252.0</ele><time>2026-04-26T17:14:39.999Z</time></trkpt><trkpt lat="43.567844208076686" lon="11.325462383022488"><ele>252.0</ele><time>2026-04-26T17:14:40.999Z</time></trkpt><trkpt lat="43.56785426836219" lon="11.325643302482748"><ele>252.0</ele><time>2026-04-26T17:14:41.999Z</time></trkpt><trkpt lat="43.56787653056461" lon="11.325822675939417"><ele>257.0</ele><time>2026-04-26T17:14:42.999Z</time></trkpt><trkpt lat="43.56790239089744" lon="11.32596967072341"><ele>262.0</ele><time>2026-04-26T17:14:43.999Z</time></trkpt><trkpt lat="43.567925896483985" lon="11.326091389306962"><ele>267.0</ele><time>2026-04-26T17:14:44.999Z</time></trkpt><trkpt lat="43.567998819018136" lon="11.32617501947315"><ele>272.0</ele><time>2026-04-26T17:14:45.999Z</time></trkpt><trkpt lat="43.56808000616507" lon="11.326266413379352"><ele>277.0</ele><time>2026-04-26T17:14:46.999Z</time></trkpt><trkpt lat="43.56817698702344" lon="11.326347278691513"><ele>276.25</ele><time>2026-04-26T17:14:47.999Z</time></trkpt><trkpt lat="43.568262992301314" lon="11.326460776938285"><ele>275.5</ele><time>2026-04-26T17:14:48.999Z</time></trkpt><trkpt lat="43.56833519961352" lon="11.326565312736273"><ele>274.75</ele><time>2026-04-26T17:14:49.999Z</time></trkpt><trkpt lat="43.56841185065046" lon="11.32668837938516"><ele>274.0</ele><time>2026-04-26T17:14:50.999Z</time></trkpt><trkpt lat="43.56847064941443" lon="11.326817577967217"><ele>274.0</ele><time>2026-04-26T17:14:51.999Z</time></trkpt><trkpt lat="43.568518635316906" lon="11.326951047516806"><ele>274.0</ele><time>2026-04-26T17:14:52.999Z</time></trkpt><trkpt lat="43.568558176375966" lon="11.327082415153287"><ele>274.0</ele><time>2026-04-26T17:14:53.999Z</time></trkpt><trkpt lat="43.568609001532046" lon="11.32720994683426"><ele>274.0</ele><time>2026-04-26T17:14:54.999Z</time></trkpt><trkpt lat="43.56864513149215" lon="11.327355365885277"><ele>274.0</ele><time>2026-04-26T17:14:55.999Z</time></trkpt><trkpt lat="43.56868190954289" lon="11.327501938496201"><ele>274.4</ele><time>2026-04-26T17:14:56.999Z</time></trkpt><trkpt lat="43.5686824580148" lon="11.327643821723514"><ele>274.79999999999995</ele><time>2026-04-26T17:14:57.999Z</time></trkpt><trkpt lat="43.56870886873763" lon="11.327788320891292"><ele>275.20000000000005</ele><time>2026-04-26T17:14:58.999Z</time></trkpt><trkpt lat="43.56867533394399" lon="11.327952022194214"><ele>275.6</ele><time>2026-04-26T17:14:59.999Z</time></trkpt><trkpt lat="43.568650107654214" lon="11.328090553582408"><ele>276.0</ele><time>2026-04-26T17:15:00.999Z</time></trkpt><trkpt lat="43.56862387501056" lon="11.32822500809913"><ele>277.40000000000003</ele><time>2026-04-26T17:15:01.999Z</time></trkpt><trkpt lat="43.568620097215884" lon="11.32836716390751"><ele>278.8</ele><time>2026-04-26T17:15:02.999Z</time></trkpt><trkpt lat="43.56861223583919" lon="11.32848390138975"><ele>280.20000000000005</ele><time>2026-04-26T17:15:03.999Z</time></trkpt><trkpt lat="43.5686233552765" lon="11.328610007714875"><ele>281.6</ele><time>2026-04-26T17:15:04.999Z</time></trkpt><trkpt lat="43.568649401152" lon="11.328742737211803"><ele>283.0</ele><time>2026-04-26T17:15:05.999Z</time></trkpt><trkpt lat="43.56869973332343" lon="11.32887199014428"><ele>286.25</ele><time>2026-04-26T17:15:06.999Z</time></trkpt><trkpt lat="43.56874369489936" lon="11.329012416244417"><ele>289.5</ele><time>2026-04-26T17:15:07.999Z</time></trkpt><trkpt lat="43.56878875286018" lon="11.329161919390172"><ele>292.75</ele><time>2026-04-26T17:15:08.999Z</time></trkpt><trkpt lat="43.56883382450833" lon="11.329307981150365"><ele>296.0</ele><time>2026-04-26T17:15:09.999Z</time></trkpt><trkpt lat="43.56888855665384" lon="11.329438736513492"><ele>296.0</ele><time>2026-04-26T17:15:10.999Z</time></trkpt><trkpt lat="43.568937994955505" lon="11.329570392572938"><ele>296.0</ele><time>2026-04-26T17:15:11.999Z</time></trkpt><trkpt lat="43.56897545811696" lon="11.329718504111957"><ele>296.0</ele><time>2026-04-26T17:15:12.999Z</time></trkpt><trkpt lat="43.56901079552867" lon="11.329855612062007"><ele>296.0</ele><time>2026-04-26T17:15:13.999Z</time></trkpt><trkpt lat="43.56900328587538" lon="11.329991593167335"><ele>296.0</ele><time>2026-04-26T17:15:14.999Z</time></trkpt><trkpt lat="43.56899384437876" lon="11.330117983667268"><ele>297.2</ele><time>2026-04-26T17:15:15.999Z</time></trkpt><trkpt lat="43.56899227377524" lon="11.330238416671257"><ele>298.40000000000003</ele><time>2026-04-26T17:15:16.999Z</time></trkpt><trkpt lat="43.569021127603705" lon="11.330364748594151"><ele>299.6</ele><time>2026-04-26T17:15:17.999Z</time></trkpt><trkpt lat="43.56907518965211" lon="11.330506296805758"><ele>300.8</ele><time>2026-04-26T17:15:18.999Z</time></trkpt><trkpt lat="43.5691418790185" lon="11.330661359083294"><ele>302.0</ele><time>2026-04-26T17:15:19.999Z</time></trkpt><trkpt lat="43.56918994103897" lon="11.330840029394684"><ele>303.0</ele><time>2026-04-26T17:15:20.999Z</time></trkpt><trkpt lat="43.56923539239649" lon="11.33100245862342"><ele>304.0</ele><time>2026-04-26T17:15:21.999Z</time></trkpt><trkpt lat="43.569305183649085" lon="11.331164827748411"><ele>305.0</ele><time>2026-04-26T17:15:22.999Z</time></trkpt><trkpt lat="43.569347563754825" lon="11.331365740454006"><ele>306.0</ele><time>2026-04-26T17:15:23.999Z</time></trkpt><trkpt lat="43.56939786270872" lon="11.3315625360184"><ele>306.40000000000003</ele><time>2026-04-26T17:15:24.999Z</time></trkpt><trkpt lat="43.56943480280064" lon="11.331722803785988"><ele>306.8</ele><time>2026-04-26T17:15:25.999Z</time></trkpt><trkpt lat="43.56946613278434" lon="11.33185464949889"><ele>307.20000000000005</ele><time>2026-04-26T17:15:26.999Z</time></trkpt><trkpt lat="43.56949136322651" lon="11.331969445018402"><ele>307.6</ele><time>2026-04-26T17:15:27.999Z</time></trkpt><trkpt lat="43.56955144906408" lon="11.332065553702826"><ele>308.0</ele><time>2026-04-26T17:15:28.999Z</time></trkpt><trkpt lat="43.569633924248976" lon="11.332159056847859"><ele>312.25</ele><time>2026-04-26T17:15:29.999Z</time></trkpt><trkpt lat="43.569713461076994" lon="11.332282931510855"><ele>316.5</ele><time>2026-04-26T17:15:30.999Z</time></trkpt><trkpt lat="43.56978738633316" lon="11.332392358590276"><ele>320.75</ele><time>2026-04-26T17:15:31.999Z</time></trkpt><trkpt lat="43.56985574948198" lon="11.332520324343202"><ele>325.0</ele><time>2026-04-26T17:15:32.999Z</time></trkpt><trkpt lat="43.569936288023065" lon="11.332661422442055"><ele>325.0</ele><time>2026-04-26T17:15:33.999Z</time></trkpt><trkpt lat="43.570032083914555" lon="11.332797516073695"><ele>325.0</ele><time>2026-04-26T17:15:34.999Z</time></trkpt><trkpt lat="43.57011318818544" lon="11.332972492372644"><ele>325.0</ele><time>2026-04-26T17:15:35.999Z</time></trkpt><trkpt lat="43.57021839587341" lon="11.333133940961789"><ele>325.0</ele><time>2026-04-26T17:15:36.999Z</time></trkpt><trkpt lat="43.57029748434241" lon="11.333295921238504"><ele>326.5</ele><time>2026-04-26T17:15:37.999Z</time></trkpt><trkpt lat="43.57037168472896" lon="11.333450396495898"><ele>328.0</ele><time>2026-04-26T17:15:38.999Z</time></trkpt><trkpt lat="43.570411138837606" lon="11.3336109608906"><ele>329.5</ele><time>2026-04-26T17:15:39.999Z</time></trkpt><trkpt lat="43.57045125523467" lon="11.333762563576931"><ele>331.0</ele><time>2026-04-26T17:15:40.999Z</time></trkpt><trkpt lat="43.57047687568138" lon="11.333906614238229"><ele>333.5</ele><time>2026-04-26T17:15:41.999Z</time></trkpt><trkpt lat="43.5704957878601" lon="11.33406366694453"><ele>336.0</ele><time>2026-04-26T17:15:42.999Z</time></trkpt><trkpt lat="43.57052683277868" lon="11.3342247562479"><ele>338.5</ele><time>2026-04-26T17:15:44Z</time></trkpt><trkpt lat="43.570534340989234" lon="11.334386463981486"><ele>341.0</ele><time>2026-04-26T17:15:45Z</time></trkpt><trkpt lat="43.570550113679104" lon="11.334544880519799"><ele>341.0</ele><time>2026-04-26T17:15:46Z</time></trkpt><trkpt lat="43.570558273393246" lon="11.334697115891444"><ele>341.0</ele><time>2026-04-26T17:15:47Z</time></trkpt><trkpt lat="43.570573170048206" lon="11.334849061186146"><ele>341.0</ele><time>2026-04-26T17:15:48Z</time></trkpt><trkpt lat="43.57058734167475" lon="11.335002053563707"><ele>341.0</ele><time>2026-04-26T17:15:49Z</time></trkpt><trkpt lat="43.570592475972326" lon="11.335149892982653"><ele>341.0</ele><time>2026-04-26T17:15:50Z</time></trkpt><trkpt lat="43.57060469403926" lon="11.33531051492782"><ele>343.25</ele><time>2026-04-26T17:15:51Z</time></trkpt><trkpt lat="43.57062268166803" lon="11.335473964076696"><ele>345.5</ele><time>2026-04-26T17:15:52Z</time></trkpt><trkpt lat="43.570641620238725" lon="11.335648322595008"><ele>347.75</ele><time>2026-04-26T17:15:53Z</time></trkpt><trkpt lat="43.570663376097606" lon="11.33586110790745"><ele>350.0</ele><time>2026-04-26T17:15:54Z</time></trkpt><trkpt lat="43.57068777842846" lon="11.336065654450858"><ele>352.25</ele><time>2026-04-26T17:15:55Z</time></trkpt><trkpt lat="43.5707138344995" lon="11.336252503677768"><ele>354.5</ele><time>2026-04-26T17:15:56Z</time></trkpt><trkpt lat="43.57073797063044" lon="11.336434288651414"><ele>356.75</ele><time>2026-04-26T17:15:57Z</time></trkpt><trkpt lat="43.57076265947822" lon="11.336594602190813"><ele>359.0</ele><time>2026-04-26T17:15:58Z</time></trkpt><trkpt lat="43.570771977645734" lon="11.336721237388923"><ele>360.5</ele><time>2026-04-26T17:15:59Z</time></trkpt><trkpt lat="43.570762310947124" lon="11.33683049981659"><ele>362.0</ele><time>2026-04-26T17:16:00Z</time></trkpt><trkpt lat="43.570702179753425" lon="11.33692726850097"><ele>363.5</ele><time>2026-04-26T17:16:01Z</time></trkpt><trkpt lat="43.57068529920458" lon="11.337041406820513"><ele>365.0</ele><time>2026-04-26T17:16:02Z</time></trkpt><trkpt lat="43.57066038662929" lon="11.33714264129287"><ele>366.5</ele><time>2026-04-26T17:16:03Z</time></trkpt><trkpt lat="43.57070936260101" lon="11.337266328812706"><ele>368.0</ele><time>2026-04-26T17:16:04Z</time></trkpt><trkpt lat="43.570754633026226" lon="11.337393833058645"><ele>369.79999999999995</ele><time>2026-04-26T17:16:05Z</time></trkpt><trkpt lat="43.57077361670171" lon="11.337510300963734"><ele>371.6</ele><time>2026-04-26T17:16:06Z</time></trkpt><trkpt lat="43.5707323017473" lon="11.337636664545117"><ele>373.4</ele><time>2026-04-26T17:16:07Z</time></trkpt><trkpt lat="43.570720488843754" lon="11.33777211616008"><ele>375.20000000000005</ele><time>2026-04-26T17:16:08Z</time></trkpt><trkpt lat="43.57068853104766" lon="11.337894786814363"><ele>377.0</ele><time>2026-04-26T17:16:09Z</time></trkpt><trkpt lat="43.570661830788055" lon="11.33801608906545"><ele>380.20000000000005</ele><time>2026-04-26T17:16:10Z</time></trkpt><trkpt lat="43.57062905503534" lon="11.338130473549173"><ele>383.4</ele><time>2026-04-26T17:16:11Z</time></trkpt><trkpt lat="43.57060163104623" lon="11.33825670774241"><ele>386.6</ele><time>2026-04-26T17:16:12Z</time></trkpt><trkpt lat="43.57057870003431" lon="11.338390820316334"><ele>389.79999999999995</ele><time>2026-04-26T17:16:13Z</time></trkpt><trkpt lat="43.5705613909885" lon="11.338521110781466"><ele>393.0</ele><time>2026-04-26T17:16:14Z</time></trkpt><trkpt lat="43.57055398476473" lon="11.33863613706136"><ele>393.0</ele><time>2026-04-26T17:16:14.999Z</time></trkpt><trkpt lat="43.570555791560096" lon="11.338749825796295"><ele>393.0</ele><time>2026-04-26T17:16:15.999Z</time></trkpt><trkpt lat="43.57061420214391" lon="11.338813963029278"><ele>393.0</ele><time>2026-04-26T17:16:16.999Z</time></trkpt><trkpt lat="43.57068025674884" lon="11.338846086558254"><ele>393.0</ele><time>2026-04-26T17:16:17.999Z</time></trkpt><trkpt lat="43.570765592828394" lon="11.338847646620463"><ele>393.0</ele><time>2026-04-26T17:16:18.999Z</time></trkpt><trkpt lat="43.570852820361665" lon="11.338843332508183"><ele>393.0</ele><time>2026-04-26T17:16:19.999Z</time></trkpt><trkpt lat="43.5709274527124" lon="11.33887294757451"><ele>394.8333333333333</ele><time>2026-04-26T17:16:20.999Z</time></trkpt><trkpt lat="43.570988828724765" lon="11.338943112459296"><ele>396.66666666666663</ele><time>2026-04-26T17:16:21.999Z</time></trkpt><trkpt lat="43.57102689616781" lon="11.339037539778412"><ele>398.5</ele><time>2026-04-26T17:16:22.999Z</time></trkpt><trkpt lat="43.57105178838853" lon="11.339151343707888"><ele>400.3333333333333</ele><time>2026-04-26T17:16:23.999Z</time></trkpt><trkpt lat="43.571058745089054" lon="11.339263879959251"><ele>402.16666666666663</ele><time>2026-04-26T17:16:24.999Z</time></trkpt><trkpt lat="43.571065090788586" lon="11.339391936998325"><ele>404.0</ele><time>2026-04-26T17:16:25.999Z</time></trkpt><trkpt lat="43.5710665454596" lon="11.339528276143094"><ele>404.0</ele><time>2026-04-26T17:16:26.999Z</time></trkpt><trkpt lat="43.57107741043666" lon="11.339663940593331"><ele>404.0</ele><time>2026-04-26T17:16:27.999Z</time></trkpt><trkpt lat="43.57109054011162" lon="11.339814311499243"><ele>404.0</ele><time>2026-04-26T17:16:28.999Z</time></trkpt><trkpt lat="43.57112282213173" lon="11.339975928983067"><ele>404.0</ele><time>2026-04-26T17:16:29.999Z</time></trkpt><trkpt lat="43.57114753909451" lon="11.340138669956987"><ele>404.4</ele><time>2026-04-26T17:16:30.999Z</time></trkpt><trkpt lat="43.57118245807189" lon="11.340291773698945"><ele>404.79999999999995</ele><time>2026-04-26T17:16:31.999Z</time></trkpt><trkpt lat="43.57120863483481" lon="11.3404468292386"><ele>405.20000000000005</ele><time>2026-04-26T17:16:32.999Z</time></trkpt><trkpt lat="43.57123023059363" lon="11.340592660816155"><ele>405.6</ele><time>2026-04-26T17:16:33.999Z</time></trkpt><trkpt lat="43.57125197299546" lon="11.340731874257283"><ele>406.0</ele><time>2026-04-26T17:16:34.999Z</time></trkpt><trkpt lat="43.57126704428555" lon="11.340873817058474"><ele>407.8</ele><time>2026-04-26T17:16:35.999Z</time></trkpt><trkpt lat="43.57125485002025" lon="11.341015348843001"><ele>409.6</ele><time>2026-04-26T17:16:36.999Z</time></trkpt><trkpt lat="43.57127148735432" lon="11.341161259568581"><ele>411.4</ele><time>2026-04-26T17:16:37.999Z</time></trkpt><trkpt lat="43.57125399973758" lon="11.341304662003177"><ele>413.2</ele><time>2026-04-26T17:16:38.999Z</time></trkpt><trkpt lat="43.571218267276116" lon="11.341451509758485"><ele>415.0</ele><time>2026-04-26T17:16:39.999Z</time></trkpt><trkpt lat="43.571180453559734" lon="11.341597773694533"><ele>417.0</ele><time>2026-04-26T17:16:40.999Z</time></trkpt><trkpt lat="43.571124529670136" lon="11.34173844344902"><ele>419.0</ele><time>2026-04-26T17:16:41.999Z</time></trkpt><trkpt lat="43.571123258417" lon="11.341909941105671"><ele>421.0</ele><time>2026-04-26T17:16:42.999Z</time></trkpt><trkpt lat="43.57109672782732" lon="11.342052364408366"><ele>423.0</ele><time>2026-04-26T17:16:43.999Z</time></trkpt><trkpt lat="43.57101358624023" lon="11.342125530271177"><ele>425.0</ele><time>2026-04-26T17:16:44.999Z</time></trkpt><trkpt lat="43.57092809853336" lon="11.34218393281586"><ele>427.66666666666663</ele><time>2026-04-26T17:16:45.999Z</time></trkpt><trkpt lat="43.570848697943816" lon="11.34227973385412"><ele>430.3333333333333</ele><time>2026-04-26T17:16:46.999Z</time></trkpt><trkpt lat="43.57076561483033" lon="11.342343483739"><ele>433.0</ele><time>2026-04-26T17:16:47.999Z</time></trkpt><trkpt lat="43.57068507191404" lon="11.342389166830758"><ele>435.66666666666663</ele><time>2026-04-26T17:16:48.999Z</time></trkpt><trkpt lat="43.570613949325406" lon="11.342429087373366"><ele>438.3333333333333</ele><time>2026-04-26T17:16:49.999Z</time></trkpt><trkpt lat="43.57055005514731" lon="11.34249029282934"><ele>441.0</ele><time>2026-04-26T17:16:50.999Z</time></trkpt><trkpt lat="43.57051360988231" lon="11.342563867027309"><ele>441.0</ele><time>2026-04-26T17:16:51.999Z</time></trkpt><trkpt lat="43.57049042890682" lon="11.342650219719156"><ele>441.0</ele><time>2026-04-26T17:16:52.999Z</time></trkpt><trkpt lat="43.57051614038784" lon="11.34274786138872"><ele>441.0</ele><time>2026-04-26T17:16:53.999Z</time></trkpt><trkpt lat="43.57061709588427" lon="11.342805058351848"><ele>441.0</ele><time>2026-04-26T17:16:54.999Z</time></trkpt><trkpt lat="43.570688156085595" lon="11.342883345939118"><ele>441.0</ele><time>2026-04-26T17:16:55.999Z</time></trkpt><trkpt lat="43.57076191791017" lon="11.34296776606261"><ele>441.0</ele><time>2026-04-26T17:16:56.999Z</time></trkpt><trkpt lat="43.57083076245743" lon="11.343062175016303"><ele>442.6</ele><time>2026-04-26T17:16:57.999Z</time></trkpt><trkpt lat="43.57090059576805" lon="11.34316262976985"><ele>444.20000000000005</ele><time>2026-04-26T17:16:58.999Z</time></trkpt><trkpt lat="43.57097399386133" lon="11.343271938054148"><ele>445.79999999999995</ele><time>2026-04-26T17:16:59.999Z</time></trkpt><trkpt lat="43.571047566594814" lon="11.343381506497213"><ele>447.4</ele><time>2026-04-26T17:17:00.999Z</time></trkpt><trkpt lat="43.57112369429587" lon="11.343489345559147"><ele>449.0</ele><time>2026-04-26T17:17:01.999Z</time></trkpt><trkpt lat="43.57120695439201" lon="11.34358736926133"><ele>450.2</ele><time>2026-04-26T17:17:02.999Z</time></trkpt><trkpt lat="43.57129354907342" lon="11.343669642789928"><ele>451.4</ele><time>2026-04-26T17:17:03.999Z</time></trkpt><trkpt lat="43.571376254250126" lon="11.343765420366323"><ele>452.6</ele><time>2026-04-26T17:17:04.999Z</time></trkpt><trkpt lat="43.57145591241417" lon="11.34386551628131"><ele>453.8</ele><time>2026-04-26T17:17:05.999Z</time></trkpt><trkpt lat="43.57151942736683" lon="11.343976826952241"><ele>455.0</ele><time>2026-04-26T17:17:06.999Z</time></trkpt><trkpt lat="43.57157017413505" lon="11.34410986557383"><ele>457.6</ele><time>2026-04-26T17:17:07.999Z</time></trkpt><trkpt lat="43.57162402952596" lon="11.344244164551743"><ele>460.2</ele><time>2026-04-26T17:17:08.999Z</time></trkpt><trkpt lat="43.571694605800126" lon="11.344366835935034"><ele>462.79999999999995</ele><time>2026-04-26T17:17:09.999Z</time></trkpt><trkpt lat="43.571780033270116" lon="11.344467867794073"><ele>465.4</ele><time>2026-04-26T17:17:10.999Z</time></trkpt><trkpt lat="43.571837264187266" lon="11.344589314767425"><ele>468.0</ele><time>2026-04-26T17:17:11.999Z</time></trkpt><trkpt lat="43.5719103104652" lon="11.34469276427987"><ele>468.59999999999997</ele><time>2026-04-26T17:17:12.999Z</time></trkpt><trkpt lat="43.571971723265655" lon="11.34479916372835"><ele>469.19999999999993</ele><time>2026-04-26T17:17:13.999Z</time></trkpt><trkpt lat="43.57202102350911" lon="11.344919351827649"><ele>469.8</ele><time>2026-04-26T17:17:14.999Z</time></trkpt><trkpt lat="43.57204907965397" lon="11.345048440494926"><ele>470.4</ele><time>2026-04-26T17:17:15.999Z</time></trkpt><trkpt lat="43.572072767115316" lon="11.345185567979492"><ele>471.0</ele><time>2026-04-26T17:17:16.999Z</time></trkpt><trkpt lat="43.57209342243886" lon="11.345330220467588"><ele>473.4</ele><time>2026-04-26T17:17:17.999Z</time></trkpt><trkpt lat="43.572111762148054" lon="11.345474833430842"><ele>475.8</ele><time>2026-04-26T17:17:18.999Z</time></trkpt><trkpt lat="43.5721280220559" lon="11.345608152835837"><ele>478.19999999999993</ele><time>2026-04-26T17:17:19.999Z</time></trkpt><trkpt lat="43.57216531853211" lon="11.345732789864138"><ele>480.59999999999997</ele><time>2026-04-26T17:17:20.999Z</time></trkpt><trkpt lat="43.57219349247528" lon="11.345857201121344"><ele>483.0</ele><time>2026-04-26T17:17:21.999Z</time></trkpt><trkpt lat="43.572245838514114" lon="11.345981006959017"><ele>483.79999999999995</ele><time>2026-04-26T17:17:22.999Z</time></trkpt><trkpt lat="43.57231866726937" lon="11.346091318917068"><ele>484.59999999999997</ele><time>2026-04-26T17:17:23.999Z</time></trkpt><trkpt lat="43.57239791527263" lon="11.346191864604902"><ele>485.40000000000003</ele><time>2026-04-26T17:17:24.999Z</time></trkpt><trkpt lat="43.572478651282104" lon="11.346295395346555"><ele>486.20000000000005</ele><time>2026-04-26T17:17:25.999Z</time></trkpt><trkpt lat="43.572556731661365" lon="11.346398548306967"><ele>487.0</ele><time>2026-04-26T17:17:26.999Z</time></trkpt><trkpt lat="43.57263734506742" lon="11.346503872911244"><ele>487.0</ele><time>2026-04-26T17:17:27.999Z</time></trkpt><trkpt lat="43.572734605229634" lon="11.346583527011603"><ele>487.00000000000006</ele><time>2026-04-26T17:17:28.999Z</time></trkpt><trkpt lat="43.57283536750571" lon="11.346645786479668"><ele>487.00000000000006</ele><time>2026-04-26T17:17:29.999Z</time></trkpt><trkpt lat="43.572937434479364" lon="11.346700782578765"><ele>487.0</ele><time>2026-04-26T17:17:30.999Z</time></trkpt><trkpt lat="43.57304000916858" lon="11.346755900171932"><ele>487.0</ele><time>2026-04-26T17:17:31.999Z</time></trkpt><trkpt lat="43.57314560634521" lon="11.346786572859891"><ele>490.0</ele><time>2026-04-26T17:17:32.999Z</time></trkpt><trkpt lat="43.573245896449286" lon="11.346839162063775"><ele>493.00000000000006</ele><time>2026-04-26T17:17:33.999Z</time></trkpt><trkpt lat="43.57334132690903" lon="11.34690070269516"><ele>496.00000000000006</ele><time>2026-04-26T17:17:34.999Z</time></trkpt><trkpt lat="43.57344394356916" lon="11.34692832191015"><ele>499.0</ele><time>2026-04-26T17:17:35.999Z</time></trkpt><trkpt lat="43.57354109219391" lon="11.346906063730657"><ele>502.0</ele><time>2026-04-26T17:17:36.999Z</time></trkpt><trkpt lat="43.57362078260606" lon="11.346908018029536"><ele>503.00000000000006</ele><time>2026-04-26T17:17:37.999Z</time></trkpt><trkpt lat="43.573690127971624" lon="11.346913046339868"><ele>504.0</ele><time>2026-04-26T17:17:38.999Z</time></trkpt><trkpt lat="43.573749884007704" lon="11.34694792871922"><ele>505.0</ele><time>2026-04-26T17:17:39.999Z</time></trkpt><trkpt lat="43.573870629246414" lon="11.346989661682052"><ele>506.0</ele><time>2026-04-26T17:17:41.999Z</time></trkpt><trkpt lat="43.573933053507574" lon="11.346977967172235"><ele>507.00000000000006</ele><time>2026-04-26T17:17:42.999Z</time></trkpt><trkpt lat="43.57400052707265" lon="11.346973919846723"><ele>508.0</ele><time>2026-04-26T17:17:43.999Z</time></trkpt><trkpt lat="43.57411333762849" lon="11.346964262540617"><ele>508.00000000000006</ele><time>2026-04-26T17:17:45.999Z</time></trkpt><trkpt lat="43.57419387685487" lon="11.346951750241205"><ele>508.0</ele><time>2026-04-26T17:17:47.999Z</time></trkpt><trkpt lat="43.574214808213036" lon="11.347142133283477"><ele>508.0</ele><time>2026-04-26T17:17:50Z</time></trkpt><trkpt lat="43.57423024417123" lon="11.34724639670233"><ele>508.0</ele><time>2026-04-26T17:17:51Z</time></trkpt><trkpt lat="43.57425268637422" lon="11.347338293926258"><ele>508.00000000000006</ele><time>2026-04-26T17:17:52Z</time></trkpt><trkpt lat="43.57424999742853" lon="11.347444505835194"><ele>508.0</ele><time>2026-04-26T17:17:53Z</time></trkpt><trkpt lat="43.574254413789916" lon="11.347553830645985"><ele>510.1666666666667</ele><time>2026-04-26T17:17:54Z</time></trkpt><trkpt lat="43.57425636988873" lon="11.347668012072589"><ele>512.3333333333334</ele><time>2026-04-26T17:17:55Z</time></trkpt><trkpt lat="43.57427611600711" lon="11.347769726492087"><ele>514.5</ele><time>2026-04-26T17:17:56Z</time></trkpt><trkpt lat="43.574271236031755" lon="11.347875498260649"><ele>516.6666666666666</ele><time>2026-04-26T17:17:57Z</time></trkpt><trkpt lat="43.57428168941075" lon="11.347982401258099"><ele>518.8333333333333</ele><time>2026-04-26T17:17:58Z</time></trkpt><trkpt lat="43.574292522380276" lon="11.3480946747222"><ele>521.0</ele><time>2026-04-26T17:17:59Z</time></trkpt><trkpt lat="43.57430521216025" lon="11.348209950788123"><ele>522.3333333333333</ele><time>2026-04-26T17:18:00Z</time></trkpt><trkpt lat="43.57432143764101" lon="11.348327164908131"><ele>523.6666666666666</ele><time>2026-04-26T17:18:01Z</time></trkpt><trkpt lat="43.57434358888083" lon="11.34845252282644"><ele>525.0</ele><time>2026-04-26T17:18:02Z</time></trkpt><trkpt lat="43.57437054297263" lon="11.348567851232966"><ele>526.3333333333334</ele><time>2026-04-26T17:18:03Z</time></trkpt><trkpt lat="43.57438838867711" lon="11.348689931138022"><ele>527.6666666666667</ele><time>2026-04-26T17:18:04Z</time></trkpt><trkpt lat="43.57442577172523" lon="11.348804135686578"><ele>529.0</ele><time>2026-04-26T17:18:05Z</time></trkpt><trkpt lat="43.57446520641664" lon="11.348916894628486"><ele>529.8</ele><time>2026-04-26T17:18:06Z</time></trkpt><trkpt lat="43.57450842939003" lon="11.34902732085577"><ele>530.5999999999999</ele><time>2026-04-26T17:18:07Z</time></trkpt><trkpt lat="43.574554044907586" lon="11.34912913279278"><ele>531.4</ele><time>2026-04-26T17:18:08Z</time></trkpt><trkpt lat="43.574591106682256" lon="11.349222144690819"><ele>532.1999999999999</ele><time>2026-04-26T17:18:09Z</time></trkpt><trkpt lat="43.57462112711144" lon="11.349366636040173"><ele>533.0</ele><time>2026-04-26T17:18:11Z</time></trkpt><trkpt lat="43.57471046345964" lon="11.349481920928115"><ele>536.5</ele><time>2026-04-26T17:18:13Z</time></trkpt><trkpt lat="43.57480271964898" lon="11.349454741779942"><ele>540.0</ele><time>2026-04-26T17:18:14Z</time></trkpt><trkpt lat="43.57488342501737" lon="11.349451486802467"><ele>543.5</ele><time>2026-04-26T17:18:15Z</time></trkpt><trkpt lat="43.57495054398621" lon="11.349474289458422"><ele>547.0</ele><time>2026-04-26T17:18:16Z</time></trkpt><trkpt lat="43.57499590519645" lon="11.349558032999182"><ele>550.5</ele><time>2026-04-26T17:18:17Z</time></trkpt><trkpt lat="43.57506474398271" lon="11.349610854242204"><ele>554.0</ele><time>2026-04-26T17:18:18Z</time></trkpt><trkpt lat="43.575136430092336" lon="11.349665109494575"><ele>553.8333333333333</ele><time>2026-04-26T17:18:19Z</time></trkpt><trkpt lat="43.575202182910004" lon="11.349715255894132"><ele>553.6666666666666</ele><time>2026-04-26T17:18:20Z</time></trkpt><trkpt lat="43.57526178741222" lon="11.349786353347417"><ele>553.5</ele><time>2026-04-26T17:18:20.999Z</time></trkpt><trkpt lat="43.575311982933734" lon="11.349857744568764"><ele>553.3333333333334</ele><time>2026-04-26T17:18:21.999Z</time></trkpt><trkpt lat="43.57533131098215" lon="11.349952939973207"><ele>553.1666666666667</ele><time>2026-04-26T17:18:22.999Z</time></trkpt><trkpt lat="43.57537892498652" lon="11.350047949671312"><ele>553.0</ele><time>2026-04-26T17:18:23.999Z</time></trkpt><trkpt lat="43.575457173510976" lon="11.350110956833948"><ele>555.6</ele><time>2026-04-26T17:18:24.999Z</time></trkpt><trkpt lat="43.575517498199474" lon="11.350204495775142"><ele>558.1999999999999</ele><time>2026-04-26T17:18:25.999Z</time></trkpt><trkpt lat="43.57557861923992" lon="11.350312099910406"><ele>560.8</ele><time>2026-04-26T17:18:26.999Z</time></trkpt><trkpt lat="43.575622767128024" lon="11.350403020560558"><ele>563.4</ele><time>2026-04-26T17:18:27.999Z</time></trkpt><trkpt lat="43.57566356612352" lon="11.350473178228027"><ele>566.0</ele><time>2026-04-26T17:18:28.999Z</time></trkpt><trkpt lat="43.57578480657365" lon="11.350510342341712"><ele>566.1666666666666</ele><time>2026-04-26T17:18:30.999Z</time></trkpt><trkpt lat="43.57584805687974" lon="11.350546665448217"><ele>566.3333333333333</ele><time>2026-04-26T17:18:31.999Z</time></trkpt><trkpt lat="43.57591571757552" lon="11.350625827701316"><ele>566.5</ele><time>2026-04-26T17:18:32.999Z</time></trkpt><trkpt lat="43.57597095354192" lon="11.350722612231584"><ele>566.6666666666666</ele><time>2026-04-26T17:18:33.999Z</time></trkpt><trkpt lat="43.57604916537621" lon="11.350800236288883"><ele>566.8333333333334</ele><time>2026-04-26T17:18:34.999Z</time></trkpt><trkpt lat="43.57614448170812" lon="11.35084054708692"><ele>567.0</ele><time>2026-04-26T17:18:35.999Z</time></trkpt><trkpt lat="43.576217563843414" lon="11.350889529993966"><ele>570.0</ele><time>2026-04-26T17:18:36.999Z</time></trkpt><trkpt lat="43.57629422027964" lon="11.350936813923822"><ele>573.0</ele><time>2026-04-26T17:18:37.999Z</time></trkpt><trkpt lat="43.57638444947122" lon="11.350981521977513"><ele>576.0</ele><time>2026-04-26T17:18:38.999Z</time></trkpt><trkpt lat="43.576462694922284" lon="11.351032711610596"><ele>579.0</ele><time>2026-04-26T17:18:39.999Z</time></trkpt><trkpt lat="43.576561672740674" lon="11.35106870260294"><ele>582.0</ele><time>2026-04-26T17:18:40.999Z</time></trkpt><trkpt lat="43.57664471085807" lon="11.35113012507149"><ele>582.0</ele><time>2026-04-26T17:18:41.999Z</time></trkpt><trkpt lat="43.57671501070224" lon="11.351191990176323"><ele>582.0</ele><time>2026-04-26T17:18:42.999Z</time></trkpt><trkpt lat="43.576776542652524" lon="11.351222132768836"><ele>582.0</ele><time>2026-04-26T17:18:43.999Z</time></trkpt><trkpt lat="43.57684512290063" lon="11.351260485016391"><ele>582.0</ele><time>2026-04-26T17:18:44.999Z</time></trkpt><trkpt lat="43.576923490574806" lon="11.351274815804562"><ele>582.0</ele><time>2026-04-26T17:18:45.999Z</time></trkpt><trkpt lat="43.57701206280701" lon="11.351250224091041"><ele>582.0</ele><time>2026-04-26T17:18:46.999Z</time></trkpt><trkpt lat="43.57710172519386" lon="11.35116883317938"><ele>582.6666666666666</ele><time>2026-04-26T17:18:47.999Z</time></trkpt><trkpt lat="43.577170099443144" lon="11.351107697281671"><ele>583.3333333333334</ele><time>2026-04-26T17:18:48.999Z</time></trkpt><trkpt lat="43.577227915115415" lon="11.351062892415182"><ele>584.0</ele><time>2026-04-26T17:18:49.999Z</time></trkpt><trkpt lat="43.577337764049595" lon="11.351069913438927"><ele>584.6666666666667</ele><time>2026-04-26T17:18:51.999Z</time></trkpt><trkpt lat="43.57737584137299" lon="11.351143969866294"><ele>585.3333333333334</ele><time>2026-04-26T17:18:52.999Z</time></trkpt><trkpt lat="43.577404946887" lon="11.351246236394726"><ele>586.0</ele><time>2026-04-26T17:18:53.999Z</time></trkpt><trkpt lat="43.57741884647795" lon="11.351339056213751"><ele>587.1666666666667</ele><time>2026-04-26T17:18:54.999Z</time></trkpt><trkpt lat="43.577463015485876" lon="11.351413035879519"><ele>588.3333333333334</ele><time>2026-04-26T17:18:55.999Z</time></trkpt><trkpt lat="43.57753082009165" lon="11.35147358717848"><ele>589.5</ele><time>2026-04-26T17:18:56.999Z</time></trkpt><trkpt lat="43.577587219122" lon="11.351561298797531"><ele>590.6666666666666</ele><time>2026-04-26T17:18:57.999Z</time></trkpt><trkpt lat="43.57763335492761" lon="11.351668397929945"><ele>591.8333333333333</ele><time>2026-04-26T17:18:58.999Z</time></trkpt><trkpt lat="43.57768675974734" lon="11.351753343395979"><ele>593.0</ele><time>2026-04-26T17:18:59.999Z</time></trkpt><trkpt lat="43.57774322554311" lon="11.351836614501787"><ele>593.0</ele><time>2026-04-26T17:19:00.999Z</time></trkpt><trkpt lat="43.57779239021788" lon="11.351907645492954"><ele>593.0</ele><time>2026-04-26T17:19:01.999Z</time></trkpt><trkpt lat="43.577884630787445" lon="11.352014710734084"><ele>593.0</ele><time>2026-04-26T17:19:03.999Z</time></trkpt><trkpt lat="43.577930788217145" lon="11.352077187278253"><ele>593.0</ele><time>2026-04-26T17:19:04.999Z</time></trkpt><trkpt lat="43.578016369487926" lon="11.352199215381413"><ele>593.0</ele><time>2026-04-26T17:19:06.999Z</time></trkpt><trkpt lat="43.57806119990513" lon="11.352279437046839"><ele>594.0</ele><time>2026-04-26T17:19:07.999Z</time></trkpt><trkpt lat="43.57809818377913" lon="11.35235439669923"><ele>595.0</ele><time>2026-04-26T17:19:08.999Z</time></trkpt><trkpt lat="43.578157806452865" lon="11.352496544478063"><ele>596.0</ele><time>2026-04-26T17:19:10.999Z</time></trkpt><trkpt lat="43.57823088546238" lon="11.352647170920363"><ele>597.0</ele><time>2026-04-26T17:19:12.999Z</time></trkpt><trkpt lat="43.578276409650485" lon="11.352721631652008"><ele>598.0</ele><time>2026-04-26T17:19:13.999Z</time></trkpt><trkpt lat="43.57833007698268" lon="11.352800841195455"><ele>598.0</ele><time>2026-04-26T17:19:14.999Z</time></trkpt><trkpt lat="43.578377770561005" lon="11.352881659111965"><ele>598.0</ele><time>2026-04-26T17:19:15.999Z</time></trkpt><trkpt lat="43.5784202238585" lon="11.352961149927804"><ele>598.0</ele><time>2026-04-26T17:19:16.999Z</time></trkpt><trkpt lat="43.57845929276558" lon="11.353048055223036"><ele>598.0</ele><time>2026-04-26T17:19:17.999Z</time></trkpt><trkpt lat="43.57849989492581" lon="11.353127292716437"><ele>598.0</ele><time>2026-04-26T17:19:18.999Z</time></trkpt><trkpt lat="43.57854563356756" lon="11.353195961272917"><ele>598.0</ele><time>2026-04-26T17:19:19.999Z</time></trkpt><trkpt lat="43.57859393653288" lon="11.353258722958278"><ele>598.0</ele><time>2026-04-26T17:19:20.999Z</time></trkpt><trkpt lat="43.57864236525532" lon="11.353326817845637"><ele>599.6</ele><time>2026-04-26T17:19:21.999Z</time></trkpt><trkpt lat="43.57868430058911" lon="11.353406355630181"><ele>601.1999999999999</ele><time>2026-04-26T17:19:22.999Z</time></trkpt><trkpt lat="43.57873128014088" lon="11.353554917926372"><ele>602.8</ele><time>2026-04-26T17:19:24.999Z</time></trkpt><trkpt lat="43.57866265945654" lon="11.353724913526232"><ele>604.4</ele><time>2026-04-26T17:19:26.999Z</time></trkpt><trkpt lat="43.57861875447481" lon="11.353811855837481"><ele>606.0</ele><time>2026-04-26T17:19:27.999Z</time></trkpt><trkpt lat="43.578589096462444" lon="11.353900409906771"><ele>607.0</ele><time>2026-04-26T17:19:28.999Z</time></trkpt><trkpt lat="43.57856934160443" lon="11.353993787285322"><ele>608.0</ele><time>2026-04-26T17:19:29.999Z</time></trkpt><trkpt lat="43.57854567499936" lon="11.354076309701652"><ele>609.0</ele><time>2026-04-26T17:19:30.999Z</time></trkpt><trkpt lat="43.57849140484682" lon="11.354242495129354"><ele>610.0</ele><time>2026-04-26T17:19:32.999Z</time></trkpt><trkpt lat="43.57846643301254" lon="11.354330265809493"><ele>611.0</ele><time>2026-04-26T17:19:33.999Z</time></trkpt><trkpt lat="43.5784274758035" lon="11.354489810258855"><ele>611.0000000000001</ele><time>2026-04-26T17:19:35.999Z</time></trkpt><trkpt lat="43.5784228002483" lon="11.354581450649723"><ele>611.0</ele><time>2026-04-26T17:19:36.999Z</time></trkpt><trkpt lat="43.57841705493405" lon="11.354681049126924"><ele>611.0</ele><time>2026-04-26T17:19:37.999Z</time></trkpt><trkpt lat="43.578384950978126" lon="11.354761338218703"><ele>611.0</ele><time>2026-04-26T17:19:38.999Z</time></trkpt><trkpt lat="43.57833861016523" lon="11.35484751547806"><ele>611.0</ele><time>2026-04-26T17:19:39.999Z</time></trkpt><trkpt lat="43.57828434670764" lon="11.354925515576964"><ele>611.0000000000001</ele><time>2026-04-26T17:19:40.999Z</time></trkpt><trkpt lat="43.57823795817788" lon="11.354993762628228"><ele>611.0</ele><time>2026-04-26T17:19:41.999Z</time></trkpt><trkpt lat="43.57819187241422" lon="11.355062999427153"><ele>611.5</ele><time>2026-04-26T17:19:42.999Z</time></trkpt><trkpt lat="43.57809731115146" lon="11.355151744630126"><ele>612.0</ele><time>2026-04-26T17:19:44.999Z</time></trkpt><trkpt lat="43.57803600407103" lon="11.355173515268904"><ele>612.5</ele><time>2026-04-26T17:19:45.999Z</time></trkpt><trkpt lat="43.57797872621629" lon="11.35522857277478"><ele>613.0</ele><time>2026-04-26T17:19:46.999Z</time></trkpt><trkpt lat="43.57792230077312" lon="11.355304924593648"><ele>613.5</ele><time>2026-04-26T17:19:47.999Z</time></trkpt><trkpt lat="43.5778683234139" lon="11.355400659283754"><ele>614.0</ele><time>2026-04-26T17:19:48.999Z</time></trkpt><trkpt lat="43.577825077206995" lon="11.355489579880219"><ele>615.8333333333333</ele><time>2026-04-26T17:19:49.999Z</time></trkpt><trkpt lat="43.577784244582716" lon="11.355583876482738"><ele>617.6666666666666</ele><time>2026-04-26T17:19:50.999Z</time></trkpt><trkpt lat="43.5777444413767" lon="11.355681869089981"><ele>619.5</ele><time>2026-04-26T17:19:51.999Z</time></trkpt><trkpt lat="43.57768887125958" lon="11.355774947315217"><ele>621.3333333333334</ele><time>2026-04-26T17:19:52.999Z</time></trkpt><trkpt lat="43.577618903794864" lon="11.355869816542528"><ele>623.1666666666667</ele><time>2026-04-26T17:19:53.999Z</time></trkpt><trkpt lat="43.57755486438459" lon="11.355914100598733"><ele>625.0</ele><time>2026-04-26T17:19:54.998Z</time></trkpt><trkpt lat="43.57747039125609" lon="11.35596110582876"><ele>625.0</ele><time>2026-04-26T17:19:56Z</time></trkpt><trkpt lat="43.57738387093516" lon="11.356070920169689"><ele>625.0</ele><time>2026-04-26T17:19:58Z</time></trkpt><trkpt lat="43.5773198563274" lon="11.356105050411855"><ele>625.0</ele><time>2026-04-26T17:19:59Z</time></trkpt><trkpt lat="43.577236862236255" lon="11.356141695812276"><ele>625.0</ele><time>2026-04-26T17:20:00Z</time></trkpt><trkpt lat="43.57714977952919" lon="11.35619161435651"><ele>625.0</ele><time>2026-04-26T17:20:01Z</time></trkpt><trkpt lat="43.5770812501224" lon="11.356237429095911"><ele>625.0</ele><time>2026-04-26T17:20:02Z</time></trkpt><trkpt lat="43.57702406316003" lon="11.3562825855877"><ele>624.1666666666667</ele><time>2026-04-26T17:20:03Z</time></trkpt><trkpt lat="43.57696489824103" lon="11.356348370636448"><ele>623.3333333333334</ele><time>2026-04-26T17:20:04Z</time></trkpt><trkpt lat="43.57691214760893" lon="11.35640315044226"><ele>622.5</ele><time>2026-04-26T17:20:05Z</time></trkpt><trkpt lat="43.57686192080341" lon="11.356471758224528"><ele>621.6666666666666</ele><time>2026-04-26T17:20:06Z</time></trkpt><trkpt lat="43.57682284304657" lon="11.356545426111804"><ele>620.8333333333333</ele><time>2026-04-26T17:20:07Z</time></trkpt><trkpt lat="43.576733363610124" lon="11.35667111784845"><ele>620.0</ele><time>2026-04-26T17:20:09Z</time></trkpt><trkpt lat="43.57667512761887" lon="11.356710721819441"><ele>622.3333333333333</ele><time>2026-04-26T17:20:10Z</time></trkpt><trkpt lat="43.576604705235376" lon="11.35674224392243"><ele>624.6666666666666</ele><time>2026-04-26T17:20:11Z</time></trkpt><trkpt lat="43.576538394708706" lon="11.356776581488203"><ele>627.0</ele><time>2026-04-26T17:20:12Z</time></trkpt><trkpt lat="43.57647457963104" lon="11.356814094584381"><ele>629.3333333333334</ele><time>2026-04-26T17:20:13Z</time></trkpt><trkpt lat="43.57641005632091" lon="11.356855511420957"><ele>631.6666666666667</ele><time>2026-04-26T17:20:14Z</time></trkpt><trkpt lat="43.57629701946301" lon="11.356853053775396"><ele>634.0</ele><time>2026-04-26T17:20:16Z</time></trkpt><trkpt lat="43.57618989765112" lon="11.356804731460018"><ele>633.0</ele><time>2026-04-26T17:20:18Z</time></trkpt><trkpt lat="43.5760866440574" lon="11.356838242463205"><ele>632.0</ele><time>2026-04-26T17:20:20Z</time></trkpt><trkpt lat="43.576067519213844" lon="11.357005324429318"><ele>631.0</ele><time>2026-04-26T17:20:21.999Z</time></trkpt><trkpt lat="43.576097891068244" lon="11.357092726672198"><ele>630.0</ele><time>2026-04-26T17:20:22.999Z</time></trkpt><trkpt lat="43.57616338776973" lon="11.357183551397606"><ele>629.0</ele><time>2026-04-26T17:20:23.999Z</time></trkpt><trkpt lat="43.576254029985684" lon="11.357248908344681"><ele>632.4</ele><time>2026-04-26T17:20:24.999Z</time></trkpt><trkpt lat="43.57635367129741" lon="11.357282519152802"><ele>635.8</ele><time>2026-04-26T17:20:25.999Z</time></trkpt><trkpt lat="43.57646218535933" lon="11.357343134986936"><ele>639.1999999999999</ele><time>2026-04-26T17:20:26.999Z</time></trkpt><trkpt lat="43.576558712543395" lon="11.357413276515999"><ele>642.5999999999999</ele><time>2026-04-26T17:20:27.999Z</time></trkpt><trkpt lat="43.57664958044715" lon="11.357499639817481"><ele>646.0</ele><time>2026-04-26T17:20:28.999Z</time></trkpt><trkpt lat="43.576739128968164" lon="11.357564677775008"><ele>646.0</ele><time>2026-04-26T17:20:29.999Z</time></trkpt><trkpt lat="43.57681922747628" lon="11.35764050050963"><ele>646.0</ele><time>2026-04-26T17:20:30.999Z</time></trkpt><trkpt lat="43.57687954788992" lon="11.35770790676088"><ele>646.0</ele><time>2026-04-26T17:20:31.999Z</time></trkpt><trkpt lat="43.57693846207993" lon="11.35779976537552"><ele>646.0</ele><time>2026-04-26T17:20:32.999Z</time></trkpt><trkpt lat="43.57701141953659" lon="11.357916445054476"><ele>646.0</ele><time>2026-04-26T17:20:33.999Z</time></trkpt><trkpt lat="43.57708852743924" lon="11.358044437104665"><ele>647.1999999999999</ele><time>2026-04-26T17:20:34.999Z</time></trkpt><trkpt lat="43.577153308894374" lon="11.358144195704648"><ele>648.4</ele><time>2026-04-26T17:20:35.999Z</time></trkpt><trkpt lat="43.577206299971266" lon="11.35826580049655"><ele>649.6</ele><time>2026-04-26T17:20:36.999Z</time></trkpt><trkpt lat="43.57724165947825" lon="11.358421865924987"><ele>650.8</ele><time>2026-04-26T17:20:37.999Z</time></trkpt><trkpt lat="43.577277096391796" lon="11.358583196074294"><ele>652.0</ele><time>2026-04-26T17:20:38.999Z</time></trkpt><trkpt lat="43.57731408582246" lon="11.35872896799977"><ele>652.0</ele><time>2026-04-26T17:20:39.999Z</time></trkpt><trkpt lat="43.57735274652671" lon="11.3588367082597"><ele>652.0</ele><time>2026-04-26T17:20:40.999Z</time></trkpt><trkpt lat="43.57740640659309" lon="11.358943425157026"><ele>652.0</ele><time>2026-04-26T17:20:41.999Z</time></trkpt><trkpt lat="43.577461100396995" lon="11.35905644131029"><ele>652.0</ele><time>2026-04-26T17:20:42.999Z</time></trkpt><trkpt lat="43.57752010215251" lon="11.35918129412445"><ele>652.0</ele><time>2026-04-26T17:20:43.999Z</time></trkpt><trkpt lat="43.577588545549645" lon="11.359319993042241"><ele>651.6</ele><time>2026-04-26T17:20:44.999Z</time></trkpt><trkpt lat="43.577653455676085" lon="11.359454932969637"><ele>651.2</ele><time>2026-04-26T17:20:45.999Z</time></trkpt><trkpt lat="43.577713700213685" lon="11.359578491174458"><ele>650.8</ele><time>2026-04-26T17:20:46.999Z</time></trkpt><trkpt lat="43.57776351640133" lon="11.359691719149144"><ele>650.4</ele><time>2026-04-26T17:20:47.999Z</time></trkpt><trkpt lat="43.577812322591676" lon="11.359806664079395"><ele>650.0</ele><time>2026-04-26T17:20:48.999Z</time></trkpt><trkpt lat="43.57782818017073" lon="11.359927761543522"><ele>648.3333333333333</ele><time>2026-04-26T17:20:49.999Z</time></trkpt><trkpt lat="43.577880207103526" lon="11.360035331396416"><ele>646.6666666666666</ele><time>2026-04-26T17:20:50.999Z</time></trkpt><trkpt lat="43.5779260258474" lon="11.360130065725073"><ele>645.0</ele><time>2026-04-26T17:20:51.999Z</time></trkpt><trkpt lat="43.57797358423414" lon="11.36022839635911"><ele>643.3333333333334</ele><time>2026-04-26T17:20:52.999Z</time></trkpt><trkpt lat="43.57802403326442" lon="11.360334938577978"><ele>641.6666666666667</ele><time>2026-04-26T17:20:53.999Z</time></trkpt><trkpt lat="43.57807248040261" lon="11.360443171229226"><ele>640.0</ele><time>2026-04-26T17:20:54.999Z</time></trkpt><trkpt lat="43.57811268289901" lon="11.360556471693615"><ele>639.6</ele><time>2026-04-26T17:20:55.999Z</time></trkpt><trkpt lat="43.57812718901789" lon="11.360687593705542"><ele>639.2</ele><time>2026-04-26T17:20:56.999Z</time></trkpt><trkpt lat="43.57811158183732" lon="11.360847608247914"><ele>638.8</ele><time>2026-04-26T17:20:57.999Z</time></trkpt><trkpt lat="43.57811518821416" lon="11.360983324951752"><ele>638.4</ele><time>2026-04-26T17:20:58.999Z</time></trkpt><trkpt lat="43.57810284452039" lon="11.361080242483094"><ele>638.0</ele><time>2026-04-26T17:20:59.999Z</time></trkpt><trkpt lat="43.578082203014645" lon="11.361185721546853"><ele>638.0</ele><time>2026-04-26T17:21:00.999Z</time></trkpt><trkpt lat="43.578068519931634" lon="11.361291681144376"><ele>638.0</ele><time>2026-04-26T17:21:01.999Z</time></trkpt><trkpt lat="43.57810041298168" lon="11.361383997961134"><ele>638.0</ele><time>2026-04-26T17:21:02.999Z</time></trkpt><trkpt lat="43.57813718572279" lon="11.361486435409951"><ele>638.0</ele><time>2026-04-26T17:21:03.999Z</time></trkpt><trkpt lat="43.57816691312928" lon="11.361615973662323"><ele>638.0</ele><time>2026-04-26T17:21:04.999Z</time></trkpt><trkpt lat="43.578203007195995" lon="11.361749070873772"><ele>638.0</ele><time>2026-04-26T17:21:05.999Z</time></trkpt><trkpt lat="43.57826023734293" lon="11.361839493319676"><ele>637.6666666666666</ele><time>2026-04-26T17:21:06.999Z</time></trkpt><trkpt lat="43.578259259708624" lon="11.361955641400336"><ele>637.3333333333333</ele><time>2026-04-26T17:21:07.999Z</time></trkpt><trkpt lat="43.57824345195521" lon="11.362055383461152"><ele>637.0</ele><time>2026-04-26T17:21:08.999Z</time></trkpt><trkpt lat="43.57823985479939" lon="11.362176268809637"><ele>636.6666666666666</ele><time>2026-04-26T17:21:09.999Z</time></trkpt><trkpt lat="43.57824650419854" lon="11.362299763860124"><ele>636.3333333333334</ele><time>2026-04-26T17:21:10.999Z</time></trkpt><trkpt lat="43.57824835468647" lon="11.362420589086083"><ele>636.0</ele><time>2026-04-26T17:21:11.999Z</time></trkpt><trkpt lat="43.5782386805649" lon="11.362517839239189"><ele>635.0</ele><time>2026-04-26T17:21:12.999Z</time></trkpt><trkpt lat="43.57819900380829" lon="11.36261553230308"><ele>634.0</ele><time>2026-04-26T17:21:13.999Z</time></trkpt><trkpt lat="43.57815186693751" lon="11.362692106473943"><ele>633.0</ele><time>2026-04-26T17:21:14.999Z</time></trkpt><trkpt lat="43.57809803032265" lon="11.362751126422669"><ele>632.0</ele><time>2026-04-26T17:21:15.999Z</time></trkpt><trkpt lat="43.578031118587155" lon="11.362832461208908"><ele>631.0</ele><time>2026-04-26T17:21:16.999Z</time></trkpt><trkpt lat="43.57796937005686" lon="11.362948421092387"><ele>630.0</ele><time>2026-04-26T17:21:17.999Z</time></trkpt><trkpt lat="43.57789860147655" lon="11.363022291013024"><ele>629.8333333333334</ele><time>2026-04-26T17:21:18.999Z</time></trkpt><trkpt lat="43.57781581604802" lon="11.363078778093492"><ele>629.6666666666666</ele><time>2026-04-26T17:21:19.999Z</time></trkpt><trkpt lat="43.577775701291195" lon="11.363146876146471"><ele>629.5</ele><time>2026-04-26T17:21:20.999Z</time></trkpt><trkpt lat="43.57774691439541" lon="11.36323455809619"><ele>629.3333333333333</ele><time>2026-04-26T17:21:21.999Z</time></trkpt><trkpt lat="43.577702740393576" lon="11.363378459425551"><ele>629.1666666666666</ele><time>2026-04-26T17:21:23.999Z</time></trkpt><trkpt lat="43.57763793886679" lon="11.363417192209702"><ele>629.0</ele><time>2026-04-26T17:21:24.999Z</time></trkpt><trkpt lat="43.57756388679109" lon="11.363475057358189"><ele>629.0</ele><time>2026-04-26T17:21:25.999Z</time></trkpt><trkpt lat="43.577496254821426" lon="11.363538666532543"><ele>629.0</ele><time>2026-04-26T17:21:26.999Z</time></trkpt><trkpt lat="43.577405485621156" lon="11.363658526737849"><ele>629.0</ele><time>2026-04-26T17:21:28.999Z</time></trkpt><trkpt lat="43.57735223878333" lon="11.363721494167585"><ele>629.0</ele><time>2026-04-26T17:21:29.999Z</time></trkpt><trkpt lat="43.57724814811109" lon="11.363759272466742"><ele>629.0</ele><time>2026-04-26T17:21:31.999Z</time></trkpt><trkpt lat="43.5771528777652" lon="11.363842733954662"><ele>631.6666666666666</ele><time>2026-04-26T17:21:33.999Z</time></trkpt><trkpt lat="43.57707422989439" lon="11.363937861068944"><ele>634.3333333333333</ele><time>2026-04-26T17:21:35.999Z</time></trkpt><trkpt lat="43.57700231446829" lon="11.363914959758636"><ele>637.0</ele><time>2026-04-26T17:21:36.999Z</time></trkpt><trkpt lat="43.57691930591954" lon="11.363895916552972"><ele>639.6666666666666</ele><time>2026-04-26T17:21:37.999Z</time></trkpt><trkpt lat="43.57684362535812" lon="11.363920881181336"><ele>642.3333333333334</ele><time>2026-04-26T17:21:38.999Z</time></trkpt><trkpt lat="43.57677944757648" lon="11.363931381123301"><ele>645.0</ele><time>2026-04-26T17:21:39.999Z</time></trkpt><trkpt lat="43.5766933468471" lon="11.363895947652004"><ele>642.6</ele><time>2026-04-26T17:21:40.999Z</time></trkpt><trkpt lat="43.576585436987216" lon="11.363849288148211"><ele>640.2</ele><time>2026-04-26T17:21:41.999Z</time></trkpt><trkpt lat="43.576475789023704" lon="11.36384987278336"><ele>637.8</ele><time>2026-04-26T17:21:42.999Z</time></trkpt><trkpt lat="43.576366239716855" lon="11.363839655589501"><ele>635.4</ele><time>2026-04-26T17:21:43.999Z</time></trkpt><trkpt lat="43.57626809616709" lon="11.363803146221292"><ele>633.0</ele><time>2026-04-26T17:21:44.999Z</time></trkpt><trkpt lat="43.576171488833516" lon="11.363779241880906"><ele>633.0</ele><time>2026-04-26T17:21:45.999Z</time></trkpt><trkpt lat="43.576083260780315" lon="11.363746685748868"><ele>633.0</ele><time>2026-04-26T17:21:46.999Z</time></trkpt><trkpt lat="43.57601091051318" lon="11.363721275527991"><ele>633.0</ele><time>2026-04-26T17:21:47.999Z</time></trkpt><trkpt lat="43.57593292343513" lon="11.363729821048608"><ele>633.0</ele><time>2026-04-26T17:21:48.999Z</time></trkpt><trkpt lat="43.575851622795014" lon="11.363767554922337"><ele>633.0</ele><time>2026-04-26T17:21:49.999Z</time></trkpt><trkpt lat="43.57574912854288" lon="11.363837481826078"><ele>633.0</ele><time>2026-04-26T17:21:50.999Z</time></trkpt><trkpt lat="43.575652141961406" lon="11.363903198086929"><ele>637.8</ele><time>2026-04-26T17:21:51.998Z</time></trkpt><trkpt lat="43.57558699566409" lon="11.36394357743006"><ele>642.5999999999999</ele><time>2026-04-26T17:21:52.998Z</time></trkpt><trkpt lat="43.575497974492926" lon="11.36395343309527"><ele>647.4000000000001</ele><time>2026-04-26T17:21:54.998Z</time></trkpt><trkpt lat="43.57540023277189" lon="11.363894682667848"><ele>652.2</ele><time>2026-04-26T17:21:56.998Z</time></trkpt><trkpt lat="43.5753209861156" lon="11.363874623272372"><ele>657.0</ele><time>2026-04-26T17:21:57.998Z</time></trkpt><trkpt lat="43.57521692322954" lon="11.36378424463607"><ele>657.0</ele><time>2026-04-26T17:21:59.998Z</time></trkpt><trkpt lat="43.57512989536716" lon="11.363700708119879"><ele>657.0</ele><time>2026-04-26T17:22:00.998Z</time></trkpt><trkpt lat="43.575067291222375" lon="11.36362171392875"><ele>657.0</ele><time>2026-04-26T17:22:02Z</time></trkpt><trkpt lat="43.57501208415039" lon="11.363577340154533"><ele>657.0</ele><time>2026-04-26T17:22:03Z</time></trkpt><trkpt lat="43.574951765615126" lon="11.36350808887321"><ele>657.0</ele><time>2026-04-26T17:22:04Z</time></trkpt><trkpt lat="43.574859468107306" lon="11.363446559202368"><ele>657.0</ele><time>2026-04-26T17:22:05Z</time></trkpt><trkpt lat="43.574798378883" lon="11.363403809412349"><ele>657.0</ele><time>2026-04-26T17:22:06Z</time></trkpt><trkpt lat="43.57468551432299" lon="11.363429426442304"><ele>657.0</ele><time>2026-04-26T17:22:08Z</time></trkpt><trkpt lat="43.574587969861284" lon="11.3635370637681"><ele>657.0</ele><time>2026-04-26T17:22:10Z</time></trkpt><trkpt lat="43.574528367873675" lon="11.36358541660488"><ele>657.0</ele><time>2026-04-26T17:22:11Z</time></trkpt><trkpt lat="43.574438443158115" lon="11.363680714150792"><ele>657.0</ele><time>2026-04-26T17:22:13Z</time></trkpt><trkpt lat="43.57435392008657" lon="11.363823476611282"><ele>660.8</ele><time>2026-04-26T17:22:15Z</time></trkpt><trkpt lat="43.5742648569974" lon="11.364044434469797"><ele>664.6</ele><time>2026-04-26T17:22:18Z</time></trkpt><trkpt lat="43.574225509015186" lon="11.364178289692429"><ele>668.4</ele><time>2026-04-26T17:22:20Z</time></trkpt><trkpt lat="43.57420130214908" lon="11.364263160913117"><ele>672.1999999999999</ele><time>2026-04-26T17:22:21Z</time></trkpt><trkpt lat="43.57416518364032" lon="11.36433960405341"><ele>676.0</ele><time>2026-04-26T17:22:22Z</time></trkpt><trkpt lat="43.574107606392886" lon="11.364471324064127"><ele>676.0</ele><time>2026-04-26T17:22:23.999Z</time></trkpt><trkpt lat="43.57407453751572" lon="11.364557915038162"><ele>676.0</ele><time>2026-04-26T17:22:25.999Z</time></trkpt><trkpt lat="43.5740465703527" lon="11.36467195247434"><ele>676.0</ele><time>2026-04-26T17:22:28.999Z</time></trkpt><trkpt lat="43.5739954335432" lon="11.364749750210121"><ele>676.0</ele><time>2026-04-26T17:22:30.999Z</time></trkpt><trkpt lat="43.57395123762816" lon="11.364884170784228"><ele>676.0</ele><time>2026-04-26T17:22:32.999Z</time></trkpt><trkpt lat="43.57392802728687" lon="11.365029687565917"><ele>676.0</ele><time>2026-04-26T17:22:34.999Z</time></trkpt><trkpt lat="43.57392291411535" lon="11.365165587334493"><ele>679.1999999999999</ele><time>2026-04-26T17:22:36.999Z</time></trkpt><trkpt lat="43.57392367692808" lon="11.36532481096559"><ele>682.4</ele><time>2026-04-26T17:22:38.999Z</time></trkpt><trkpt lat="43.57392308303436" lon="11.365487340114612"><ele>685.6</ele><time>2026-04-26T17:22:40.999Z</time></trkpt><trkpt lat="43.57392668396679" lon="11.365638905808638"><ele>688.8</ele><time>2026-04-26T17:22:42.999Z</time></trkpt><trkpt lat="43.573931118647515" lon="11.365734085731672"><ele>692.0</ele><time>2026-04-26T17:22:43.999Z</time></trkpt><trkpt lat="43.57392618334712" lon="11.365860863123226"><ele>693.0</ele><time>2026-04-26T17:22:44.999Z</time></trkpt><trkpt lat="43.57392071133397" lon="11.365988283443086"><ele>694.0</ele><time>2026-04-26T17:22:45.999Z</time></trkpt><trkpt lat="43.57392566574961" lon="11.36609077556675"><ele>695.0</ele><time>2026-04-26T17:22:46.999Z</time></trkpt><trkpt lat="43.57394158978149" lon="11.366182124008192"><ele>696.0</ele><time>2026-04-26T17:22:47.999Z</time></trkpt><trkpt lat="43.573951184653716" lon="11.366283749380699"><ele>697.0</ele><time>2026-04-26T17:22:48.999Z</time></trkpt><trkpt lat="43.57395337059577" lon="11.366377648164432"><ele>698.0</ele><time>2026-04-26T17:22:49.999Z</time></trkpt><trkpt lat="43.57395400331361" lon="11.366467260016286"><ele>699.0</ele><time>2026-04-26T17:22:50.999Z</time></trkpt><trkpt lat="43.57394473677968" lon="11.366665655469495"><ele>699.2</ele><time>2026-04-26T17:22:52.999Z</time></trkpt><trkpt lat="43.57393569220409" lon="11.36680708076205"><ele>699.4000000000001</ele><time>2026-04-26T17:22:53.999Z</time></trkpt><trkpt lat="43.573929947167834" lon="11.36691368212711"><ele>699.6</ele><time>2026-04-26T17:22:54.999Z</time></trkpt><trkpt lat="43.573944884703685" lon="11.367054940422408"><ele>699.8</ele><time>2026-04-26T17:22:56.999Z</time></trkpt><trkpt lat="43.5740226887232" lon="11.367122337663554"><ele>700.0</ele><time>2026-04-26T17:22:58.999Z</time></trkpt><trkpt lat="43.574076237053546" lon="11.366998252364116"><ele>700.0</ele><time>2026-04-26T17:23:00.999Z</time></trkpt><trkpt lat="43.57407865208522" lon="11.36690995386827"><ele>700.0</ele><time>2026-04-26T17:23:01.999Z</time></trkpt><trkpt lat="43.574109698363706" lon="11.366773220984129"><ele>700.0</ele><time>2026-04-26T17:23:03.999Z</time></trkpt><trkpt lat="43.57417220698974" lon="11.366674559352075"><ele>700.0</ele><time>2026-04-26T17:23:05.999Z</time></trkpt><trkpt lat="43.574234634443826" lon="11.366580317809001"><ele>700.0</ele><time>2026-04-26T17:23:07.999Z</time></trkpt><trkpt lat="43.57426907747449" lon="11.366498067051896"><ele>700.0</ele><time>2026-04-26T17:23:08.999Z</time></trkpt><trkpt lat="43.5743280158579" lon="11.3663850063582"><ele>699.75</ele><time>2026-04-26T17:23:10.999Z</time></trkpt><trkpt lat="43.574375287006916" lon="11.366311317565568"><ele>699.5</ele><time>2026-04-26T17:23:11.999Z</time></trkpt><trkpt lat="43.57445358324692" lon="11.366106515582702"><ele>699.25</ele><time>2026-04-26T17:23:13.999Z</time></trkpt><trkpt lat="43.57452118724792" lon="11.365977262177205"><ele>699.0</ele><time>2026-04-26T17:23:15.999Z</time></trkpt><trkpt lat="43.574612242254425" lon="11.3658827126446"><ele>702.2</ele><time>2026-04-26T17:23:17.999Z</time></trkpt><trkpt lat="43.57468382123271" lon="11.365841218150582"><ele>705.4000000000001</ele><time>2026-04-26T17:23:18.999Z</time></trkpt><trkpt lat="43.57480185061061" lon="11.365781934779985"><ele>708.6</ele><time>2026-04-26T17:23:20.999Z</time></trkpt><trkpt lat="43.5748654341644" lon="11.365731977821019"><ele>711.8</ele><time>2026-04-26T17:23:21.999Z</time></trkpt><trkpt lat="43.57496207507224" lon="11.365719843219864"><ele>715.0</ele><time>2026-04-26T17:23:23.999Z</time></trkpt><trkpt lat="43.57500043464216" lon="11.365861455230334"><ele>715.0</ele><time>2026-04-26T17:23:25.999Z</time></trkpt><trkpt lat="43.574974148475555" lon="11.366003030250662"><ele>715.0</ele><time>2026-04-26T17:23:27.999Z</time></trkpt><trkpt lat="43.57505810380471" lon="11.366088552934917"><ele>715.0</ele><time>2026-04-26T17:23:29.999Z</time></trkpt><trkpt lat="43.57509793261935" lon="11.366216573305449"><ele>715.0</ele><time>2026-04-26T17:23:31.999Z</time></trkpt><trkpt lat="43.575167633283606" lon="11.366346865352323"><ele>715.0</ele><time>2026-04-26T17:23:33.999Z</time></trkpt><trkpt lat="43.57522672481602" lon="11.366477092411523"><ele>717.0</ele><time>2026-04-26T17:23:35.999Z</time></trkpt><trkpt lat="43.57523947730153" lon="11.366583116524083"><ele>719.0</ele><time>2026-04-26T17:23:37.999Z</time></trkpt><trkpt lat="43.57529240092215" lon="11.366753597660999"><ele>721.0</ele><time>2026-04-26T17:23:39.999Z</time></trkpt><trkpt lat="43.57537724583646" lon="11.366871036676955"><ele>723.0</ele><time>2026-04-26T17:23:41.999Z</time></trkpt><trkpt lat="43.575419140915294" lon="11.366971539946213"><ele>725.0</ele><time>2026-04-26T17:23:42.999Z</time></trkpt><trkpt lat="43.57544342233716" lon="11.367055252444215"><ele>725.8333333333333</ele><time>2026-04-26T17:23:43.999Z</time></trkpt><trkpt lat="43.5755437505584" lon="11.367202849711378"><ele>726.6666666666666</ele><time>2026-04-26T17:23:45.999Z</time></trkpt><trkpt lat="43.57559171436378" lon="11.367287472418052"><ele>727.5</ele><time>2026-04-26T17:23:46.999Z</time></trkpt><trkpt lat="43.57564202515787" lon="11.367359515870483"><ele>728.3333333333334</ele><time>2026-04-26T17:23:47.999Z</time></trkpt><trkpt lat="43.57569455290207" lon="11.367436178496947"><ele>729.1666666666667</ele><time>2026-04-26T17:23:48.999Z</time></trkpt><trkpt lat="43.575727460684604" lon="11.36751238800152"><ele>730.0</ele><time>2026-04-26T17:23:49.999Z</time></trkpt><trkpt lat="43.57577101575397" lon="11.36758113432248"><ele>730.0000000000001</ele><time>2026-04-26T17:23:50.999Z</time></trkpt><trkpt lat="43.57582022938894" lon="11.367660759361746"><ele>730.0</ele><time>2026-04-26T17:23:51.999Z</time></trkpt><trkpt lat="43.5758766876802" lon="11.367749157193582"><ele>730.0</ele><time>2026-04-26T17:23:52.999Z</time></trkpt><trkpt lat="43.57592574575649" lon="11.367825644128107"><ele>730.0</ele><time>2026-04-26T17:23:53.999Z</time></trkpt><trkpt lat="43.575960939731445" lon="11.367903278312196"><ele>730.0</ele><time>2026-04-26T17:23:54.998Z</time></trkpt><trkpt lat="43.575970790199825" lon="11.367995648908035"><ele>730.0000000000001</ele><time>2026-04-26T17:23:55.998Z</time></trkpt><trkpt lat="43.575966741956" lon="11.368082713537271"><ele>730.0</ele><time>2026-04-26T17:23:56.998Z</time></trkpt><trkpt lat="43.57602967235038" lon="11.368246949074992"><ele>730.1666666666667</ele><time>2026-04-26T17:23:58.998Z</time></trkpt><trkpt lat="43.57604439979196" lon="11.368360304575003"><ele>730.3333333333334</ele><time>2026-04-26T17:23:59.998Z</time></trkpt><trkpt lat="43.57604149979654" lon="11.368482044046026"><ele>730.5</ele><time>2026-04-26T17:24:00.998Z</time></trkpt><trkpt lat="43.57602993617654" lon="11.368581346646199"><ele>730.6666666666666</ele><time>2026-04-26T17:24:01.998Z</time></trkpt><trkpt lat="43.576010839033636" lon="11.368671388994077"><ele>730.8333333333333</ele><time>2026-04-26T17:24:02.998Z</time></trkpt><trkpt lat="43.57600796162646" lon="11.368758861344146"><ele>731.0</ele><time>2026-04-26T17:24:03.998Z</time></trkpt><trkpt lat="43.57607297757758" lon="11.368908887748793"><ele>731.8</ele><time>2026-04-26T17:24:05.998Z</time></trkpt><trkpt lat="43.576063604808866" lon="11.368996206284011"><ele>732.5999999999999</ele><time>2026-04-26T17:24:06.998Z</time></trkpt><trkpt lat="43.576019461530365" lon="11.369088882819465"><ele>733.4</ele><time>2026-04-26T17:24:08Z</time></trkpt><trkpt lat="43.57598186548773" lon="11.369162490359075"><ele>734.2</ele><time>2026-04-26T17:24:09.001Z</time></trkpt><trkpt lat="43.57596375061542" lon="11.36937117290133"><ele>735.0</ele><time>2026-04-26T17:24:11.001Z</time></trkpt><trkpt lat="43.57595511302794" lon="11.369573296950907"><ele>735.0</ele><time>2026-04-26T17:24:13.001Z</time></trkpt><trkpt lat="43.57595086610631" lon="11.36969054925817"><ele>735.0</ele><time>2026-04-26T17:24:14.001Z</time></trkpt><trkpt lat="43.57597375366027" lon="11.369865038291703"><ele>735.0</ele><time>2026-04-26T17:24:16.001Z</time></trkpt><trkpt lat="43.57598574390877" lon="11.369981350530102"><ele>735.0</ele><time>2026-04-26T17:24:18.001Z</time></trkpt><trkpt lat="43.575995221232866" lon="11.370107143554137"><ele>735.0</ele><time>2026-04-26T17:24:20.001Z</time></trkpt><trkpt lat="43.57601033272561" lon="11.370217306400782"><ele>735.0</ele><time>2026-04-26T17:24:22.001Z</time></trkpt><trkpt lat="43.57601085866664" lon="11.370335738068494"><ele>735.0</ele><time>2026-04-26T17:24:24.001Z</time></trkpt><trkpt lat="43.57600858640142" lon="11.370450103499433"><ele>735.0</ele><time>2026-04-26T17:24:26Z</time></trkpt><trkpt lat="43.5760656388128" lon="11.370579747492357"><ele>735.0</ele><time>2026-04-26T17:24:28Z</time></trkpt><trkpt lat="43.57611661728934" lon="11.370734882959452"><ele>735.0</ele><time>2026-04-26T17:24:30Z</time></trkpt><trkpt lat="43.57607959311745" lon="11.370887816644696"><ele>734.0</ele><time>2026-04-26T17:24:32Z</time></trkpt><trkpt lat="43.57602684757368" lon="11.371039166313025"><ele>733.0</ele><time>2026-04-26T17:24:34Z</time></trkpt><trkpt lat="43.57600022639258" lon="11.371149614354254"><ele>732.0</ele><time>2026-04-26T17:24:35Z</time></trkpt><trkpt lat="43.575989141683415" lon="11.371242670335807"><ele>731.0</ele><time>2026-04-26T17:24:36Z</time></trkpt><trkpt lat="43.5759687020831" lon="11.371396767364432"><ele>730.0</ele><time>2026-04-26T17:24:38Z</time></trkpt><trkpt lat="43.57595057033249" lon="11.371495151368457"><ele>729.6666666666667</ele><time>2026-04-26T17:24:40Z</time></trkpt><trkpt lat="43.57591246942685" lon="11.371644605132175"><ele>729.3333333333334</ele><time>2026-04-26T17:24:42Z</time></trkpt><trkpt lat="43.57589378082112" lon="11.371743266047812"><ele>729.0</ele><time>2026-04-26T17:24:43Z</time></trkpt><trkpt lat="43.575885820561666" lon="11.371838452964507"><ele>728.6666666666666</ele><time>2026-04-26T17:24:44Z</time></trkpt><trkpt lat="43.57587374740786" lon="11.371991605071868"><ele>728.3333333333333</ele><time>2026-04-26T17:24:46Z</time></trkpt><trkpt lat="43.57588865224859" lon="11.372079243532927"><ele>728.0</ele><time>2026-04-26T17:24:48Z</time></trkpt><trkpt lat="43.57586160232321" lon="11.372193974432099"><ele>727.6666666666666</ele><time>2026-04-26T17:24:49Z</time></trkpt><trkpt lat="43.57582443898638" lon="11.37229720389531"><ele>727.3333333333333</ele><time>2026-04-26T17:24:50Z</time></trkpt><trkpt lat="43.57578153092985" lon="11.372410721214246"><ele>727.0</ele><time>2026-04-26T17:24:51Z</time></trkpt><trkpt lat="43.57583726899558" lon="11.372468489978592"><ele>726.6666666666666</ele><time>2026-04-26T17:24:53Z</time></trkpt><trkpt lat="43.57584857740628" lon="11.372557521136892"><ele>726.3333333333334</ele><time>2026-04-26T17:24:54Z</time></trkpt><trkpt lat="43.57585645641783" lon="11.372649080249783"><ele>726.0</ele><time>2026-04-26T17:24:55Z</time></trkpt><trkpt lat="43.57586124951384" lon="11.372781475916023"><ele>726.0</ele><time>2026-04-26T17:24:56Z</time></trkpt><trkpt lat="43.575879467618314" lon="11.372886511102818"><ele>726.0</ele><time>2026-04-26T17:24:57Z</time></trkpt><trkpt lat="43.575893721427654" lon="11.37302551918404"><ele>726.0</ele><time>2026-04-26T17:24:59Z</time></trkpt><trkpt lat="43.57589018536628" lon="11.37316435743618"><ele>726.0</ele><time>2026-04-26T17:25:01Z</time></trkpt><trkpt lat="43.57585686278591" lon="11.37329406514346"><ele>726.0</ele><time>2026-04-26T17:25:03Z</time></trkpt><trkpt lat="43.57576266299796" lon="11.373368404908968"><ele>725.5</ele><time>2026-04-26T17:25:05Z</time></trkpt><trkpt lat="43.57566515532805" lon="11.373494918019658"><ele>725.0</ele><time>2026-04-26T17:25:07Z</time></trkpt><trkpt lat="43.57561700734803" lon="11.373552429913033"><ele>724.5</ele><time>2026-04-26T17:25:08Z</time></trkpt><trkpt lat="43.57555870195942" lon="11.373656895949267"><ele>724.0</ele><time>2026-04-26T17:25:10Z</time></trkpt><trkpt lat="43.575539637010095" lon="11.373739897972818"><ele>723.5</ele><time>2026-04-26T17:25:12Z</time></trkpt><trkpt lat="43.57559177147965" lon="11.373794548560792"><ele>723.0</ele><time>2026-04-26T17:25:30Z</time></trkpt><trkpt lat="43.57569112034819" lon="11.373725045890271"><ele>723.0</ele><time>2026-04-26T17:25:32Z</time></trkpt><trkpt lat="43.575765145479444" lon="11.373646165960391"><ele>723.0</ele><time>2026-04-26T17:25:33Z</time></trkpt><trkpt lat="43.57585835293725" lon="11.373576092148603"><ele>723.0</ele><time>2026-04-26T17:25:34Z</time></trkpt><trkpt lat="43.575972742479756" lon="11.373562131419641"><ele>723.0</ele><time>2026-04-26T17:25:35Z</time></trkpt><trkpt lat="43.57609539854671" lon="11.373510143882056"><ele>723.0</ele><time>2026-04-26T17:25:36Z</time></trkpt><trkpt lat="43.576228956096315" lon="11.373531910542265"><ele>724.25</ele><time>2026-04-26T17:25:37Z</time></trkpt><trkpt lat="43.57636651543592" lon="11.37355740460787"><ele>725.5</ele><time>2026-04-26T17:25:38Z</time></trkpt><trkpt lat="43.57648832105844" lon="11.373577136842124"><ele>726.75</ele><time>2026-04-26T17:25:39Z</time></trkpt><trkpt lat="43.57659163051115" lon="11.373616909206067"><ele>728.0</ele><time>2026-04-26T17:25:40Z</time></trkpt><trkpt lat="43.5766914287594" lon="11.373640332167405"><ele>728.0</ele><time>2026-04-26T17:25:41Z</time></trkpt><trkpt lat="43.576790292795515" lon="11.37364898742956"><ele>728.0</ele><time>2026-04-26T17:25:42Z</time></trkpt><trkpt lat="43.57689023480439" lon="11.373644491733286"><ele>728.0</ele><time>2026-04-26T17:25:43Z</time></trkpt><trkpt lat="43.57697585461103" lon="11.373613903481587"><ele>728.0</ele><time>2026-04-26T17:25:44Z</time></trkpt><trkpt lat="43.57707408785126" lon="11.37354799802225"><ele>728.0</ele><time>2026-04-26T17:25:45Z</time></trkpt><trkpt lat="43.57718326337705" lon="11.373480049518433"><ele>727.25</ele><time>2026-04-26T17:25:46Z</time></trkpt><trkpt lat="43.57730133285521" lon="11.373468138417246"><ele>726.5</ele><time>2026-04-26T17:25:47Z</time></trkpt><trkpt lat="43.577421270802176" lon="11.373467021505718"><ele>725.75</ele><time>2026-04-26T17:25:48Z</time></trkpt><trkpt lat="43.5775310872234" lon="11.373458510397079"><ele>725.0</ele><time>2026-04-26T17:25:49Z</time></trkpt><trkpt lat="43.57763566093926" lon="11.373468960405598"><ele>725.0</ele><time>2026-04-26T17:25:50Z</time></trkpt><trkpt lat="43.57773206201127" lon="11.373457108857131"><ele>725.0</ele><time>2026-04-26T17:25:51Z</time></trkpt><trkpt lat="43.577817357215636" lon="11.373414426998993"><ele>725.0</ele><time>2026-04-26T17:25:52Z</time></trkpt><trkpt lat="43.57788914235439" lon="11.373340392716328"><ele>725.0</ele><time>2026-04-26T17:25:53Z</time></trkpt><trkpt lat="43.577947624866916" lon="11.373233407196588"><ele>725.0</ele><time>2026-04-26T17:25:54Z</time></trkpt><trkpt lat="43.57800614978176" lon="11.373114025840618"><ele>724.4</ele><time>2026-04-26T17:25:55Z</time></trkpt><trkpt lat="43.57805944847415" lon="11.373001255998178"><ele>723.8</ele><time>2026-04-26T17:25:56Z</time></trkpt><trkpt lat="43.5781047718496" lon="11.3729060817276"><ele>723.2</ele><time>2026-04-26T17:25:56.999Z</time></trkpt><trkpt lat="43.57816147209387" lon="11.37279974414787"><ele>722.6</ele><time>2026-04-26T17:25:57.999Z</time></trkpt><trkpt lat="43.5782291370848" lon="11.372688045023784"><ele>722.0</ele><time>2026-04-26T17:25:58.999Z</time></trkpt><trkpt lat="43.57831079253133" lon="11.372588173895299"><ele>722.0</ele><time>2026-04-26T17:25:59.999Z</time></trkpt><trkpt lat="43.57839578346864" lon="11.372502655426926"><ele>722.0</ele><time>2026-04-26T17:26:00.999Z</time></trkpt><trkpt lat="43.57848821578396" lon="11.372424527012631"><ele>722.0</ele><time>2026-04-26T17:26:01.999Z</time></trkpt><trkpt lat="43.57857288664303" lon="11.372352262711782"><ele>722.0</ele><time>2026-04-26T17:26:02.999Z</time></trkpt><trkpt lat="43.57865786280586" lon="11.372281206317176"><ele>722.0</ele><time>2026-04-26T17:26:03.999Z</time></trkpt><trkpt lat="43.57874368091388" lon="11.372210510769474"><ele>719.4000000000001</ele><time>2026-04-26T17:26:04.999Z</time></trkpt><trkpt lat="43.578835863112545" lon="11.372145357079154"><ele>716.8000000000001</ele><time>2026-04-26T17:26:05.999Z</time></trkpt><trkpt lat="43.57893314590705" lon="11.372087187209925"><ele>714.2</ele><time>2026-04-26T17:26:06.999Z</time></trkpt><trkpt lat="43.57901794960109" lon="11.372040984703563"><ele>711.6</ele><time>2026-04-26T17:26:07.999Z</time></trkpt><trkpt lat="43.57908982600815" lon="11.371968999859934"><ele>709.0</ele><time>2026-04-26T17:26:08.999Z</time></trkpt><trkpt lat="43.57915414794647" lon="11.371871788139588"><ele>709.0</ele><time>2026-04-26T17:26:09.999Z</time></trkpt><trkpt lat="43.579209961552834" lon="11.37176248553363"><ele>709.0</ele><time>2026-04-26T17:26:10.999Z</time></trkpt><trkpt lat="43.579268909083005" lon="11.371667419114049"><ele>709.0</ele><time>2026-04-26T17:26:11.999Z</time></trkpt><trkpt lat="43.57933059049083" lon="11.371588521137278"><ele>709.0</ele><time>2026-04-26T17:26:13Z</time></trkpt><trkpt lat="43.579412902622934" lon="11.371523070230905"><ele>709.0</ele><time>2026-04-26T17:26:14Z</time></trkpt><trkpt lat="43.57950971390143" lon="11.371477434264891"><ele>709.6</ele><time>2026-04-26T17:26:15Z</time></trkpt><trkpt lat="43.57960820653998" lon="11.371453434391833"><ele>710.2</ele><time>2026-04-26T17:26:16Z</time></trkpt><trkpt lat="43.5797024907231" lon="11.371453861216606"><ele>710.8000000000001</ele><time>2026-04-26T17:26:17Z</time></trkpt><trkpt lat="43.57979711109637" lon="11.371455948811676"><ele>711.4000000000001</ele><time>2026-04-26T17:26:18Z</time></trkpt><trkpt lat="43.57988341583742" lon="11.371446186537767"><ele>712.0</ele><time>2026-04-26T17:26:19Z</time></trkpt><trkpt lat="43.57996566072067" lon="11.371397763672176"><ele>708.4000000000001</ele><time>2026-04-26T17:26:20Z</time></trkpt><trkpt lat="43.5800474595693" lon="11.371295090631074"><ele>704.8000000000001</ele><time>2026-04-26T17:26:21Z</time></trkpt><trkpt lat="43.58012559352662" lon="11.371180116062957"><ele>701.2</ele><time>2026-04-26T17:26:22Z</time></trkpt><trkpt lat="43.580184013312085" lon="11.37107713271284"><ele>697.6</ele><time>2026-04-26T17:26:23Z</time></trkpt><trkpt lat="43.58023654821062" lon="11.37099234717627"><ele>694.0</ele><time>2026-04-26T17:26:24Z</time></trkpt><trkpt lat="43.58030010799112" lon="11.37092425184699"><ele>693.0</ele><time>2026-04-26T17:26:25Z</time></trkpt><trkpt lat="43.580373848292695" lon="11.37090095922202"><ele>692.0</ele><time>2026-04-26T17:26:26Z</time></trkpt><trkpt lat="43.58045919053843" lon="11.370930059190691"><ele>691.0</ele><time>2026-04-26T17:26:27Z</time></trkpt><trkpt lat="43.58053491063392" lon="11.371031968677952"><ele>690.0</ele><time>2026-04-26T17:26:28Z</time></trkpt><trkpt lat="43.580641163050174" lon="11.37108777559681"><ele>689.0</ele><time>2026-04-26T17:26:29Z</time></trkpt><trkpt lat="43.58073367760936" lon="11.371156896377506"><ele>689.0</ele><time>2026-04-26T17:26:30Z</time></trkpt><trkpt lat="43.58082241540126" lon="11.37120737337042"><ele>689.0</ele><time>2026-04-26T17:26:31Z</time></trkpt><trkpt lat="43.58090685390435" lon="11.371242179634992"><ele>689.0</ele><time>2026-04-26T17:26:32Z</time></trkpt><trkpt lat="43.58100065422942" lon="11.37126141905133"><ele>689.0</ele><time>2026-04-26T17:26:33Z</time></trkpt><trkpt lat="43.58110040143784" lon="11.371259937332567"><ele>689.0</ele><time>2026-04-26T17:26:34Z</time></trkpt><trkpt lat="43.5812038323505" lon="11.371245715019228"><ele>687.0</ele><time>2026-04-26T17:26:35Z</time></trkpt><trkpt lat="43.58130477858632" lon="11.371232990059097"><ele>685.0</ele><time>2026-04-26T17:26:36Z</time></trkpt><trkpt lat="43.581403204455945" lon="11.371226898232356"><ele>683.0</ele><time>2026-04-26T17:26:37Z</time></trkpt><trkpt lat="43.58150367744283" lon="11.371203817469564"><ele>681.0</ele><time>2026-04-26T17:26:38Z</time></trkpt><trkpt lat="43.581605719224335" lon="11.371193204913546"><ele>679.0</ele><time>2026-04-26T17:26:39Z</time></trkpt><trkpt lat="43.58169520785686" lon="11.371177954090385"><ele>679.0</ele><time>2026-04-26T17:26:40Z</time></trkpt><trkpt lat="43.58178732702709" lon="11.371163109084907"><ele>679.0</ele><time>2026-04-26T17:26:41Z</time></trkpt><trkpt lat="43.58187565381014" lon="11.371133288184737"><ele>679.0</ele><time>2026-04-26T17:26:42Z</time></trkpt><trkpt lat="43.5819689272661" lon="11.37110526345638"><ele>679.0</ele><time>2026-04-26T17:26:43Z</time></trkpt><trkpt lat="43.582062311893594" lon="11.371075694424148"><ele>679.0</ele><time>2026-04-26T17:26:44Z</time></trkpt><trkpt lat="43.58215288560662" lon="11.371039202328042"><ele>677.2</ele><time>2026-04-26T17:26:45Z</time></trkpt><trkpt lat="43.58224905999016" lon="11.371003695109739"><ele>675.4000000000001</ele><time>2026-04-26T17:26:46Z</time></trkpt><trkpt lat="43.58234844146174" lon="11.370968726837994"><ele>673.6</ele><time>2026-04-26T17:26:47Z</time></trkpt><trkpt lat="43.582448229395844" lon="11.370932453623885"><ele>671.8</ele><time>2026-04-26T17:26:48Z</time></trkpt><trkpt lat="43.582549967048394" lon="11.370897462501365"><ele>670.0</ele><time>2026-04-26T17:26:49Z</time></trkpt><trkpt lat="43.58264304440852" lon="11.370834817783706"><ele>670.0</ele><time>2026-04-26T17:26:50Z</time></trkpt><trkpt lat="43.58273783507023" lon="11.370779822290679"><ele>670.0</ele><time>2026-04-26T17:26:51Z</time></trkpt><trkpt lat="43.58283170476141" lon="11.370722870370212"><ele>670.0</ele><time>2026-04-26T17:26:52Z</time></trkpt><trkpt lat="43.58291785619534" lon="11.370652378528675"><ele>670.0</ele><time>2026-04-26T17:26:53Z</time></trkpt><trkpt lat="43.58299212014509" lon="11.370575655971871"><ele>670.0</ele><time>2026-04-26T17:26:54Z</time></trkpt><trkpt lat="43.583067991879496" lon="11.370491243776453"><ele>668.6</ele><time>2026-04-26T17:26:55Z</time></trkpt><trkpt lat="43.58314392172819" lon="11.370405725596763"><ele>667.2</ele><time>2026-04-26T17:26:56Z</time></trkpt><trkpt lat="43.58322015287346" lon="11.370322750420573"><ele>665.8</ele><time>2026-04-26T17:26:57Z</time></trkpt><trkpt lat="43.58329248212509" lon="11.370241796148406"><ele>664.4</ele><time>2026-04-26T17:26:58Z</time></trkpt><trkpt lat="43.58336831844389" lon="11.370160782692613"><ele>663.0</ele><time>2026-04-26T17:26:59Z</time></trkpt><trkpt lat="43.58343643736376" lon="11.370081947603596"><ele>663.0</ele><time>2026-04-26T17:27:00Z</time></trkpt><trkpt lat="43.58350401566246" lon="11.370002486076054"><ele>663.0</ele><time>2026-04-26T17:27:01Z</time></trkpt><trkpt lat="43.583572014384536" lon="11.369924968537262"><ele>663.0</ele><time>2026-04-26T17:27:02Z</time></trkpt><trkpt lat="43.58363988453732" lon="11.369851149051964"><ele>663.0</ele><time>2026-04-26T17:27:03Z</time></trkpt><trkpt lat="43.58371631359828" lon="11.369769181610847"><ele>663.0</ele><time>2026-04-26T17:27:04Z</time></trkpt><trkpt lat="43.583797248553495" lon="11.369670377615606"><ele>662.2</ele><time>2026-04-26T17:27:05Z</time></trkpt><trkpt lat="43.583877662761154" lon="11.369572442944921"><ele>661.4</ele><time>2026-04-26T17:27:06Z</time></trkpt><trkpt lat="43.58396379530447" lon="11.369474460600808"><ele>660.6</ele><time>2026-04-26T17:27:07Z</time></trkpt><trkpt lat="43.584049919683395" lon="11.369374631272045"><ele>659.8000000000001</ele><time>2026-04-26T17:27:08Z</time></trkpt><trkpt lat="43.584127219668126" lon="11.369280554283595"><ele>659.0</ele><time>2026-04-26T17:27:09Z</time></trkpt><trkpt lat="43.58420546868957" lon="11.369190249036787"><ele>659.0</ele><time>2026-04-26T17:27:10Z</time></trkpt><trkpt lat="43.584282432971875" lon="11.369103767829117"><ele>659.0</ele><time>2026-04-26T17:27:11Z</time></trkpt><trkpt lat="43.58436393650147" lon="11.369020764401192"><ele>659.0</ele><time>2026-04-26T17:27:12Z</time></trkpt><trkpt lat="43.584454941966264" lon="11.368934441335979"><ele>659.0</ele><time>2026-04-26T17:27:13Z</time></trkpt><trkpt lat="43.58454967647982" lon="11.368858741532858"><ele>659.0</ele><time>2026-04-26T17:27:14Z</time></trkpt><trkpt lat="43.58463367953386" lon="11.368781657728308"><ele>656.6</ele><time>2026-04-26T17:27:15Z</time></trkpt><trkpt lat="43.58471722406793" lon="11.368710926991508"><ele>654.2</ele><time>2026-04-26T17:27:16Z</time></trkpt><trkpt lat="43.584795573324" lon="11.36863361695666"><ele>651.8000000000001</ele><time>2026-04-26T17:27:17Z</time></trkpt><trkpt lat="43.5848701530824" lon="11.368558917667457"><ele>649.4000000000001</ele><time>2026-04-26T17:27:18Z</time></trkpt><trkpt lat="43.584941714617244" lon="11.368496279880382"><ele>647.0</ele><time>2026-04-26T17:27:19Z</time></trkpt><trkpt lat="43.585009127798905" lon="11.368436102572018"><ele>647.0</ele><time>2026-04-26T17:27:20Z</time></trkpt><trkpt lat="43.58508267420873" lon="11.368360533719414"><ele>647.0</ele><time>2026-04-26T17:27:21Z</time></trkpt><trkpt lat="43.58515486996796" lon="11.368293600300401"><ele>647.0</ele><time>2026-04-26T17:27:22Z</time></trkpt><trkpt lat="43.58523859352267" lon="11.368219955453277"><ele>647.0</ele><time>2026-04-26T17:27:23Z</time></trkpt><trkpt lat="43.58530893877678" lon="11.368161575800945"><ele>647.0</ele><time>2026-04-26T17:27:24Z</time></trkpt><trkpt lat="43.585366601732275" lon="11.368092553376927"><ele>647.0</ele><time>2026-04-26T17:27:25Z</time></trkpt><trkpt lat="43.58540777315536" lon="11.368001712448295"><ele>646.2</ele><time>2026-04-26T17:27:26Z</time></trkpt><trkpt lat="43.58541950639126" lon="11.367889302915959"><ele>645.4000000000001</ele><time>2026-04-26T17:27:27Z</time></trkpt><trkpt lat="43.58540691857202" lon="11.367763738649773"><ele>644.5999999999999</ele><time>2026-04-26T17:27:28Z</time></trkpt><trkpt lat="43.585385698683304" lon="11.367620157559509"><ele>643.8</ele><time>2026-04-26T17:27:29Z</time></trkpt><trkpt lat="43.58536064132553" lon="11.367490199539443"><ele>643.0</ele><time>2026-04-26T17:27:30Z</time></trkpt><trkpt lat="43.58533692399976" lon="11.367363104573498"><ele>643.0</ele><time>2026-04-26T17:27:31Z</time></trkpt><trkpt lat="43.58532812177426" lon="11.367237254114983"><ele>643.0</ele><time>2026-04-26T17:27:32Z</time></trkpt><trkpt lat="43.58534033342616" lon="11.367099736814701"><ele>643.0</ele><time>2026-04-26T17:27:33Z</time></trkpt><trkpt lat="43.585357157820944" lon="11.366967705124033"><ele>643.0</ele><time>2026-04-26T17:27:34Z</time></trkpt><trkpt lat="43.58537076475703" lon="11.366841157314006"><ele>643.0</ele><time>2026-04-26T17:27:35Z</time></trkpt><trkpt lat="43.58538269141353" lon="11.366716970797256"><ele>639.8</ele><time>2026-04-26T17:27:36Z</time></trkpt><trkpt lat="43.58539591834177" lon="11.366602858684058"><ele>636.5999999999999</ele><time>2026-04-26T17:27:37Z</time></trkpt><trkpt lat="43.58540090729809" lon="11.366492918333106"><ele>633.4000000000001</ele><time>2026-04-26T17:27:38Z</time></trkpt><trkpt lat="43.58541060250196" lon="11.366395973007375"><ele>630.2</ele><time>2026-04-26T17:27:39Z</time></trkpt><trkpt lat="43.58544512765984" lon="11.366270864102285"><ele>627.0</ele><time>2026-04-26T17:27:41Z</time></trkpt><trkpt lat="43.58564932060248" lon="11.366281235007742"><ele>627.0</ele><time>2026-04-26T17:27:43Z</time></trkpt><trkpt lat="43.58576655371749" lon="11.36629123943586"><ele>627.0</ele><time>2026-04-26T17:27:44Z</time></trkpt><trkpt lat="43.5858952330454" lon="11.366310802262175"><ele>627.0</ele><time>2026-04-26T17:27:45Z</time></trkpt><trkpt lat="43.58600511934143" lon="11.366330190739204"><ele>627.0</ele><time>2026-04-26T17:27:46Z</time></trkpt><trkpt lat="43.586100497112646" lon="11.366342081995553"><ele>627.0</ele><time>2026-04-26T17:27:47Z</time></trkpt><trkpt lat="43.58618598963254" lon="11.366352068832887"><ele>627.0</ele><time>2026-04-26T17:27:48Z</time></trkpt><trkpt lat="43.58629430090491" lon="11.366367747294976"><ele>627.0</ele><time>2026-04-26T17:27:49Z</time></trkpt><trkpt lat="43.586401961962125" lon="11.366375288647113"><ele>627.0</ele><time>2026-04-26T17:27:50Z</time></trkpt><trkpt lat="43.586492760461304" lon="11.366381777707756"><ele>627.0</ele><time>2026-04-26T17:27:51Z</time></trkpt><trkpt lat="43.58659425729584" lon="11.366396709840712"><ele>627.0</ele><time>2026-04-26T17:27:52Z</time></trkpt><trkpt lat="43.58668236292833" lon="11.366394983644616"><ele>627.0</ele><time>2026-04-26T17:27:53Z</time></trkpt><trkpt lat="43.58676624124347" lon="11.366394960758358"><ele>627.0</ele><time>2026-04-26T17:27:54Z</time></trkpt><trkpt lat="43.586847651274965" lon="11.366395549088555"><ele>627.0</ele><time>2026-04-26T17:27:55Z</time></trkpt><trkpt lat="43.58693968765164" lon="11.366399587991713"><ele>627.0</ele><time>2026-04-26T17:27:56Z</time></trkpt><trkpt lat="43.58703151018272" lon="11.366404817346861"><ele>627.0</ele><time>2026-04-26T17:27:57Z</time></trkpt><trkpt lat="43.58712071098792" lon="11.366393060740577"><ele>626.2</ele><time>2026-04-26T17:27:57.999Z</time></trkpt><trkpt lat="43.58721339144892" lon="11.366374707558554"><ele>625.4000000000001</ele><time>2026-04-26T17:27:58.999Z</time></trkpt><trkpt lat="43.58730675442368" lon="11.366371283015157"><ele>624.5999999999999</ele><time>2026-04-26T17:27:59.999Z</time></trkpt><trkpt lat="43.58740022890637" lon="11.366375477360435"><ele>623.8</ele><time>2026-04-26T17:28:00.999Z</time></trkpt><trkpt lat="43.58748657856837" lon="11.366413049837611"><ele>623.0</ele><time>2026-04-26T17:28:01.999Z</time></trkpt><trkpt lat="43.58757434352158" lon="11.366416276768229"><ele>623.0</ele><time>2026-04-26T17:28:02.999Z</time></trkpt><trkpt lat="43.58767330065989" lon="11.366422085125587"><ele>623.0</ele><time>2026-04-26T17:28:03.999Z</time></trkpt><trkpt lat="43.58778624447774" lon="11.366433751740036"><ele>623.0</ele><time>2026-04-26T17:28:04.999Z</time></trkpt><trkpt lat="43.58789850645024" lon="11.366452413768636"><ele>623.0</ele><time>2026-04-26T17:28:05.999Z</time></trkpt><trkpt lat="43.58800126079666" lon="11.366474622074303"><ele>623.0</ele><time>2026-04-26T17:28:06.999Z</time></trkpt><trkpt lat="43.58809982376373" lon="11.366474718528817"><ele>622.4</ele><time>2026-04-26T17:28:07.999Z</time></trkpt><trkpt lat="43.58818617189627" lon="11.366518206053252"><ele>621.8</ele><time>2026-04-26T17:28:08.999Z</time></trkpt><trkpt lat="43.58828396281458" lon="11.366537178225434"><ele>621.2</ele><time>2026-04-26T17:28:09.999Z</time></trkpt><trkpt lat="43.58837817782052" lon="11.366528035942794"><ele>620.6</ele><time>2026-04-26T17:28:10.999Z</time></trkpt><trkpt lat="43.58845829425121" lon="11.366541950471161"><ele>620.0</ele><time>2026-04-26T17:28:11.999Z</time></trkpt><trkpt lat="43.588551602424054" lon="11.366545873044235"><ele>620.0</ele><time>2026-04-26T17:28:12.999Z</time></trkpt><trkpt lat="43.5886378584088" lon="11.36652612000717"><ele>620.0</ele><time>2026-04-26T17:28:13.999Z</time></trkpt><trkpt lat="43.58872018135215" lon="11.366494705326799"><ele>620.0</ele><time>2026-04-26T17:28:14.999Z</time></trkpt><trkpt lat="43.58878141621717" lon="11.366461018948986"><ele>620.0</ele><time>2026-04-26T17:28:15.999Z</time></trkpt><trkpt lat="43.588882606223464" lon="11.366535011778732"><ele>620.0</ele><time>2026-04-26T17:28:17.999Z</time></trkpt><trkpt lat="43.588948393248" lon="11.366585034477168"><ele>620.0</ele><time>2026-04-26T17:28:19Z</time></trkpt><trkpt lat="43.58900595002791" lon="11.366629434207152"><ele>619.5</ele><time>2026-04-26T17:28:20Z</time></trkpt><trkpt lat="43.58907179022347" lon="11.366680223761243"><ele>619.0</ele><time>2026-04-26T17:28:21Z</time></trkpt><trkpt lat="43.589069901105105" lon="11.366803843187242"><ele>618.5</ele><time>2026-04-26T17:28:23Z</time></trkpt><trkpt lat="43.589132842913074" lon="11.366876348187347"><ele>618.0</ele><time>2026-04-26T17:28:25Z</time></trkpt><trkpt lat="43.58941246408024" lon="11.366644578047092"><ele>618.0</ele><time>2026-04-26T17:28:26Z</time></trkpt><trkpt lat="43.589462218195706" lon="11.366771599944501"><ele>618.0</ele><time>2026-04-26T17:28:28Z</time></trkpt><trkpt lat="43.58951511681943" lon="11.366855019277866"><ele>618.0</ele><time>2026-04-26T17:28:30Z</time></trkpt><trkpt lat="43.5895783486019" lon="11.366864392248289"><ele>618.0</ele><time>2026-04-26T17:28:31Z</time></trkpt><trkpt lat="43.58969773886862" lon="11.366935699063596"><ele>618.0</ele><time>2026-04-26T17:28:33Z</time></trkpt><trkpt lat="43.58977122682177" lon="11.366990037493576"><ele>616.6</ele><time>2026-04-26T17:28:34Z</time></trkpt><trkpt lat="43.58984561494977" lon="11.367028987526275"><ele>615.1999999999999</ele><time>2026-04-26T17:28:35Z</time></trkpt><trkpt lat="43.589956275592826" lon="11.367001143675996"><ele>613.8</ele><time>2026-04-26T17:28:37Z</time></trkpt><trkpt lat="43.590007324566734" lon="11.366945455779478"><ele>612.4</ele><time>2026-04-26T17:28:38Z</time></trkpt><trkpt lat="43.59010084405016" lon="11.366894296296955"><ele>611.0</ele><time>2026-04-26T17:28:40Z</time></trkpt><trkpt lat="43.590217223172075" lon="11.366830525421811"><ele>611.0</ele><time>2026-04-26T17:28:42Z</time></trkpt><trkpt lat="43.59028188709849" lon="11.366783141070686"><ele>611.0</ele><time>2026-04-26T17:28:43Z</time></trkpt><trkpt lat="43.590341543967" lon="11.366736647203222"><ele>611.0</ele><time>2026-04-26T17:28:44Z</time></trkpt><trkpt lat="43.59039498140574" lon="11.36667390458841"><ele>611.0</ele><time>2026-04-26T17:28:45Z</time></trkpt><trkpt lat="43.59047800722494" lon="11.366543622278728"><ele>611.0</ele><time>2026-04-26T17:28:46Z</time></trkpt><trkpt lat="43.59053637632965" lon="11.366419169304567"><ele>611.0</ele><time>2026-04-26T17:28:47Z</time></trkpt><trkpt lat="43.590572351248554" lon="11.366323302503572"><ele>608.4</ele><time>2026-04-26T17:28:48Z</time></trkpt><trkpt lat="43.59060666734332" lon="11.366197110082442"><ele>605.8</ele><time>2026-04-26T17:28:50Z</time></trkpt><trkpt lat="43.590713266043764" lon="11.36624021311131"><ele>603.1999999999999</ele><time>2026-04-26T17:28:52Z</time></trkpt><trkpt lat="43.590759715185776" lon="11.366306804328199"><ele>600.6</ele><time>2026-04-26T17:28:53Z</time></trkpt><trkpt lat="43.5908251883928" lon="11.36636374557222"><ele>598.0</ele><time>2026-04-26T17:28:54Z</time></trkpt><trkpt lat="43.59089356113792" lon="11.366491527540532"><ele>598.0</ele><time>2026-04-26T17:28:56Z</time></trkpt><trkpt lat="43.590949563212384" lon="11.366534200957508"><ele>598.0</ele><time>2026-04-26T17:28:57Z</time></trkpt><trkpt lat="43.59101519237125" lon="11.366565677607325"><ele>598.0</ele><time>2026-04-26T17:28:58Z</time></trkpt><trkpt lat="43.591058506993036" lon="11.366678170035021"><ele>598.0</ele><time>2026-04-26T17:29:00Z</time></trkpt><trkpt lat="43.59102448591971" lon="11.366837833316042"><ele>598.0</ele><time>2026-04-26T17:29:02Z</time></trkpt><trkpt lat="43.59102923083965" lon="11.366930942336376"><ele>598.0</ele><time>2026-04-26T17:29:03Z</time></trkpt><trkpt lat="43.59104984721035" lon="11.367023335333297"><ele>598.0</ele><time>2026-04-26T17:29:04Z</time></trkpt><trkpt lat="43.5911389575824" lon="11.367075327213005"><ele>598.0</ele><time>2026-04-26T17:29:06Z</time></trkpt><trkpt lat="43.59121016475613" lon="11.367014683373853"><ele>598.0</ele><time>2026-04-26T17:29:07Z</time></trkpt><trkpt lat="43.591324146171296" lon="11.366930681477855"><ele>598.0</ele><time>2026-04-26T17:29:09Z</time></trkpt><trkpt lat="43.591422069987026" lon="11.366878796707404"><ele>598.0</ele><time>2026-04-26T17:29:11Z</time></trkpt><trkpt lat="43.59149116492552" lon="11.366842198815565"><ele>598.6666666666667</ele><time>2026-04-26T17:29:12Z</time></trkpt><trkpt lat="43.59155961750159" lon="11.366803639787825"><ele>599.3333333333334</ele><time>2026-04-26T17:29:13Z</time></trkpt><trkpt lat="43.591622411630176" lon="11.366660087510136"><ele>600.0</ele><time>2026-04-26T17:29:15Z</time></trkpt><trkpt lat="43.59167069870134" lon="11.366591320063863"><ele>600.6666666666666</ele><time>2026-04-26T17:29:16Z</time></trkpt><trkpt lat="43.59173737379356" lon="11.366604074305416"><ele>601.3333333333333</ele><time>2026-04-26T17:29:18Z</time></trkpt><trkpt lat="43.59179184257523" lon="11.36653923915341"><ele>602.0</ele><time>2026-04-26T17:29:22Z</time></trkpt><trkpt lat="43.59181392104133" lon="11.366448526735196"><ele>602.0</ele><time>2026-04-26T17:29:24Z</time></trkpt><trkpt lat="43.59187190219244" lon="11.366410442441289"><ele>602.0</ele><time>2026-04-26T17:29:25Z</time></trkpt><trkpt lat="43.591948040428704" lon="11.366362418983645"><ele>602.0</ele><time>2026-04-26T17:29:28Z</time></trkpt><trkpt lat="43.5920231811095" lon="11.366310926518135"><ele>602.0</ele><time>2026-04-26T17:29:31Z</time></trkpt><trkpt lat="43.592079475534526" lon="11.36625683524888"><ele>602.0</ele><time>2026-04-26T17:29:36Z</time></trkpt><trkpt lat="43.59216051975419" lon="11.36624977917773"><ele>602.0</ele><time>2026-04-26T17:29:41Z</time></trkpt><trkpt lat="43.59222604168329" lon="11.366273428895996"><ele>602.0</ele><time>2026-04-26T17:29:42Z</time></trkpt><trkpt lat="43.592293797230006" lon="11.366278299272881"><ele>602.4</ele><time>2026-04-26T17:29:43Z</time></trkpt><trkpt lat="43.592429941681694" lon="11.366269652420675"><ele>602.8000000000001</ele><time>2026-04-26T17:29:45Z</time></trkpt><trkpt lat="43.59249735650487" lon="11.36627614195452"><ele>603.2</ele><time>2026-04-26T17:29:46Z</time></trkpt><trkpt lat="43.5925690668887" lon="11.366251629087149"><ele>603.6</ele><time>2026-04-26T17:29:47Z</time></trkpt><trkpt lat="43.59270338353328" lon="11.366250978824182"><ele>604.0</ele><time>2026-04-26T17:29:49Z</time></trkpt><trkpt lat="43.59278835713254" lon="11.366219602910004"><ele>604.1666666666667</ele><time>2026-04-26T17:29:50Z</time></trkpt><trkpt lat="43.592885536401205" lon="11.36617982876239"><ele>604.3333333333334</ele><time>2026-04-26T17:29:51Z</time></trkpt><trkpt lat="43.59296877245208" lon="11.366151083404867"><ele>604.5</ele><time>2026-04-26T17:29:52Z</time></trkpt><trkpt lat="43.59304007323124" lon="11.366155855117732"><ele>604.6666666666666</ele><time>2026-04-26T17:29:53Z</time></trkpt><trkpt lat="43.5931057054072" lon="11.366223809215198"><ele>604.8333333333333</ele><time>2026-04-26T17:29:54Z</time></trkpt><trkpt lat="43.593155181703075" lon="11.36630268757664"><ele>605.0</ele><time>2026-04-26T17:29:55Z</time></trkpt><trkpt lat="43.593216715306" lon="11.366385499893713"><ele>605.0</ele><time>2026-04-26T17:29:56Z</time></trkpt><trkpt lat="43.593276595042866" lon="11.366428510083368"><ele>605.0</ele><time>2026-04-26T17:29:57Z</time></trkpt><trkpt lat="43.5933149690156" lon="11.366497605086039"><ele>605.0</ele><time>2026-04-26T17:29:58Z</time></trkpt><trkpt lat="43.59334758302571" lon="11.366588587877558"><ele>605.0</ele><time>2026-04-26T17:29:58.999Z</time></trkpt><trkpt lat="43.593401294277285" lon="11.36665733971134"><ele>605.0</ele><time>2026-04-26T17:29:59.999Z</time></trkpt><trkpt lat="43.59350308409047" lon="11.36669149622443"><ele>605.0</ele><time>2026-04-26T17:30:01.999Z</time></trkpt><trkpt lat="43.593586107985395" lon="11.366596262558232"><ele>605.0</ele><time>2026-04-26T17:30:03.999Z</time></trkpt><trkpt lat="43.59364285976075" lon="11.366457120412676"><ele>605.0</ele><time>2026-04-26T17:30:05.999Z</time></trkpt><trkpt lat="43.59371683262083" lon="11.36636324762025"><ele>605.0</ele><time>2026-04-26T17:30:07.999Z</time></trkpt><trkpt lat="43.59374883162878" lon="11.36624352450487"><ele>605.0</ele><time>2026-04-26T17:30:09.999Z</time></trkpt><trkpt lat="43.59382931812951" lon="11.366139175837583"><ele>605.0</ele><time>2026-04-26T17:30:11.999Z</time></trkpt><trkpt lat="43.59381802897049" lon="11.366044269003837"><ele>602.3333333333333</ele><time>2026-04-26T17:30:13.999Z</time></trkpt><trkpt lat="43.593882942479915" lon="11.366019390243492"><ele>599.6666666666666</ele><time>2026-04-26T17:30:16.999Z</time></trkpt><trkpt lat="43.59399200817437" lon="11.366092645480965"><ele>597.0</ele><time>2026-04-26T17:30:18.999Z</time></trkpt><trkpt lat="43.594103515468134" lon="11.36608082438375"><ele>594.3333333333334</ele><time>2026-04-26T17:30:20.999Z</time></trkpt><trkpt lat="43.5941581375267" lon="11.366035064837664"><ele>591.6666666666667</ele><time>2026-04-26T17:30:21.999Z</time></trkpt><trkpt lat="43.594209791527234" lon="11.365967213349233"><ele>589.0</ele><time>2026-04-26T17:30:22.999Z</time></trkpt><trkpt lat="43.59426832579943" lon="11.365899593790276"><ele>589.0</ele><time>2026-04-26T17:30:23.999Z</time></trkpt><trkpt lat="43.59432239076464" lon="11.3658442165325"><ele>589.0</ele><time>2026-04-26T17:30:25Z</time></trkpt><trkpt lat="43.59438571420101" lon="11.36580723578994"><ele>589.0</ele><time>2026-04-26T17:30:26Z</time></trkpt><trkpt lat="43.59445352877307" lon="11.365780144466394"><ele>589.0</ele><time>2026-04-26T17:30:27Z</time></trkpt><trkpt lat="43.59451847409931" lon="11.365792882783714"><ele>589.0</ele><time>2026-04-26T17:30:28Z</time></trkpt><trkpt lat="43.594584312076975" lon="11.365824801017252"><ele>589.0</ele><time>2026-04-26T17:30:29Z</time></trkpt><trkpt lat="43.59464824690162" lon="11.365865633563386"><ele>589.0</ele><time>2026-04-26T17:30:30Z</time></trkpt><trkpt lat="43.594717697060844" lon="11.365900737558881"><ele>587.1666666666667</ele><time>2026-04-26T17:30:31Z</time></trkpt><trkpt lat="43.59479322321453" lon="11.365940202671691"><ele>585.3333333333334</ele><time>2026-04-26T17:30:32Z</time></trkpt><trkpt lat="43.594866249196535" lon="11.365965918797983"><ele>583.5</ele><time>2026-04-26T17:30:33Z</time></trkpt><trkpt lat="43.59493357623779" lon="11.365984242454433"><ele>581.6666666666666</ele><time>2026-04-26T17:30:34Z</time></trkpt><trkpt lat="43.595015835614596" lon="11.366000519669209"><ele>579.8333333333333</ele><time>2026-04-26T17:30:35Z</time></trkpt><trkpt lat="43.595085263626395" lon="11.365994303820383"><ele>578.0</ele><time>2026-04-26T17:30:36Z</time></trkpt><trkpt lat="43.59516093189572" lon="11.365970181305828"><ele>578.0</ele><time>2026-04-26T17:30:37Z</time></trkpt><trkpt lat="43.59522526913115" lon="11.365933875521794"><ele>578.0</ele><time>2026-04-26T17:30:38Z</time></trkpt><trkpt lat="43.59529760366652" lon="11.365881485355843"><ele>578.0</ele><time>2026-04-26T17:30:39Z</time></trkpt><trkpt lat="43.59538638757876" lon="11.365820518426034"><ele>578.0</ele><time>2026-04-26T17:30:40Z</time></trkpt><trkpt lat="43.595465140665645" lon="11.365778908857274"><ele>578.0</ele><time>2026-04-26T17:30:41Z</time></trkpt><trkpt lat="43.595533604605535" lon="11.365742273062553"><ele>578.0</ele><time>2026-04-26T17:30:42Z</time></trkpt><trkpt lat="43.59559535356207" lon="11.365691234063515"><ele>578.0</ele><time>2026-04-26T17:30:43Z</time></trkpt><trkpt lat="43.5956456029779" lon="11.365618596925634"><ele>578.0</ele><time>2026-04-26T17:30:44Z</time></trkpt><trkpt lat="43.595690353438286" lon="11.365521262582124"><ele>578.0</ele><time>2026-04-26T17:30:45Z</time></trkpt><trkpt lat="43.59571709895733" lon="11.365436059817597"><ele>578.0</ele><time>2026-04-26T17:30:46Z</time></trkpt><trkpt lat="43.59573547460779" lon="11.365343788391714"><ele>578.0</ele><time>2026-04-26T17:30:47Z</time></trkpt><trkpt lat="43.59576708495759" lon="11.365259554886604"><ele>578.0</ele><time>2026-04-26T17:30:48Z</time></trkpt><trkpt lat="43.59577973065458" lon="11.36515602336534"><ele>578.0</ele><time>2026-04-26T17:30:49Z</time></trkpt><trkpt lat="43.59575111395588" lon="11.36504008075256"><ele>577.0</ele><time>2026-04-26T17:30:50Z</time></trkpt><trkpt lat="43.59573765809095" lon="11.364927669600341"><ele>576.0</ele><time>2026-04-26T17:30:51Z</time></trkpt><trkpt lat="43.59573528953179" lon="11.364819694958735"><ele>575.0</ele><time>2026-04-26T17:30:52Z</time></trkpt><trkpt lat="43.595720406813506" lon="11.364722074690851"><ele>574.0</ele><time>2026-04-26T17:30:53Z</time></trkpt><trkpt lat="43.595691488272706" lon="11.364631898455126"><ele>573.0</ele><time>2026-04-26T17:30:54Z</time></trkpt><trkpt lat="43.59568216777553" lon="11.364534508134751"><ele>572.0</ele><time>2026-04-26T17:30:55Z</time></trkpt><trkpt lat="43.595683274853194" lon="11.364334214213304"><ele>570.5</ele><time>2026-04-26T17:30:57Z</time></trkpt><trkpt lat="43.59570348507553" lon="11.364227861604558"><ele>569.0</ele><time>2026-04-26T17:30:58Z</time></trkpt><trkpt lat="43.59571903453846" lon="11.364115536203439"><ele>567.5</ele><time>2026-04-26T17:30:59Z</time></trkpt><trkpt lat="43.59572958990523" lon="11.364011798062531"><ele>566.0</ele><time>2026-04-26T17:31:00Z</time></trkpt><trkpt lat="43.59575771392873" lon="11.363910929017143"><ele>564.5</ele><time>2026-04-26T17:31:01Z</time></trkpt><trkpt lat="43.595783105193235" lon="11.363827845564895"><ele>563.0</ele><time>2026-04-26T17:31:02Z</time></trkpt><trkpt lat="43.5958291414984" lon="11.36373967362529"><ele>560.5</ele><time>2026-04-26T17:31:03Z</time></trkpt><trkpt lat="43.59588831676054" lon="11.363680262885104"><ele>558.0</ele><time>2026-04-26T17:31:04Z</time></trkpt><trkpt lat="43.59595922662191" lon="11.363632697564569"><ele>555.5</ele><time>2026-04-26T17:31:05Z</time></trkpt><trkpt lat="43.59604054167743" lon="11.36360057079328"><ele>553.0</ele><time>2026-04-26T17:31:06Z</time></trkpt><trkpt lat="43.5961177458223" lon="11.363563230588898"><ele>550.5</ele><time>2026-04-26T17:31:07Z</time></trkpt><trkpt lat="43.596179679627525" lon="11.36353997220754"><ele>548.0</ele><time>2026-04-26T17:31:08Z</time></trkpt><trkpt lat="43.59624870341323" lon="11.363528099411731"><ele>547.1666666666666</ele><time>2026-04-26T17:31:09Z</time></trkpt><trkpt lat="43.59632200564261" lon="11.363582980833417"><ele>546.3333333333333</ele><time>2026-04-26T17:31:10Z</time></trkpt><trkpt lat="43.59639855476798" lon="11.363593496750363"><ele>545.5</ele><time>2026-04-26T17:31:11Z</time></trkpt><trkpt lat="43.596468774962545" lon="11.363643766211046"><ele>544.6666666666666</ele><time>2026-04-26T17:31:12Z</time></trkpt><trkpt lat="43.596541697318294" lon="11.363688142078388"><ele>543.8333333333334</ele><time>2026-04-26T17:31:13Z</time></trkpt><trkpt lat="43.596591663234385" lon="11.363765457075448"><ele>543.0</ele><time>2026-04-26T17:31:14Z</time></trkpt><trkpt lat="43.59665511852896" lon="11.363827315710205"><ele>542.3333333333334</ele><time>2026-04-26T17:31:15Z</time></trkpt><trkpt lat="43.59672483196928" lon="11.363879333629948"><ele>541.6666666666666</ele><time>2026-04-26T17:31:16Z</time></trkpt><trkpt lat="43.5967856216691" lon="11.363931063169037"><ele>541.0</ele><time>2026-04-26T17:31:17Z</time></trkpt><trkpt lat="43.596856778983636" lon="11.36396575853814"><ele>540.3333333333333</ele><time>2026-04-26T17:31:18Z</time></trkpt><trkpt lat="43.59692610429312" lon="11.363973870700297"><ele>539.6666666666666</ele><time>2026-04-26T17:31:19Z</time></trkpt><trkpt lat="43.59699589135892" lon="11.363950938392286"><ele>539.0</ele><time>2026-04-26T17:31:20Z</time></trkpt><trkpt lat="43.59708161453011" lon="11.36392738780482"><ele>539.0</ele><time>2026-04-26T17:31:21Z</time></trkpt><trkpt lat="43.59716033321899" lon="11.363898610968812"><ele>539.0</ele><time>2026-04-26T17:31:22Z</time></trkpt><trkpt lat="43.5972483997058" lon="11.363852692415266"><ele>539.0</ele><time>2026-04-26T17:31:23Z</time></trkpt><trkpt lat="43.59733975710882" lon="11.363798988174356"><ele>539.0</ele><time>2026-04-26T17:31:24Z</time></trkpt><trkpt lat="43.59741751904874" lon="11.363746110601532"><ele>539.0</ele><time>2026-04-26T17:31:25Z</time></trkpt><trkpt lat="43.5974862334935" lon="11.363703204040265"><ele>539.0</ele><time>2026-04-26T17:31:26Z</time></trkpt><trkpt lat="43.59756495777976" lon="11.363708006140815"><ele>537.8333333333333</ele><time>2026-04-26T17:31:27Z</time></trkpt><trkpt lat="43.59763478856158" lon="11.363723882839784"><ele>536.6666666666666</ele><time>2026-04-26T17:31:28Z</time></trkpt><trkpt lat="43.59772139379965" lon="11.363733783710016"><ele>535.5</ele><time>2026-04-26T17:31:29Z</time></trkpt><trkpt lat="43.59781998148315" lon="11.363770292999083"><ele>534.3333333333334</ele><time>2026-04-26T17:31:30Z</time></trkpt><trkpt lat="43.59790454587068" lon="11.36379291518873"><ele>533.1666666666667</ele><time>2026-04-26T17:31:31Z</time></trkpt><trkpt lat="43.597982627184244" lon="11.36380003294221"><ele>532.0</ele><time>2026-04-26T17:31:32Z</time></trkpt><trkpt lat="43.59804367983295" lon="11.363837731625825"><ele>532.0</ele><time>2026-04-26T17:31:33Z</time></trkpt><trkpt lat="43.59813505013638" lon="11.36385822259612"><ele>532.0</ele><time>2026-04-26T17:31:35Z</time></trkpt><trkpt lat="43.598284132010676" lon="11.363835600614275"><ele>532.0</ele><time>2026-04-26T17:31:39Z</time></trkpt><trkpt lat="43.598367932596474" lon="11.363793055216886"><ele>532.0</ele><time>2026-04-26T17:31:40Z</time></trkpt><trkpt lat="43.59844278644916" lon="11.363733904125018"><ele>532.0</ele><time>2026-04-26T17:31:41Z</time></trkpt><trkpt lat="43.5985359831483" lon="11.36370447392067"><ele>532.0</ele><time>2026-04-26T17:31:42Z</time></trkpt><trkpt lat="43.59861680252381" lon="11.363660719893922"><ele>532.0</ele><time>2026-04-26T17:31:43Z</time></trkpt><trkpt lat="43.598694693049254" lon="11.363618636497359"><ele>532.0</ele><time>2026-04-26T17:31:44Z</time></trkpt><trkpt lat="43.59877175958606" lon="11.36357775978286"><ele>532.0</ele><time>2026-04-26T17:31:45Z</time></trkpt><trkpt lat="43.598846617792816" lon="11.363538054369048"><ele>532.0</ele><time>2026-04-26T17:31:46Z</time></trkpt><trkpt lat="43.598927685193345" lon="11.363494878115123"><ele>532.0</ele><time>2026-04-26T17:31:47Z</time></trkpt><trkpt lat="43.59901338429359" lon="11.363447976691708"><ele>532.6</ele><time>2026-04-26T17:31:48Z</time></trkpt><trkpt lat="43.599095294607714" lon="11.363403921087881"><ele>533.2</ele><time>2026-04-26T17:31:49Z</time></trkpt><trkpt lat="43.599175655102854" lon="11.363362548761947"><ele>533.8</ele><time>2026-04-26T17:31:50Z</time></trkpt><trkpt lat="43.599250075914675" lon="11.363293731457127"><ele>534.4</ele><time>2026-04-26T17:31:51Z</time></trkpt><trkpt lat="43.59933312123236" lon="11.36322849897493"><ele>535.0</ele><time>2026-04-26T17:31:52Z</time></trkpt><trkpt lat="43.59941242598722" lon="11.363142775088724"><ele>535.0</ele><time>2026-04-26T17:31:53Z</time></trkpt><trkpt lat="43.59948200742212" lon="11.363045705849302"><ele>535.0</ele><time>2026-04-26T17:31:54Z</time></trkpt><trkpt lat="43.59956940814399" lon="11.362936414344565"><ele>535.0</ele><time>2026-04-26T17:31:55Z</time></trkpt><trkpt lat="43.599653333449666" lon="11.36280514066717"><ele>535.0</ele><time>2026-04-26T17:31:56Z</time></trkpt><trkpt lat="43.59975070755918" lon="11.362673798402128"><ele>535.2</ele><time>2026-04-26T17:31:56.999Z</time></trkpt><trkpt lat="43.59984295163594" lon="11.362536483320788"><ele>535.4</ele><time>2026-04-26T17:31:57.999Z</time></trkpt><trkpt lat="43.59991856855062" lon="11.3624193997138"><ele>535.6</ele><time>2026-04-26T17:31:58.999Z</time></trkpt><trkpt lat="43.5999830108315" lon="11.362315712468568"><ele>535.8</ele><time>2026-04-26T17:31:59.999Z</time></trkpt><trkpt lat="43.60005007665578" lon="11.362216107886512"><ele>536.0</ele><time>2026-04-26T17:32:00.999Z</time></trkpt><trkpt lat="43.60011336642301" lon="11.362124083558701"><ele>536.0</ele><time>2026-04-26T17:32:01.999Z</time></trkpt><trkpt lat="43.60017218864807" lon="11.362047679704517"><ele>536.0</ele><time>2026-04-26T17:32:02.999Z</time></trkpt><trkpt lat="43.600235484375446" lon="11.361961892384489"><ele>536.0</ele><time>2026-04-26T17:32:03.999Z</time></trkpt><trkpt lat="43.60030903246582" lon="11.361859367097189"><ele>536.0</ele><time>2026-04-26T17:32:04.999Z</time></trkpt><trkpt lat="43.600391031353624" lon="11.361779383114925"><ele>536.0</ele><time>2026-04-26T17:32:05.999Z</time></trkpt><trkpt lat="43.60047642898509" lon="11.361708816218723"><ele>536.6666666666666</ele><time>2026-04-26T17:32:06.999Z</time></trkpt><trkpt lat="43.600549833602685" lon="11.361644042804851"><ele>537.3333333333333</ele><time>2026-04-26T17:32:07.999Z</time></trkpt><trkpt lat="43.6006068061774" lon="11.361596646243273"><ele>538.0</ele><time>2026-04-26T17:32:08.999Z</time></trkpt><trkpt lat="43.60069946129848" lon="11.361521200150568"><ele>538.6666666666666</ele><time>2026-04-26T17:32:10.999Z</time></trkpt><trkpt lat="43.60076313832592" lon="11.36153375659469"><ele>539.3333333333334</ele><time>2026-04-26T17:34:22.999Z</time></trkpt><trkpt lat="43.60086256570912" lon="11.36145395297536"><ele>540.0</ele><time>2026-04-26T17:34:25.999Z</time></trkpt><trkpt lat="43.600920518079015" lon="11.361407011550348"><ele>539.2</ele><time>2026-04-26T17:34:26.999Z</time></trkpt><trkpt lat="43.600999235245816" lon="11.361341031445509"><ele>538.4</ele><time>2026-04-26T17:34:28.999Z</time></trkpt><trkpt lat="43.60104493293947" lon="11.361249714522366"><ele>537.6</ele><time>2026-04-26T17:34:30.999Z</time></trkpt><trkpt lat="43.60109917902405" lon="11.36117058276094"><ele>536.8</ele><time>2026-04-26T17:34:32.999Z</time></trkpt><trkpt lat="43.601136429054556" lon="11.361080467289838"><ele>536.0</ele><time>2026-04-26T17:34:34.999Z</time></trkpt><trkpt lat="43.601458032445365" lon="11.361223262149595"><ele>539.1666666666666</ele><time>2026-04-26T17:34:37Z</time></trkpt><trkpt lat="43.60152742555195" lon="11.361159330132669"><ele>542.3333333333333</ele><time>2026-04-26T17:34:39Z</time></trkpt><trkpt lat="43.601616317834576" lon="11.361096898816383"><ele>545.5</ele><time>2026-04-26T17:34:41Z</time></trkpt><trkpt lat="43.60168643761609" lon="11.36104651711388"><ele>548.6666666666666</ele><time>2026-04-26T17:34:43Z</time></trkpt><trkpt lat="43.601746029149446" lon="11.361001961389682"><ele>551.8333333333334</ele><time>2026-04-26T17:34:44Z</time></trkpt><trkpt lat="43.60180388855838" lon="11.36095340406033"><ele>555.0</ele><time>2026-04-26T17:34:45Z</time></trkpt><trkpt lat="43.60188565506742" lon="11.360916487064848"><ele>555.0</ele><time>2026-04-26T17:34:47Z</time></trkpt><trkpt lat="43.60198705036716" lon="11.360849018002252"><ele>555.0</ele><time>2026-04-26T17:34:49Z</time></trkpt><trkpt lat="43.60208546620783" lon="11.36076878640401"><ele>555.0</ele><time>2026-04-26T17:34:51Z</time></trkpt><trkpt lat="43.60219076426876" lon="11.360712768880296"><ele>555.0</ele><time>2026-04-26T17:34:53Z</time></trkpt><trkpt lat="43.60229106451374" lon="11.360630201437212"><ele>556.3333333333334</ele><time>2026-04-26T17:34:55Z</time></trkpt><trkpt lat="43.602330085354204" lon="11.360560442259244"><ele>557.6666666666666</ele><time>2026-04-26T17:34:56Z</time></trkpt><trkpt lat="43.60242465960148" lon="11.360514895811587"><ele>559.0</ele><time>2026-04-26T17:34:58Z</time></trkpt><trkpt lat="43.602531451637866" lon="11.360446116448328"><ele>560.3333333333333</ele><time>2026-04-26T17:35:00Z</time></trkpt><trkpt lat="43.60259980553043" lon="11.360393126281329"><ele>561.6666666666666</ele><time>2026-04-26T17:35:01Z</time></trkpt><trkpt lat="43.60266885962918" lon="11.360333592925684"><ele>563.0</ele><time>2026-04-26T17:35:02Z</time></trkpt><trkpt lat="43.6027462356664" lon="11.360288645300708"><ele>563.0</ele><time>2026-04-26T17:35:03Z</time></trkpt><trkpt lat="43.60280626273063" lon="11.360245636997359"><ele>563.0</ele><time>2026-04-26T17:35:04Z</time></trkpt><trkpt lat="43.602851924312574" lon="11.360185271695753"><ele>563.0</ele><time>2026-04-26T17:35:05Z</time></trkpt><trkpt lat="43.602943566632355" lon="11.360105697585512"><ele>563.0</ele><time>2026-04-26T17:35:07Z</time></trkpt><trkpt lat="43.60299878671126" lon="11.360061542677657"><ele>563.0</ele><time>2026-04-26T17:35:08Z</time></trkpt><trkpt lat="43.60306245009967" lon="11.360025544184541"><ele>563.0</ele><time>2026-04-26T17:35:09Z</time></trkpt><trkpt lat="43.60316102152523" lon="11.35997780128019"><ele>563.4</ele><time>2026-04-26T17:35:11Z</time></trkpt><trkpt lat="43.60323343874195" lon="11.35993634883132"><ele>563.8</ele><time>2026-04-26T17:35:12Z</time></trkpt><trkpt lat="43.60330457426258" lon="11.359892724674058"><ele>564.2</ele><time>2026-04-26T17:35:13Z</time></trkpt><trkpt lat="43.60336803121785" lon="11.35986717256516"><ele>564.6</ele><time>2026-04-26T17:35:14Z</time></trkpt><trkpt lat="43.60346222847206" lon="11.359789464473842"><ele>565.0</ele><time>2026-04-26T17:35:16Z</time></trkpt><trkpt lat="43.60353678439199" lon="11.359655251602128"><ele>565.5</ele><time>2026-04-26T17:35:18Z</time></trkpt><trkpt lat="43.60358747754652" lon="11.359601758967461"><ele>566.0</ele><time>2026-04-26T17:35:19Z</time></trkpt><trkpt lat="43.60366067627652" lon="11.359570935605296"><ele>566.5</ele><time>2026-04-26T17:35:20Z</time></trkpt><trkpt lat="43.603745591947046" lon="11.359554744258954"><ele>567.0</ele><time>2026-04-26T17:35:21Z</time></trkpt><trkpt lat="43.60383610199051" lon="11.359543544635983"><ele>567.5</ele><time>2026-04-26T17:35:22Z</time></trkpt><trkpt lat="43.603906649574625" lon="11.359516615338702"><ele>568.0</ele><time>2026-04-26T17:35:23Z</time></trkpt><trkpt lat="43.603996670126755" lon="11.359428947644952"><ele>568.0</ele><time>2026-04-26T17:35:25Z</time></trkpt><trkpt lat="43.60410147217548" lon="11.359353615961277"><ele>568.0</ele><time>2026-04-26T17:35:27Z</time></trkpt><trkpt lat="43.60418779089317" lon="11.359223648055135"><ele>568.0</ele><time>2026-04-26T17:35:29Z</time></trkpt><trkpt lat="43.604281567762015" lon="11.359105520230678"><ele>568.0</ele><time>2026-04-26T17:35:31Z</time></trkpt><trkpt lat="43.60434965612816" lon="11.359076161970323"><ele>568.0</ele><time>2026-04-26T17:35:32Z</time></trkpt><trkpt lat="43.60443157269407" lon="11.359068170549262"><ele>568.6</ele><time>2026-04-26T17:35:33Z</time></trkpt><trkpt lat="43.60451313440661" lon="11.35905432198732"><ele>569.1999999999999</ele><time>2026-04-26T17:35:34Z</time></trkpt><trkpt lat="43.60459472572852" lon="11.35898389747749"><ele>569.8</ele><time>2026-04-26T17:35:36Z</time></trkpt><trkpt lat="43.60466197049254" lon="11.358936327694687"><ele>570.4</ele><time>2026-04-26T17:35:37Z</time></trkpt><trkpt lat="43.60478552568965" lon="11.35884235846094"><ele>571.0</ele><time>2026-04-26T17:35:39Z</time></trkpt><trkpt lat="43.6048543773661" lon="11.358764508328278"><ele>571.0</ele><time>2026-04-26T17:35:40Z</time></trkpt><trkpt lat="43.60493887367837" lon="11.35868606760866"><ele>571.0</ele><time>2026-04-26T17:35:41Z</time></trkpt><trkpt lat="43.60502514896358" lon="11.358604236147551"><ele>571.0</ele><time>2026-04-26T17:35:43Z</time></trkpt><trkpt lat="43.60505520588633" lon="11.358462021382856"><ele>571.0</ele><time>2026-04-26T17:35:45Z</time></trkpt><trkpt lat="43.60513770260104" lon="11.358345739651233"><ele>571.0</ele><time>2026-04-26T17:35:47Z</time></trkpt><trkpt lat="43.60521419789232" lon="11.358307256505547"><ele>571.0</ele><time>2026-04-26T17:35:48Z</time></trkpt><trkpt lat="43.605287648946096" lon="11.358260060448222"><ele>571.0</ele><time>2026-04-26T17:35:49Z</time></trkpt><trkpt lat="43.60535473349845" lon="11.358217180059368"><ele>571.0</ele><time>2026-04-26T17:35:50Z</time></trkpt><trkpt lat="43.60542304656533" lon="11.358179287178494"><ele>571.0</ele><time>2026-04-26T17:35:51Z</time></trkpt><trkpt lat="43.60549330410682" lon="11.358133810972074"><ele>571.0</ele><time>2026-04-26T17:35:52Z</time></trkpt><trkpt lat="43.60555451942705" lon="11.358084228766753"><ele>571.0</ele><time>2026-04-26T17:35:53Z</time></trkpt><trkpt lat="43.60562746374805" lon="11.358032345131257"><ele>573.1666666666667</ele><time>2026-04-26T17:35:54Z</time></trkpt><trkpt lat="43.60570429805204" lon="11.357980456033461"><ele>575.3333333333334</ele><time>2026-04-26T17:35:55Z</time></trkpt><trkpt lat="43.60578174620024" lon="11.357932088760384"><ele>577.5</ele><time>2026-04-26T17:35:56Z</time></trkpt><trkpt lat="43.60585689524391" lon="11.357876119319076"><ele>579.6666666666666</ele><time>2026-04-26T17:35:57Z</time></trkpt><trkpt lat="43.60592078240806" lon="11.357811789617637"><ele>581.8333333333333</ele><time>2026-04-26T17:35:58Z</time></trkpt><trkpt lat="43.60598403188532" lon="11.357711863585983"><ele>584.0</ele><time>2026-04-26T17:35:59Z</time></trkpt><trkpt lat="43.60604975094058" lon="11.357604501478416"><ele>584.0</ele><time>2026-04-26T17:36:00Z</time></trkpt><trkpt lat="43.606129250692156" lon="11.357494417255309"><ele>584.0</ele><time>2026-04-26T17:36:01Z</time></trkpt><trkpt lat="43.60621389500888" lon="11.357378056617938"><ele>584.0</ele><time>2026-04-26T17:36:02Z</time></trkpt><trkpt lat="43.60629047895165" lon="11.357258773495872"><ele>584.0</ele><time>2026-04-26T17:36:03Z</time></trkpt><trkpt lat="43.60636383097607" lon="11.357154837024911"><ele>586.6</ele><time>2026-04-26T17:36:03.999Z</time></trkpt><trkpt lat="43.60643770258019" lon="11.357061283248056"><ele>589.2</ele><time>2026-04-26T17:36:04.999Z</time></trkpt><trkpt lat="43.606513224825676" lon="11.356969080614864"><ele>591.8000000000001</ele><time>2026-04-26T17:36:05.999Z</time></trkpt><trkpt lat="43.60660147403997" lon="11.356887285659862"><ele>594.4</ele><time>2026-04-26T17:36:06.999Z</time></trkpt><trkpt lat="43.60669994676482" lon="11.356825359228699"><ele>597.0</ele><time>2026-04-26T17:36:07.999Z</time></trkpt><trkpt lat="43.60680275546703" lon="11.356759887123541"><ele>597.0</ele><time>2026-04-26T17:36:08.999Z</time></trkpt><trkpt lat="43.60688145297911" lon="11.356685122247983"><ele>597.0</ele><time>2026-04-26T17:36:09.999Z</time></trkpt><trkpt lat="43.606937662794685" lon="11.356595607868591"><ele>597.0</ele><time>2026-04-26T17:36:10.999Z</time></trkpt><trkpt lat="43.60697221751184" lon="11.356492711032768"><ele>597.0</ele><time>2026-04-26T17:36:11.999Z</time></trkpt><trkpt lat="43.60698688855569" lon="11.356379743972719"><ele>597.0</ele><time>2026-04-26T17:36:12.999Z</time></trkpt><trkpt lat="43.60697146849668" lon="11.356270972678702"><ele>597.0</ele><time>2026-04-26T17:36:13.999Z</time></trkpt><trkpt lat="43.60693510766225" lon="11.356178811402083"><ele>599.3333333333334</ele><time>2026-04-26T17:36:14.999Z</time></trkpt><trkpt lat="43.60686945943828" lon="11.356106262318129"><ele>601.6666666666666</ele><time>2026-04-26T17:36:15.999Z</time></trkpt><trkpt lat="43.6067838382639" lon="11.356060378486813"><ele>604.0</ele><time>2026-04-26T17:36:16.999Z</time></trkpt><trkpt lat="43.606700563881965" lon="11.356006549250694"><ele>606.3333333333333</ele><time>2026-04-26T17:36:17.999Z</time></trkpt><trkpt lat="43.60662423045193" lon="11.355949189144715"><ele>608.6666666666666</ele><time>2026-04-26T17:36:18.999Z</time></trkpt><trkpt lat="43.60655350787164" lon="11.35590298264981"><ele>611.0</ele><time>2026-04-26T17:36:19.999Z</time></trkpt><trkpt lat="43.60648400185673" lon="11.355857885161239"><ele>611.0</ele><time>2026-04-26T17:36:20.999Z</time></trkpt><trkpt lat="43.60641595162415" lon="11.35580350290223"><ele>611.0</ele><time>2026-04-26T17:36:21.999Z</time></trkpt><trkpt lat="43.606333647214726" lon="11.355746640306204"><ele>611.0</ele><time>2026-04-26T17:36:22.999Z</time></trkpt><trkpt lat="43.60625418643963" lon="11.355694594142527"><ele>611.0</ele><time>2026-04-26T17:36:23.999Z</time></trkpt><trkpt lat="43.60618388743165" lon="11.355614790730888"><ele>611.0</ele><time>2026-04-26T17:36:24.999Z</time></trkpt><trkpt lat="43.60610793787507" lon="11.355556821505004"><ele>611.0</ele><time>2026-04-26T17:36:25.999Z</time></trkpt><trkpt lat="43.60603632600917" lon="11.355503033758277"><ele>612.5</ele><time>2026-04-26T17:36:26.999Z</time></trkpt><trkpt lat="43.605965768193286" lon="11.3554515974394"><ele>614.0</ele><time>2026-04-26T17:36:27.999Z</time></trkpt><trkpt lat="43.60589787632656" lon="11.355404597244153"><ele>615.5</ele><time>2026-04-26T17:36:28.999Z</time></trkpt><trkpt lat="43.60582663265355" lon="11.35535688261634"><ele>617.0</ele><time>2026-04-26T17:36:29.999Z</time></trkpt><trkpt lat="43.60576407730629" lon="11.355310969890278"><ele>618.5</ele><time>2026-04-26T17:36:30.999Z</time></trkpt><trkpt lat="43.60568050957685" lon="11.355241961279072"><ele>620.0</ele><time>2026-04-26T17:36:32.999Z</time></trkpt><trkpt lat="43.60559745533557" lon="11.3551652998776"><ele>620.0</ele><time>2026-04-26T17:36:34.999Z</time></trkpt><trkpt lat="43.6055160526374" lon="11.355067514634163"><ele>620.0</ele><time>2026-04-26T17:36:36.999Z</time></trkpt><trkpt lat="43.60545738199515" lon="11.354973340530757"><ele>620.0</ele><time>2026-04-26T17:36:38.999Z</time></trkpt><trkpt lat="43.605387692914476" lon="11.354921719763794"><ele>620.0</ele><time>2026-04-26T17:36:41.999Z</time></trkpt><trkpt lat="43.60532182363776" lon="11.354830994123326"><ele>620.0</ele><time>2026-04-26T17:36:44Z</time></trkpt><trkpt lat="43.605301578574306" lon="11.354681942715521"><ele>620.6</ele><time>2026-04-26T17:36:46Z</time></trkpt><trkpt lat="43.60537480786129" lon="11.354596892734389"><ele>621.2</ele><time>2026-04-26T17:36:48Z</time></trkpt><trkpt lat="43.60546012584619" lon="11.354557737462946"><ele>621.8</ele><time>2026-04-26T17:36:50Z</time></trkpt><trkpt lat="43.6055514850651" lon="11.354486871268513"><ele>622.4</ele><time>2026-04-26T17:36:52Z</time></trkpt><trkpt lat="43.60562403377342" lon="11.354440402756223"><ele>623.0</ele><time>2026-04-26T17:36:54Z</time></trkpt><trkpt lat="43.60569879329471" lon="11.354490531107711"><ele>623.0</ele><time>2026-04-26T17:36:57Z</time></trkpt><trkpt lat="43.60577972439743" lon="11.354395518248056"><ele>623.0</ele><time>2026-04-26T17:36:59Z</time></trkpt><trkpt lat="43.605863403234586" lon="11.354359116428318"><ele>623.0</ele><time>2026-04-26T17:37:02Z</time></trkpt><trkpt lat="43.605940726861874" lon="11.354350943829049"><ele>623.0</ele><time>2026-04-26T17:37:04Z</time></trkpt><trkpt lat="43.60598579970914" lon="11.35445286071819"><ele>623.0</ele><time>2026-04-26T17:37:06Z</time></trkpt><trkpt lat="43.60599707265547" lon="11.354570192515029"><ele>623.0</ele><time>2026-04-26T17:37:08Z</time></trkpt><trkpt lat="43.606062793775884" lon="11.354606910746504"><ele>626.8</ele><time>2026-04-26T17:37:10Z</time></trkpt><trkpt lat="43.60616563920238" lon="11.354645657021688"><ele>630.5999999999999</ele><time>2026-04-26T17:37:12Z</time></trkpt><trkpt lat="43.60625585066621" lon="11.35469469244996"><ele>634.4000000000001</ele><time>2026-04-26T17:37:14Z</time></trkpt><trkpt lat="43.60633583387469" lon="11.354671604284665"><ele>638.2</ele><time>2026-04-26T17:37:16Z</time></trkpt><trkpt lat="43.60644595934114" lon="11.354664622568896"><ele>642.0</ele><time>2026-04-26T17:37:18Z</time></trkpt><trkpt lat="43.60655487627025" lon="11.354686064637834"><ele>642.0</ele><time>2026-04-26T17:37:20Z</time></trkpt><trkpt lat="43.60665301112266" lon="11.354642057079145"><ele>642.0</ele><time>2026-04-26T17:37:22Z</time></trkpt><trkpt lat="43.60676219525333" lon="11.354660575484498"><ele>642.0</ele><time>2026-04-26T17:37:24Z</time></trkpt><trkpt lat="43.60684905172663" lon="11.354616567498137"><ele>642.0</ele><time>2026-04-26T17:37:26Z</time></trkpt><trkpt lat="43.60693040459302" lon="11.354626287812518"><ele>642.0</ele><time>2026-04-26T17:37:28Z</time></trkpt><trkpt lat="43.6070119367075" lon="11.354572327916173"><ele>643.6</ele><time>2026-04-26T17:37:30Z</time></trkpt><trkpt lat="43.60710554576655" lon="11.354493642102295"><ele>645.2</ele><time>2026-04-26T17:37:32Z</time></trkpt><trkpt lat="43.60718255442643" lon="11.354404867740914"><ele>646.8</ele><time>2026-04-26T17:37:34Z</time></trkpt><trkpt lat="43.60725023947243" lon="11.35433828644781"><ele>648.4</ele><time>2026-04-26T17:37:36Z</time></trkpt><trkpt lat="43.60734845198367" lon="11.35428750827269"><ele>650.0</ele><time>2026-04-26T17:37:38Z</time></trkpt><trkpt lat="43.607431358216715" lon="11.3543624152617"><ele>650.0</ele><time>2026-04-26T17:37:40Z</time></trkpt><trkpt lat="43.60749977339381" lon="11.354336868550757"><ele>650.0</ele><time>2026-04-26T17:37:41Z</time></trkpt><trkpt lat="43.60759846114077" lon="11.354217725043606"><ele>650.0</ele><time>2026-04-26T17:37:43Z</time></trkpt><trkpt lat="43.607650471424186" lon="11.354168101919724"><ele>650.0</ele><time>2026-04-26T17:37:44Z</time></trkpt><trkpt lat="43.607718259714396" lon="11.354094578751818"><ele>650.0</ele><time>2026-04-26T17:37:46Z</time></trkpt><trkpt lat="43.607731701339844" lon="11.3539772489311"><ele>650.0</ele><time>2026-04-26T17:37:48Z</time></trkpt><trkpt lat="43.60770059850656" lon="11.353872189056453"><ele>652.2</ele><time>2026-04-26T17:37:50Z</time></trkpt><trkpt lat="43.60763086793512" lon="11.353782739128006"><ele>654.4</ele><time>2026-04-26T17:37:52Z</time></trkpt><trkpt lat="43.607557588630655" lon="11.353680453490945"><ele>656.5999999999999</ele><time>2026-04-26T17:37:55Z</time></trkpt><trkpt lat="43.60748860838726" lon="11.353592302631554"><ele>658.8</ele><time>2026-04-26T17:37:56Z</time></trkpt><trkpt lat="43.60743954278215" lon="11.353455732291017"><ele>661.0</ele><time>2026-04-26T17:37:58Z</time></trkpt><trkpt lat="43.60741094377195" lon="11.353311340460818"><ele>661.0</ele><time>2026-04-26T17:38:00Z</time></trkpt><trkpt lat="43.60738871914806" lon="11.353219939938711"><ele>661.0</ele><time>2026-04-26T17:38:02Z</time></trkpt><trkpt lat="43.607408233093565" lon="11.353114549334506"><ele>661.0</ele><time>2026-04-26T17:38:04Z</time></trkpt><trkpt lat="43.607478773481276" lon="11.352998033599713"><ele>661.0</ele><time>2026-04-26T17:38:06Z</time></trkpt><trkpt lat="43.60754972590157" lon="11.352892489386894"><ele>661.0</ele><time>2026-04-26T17:38:08.999Z</time></trkpt><trkpt lat="43.607632362619356" lon="11.352840881332924"><ele>661.8333333333334</ele><time>2026-04-26T17:38:10.999Z</time></trkpt><trkpt lat="43.607672292910436" lon="11.352757987153485"><ele>662.6666666666667</ele><time>2026-04-26T17:38:12.999Z</time></trkpt><trkpt lat="43.60771894197267" lon="11.352678906368538"><ele>663.5</ele><time>2026-04-26T17:38:14.999Z</time></trkpt><trkpt lat="43.60782591360046" lon="11.35266158435631"><ele>664.3333333333334</ele><time>2026-04-26T17:38:16.999Z</time></trkpt><trkpt lat="43.607924750514755" lon="11.352623180155891"><ele>665.1666666666666</ele><time>2026-04-26T17:38:18.999Z</time></trkpt><trkpt lat="43.60798768165354" lon="11.352572099495905"><ele>666.0</ele><time>2026-04-26T17:38:19.999Z</time></trkpt><trkpt lat="43.608068341664" lon="11.352574224835239"><ele>667.6666666666666</ele><time>2026-04-26T17:38:21.999Z</time></trkpt><trkpt lat="43.60815151390681" lon="11.352460960160377"><ele>669.3333333333334</ele><time>2026-04-26T17:38:23.999Z</time></trkpt><trkpt lat="43.608204259966485" lon="11.35240594400812"><ele>671.0</ele><time>2026-04-26T17:38:24.999Z</time></trkpt><trkpt lat="43.60827964634957" lon="11.352312512326364"><ele>672.6666666666667</ele><time>2026-04-26T17:38:26.999Z</time></trkpt><trkpt lat="43.60835250313823" lon="11.35228386287496"><ele>674.3333333333334</ele><time>2026-04-26T17:38:27.999Z</time></trkpt><trkpt lat="43.60843902520458" lon="11.352269818319664"><ele>676.0</ele><time>2026-04-26T17:38:28.999Z</time></trkpt><trkpt lat="43.60852994585298" lon="11.352264482379123"><ele>676.0</ele><time>2026-04-26T17:38:29.999Z</time></trkpt><trkpt lat="43.60859168599396" lon="11.352245564224383"><ele>676.0</ele><time>2026-04-26T17:38:30.999Z</time></trkpt><trkpt lat="43.608648750000874" lon="11.352183966538055"><ele>676.0</ele><time>2026-04-26T17:38:31.999Z</time></trkpt><trkpt lat="43.608710926334574" lon="11.352101240017554"><ele>676.0</ele><time>2026-04-26T17:38:32.999Z</time></trkpt><trkpt lat="43.608791705247285" lon="11.352047346587536"><ele>676.0</ele><time>2026-04-26T17:38:33.999Z</time></trkpt><trkpt lat="43.60886207158256" lon="11.352030494519619"><ele>676.0</ele><time>2026-04-26T17:38:34.999Z</time></trkpt><trkpt lat="43.60897069756151" lon="11.352012098582112"><ele>676.4</ele><time>2026-04-26T17:38:36.999Z</time></trkpt><trkpt lat="43.60907765867063" lon="11.351980222559893"><ele>676.8</ele><time>2026-04-26T17:38:38.999Z</time></trkpt><trkpt lat="43.60916959810512" lon="11.351955085397046"><ele>677.1999999999999</ele><time>2026-04-26T17:38:40.999Z</time></trkpt><trkpt lat="43.60923403831842" lon="11.351972221132241"><ele>677.5999999999999</ele><time>2026-04-26T17:38:42.999Z</time></trkpt><trkpt lat="43.60925399625508" lon="11.35181755906564"><ele>678.0</ele><time>2026-04-26T17:38:46.999Z</time></trkpt><trkpt lat="43.60931954329536" lon="11.351699700576109"><ele>678.0</ele><time>2026-04-26T17:38:49Z</time></trkpt><trkpt lat="43.6093737607931" lon="11.35165227870871"><ele>678.0</ele><time>2026-04-26T17:38:50Z</time></trkpt><trkpt lat="43.609435444284564" lon="11.351594880002915"><ele>678.0</ele><time>2026-04-26T17:38:51Z</time></trkpt><trkpt lat="43.60949745127721" lon="11.351502573761337"><ele>678.0</ele><time>2026-04-26T17:38:52Z</time></trkpt><trkpt lat="43.60955557001488" lon="11.35144431839054"><ele>678.0</ele><time>2026-04-26T17:38:53Z</time></trkpt><trkpt lat="43.609615269691965" lon="11.351406783421847"><ele>678.0</ele><time>2026-04-26T17:38:54Z</time></trkpt><trkpt lat="43.60968203038432" lon="11.351274346807873"><ele>677.1666666666666</ele><time>2026-04-26T17:38:56Z</time></trkpt><trkpt lat="43.609761567049" lon="11.351181565522886"><ele>676.3333333333334</ele><time>2026-04-26T17:38:58Z</time></trkpt><trkpt lat="43.60983389314619" lon="11.351080985780492"><ele>675.5</ele><time>2026-04-26T17:39:00Z</time></trkpt><trkpt lat="43.60989362412287" lon="11.351038814939795"><ele>674.6666666666667</ele><time>2026-04-26T17:39:02Z</time></trkpt><trkpt lat="43.60994134073086" lon="11.35109789308365"><ele>673.8333333333334</ele><time>2026-04-26T17:39:04Z</time></trkpt><trkpt lat="43.60997754034948" lon="11.350974248716154"><ele>673.0</ele><time>2026-04-26T17:39:07Z</time></trkpt><trkpt lat="43.60996090452008" lon="11.350872433592992"><ele>673.0</ele><time>2026-04-26T17:39:08Z</time></trkpt><trkpt lat="43.610023546569145" lon="11.350766015266874"><ele>673.0</ele><time>2026-04-26T17:39:10Z</time></trkpt><trkpt lat="43.6100928546651" lon="11.35068494062762"><ele>673.0</ele><time>2026-04-26T17:39:11Z</time></trkpt><trkpt lat="43.61015958323074" lon="11.350616620332264"><ele>673.0</ele><time>2026-04-26T17:39:12Z</time></trkpt><trkpt lat="43.61026641264676" lon="11.350537765829296"><ele>673.0</ele><time>2026-04-26T17:39:14Z</time></trkpt><trkpt lat="43.61037720259149" lon="11.350469480406508"><ele>675.5</ele><time>2026-04-26T17:39:16Z</time></trkpt><trkpt lat="43.61044011406295" lon="11.350458367995932"><ele>678.0</ele><time>2026-04-26T17:39:17Z</time></trkpt><trkpt lat="43.61050544144652" lon="11.35044540479231"><ele>680.5</ele><time>2026-04-26T17:39:18Z</time></trkpt><trkpt lat="43.61060589967735" lon="11.350376963108372"><ele>683.0</ele><time>2026-04-26T17:39:20Z</time></trkpt><trkpt lat="43.61066903540298" lon="11.350339165897452"><ele>685.5</ele><time>2026-04-26T17:39:21Z</time></trkpt><trkpt lat="43.61076950159693" lon="11.350294492163465"><ele>688.0</ele><time>2026-04-26T17:39:23Z</time></trkpt><trkpt lat="43.610870665798856" lon="11.350283928533974"><ele>688.0</ele><time>2026-04-26T17:39:25Z</time></trkpt><trkpt lat="43.61095561321672" lon="11.350268300318104"><ele>688.0</ele><time>2026-04-26T17:39:27Z</time></trkpt><trkpt lat="43.61107073050307" lon="11.350257549345349"><ele>688.0</ele><time>2026-04-26T17:39:29Z</time></trkpt><trkpt lat="43.611174162003906" lon="11.35025073111896"><ele>688.0</ele><time>2026-04-26T17:39:31Z</time></trkpt><trkpt lat="43.611279041463945" lon="11.350238707647573"><ele>688.0</ele><time>2026-04-26T17:39:33Z</time></trkpt><trkpt lat="43.61139637825539" lon="11.350188828322064"><ele>689.5999999999999</ele><time>2026-04-26T17:39:35Z</time></trkpt><trkpt lat="43.61145469230528" lon="11.35012660440825"><ele>691.1999999999999</ele><time>2026-04-26T17:39:36Z</time></trkpt><trkpt lat="43.61156863637908" lon="11.3500023203869"><ele>692.8</ele><time>2026-04-26T17:39:38Z</time></trkpt><trkpt lat="43.61164487112219" lon="11.349951505328995"><ele>694.4</ele><time>2026-04-26T17:39:39Z</time></trkpt><trkpt lat="43.61171673445201" lon="11.349900714907353"><ele>696.0</ele><time>2026-04-26T17:39:40Z</time></trkpt><trkpt lat="43.611779877533706" lon="11.349854622512586"><ele>696.0</ele><time>2026-04-26T17:39:41Z</time></trkpt><trkpt lat="43.61185485726273" lon="11.3498099725413"><ele>696.0</ele><time>2026-04-26T17:39:42Z</time></trkpt><trkpt lat="43.611975483104125" lon="11.349814600503118"><ele>696.0</ele><time>2026-04-26T17:39:44Z</time></trkpt><trkpt lat="43.612085312198744" lon="11.349745115803476"><ele>696.0</ele><time>2026-04-26T17:39:46Z</time></trkpt><trkpt lat="43.612176161307225" lon="11.349700802517779"><ele>696.0</ele><time>2026-04-26T17:39:48Z</time></trkpt><trkpt lat="43.61223580857313" lon="11.349666831120983"><ele>694.4</ele><time>2026-04-26T17:39:49Z</time></trkpt><trkpt lat="43.612324418966566" lon="11.349597151809347"><ele>692.8</ele><time>2026-04-26T17:39:50Z</time></trkpt><trkpt lat="43.61240603381437" lon="11.349467172078525"><ele>691.1999999999999</ele><time>2026-04-26T17:39:51Z</time></trkpt><trkpt lat="43.61244516774156" lon="11.349376109845364"><ele>689.5999999999999</ele><time>2026-04-26T17:39:52Z</time></trkpt><trkpt lat="43.61251775629629" lon="11.349311258888125"><ele>688.0</ele><time>2026-04-26T17:39:53Z</time></trkpt><trkpt lat="43.6125622097922" lon="11.349243389837625"><ele>688.0</ele><time>2026-04-26T17:39:54Z</time></trkpt><trkpt lat="43.61260788778009" lon="11.349151640299672"><ele>688.0</ele><time>2026-04-26T17:39:55Z</time></trkpt><trkpt lat="43.61265318109943" lon="11.349075930318419"><ele>688.0</ele><time>2026-04-26T17:39:56Z</time></trkpt><trkpt lat="43.612675094338435" lon="11.348992648554008"><ele>688.0</ele><time>2026-04-26T17:39:57Z</time></trkpt><trkpt lat="43.612681580882125" lon="11.348821102688703"><ele>688.0</ele><time>2026-04-26T17:39:59Z</time></trkpt><trkpt lat="43.61269932689645" lon="11.348687766975706"><ele>688.0</ele><time>2026-04-26T17:40:01Z</time></trkpt><trkpt lat="43.61274606399674" lon="11.348577087821603"><ele>686.8333333333334</ele><time>2026-04-26T17:40:02Z</time></trkpt><trkpt lat="43.61275053066727" lon="11.348463164142856"><ele>685.6666666666667</ele><time>2026-04-26T17:40:03Z</time></trkpt><trkpt lat="43.612746750749444" lon="11.348368081998304"><ele>684.5</ele><time>2026-04-26T17:40:04Z</time></trkpt><trkpt lat="43.612715189646345" lon="11.348282873486305"><ele>683.3333333333334</ele><time>2026-04-26T17:40:05Z</time></trkpt><trkpt lat="43.61268257992257" lon="11.348119755153796"><ele>682.1666666666666</ele><time>2026-04-26T17:40:07Z</time></trkpt><trkpt lat="43.61268484959982" lon="11.348015416138226"><ele>681.0</ele><time>2026-04-26T17:40:08Z</time></trkpt><trkpt lat="43.612706557803435" lon="11.347914926417152"><ele>679.4</ele><time>2026-04-26T17:40:09Z</time></trkpt><trkpt lat="43.612709814400084" lon="11.34774772136901"><ele>677.8</ele><time>2026-04-26T17:40:11Z</time></trkpt><trkpt lat="43.61272592928579" lon="11.34765067258243"><ele>676.1999999999999</ele><time>2026-04-26T17:40:12Z</time></trkpt><trkpt lat="43.612755734975636" lon="11.347549431467591"><ele>674.5999999999999</ele><time>2026-04-26T17:40:12.999Z</time></trkpt><trkpt lat="43.612805566206625" lon="11.347388556957991"><ele>673.0</ele><time>2026-04-26T17:40:14.999Z</time></trkpt><trkpt lat="43.612828526249366" lon="11.347279490232628"><ele>674.5</ele><time>2026-04-26T17:40:15.999Z</time></trkpt><trkpt lat="43.612859919009104" lon="11.347170059117571"><ele>676.0</ele><time>2026-04-26T17:40:16.999Z</time></trkpt><trkpt lat="43.61289356419519" lon="11.347072437957316"><ele>677.5</ele><time>2026-04-26T17:40:17.999Z</time></trkpt><trkpt lat="43.612973652040544" lon="11.346967222670893"><ele>679.0</ele><time>2026-04-26T17:40:19.999Z</time></trkpt><trkpt lat="43.61304567657989" lon="11.346922683445074"><ele>680.5</ele><time>2026-04-26T17:40:20.999Z</time></trkpt><trkpt lat="43.61311252959153" lon="11.34688260525451"><ele>682.0</ele><time>2026-04-26T17:40:21.999Z</time></trkpt><trkpt lat="43.61316762600232" lon="11.346839054331461"><ele>682.0</ele><time>2026-04-26T17:40:22.999Z</time></trkpt><trkpt lat="43.6132396930082" lon="11.346775507720753"><ele>682.0</ele><time>2026-04-26T17:40:23.999Z</time></trkpt><trkpt lat="43.61329052822995" lon="11.346711789301633"><ele>682.0</ele><time>2026-04-26T17:40:24.999Z</time></trkpt><trkpt lat="43.613351986502856" lon="11.346647644315288"><ele>682.0</ele><time>2026-04-26T17:40:25.999Z</time></trkpt><trkpt lat="43.61345200429807" lon="11.346542671961759"><ele>682.0</ele><time>2026-04-26T17:40:27.999Z</time></trkpt><trkpt lat="43.6135128015067" lon="11.34646391453346"><ele>682.0</ele><time>2026-04-26T17:40:28.999Z</time></trkpt><trkpt lat="43.61355427900938" lon="11.34638732580195"><ele>680.8333333333334</ele><time>2026-04-26T17:40:29.999Z</time></trkpt><trkpt lat="43.61362008167942" lon="11.34633236420835"><ele>679.6666666666667</ele><time>2026-04-26T17:40:30.999Z</time></trkpt><trkpt lat="43.613694756892336" lon="11.346323905006884"><ele>678.5</ele><time>2026-04-26T17:40:31.999Z</time></trkpt><trkpt lat="43.61378781831686" lon="11.346320842953027"><ele>677.3333333333334</ele><time>2026-04-26T17:40:32.999Z</time></trkpt><trkpt lat="43.61387483563528" lon="11.34632175381"><ele>676.1666666666666</ele><time>2026-04-26T17:40:33.999Z</time></trkpt><trkpt lat="43.613954876297896" lon="11.346304272112173"><ele>675.0</ele><time>2026-04-26T17:40:34.999Z</time></trkpt><trkpt lat="43.61402282336082" lon="11.346292395727927"><ele>675.0</ele><time>2026-04-26T17:40:35.999Z</time></trkpt><trkpt lat="43.61409175540187" lon="11.346300390940886"><ele>675.0</ele><time>2026-04-26T17:40:36.999Z</time></trkpt><trkpt lat="43.61418306616945" lon="11.346253590463183"><ele>675.0</ele><time>2026-04-26T17:40:38.999Z</time></trkpt><trkpt lat="43.61428296322031" lon="11.346278335201559"><ele>675.0</ele><time>2026-04-26T17:40:40.999Z</time></trkpt><trkpt lat="43.61437291979118" lon="11.346145278863961"><ele>675.0</ele><time>2026-04-26T17:40:42.999Z</time></trkpt><trkpt lat="43.61441743829985" lon="11.345996281360641"><ele>675.0</ele><time>2026-04-26T17:40:44.999Z</time></trkpt><trkpt lat="43.61448646553862" lon="11.345844228662896"><ele>675.0</ele><time>2026-04-26T17:40:46.999Z</time></trkpt><trkpt lat="43.614537242085255" lon="11.345791612583696"><ele>675.0</ele><time>2026-04-26T17:40:47.999Z</time></trkpt><trkpt lat="43.61462692787947" lon="11.345718072726688"><ele>675.0</ele><time>2026-04-26T17:40:49.999Z</time></trkpt><trkpt lat="43.61470591787882" lon="11.34565268953201"><ele>675.0</ele><time>2026-04-26T17:40:52.999Z</time></trkpt><trkpt lat="43.6147548212512" lon="11.345577734978102"><ele>672.6666666666666</ele><time>2026-04-26T17:40:55Z</time></trkpt><trkpt lat="43.614829043310806" lon="11.34550357781356"><ele>670.3333333333334</ele><time>2026-04-26T17:40:57Z</time></trkpt><trkpt lat="43.614884219484104" lon="11.345445137024377"><ele>668.0</ele><time>2026-04-26T17:40:59Z</time></trkpt><trkpt lat="43.61495157230588" lon="11.345372418935975"><ele>665.6666666666667</ele><time>2026-04-26T17:41:02Z</time></trkpt><trkpt lat="43.61500870356303" lon="11.345296415980327"><ele>663.3333333333334</ele><time>2026-04-26T17:41:04Z</time></trkpt><trkpt lat="43.61506707985752" lon="11.345251018345571"><ele>661.0</ele><time>2026-04-26T17:41:06Z</time></trkpt><trkpt lat="43.615145178805214" lon="11.345180994071466"><ele>661.0</ele><time>2026-04-26T17:41:08Z</time></trkpt><trkpt lat="43.615228534700975" lon="11.345178175136603"><ele>661.0</ele><time>2026-04-26T17:41:10Z</time></trkpt><trkpt lat="43.61531017690847" lon="11.345107918489488"><ele>661.0</ele><time>2026-04-26T17:41:12Z</time></trkpt><trkpt lat="43.61538324756396" lon="11.345032186318212"><ele>661.0</ele><time>2026-04-26T17:41:14Z</time></trkpt><trkpt lat="43.61544501025258" lon="11.344964251446886"><ele>661.0</ele><time>2026-04-26T17:41:16Z</time></trkpt><trkpt lat="43.61553636634082" lon="11.344878620243643"><ele>659.6666666666667</ele><time>2026-04-26T17:41:18Z</time></trkpt><trkpt lat="43.61560440731997" lon="11.344812431964916"><ele>658.3333333333334</ele><time>2026-04-26T17:41:20Z</time></trkpt><trkpt lat="43.615673321803946" lon="11.344750650929212"><ele>657.0</ele><time>2026-04-26T17:41:22Z</time></trkpt><trkpt lat="43.61575098163778" lon="11.344720149263269"><ele>655.6666666666666</ele><time>2026-04-26T17:41:24Z</time></trkpt><trkpt lat="43.615836779715316" lon="11.344712928356056"><ele>654.3333333333333</ele><time>2026-04-26T17:41:26Z</time></trkpt><trkpt lat="43.61592214243451" lon="11.34462791701073"><ele>653.0</ele><time>2026-04-26T17:41:28Z</time></trkpt><trkpt lat="43.61598769403821" lon="11.34454950524346"><ele>651.8</ele><time>2026-04-26T17:41:30Z</time></trkpt><trkpt lat="43.616065582774084" lon="11.344496744398647"><ele>650.5999999999999</ele><time>2026-04-26T17:41:32Z</time></trkpt><trkpt lat="43.61613060029899" lon="11.34444904689045"><ele>649.4000000000001</ele><time>2026-04-26T17:41:34Z</time></trkpt><trkpt lat="43.61620180427602" lon="11.344385508351005"><ele>648.2</ele><time>2026-04-26T17:41:36Z</time></trkpt><trkpt lat="43.61625386817391" lon="11.344297328629088"><ele>647.0</ele><time>2026-04-26T17:41:38Z</time></trkpt><trkpt lat="43.61631287442574" lon="11.344148903774508"><ele>646.8</ele><time>2026-04-26T17:41:40Z</time></trkpt><trkpt lat="43.61633906268898" lon="11.344053427965564"><ele>646.6</ele><time>2026-04-26T17:41:41Z</time></trkpt><trkpt lat="43.61640434234371" lon="11.343932601506431"><ele>646.4</ele><time>2026-04-26T17:41:43Z</time></trkpt><trkpt lat="43.616492966643044" lon="11.34387528796552"><ele>646.1999999999999</ele><time>2026-04-26T17:41:45Z</time></trkpt><trkpt lat="43.61655672717959" lon="11.3437781303474"><ele>646.0</ele><time>2026-04-26T17:41:47Z</time></trkpt><trkpt lat="43.61667090296969" lon="11.343687941799274"><ele>645.5</ele><time>2026-04-26T17:41:49Z</time></trkpt><trkpt lat="43.61674076558006" lon="11.343643454468308"><ele>645.0</ele><time>2026-04-26T17:41:50Z</time></trkpt><trkpt lat="43.61681521586613" lon="11.343587259647858"><ele>644.5</ele><time>2026-04-26T17:41:51Z</time></trkpt><trkpt lat="43.61688802030051" lon="11.343545257392247"><ele>644.0</ele><time>2026-04-26T17:41:52Z</time></trkpt><trkpt lat="43.61696131464764" lon="11.343530896651542"><ele>643.5</ele><time>2026-04-26T17:41:53Z</time></trkpt><trkpt lat="43.61703283561388" lon="11.343535778258998"><ele>643.0</ele><time>2026-04-26T17:41:54Z</time></trkpt><trkpt lat="43.61710165388604" lon="11.343530254105186"><ele>643.0</ele><time>2026-04-26T17:41:55Z</time></trkpt><trkpt lat="43.61720008867708" lon="11.343488200285991"><ele>643.0</ele><time>2026-04-26T17:41:57Z</time></trkpt><trkpt lat="43.617260652434695" lon="11.343404610319165"><ele>643.0</ele><time>2026-04-26T17:41:59Z</time></trkpt><trkpt lat="43.6173508417049" lon="11.343327453248893"><ele>643.0</ele><time>2026-04-26T17:42:01Z</time></trkpt><trkpt lat="43.6174646453226" lon="11.343266531848801"><ele>643.0</ele><time>2026-04-26T17:42:03Z</time></trkpt><trkpt lat="43.617570849239264" lon="11.343151915421"><ele>643.0</ele><time>2026-04-26T17:42:05Z</time></trkpt><trkpt lat="43.61763660393098" lon="11.343064970860826"><ele>643.0</ele><time>2026-04-26T17:42:06Z</time></trkpt><trkpt lat="43.617744971712874" lon="11.34299881865212"><ele>643.0</ele><time>2026-04-26T17:42:08Z</time></trkpt><trkpt lat="43.617834075070505" lon="11.342927157874396"><ele>643.0</ele><time>2026-04-26T17:42:10Z</time></trkpt><trkpt lat="43.61793868555933" lon="11.342849988150933"><ele>643.0</ele><time>2026-04-26T17:42:12Z</time></trkpt><trkpt lat="43.61800422864987" lon="11.342752508402759"><ele>641.8</ele><time>2026-04-26T17:42:14Z</time></trkpt><trkpt lat="43.618038907826" lon="11.342655746081308"><ele>640.5999999999999</ele><time>2026-04-26T17:42:15Z</time></trkpt><trkpt lat="43.61806672623739" lon="11.342556686656005"><ele>639.4000000000001</ele><time>2026-04-26T17:42:16Z</time></trkpt><trkpt lat="43.618112158803164" lon="11.342426932122104"><ele>638.2</ele><time>2026-04-26T17:42:18Z</time></trkpt><trkpt lat="43.61819247350911" lon="11.342331917365438"><ele>637.0</ele><time>2026-04-26T17:42:19.999Z</time></trkpt><trkpt lat="43.61827368024805" lon="11.342248759085916"><ele>636.6</ele><time>2026-04-26T17:42:21.999Z</time></trkpt><trkpt lat="43.618322426560326" lon="11.34218289485474"><ele>636.2</ele><time>2026-04-26T17:42:22.999Z</time></trkpt><trkpt lat="43.61836850922322" lon="11.342046845223992"><ele>635.8</ele><time>2026-04-26T17:42:24.999Z</time></trkpt><trkpt lat="43.61842886811612" lon="11.341946371794787"><ele>635.4</ele><time>2026-04-26T17:42:26.999Z</time></trkpt><trkpt lat="43.61848673393274" lon="11.341784956764535"><ele>635.0</ele><time>2026-04-26T17:42:28.999Z</time></trkpt><trkpt lat="43.61852452333824" lon="11.341607560486594"><ele>635.0</ele><time>2026-04-26T17:42:30.999Z</time></trkpt><trkpt lat="43.61854235294021" lon="11.341503515035816"><ele>635.0</ele><time>2026-04-26T17:42:31.999Z</time></trkpt><trkpt lat="43.61853805259826" lon="11.34136243134063"><ele>635.0</ele><time>2026-04-26T17:42:33.999Z</time></trkpt><trkpt lat="43.6185568564194" lon="11.341228801906798"><ele>635.0</ele><time>2026-04-26T17:42:35.999Z</time></trkpt><trkpt lat="43.61857952157251" lon="11.34114656851974"><ele>635.0</ele><time>2026-04-26T17:42:36.999Z</time></trkpt><trkpt lat="43.61859055810293" lon="11.341027203317099"><ele>635.0</ele><time>2026-04-26T17:42:37.999Z</time></trkpt><trkpt lat="43.618612149066806" lon="11.34090144406192"><ele>636.2</ele><time>2026-04-26T17:42:38.999Z</time></trkpt><trkpt lat="43.6186231829071" lon="11.340717892775096"><ele>637.4</ele><time>2026-04-26T17:42:40.999Z</time></trkpt><trkpt lat="43.618624862087" lon="11.340553700202577"><ele>638.5999999999999</ele><time>2026-04-26T17:42:42.999Z</time></trkpt><trkpt lat="43.618660276135635" lon="11.340415517223908"><ele>639.8</ele><time>2026-04-26T17:42:44.999Z</time></trkpt><trkpt lat="43.61868460903242" lon="11.34033007561151"><ele>641.0</ele><time>2026-04-26T17:42:45.999Z</time></trkpt><trkpt lat="43.61870725464575" lon="11.340238349156808"><ele>641.0</ele><time>2026-04-26T17:42:46.999Z</time></trkpt><trkpt lat="43.618754896594076" lon="11.340092777633169"><ele>641.0</ele><time>2026-04-26T17:42:48.999Z</time></trkpt><trkpt lat="43.6187981422837" lon="11.340014860026473"><ele>641.0</ele><time>2026-04-26T17:42:49.999Z</time></trkpt><trkpt lat="43.61882432545279" lon="11.33993387427544"><ele>641.0</ele><time>2026-04-26T17:42:50.999Z</time></trkpt><trkpt lat="43.61889880349646" lon="11.339788796727511"><ele>641.0</ele><time>2026-04-26T17:42:52.999Z</time></trkpt><trkpt lat="43.61892399723072" lon="11.33969029440109"><ele>640.75</ele><time>2026-04-26T17:42:54.999Z</time></trkpt><trkpt lat="43.61894507112043" lon="11.339597020095468"><ele>640.5</ele><time>2026-04-26T17:42:55.999Z</time></trkpt><trkpt lat="43.61895328728381" lon="11.339485521425601"><ele>640.25</ele><time>2026-04-26T17:42:56.999Z</time></trkpt><trkpt lat="43.61892246919212" lon="11.339220313118014"><ele>640.0</ele><time>2026-04-26T17:42:59.999Z</time></trkpt><trkpt lat="43.61885334660153" lon="11.33910915622537"><ele>640.0</ele><time>2026-04-26T17:43:02Z</time></trkpt><trkpt lat="43.61878978678112" lon="11.338986162791452"><ele>640.0</ele><time>2026-04-26T17:43:04Z</time></trkpt><trkpt lat="43.61876729812786" lon="11.338880024987624"><ele>640.0</ele><time>2026-04-26T17:43:05Z</time></trkpt><trkpt lat="43.61874245252538" lon="11.338765080219506"><ele>640.0</ele><time>2026-04-26T17:43:06Z</time></trkpt><trkpt lat="43.61874926811282" lon="11.338614791885728"><ele>640.0</ele><time>2026-04-26T17:43:08Z</time></trkpt><trkpt lat="43.61876377396085" lon="11.338513445860245"><ele>639.0</ele><time>2026-04-26T17:43:09Z</time></trkpt><trkpt lat="43.61877983566857" lon="11.338423449422335"><ele>638.0</ele><time>2026-04-26T17:43:10Z</time></trkpt><trkpt lat="43.61885282937325" lon="11.33830245365564"><ele>637.0</ele><time>2026-04-26T17:43:12Z</time></trkpt><trkpt lat="43.61894588331332" lon="11.338185647669052"><ele>636.0</ele><time>2026-04-26T17:43:14Z</time></trkpt><trkpt lat="43.618988358268645" lon="11.338102275337546"><ele>635.0</ele><time>2026-04-26T17:43:15Z</time></trkpt><trkpt lat="43.61906217692908" lon="11.33799505102468"><ele>632.6</ele><time>2026-04-26T17:43:17Z</time></trkpt><trkpt lat="43.619167867266704" lon="11.33792522319193"><ele>630.2</ele><time>2026-04-26T17:43:19Z</time></trkpt><trkpt lat="43.61923532336837" lon="11.33786149749914"><ele>627.8</ele><time>2026-04-26T17:43:21Z</time></trkpt><trkpt lat="43.6193134784753" lon="11.33777795397451"><ele>625.4</ele><time>2026-04-26T17:43:23Z</time></trkpt><trkpt lat="43.61940991049216" lon="11.337728829996045"><ele>623.0</ele><time>2026-04-26T17:43:25Z</time></trkpt><trkpt lat="43.61950852154134" lon="11.337674547692234"><ele>623.0</ele><time>2026-04-26T17:43:27Z</time></trkpt><trkpt lat="43.61959217151513" lon="11.337656362420931"><ele>623.0</ele><time>2026-04-26T17:43:28Z</time></trkpt><trkpt lat="43.61966984377539" lon="11.33763664425067"><ele>623.0</ele><time>2026-04-26T17:43:29Z</time></trkpt><trkpt lat="43.61978293142411" lon="11.337648678044228"><ele>623.0</ele><time>2026-04-26T17:43:31Z</time></trkpt><trkpt lat="43.619866057319705" lon="11.337633460269771"><ele>623.0</ele><time>2026-04-26T17:43:33Z</time></trkpt><trkpt lat="43.61996837473051" lon="11.33759666287227"><ele>623.0</ele><time>2026-04-26T17:43:35Z</time></trkpt><trkpt lat="43.6200776508712" lon="11.337573875112739"><ele>623.0</ele><time>2026-04-26T17:43:37Z</time></trkpt><trkpt lat="43.620162112256146" lon="11.33753106019997"><ele>623.0</ele><time>2026-04-26T17:43:39Z</time></trkpt><trkpt lat="43.62023179717746" lon="11.337540040496798"><ele>623.0</ele><time>2026-04-26T17:43:40Z</time></trkpt><trkpt lat="43.620326344383535" lon="11.337561067329844"><ele>623.0</ele><time>2026-04-26T17:43:41Z</time></trkpt><trkpt lat="43.62038973313483" lon="11.337576728676103"><ele>623.0</ele><time>2026-04-26T17:43:42Z</time></trkpt><trkpt lat="43.62046118860474" lon="11.33759563754585"><ele>623.1666666666666</ele><time>2026-04-26T17:43:43Z</time></trkpt><trkpt lat="43.620559414789966" lon="11.337597083999961"><ele>623.3333333333333</ele><time>2026-04-26T17:43:44Z</time></trkpt><trkpt lat="43.62066116596893" lon="11.337618796680983"><ele>623.5</ele><time>2026-04-26T17:43:45Z</time></trkpt><trkpt lat="43.620729316992986" lon="11.337644114553253"><ele>623.6666666666666</ele><time>2026-04-26T17:43:46Z</time></trkpt><trkpt lat="43.62080180383092" lon="11.337690420944647"><ele>623.8333333333334</ele><time>2026-04-26T17:43:47Z</time></trkpt><trkpt lat="43.62087122830042" lon="11.337728106623457"><ele>624.0</ele><time>2026-04-26T17:43:48Z</time></trkpt><trkpt lat="43.621014844628796" lon="11.337746636015188"><ele>624.0</ele><time>2026-04-26T17:43:50Z</time></trkpt><trkpt lat="43.62108358034314" lon="11.33779671223"><ele>624.0</ele><time>2026-04-26T17:43:51Z</time></trkpt><trkpt lat="43.621158593725625" lon="11.337767301731366"><ele>624.0</ele><time>2026-04-26T17:43:53Z</time></trkpt><trkpt lat="43.62124534348234" lon="11.33770330715134"><ele>624.0</ele><time>2026-04-26T17:43:54Z</time></trkpt><trkpt lat="43.62135794193844" lon="11.337651956325741"><ele>624.0</ele><time>2026-04-26T17:43:55Z</time></trkpt><trkpt lat="43.621430479926836" lon="11.337642492572924"><ele>624.0</ele><time>2026-04-26T17:43:56Z</time></trkpt><trkpt lat="43.6215442464009" lon="11.337576284525829"><ele>625.4</ele><time>2026-04-26T17:43:58Z</time></trkpt><trkpt lat="43.62159810229757" lon="11.337479103697524"><ele>626.8</ele><time>2026-04-26T17:43:59Z</time></trkpt><trkpt lat="43.62163021629417" lon="11.337380539833047"><ele>628.2</ele><time>2026-04-26T17:44:00Z</time></trkpt><trkpt lat="43.62163449412861" lon="11.337220017210845"><ele>629.6</ele><time>2026-04-26T17:44:02Z</time></trkpt><trkpt lat="43.62170215451503" lon="11.337062836328492"><ele>631.0</ele><time>2026-04-26T17:44:04Z</time></trkpt><trkpt lat="43.62175772222648" lon="11.337002221763859"><ele>628.0</ele><time>2026-04-26T17:44:05Z</time></trkpt><trkpt lat="43.62184391150385" lon="11.336963122283802"><ele>625.0</ele><time>2026-04-26T17:44:07Z</time></trkpt><trkpt lat="43.62193072793904" lon="11.3368870368008"><ele>622.0</ele><time>2026-04-26T17:44:09Z</time></trkpt><trkpt lat="43.622028670909906" lon="11.336857463501982"><ele>619.0</ele><time>2026-04-26T17:44:11Z</time></trkpt><trkpt lat="43.62215935070421" lon="11.33687814809532"><ele>616.0</ele><time>2026-04-26T17:44:13Z</time></trkpt><trkpt lat="43.622225755776896" lon="11.336888374646353"><ele>616.0</ele><time>2026-04-26T17:44:14Z</time></trkpt><trkpt lat="43.622324758666146" lon="11.336850345859553"><ele>616.0</ele><time>2026-04-26T17:44:16Z</time></trkpt><trkpt lat="43.62238642591966" lon="11.336829391683878"><ele>616.0</ele><time>2026-04-26T17:44:17Z</time></trkpt><trkpt lat="43.622497419531655" lon="11.336805101933066"><ele>616.0</ele><time>2026-04-26T17:44:19Z</time></trkpt><trkpt lat="43.62257032447507" lon="11.336839556371135"><ele>616.0</ele><time>2026-04-26T17:44:20Z</time></trkpt><trkpt lat="43.622674430402384" lon="11.336871311725286"><ele>616.0</ele><time>2026-04-26T17:44:20.999Z</time></trkpt><trkpt lat="43.622791229321734" lon="11.336877479670413"><ele>616.0</ele><time>2026-04-26T17:44:21.999Z</time></trkpt><trkpt lat="43.62289210539996" lon="11.336934345329952"><ele>616.0</ele><time>2026-04-26T17:44:23.999Z</time></trkpt><trkpt lat="43.62296615461814" lon="11.336978559141365"><ele>616.0</ele><time>2026-04-26T17:44:24.999Z</time></trkpt><trkpt lat="43.623053682192406" lon="11.337009488337145"><ele>616.0</ele><time>2026-04-26T17:44:25.999Z</time></trkpt><trkpt lat="43.62313555661097" lon="11.337029316108172"><ele>614.6666666666667</ele><time>2026-04-26T17:44:26.999Z</time></trkpt><trkpt lat="43.6232001194731" lon="11.33706190902075"><ele>613.3333333333334</ele><time>2026-04-26T17:44:27.999Z</time></trkpt><trkpt lat="43.62330200904727" lon="11.337127834239043"><ele>612.0</ele><time>2026-04-26T17:44:29.999Z</time></trkpt><trkpt lat="43.62340679701338" lon="11.337174495116416"><ele>610.6666666666666</ele><time>2026-04-26T17:44:31.999Z</time></trkpt><trkpt lat="43.62346208364106" lon="11.337132851037456"><ele>609.3333333333333</ele><time>2026-04-26T17:44:32.999Z</time></trkpt><trkpt lat="43.62352628791075" lon="11.337106642665672"><ele>608.0</ele><time>2026-04-26T17:44:33.999Z</time></trkpt><trkpt lat="43.62361990787452" lon="11.337096007952098"><ele>608.0</ele><time>2026-04-26T17:44:35.999Z</time></trkpt><trkpt lat="43.62367383122583" lon="11.337194223207739"><ele>608.0</ele><time>2026-04-26T17:44:37.999Z</time></trkpt><trkpt lat="43.623708145047424" lon="11.337312121107962"><ele>608.0</ele><time>2026-04-26T17:44:39.999Z</time></trkpt><trkpt lat="43.62375901238767" lon="11.337374157392007"><ele>608.0</ele><time>2026-04-26T17:44:40.999Z</time></trkpt><trkpt lat="43.623845794037" lon="11.337492279288758"><ele>608.0</ele><time>2026-04-26T17:44:42.999Z</time></trkpt><trkpt lat="43.62390796185179" lon="11.337586155437748"><ele>610.0</ele><time>2026-04-26T17:44:44.999Z</time></trkpt><trkpt lat="43.623996547603745" lon="11.337690356076921"><ele>612.0</ele><time>2026-04-26T17:44:46.999Z</time></trkpt><trkpt lat="43.62407556914951" lon="11.337717717499345"><ele>614.0</ele><time>2026-04-26T17:44:48.999Z</time></trkpt><trkpt lat="43.62415662402617" lon="11.337755584217343"><ele>616.0</ele><time>2026-04-26T17:44:50.999Z</time></trkpt><trkpt lat="43.62423956432919" lon="11.337760450001326"><ele>618.0</ele><time>2026-04-26T17:44:53.999Z</time></trkpt><trkpt lat="43.624306509402935" lon="11.337718714062149"><ele>620.0</ele><time>2026-04-26T17:44:56.999Z</time></trkpt><trkpt lat="43.624347535392985" lon="11.337581245459043"><ele>620.0</ele><time>2026-04-26T17:44:58.999Z</time></trkpt><trkpt lat="43.62440398440792" lon="11.337475814250197"><ele>620.0</ele><time>2026-04-26T17:45:00.999Z</time></trkpt><trkpt lat="43.62445069291611" lon="11.337403885808229"><ele>620.0</ele><time>2026-04-26T17:45:02.999Z</time></trkpt><trkpt lat="43.624487515191454" lon="11.33731864601379"><ele>620.0</ele><time>2026-04-26T17:45:04.999Z</time></trkpt><trkpt lat="43.62452926691157" lon="11.337239690061821"><ele>620.0</ele><time>2026-04-26T17:45:07Z</time></trkpt><trkpt lat="43.62456829955236" lon="11.337158420241508"><ele>620.0</ele><time>2026-04-26T17:45:09Z</time></trkpt><trkpt lat="43.62463358251457" lon="11.33712239367223"><ele>620.0</ele><time>2026-04-26T17:45:11Z</time></trkpt><trkpt lat="43.624724010710025" lon="11.337097527725586"><ele>616.2</ele><time>2026-04-26T17:45:13Z</time></trkpt><trkpt lat="43.62482956684845" lon="11.33706355318457"><ele>612.4</ele><time>2026-04-26T17:45:15Z</time></trkpt><trkpt lat="43.62493679955891" lon="11.336982211060555"><ele>608.6</ele><time>2026-04-26T17:45:17Z</time></trkpt><trkpt lat="43.62497970283541" lon="11.336912256536687"><ele>604.8</ele><time>2026-04-26T17:45:18Z</time></trkpt><trkpt lat="43.62501666441965" lon="11.336788078260309"><ele>601.0</ele><time>2026-04-26T17:45:20Z</time></trkpt><trkpt lat="43.62505678224578" lon="11.33671181919867"><ele>601.0</ele><time>2026-04-26T17:45:22Z</time></trkpt><trkpt lat="43.62514312754876" lon="11.336659334822912"><ele>601.0</ele><time>2026-04-26T17:45:24Z</time></trkpt><trkpt lat="43.62527721861025" lon="11.33665793290984"><ele>601.0</ele><time>2026-04-26T17:45:26Z</time></trkpt><trkpt lat="43.62535161039449" lon="11.336663670854398"><ele>601.0</ele><time>2026-04-26T17:45:27Z</time></trkpt><trkpt lat="43.62542121100427" lon="11.33667088558295"><ele>601.0</ele><time>2026-04-26T17:45:28Z</time></trkpt><trkpt lat="43.625504395873975" lon="11.336659580675228"><ele>602.6</ele><time>2026-04-26T17:45:30Z</time></trkpt><trkpt lat="43.62555700293136" lon="11.33660940587599"><ele>604.2</ele><time>2026-04-26T17:45:31Z</time></trkpt><trkpt lat="43.62564255490678" lon="11.336538589148313"><ele>605.8</ele><time>2026-04-26T17:45:33Z</time></trkpt><trkpt lat="43.62571885696032" lon="11.336467365095881"><ele>607.4</ele><time>2026-04-26T17:45:35Z</time></trkpt><trkpt lat="43.625806046632654" lon="11.336394406570568"><ele>609.0</ele><time>2026-04-26T17:45:37Z</time></trkpt><trkpt lat="43.62590671469446" lon="11.336347877912347"><ele>608.0</ele><time>2026-04-26T17:45:39Z</time></trkpt><trkpt lat="43.62598270499542" lon="11.336331454393598"><ele>607.0</ele><time>2026-04-26T17:45:41Z</time></trkpt><trkpt lat="43.62609462803828" lon="11.33629838413038"><ele>606.0</ele><time>2026-04-26T17:45:43Z</time></trkpt><trkpt lat="43.62622780553263" lon="11.336230349559262"><ele>605.0</ele><time>2026-04-26T17:45:45Z</time></trkpt><trkpt lat="43.626296755388395" lon="11.336197992954233"><ele>604.0</ele><time>2026-04-26T17:45:46Z</time></trkpt><trkpt lat="43.62638199949187" lon="11.336162281835005"><ele>604.0</ele><time>2026-04-26T17:45:48Z</time></trkpt><trkpt lat="43.62648214654911" lon="11.336118993833873"><ele>604.0</ele><time>2026-04-26T17:45:50Z</time></trkpt><trkpt lat="43.62659380737187" lon="11.33604756021936"><ele>604.0</ele><time>2026-04-26T17:45:52Z</time></trkpt><trkpt lat="43.62669904745873" lon="11.335991345791639"><ele>604.0</ele><time>2026-04-26T17:45:54Z</time></trkpt><trkpt lat="43.62679520869452" lon="11.33593861895576"><ele>604.0</ele><time>2026-04-26T17:45:56Z</time></trkpt><trkpt lat="43.62687360092453" lon="11.335893408572923"><ele>604.0</ele><time>2026-04-26T17:45:58Z</time></trkpt><trkpt lat="43.626960593847244" lon="11.335860978135068"><ele>604.0</ele><time>2026-04-26T17:46:00Z</time></trkpt><trkpt lat="43.62706924714908" lon="11.335893363326955"><ele>604.0</ele><time>2026-04-26T17:46:02Z</time></trkpt><trkpt lat="43.62716456214397" lon="11.335931122290669"><ele>604.0</ele><time>2026-04-26T17:46:04Z</time></trkpt><trkpt lat="43.62725065577037" lon="11.335914647909478"><ele>604.0</ele><time>2026-04-26T17:46:06Z</time></trkpt><trkpt lat="43.62734329821502" lon="11.335886447333458"><ele>604.6666666666667</ele><time>2026-04-26T17:46:08Z</time></trkpt><trkpt lat="43.62743533392946" lon="11.33584023167067"><ele>605.3333333333334</ele><time>2026-04-26T17:46:10Z</time></trkpt><trkpt lat="43.627499450618885" lon="11.33581215534427"><ele>606.0</ele><time>2026-04-26T17:46:11Z</time></trkpt><trkpt lat="43.62756354897818" lon="11.335762886405536"><ele>606.6666666666666</ele><time>2026-04-26T17:46:12Z</time></trkpt><trkpt lat="43.627645873230115" lon="11.335684107129312"><ele>607.3333333333333</ele><time>2026-04-26T17:46:14Z</time></trkpt><trkpt lat="43.62770847654778" lon="11.33558568597594"><ele>608.0</ele><time>2026-04-26T17:46:16Z</time></trkpt><trkpt lat="43.627791908028335" lon="11.335490845297088"><ele>608.1666666666666</ele><time>2026-04-26T17:46:18Z</time></trkpt><trkpt lat="43.62786575080602" lon="11.33539681892308"><ele>608.3333333333333</ele><time>2026-04-26T17:46:19Z</time></trkpt><trkpt lat="43.627914673020584" lon="11.335333814788056"><ele>608.5</ele><time>2026-04-26T17:46:20Z</time></trkpt><trkpt lat="43.62797877113441" lon="11.33522945543458"><ele>608.6666666666666</ele><time>2026-04-26T17:46:22Z</time></trkpt><trkpt lat="43.62803606336971" lon="11.335118641836312"><ele>608.8333333333334</ele><time>2026-04-26T17:46:23.999Z</time></trkpt><trkpt lat="43.6280956108677" lon="11.33508072707265"><ele>609.0</ele><time>2026-04-26T17:46:24.999Z</time></trkpt><trkpt lat="43.62816088237082" lon="11.335042710777264"><ele>609.0</ele><time>2026-04-26T17:46:25.999Z</time></trkpt><trkpt lat="43.628244691818715" lon="11.334975491353104"><ele>609.0</ele><time>2026-04-26T17:46:27.999Z</time></trkpt><trkpt lat="43.628346255390326" lon="11.33486023014602"><ele>609.0</ele><time>2026-04-26T17:46:29.999Z</time></trkpt><trkpt lat="43.62840542540785" lon="11.334806519709316"><ele>609.0</ele><time>2026-04-26T17:46:30.999Z</time></trkpt><trkpt lat="43.62847834755491" lon="11.334716918744462"><ele>609.0</ele><time>2026-04-26T17:46:31.999Z</time></trkpt><trkpt lat="43.6285586048483" lon="11.334589535316246"><ele>608.0</ele><time>2026-04-26T17:46:33.999Z</time></trkpt><trkpt lat="43.62866277155985" lon="11.334508940018658"><ele>607.0</ele><time>2026-04-26T17:46:35.999Z</time></trkpt><trkpt lat="43.62873605774782" lon="11.334466664912469"><ele>606.0</ele><time>2026-04-26T17:46:36.999Z</time></trkpt><trkpt lat="43.628803679454535" lon="11.334423513180658"><ele>605.0</ele><time>2026-04-26T17:46:37.999Z</time></trkpt><trkpt lat="43.628904054090015" lon="11.334356579763162"><ele>604.0</ele><time>2026-04-26T17:46:39.999Z</time></trkpt><trkpt lat="43.629017600345506" lon="11.334244470771056"><ele>604.0</ele><time>2026-04-26T17:46:41.999Z</time></trkpt><trkpt lat="43.62906643032666" lon="11.334162933978483"><ele>604.0</ele><time>2026-04-26T17:46:42.999Z</time></trkpt><trkpt lat="43.6291110034007" lon="11.334066809752887"><ele>604.0</ele><time>2026-04-26T17:46:43.999Z</time></trkpt><trkpt lat="43.62916529680453" lon="11.333995404650205"><ele>604.0</ele><time>2026-04-26T17:46:44.999Z</time></trkpt><trkpt lat="43.62921775787262" lon="11.333925428481775"><ele>604.0</ele><time>2026-04-26T17:46:45.999Z</time></trkpt><trkpt lat="43.629291482046" lon="11.333858887201643"><ele>604.0</ele><time>2026-04-26T17:46:46.999Z</time></trkpt><trkpt lat="43.629381478064325" lon="11.333831162605113"><ele>603.3333333333334</ele><time>2026-04-26T17:46:47.999Z</time></trkpt><trkpt lat="43.62945436715119" lon="11.33377173200483"><ele>602.6666666666667</ele><time>2026-04-26T17:46:48.999Z</time></trkpt><trkpt lat="43.62954545499002" lon="11.333725739692094"><ele>602.0</ele><time>2026-04-26T17:46:49.999Z</time></trkpt><trkpt lat="43.62962047734019" lon="11.333685683712574"><ele>601.3333333333334</ele><time>2026-04-26T17:46:50.999Z</time></trkpt><trkpt lat="43.62969420995972" lon="11.33364717966136"><ele>600.6666666666666</ele><time>2026-04-26T17:46:51.999Z</time></trkpt><trkpt lat="43.629748788945115" lon="11.333570085274435"><ele>600.0</ele><time>2026-04-26T17:46:52.999Z</time></trkpt><trkpt lat="43.62980534050087" lon="11.333492312446243"><ele>600.0</ele><time>2026-04-26T17:46:53.999Z</time></trkpt><trkpt lat="43.62984278749642" lon="11.333405155054637"><ele>600.0</ele><time>2026-04-26T17:46:54.999Z</time></trkpt><trkpt lat="43.62986591433695" lon="11.333322503525249"><ele>600.0</ele><time>2026-04-26T17:46:55.999Z</time></trkpt><trkpt lat="43.62989553592812" lon="11.333235566930387"><ele>600.0</ele><time>2026-04-26T17:46:56.999Z</time></trkpt><trkpt lat="43.6299366455279" lon="11.333153752938106"><ele>600.0</ele><time>2026-04-26T17:46:57.999Z</time></trkpt><trkpt lat="43.629983176414314" lon="11.332992470358809"><ele>600.0</ele><time>2026-04-26T17:46:59.999Z</time></trkpt><trkpt lat="43.63004922444198" lon="11.332859818409403"><ele>600.1666666666666</ele><time>2026-04-26T17:47:01.999Z</time></trkpt><trkpt lat="43.63005727790564" lon="11.332769384152897"><ele>600.3333333333334</ele><time>2026-04-26T17:47:02.999Z</time></trkpt><trkpt lat="43.630052728936306" lon="11.3326646753854"><ele>600.5</ele><time>2026-04-26T17:47:03.999Z</time></trkpt><trkpt lat="43.63006816591062" lon="11.332504640799577"><ele>600.6666666666667</ele><time>2026-04-26T17:47:05.999Z</time></trkpt><trkpt lat="43.630086399882956" lon="11.33240734155849"><ele>600.8333333333334</ele><time>2026-04-26T17:47:06.999Z</time></trkpt><trkpt lat="43.63011982234292" lon="11.332333447209567"><ele>601.0</ele><time>2026-04-26T17:47:07.999Z</time></trkpt><trkpt lat="43.630145480384684" lon="11.332179818343203"><ele>601.0</ele><time>2026-04-26T17:47:09.999Z</time></trkpt><trkpt lat="43.63014995606066" lon="11.332023663456367"><ele>601.0</ele><time>2026-04-26T17:47:12Z</time></trkpt><trkpt lat="43.630167758492775" lon="11.331925783750458"><ele>601.0</ele><time>2026-04-26T17:47:13Z</time></trkpt><trkpt lat="43.63019263397144" lon="11.331817820721076"><ele>601.0</ele><time>2026-04-26T17:47:14Z</time></trkpt><trkpt lat="43.63022745189816" lon="11.331717944299195"><ele>601.0</ele><time>2026-04-26T17:47:15Z</time></trkpt><trkpt lat="43.63026428416366" lon="11.331551504910388"><ele>597.0</ele><time>2026-04-26T17:47:17Z</time></trkpt><trkpt lat="43.63031824817363" lon="11.331421459046881"><ele>593.0</ele><time>2026-04-26T17:47:19Z</time></trkpt><trkpt lat="43.630326088997506" lon="11.331254876437947"><ele>589.0</ele><time>2026-04-26T17:47:21Z</time></trkpt><trkpt lat="43.63034832240497" lon="11.33112063454572"><ele>585.0</ele><time>2026-04-26T17:47:22Z</time></trkpt><trkpt lat="43.63041827274988" lon="11.330972375314746"><ele>585.0</ele><time>2026-04-26T17:47:24Z</time></trkpt><trkpt lat="43.630441122279706" lon="11.33087175198127"><ele>585.0</ele><time>2026-04-26T17:47:25Z</time></trkpt><trkpt lat="43.63046804112129" lon="11.330757490681824"><ele>585.0</ele><time>2026-04-26T17:47:26Z</time></trkpt><trkpt lat="43.63050089426853" lon="11.33065695201489"><ele>585.0</ele><time>2026-04-26T17:47:27Z</time></trkpt><trkpt lat="43.630541775409576" lon="11.330582562317534"><ele>585.0</ele><time>2026-04-26T17:47:28Z</time></trkpt><trkpt lat="43.63059440041419" lon="11.330515605894037"><ele>585.0</ele><time>2026-04-26T17:47:29Z</time></trkpt><trkpt lat="43.63065338694347" lon="11.330454579622765"><ele>584.8333333333334</ele><time>2026-04-26T17:47:30Z</time></trkpt><trkpt lat="43.6307132070998" lon="11.330357362589668"><ele>584.6666666666666</ele><time>2026-04-26T17:47:32Z</time></trkpt><trkpt lat="43.63075608696174" lon="11.330289116374589"><ele>584.5</ele><time>2026-04-26T17:47:36Z</time></trkpt><trkpt lat="43.630817328373006" lon="11.330246427203694"><ele>584.3333333333333</ele><time>2026-04-26T17:47:39Z</time></trkpt><trkpt lat="43.630905740462666" lon="11.330247775196261"><ele>584.1666666666666</ele><time>2026-04-26T17:47:42Z</time></trkpt><trkpt lat="43.6309725439538" lon="11.330252885100961"><ele>584.0</ele><time>2026-04-26T17:47:45Z</time></trkpt><trkpt lat="43.631047223376605" lon="11.330276184216888"><ele>584.0</ele><time>2026-04-26T17:47:48Z</time></trkpt><trkpt lat="43.631079461378995" lon="11.330370332152883"><ele>584.0</ele><time>2026-04-26T17:47:51Z</time></trkpt><trkpt lat="43.63108730242758" lon="11.330283725238697"><ele>584.0</ele><time>2026-04-26T17:47:55Z</time></trkpt><trkpt lat="43.631007334142865" lon="11.330215327501298"><ele>584.0</ele><time>2026-04-26T17:47:58Z</time></trkpt><trkpt lat="43.63092645361422" lon="11.330245195189056"><ele>584.0</ele><time>2026-04-26T17:48:01Z</time></trkpt><trkpt lat="43.63085521691226" lon="11.330257249041274"><ele>584.0</ele><time>2026-04-26T17:48:05Z</time></trkpt><trkpt lat="43.63075924715429" lon="11.330264440252407"><ele>584.0</ele><time>2026-04-26T17:48:08Z</time></trkpt><trkpt lat="43.63069571996115" lon="11.330271302043094"><ele>584.0</ele><time>2026-04-26T17:48:14Z</time></trkpt><trkpt lat="43.63068516867848" lon="11.33038290541267"><ele>584.0</ele><time>2026-04-26T17:48:17Z</time></trkpt><trkpt lat="43.63074376160824" lon="11.33041960840886"><ele>584.0</ele><time>2026-04-26T17:48:21Z</time></trkpt><trkpt lat="43.63072918045976" lon="11.330331930922021"><ele>584.0</ele><time>2026-04-26T17:48:24Z</time></trkpt><trkpt lat="43.63067245122119" lon="11.330291923700461"><ele>584.0</ele><time>2026-04-26T17:48:25.999Z</time></trkpt><trkpt lat="43.63067785597479" lon="11.330150935814526"><ele>584.0</ele><time>2026-04-26T17:51:27Z</time></trkpt><trkpt lat="43.63064247138394" lon="11.330051454498472"><ele>584.0</ele><time>2026-04-26T17:51:29Z</time></trkpt><trkpt lat="43.63057561984382" lon="11.329955093992934"><ele>584.0</ele><time>2026-04-26T17:51:30Z</time></trkpt><trkpt lat="43.63050825546356" lon="11.3298624721504"><ele>584.0</ele><time>2026-04-26T17:51:31Z</time></trkpt><trkpt lat="43.63046506284369" lon="11.329786071941054"><ele>584.0</ele><time>2026-04-26T17:51:32Z</time></trkpt><trkpt lat="43.6303638976132" lon="11.329750756772967"><ele>584.0</ele><time>2026-04-26T17:51:34Z</time></trkpt><trkpt lat="43.630273882796914" lon="11.329685562673006"><ele>582.6666666666666</ele><time>2026-04-26T17:51:36Z</time></trkpt><trkpt lat="43.63023040905461" lon="11.32953765527454"><ele>581.3333333333333</ele><time>2026-04-26T17:51:38Z</time></trkpt><trkpt lat="43.630200484247005" lon="11.329417486227348"><ele>580.0</ele><time>2026-04-26T17:51:40Z</time></trkpt><trkpt lat="43.63013951543139" lon="11.329367810636818"><ele>578.6666666666666</ele><time>2026-04-26T17:51:42Z</time></trkpt><trkpt lat="43.630100023234895" lon="11.329256189980663"><ele>577.3333333333334</ele><time>2026-04-26T17:51:44Z</time></trkpt><trkpt lat="43.63005239424203" lon="11.329177009404201"><ele>576.0</ele><time>2026-04-26T17:51:46Z</time></trkpt><trkpt lat="43.630001646819835" lon="11.329077053641745"><ele>576.0</ele><time>2026-04-26T17:51:48Z</time></trkpt><trkpt lat="43.629906990162226" lon="11.329000762543261"><ele>576.0</ele><time>2026-04-26T17:51:51Z</time></trkpt><trkpt lat="43.629828420318034" lon="11.32893824694422"><ele>576.0</ele><time>2026-04-26T17:51:53Z</time></trkpt><trkpt lat="43.62974738906538" lon="11.328852597324895"><ele>576.0</ele><time>2026-04-26T17:51:55Z</time></trkpt><trkpt lat="43.62968074940834" lon="11.328809884305874"><ele>576.0</ele><time>2026-04-26T17:51:57Z</time></trkpt><trkpt lat="43.62962129827033" lon="11.328746810525478"><ele>573.8333333333334</ele><time>2026-04-26T17:51:59Z</time></trkpt><trkpt lat="43.62955288357656" lon="11.328713893903915"><ele>571.6666666666666</ele><time>2026-04-26T17:52:01Z</time></trkpt><trkpt lat="43.62948211719973" lon="11.328725683645686"><ele>569.5</ele><time>2026-04-26T17:52:03Z</time></trkpt><trkpt lat="43.62940889291876" lon="11.328724497553077"><ele>567.3333333333333</ele><time>2026-04-26T17:52:05Z</time></trkpt><trkpt lat="43.62931392231099" lon="11.328762158357833"><ele>565.1666666666666</ele><time>2026-04-26T17:52:07Z</time></trkpt><trkpt lat="43.62920363474733" lon="11.328753092538074"><ele>563.0</ele><time>2026-04-26T17:52:09Z</time></trkpt><trkpt lat="43.62911723077745" lon="11.328779444374392"><ele>560.5</ele><time>2026-04-26T17:52:11Z</time></trkpt><trkpt lat="43.6290474814628" lon="11.328794279310195"><ele>558.0</ele><time>2026-04-26T17:52:12Z</time></trkpt><trkpt lat="43.62896636481783" lon="11.328788116925093"><ele>555.5</ele><time>2026-04-26T17:52:13Z</time></trkpt><trkpt lat="43.628892160951786" lon="11.328771048704905"><ele>553.0</ele><time>2026-04-26T17:52:14Z</time></trkpt><trkpt lat="43.62882645314236" lon="11.328741422191138"><ele>550.5</ele><time>2026-04-26T17:52:15Z</time></trkpt><trkpt lat="43.628749453650826" lon="11.328703766148577"><ele>548.0</ele><time>2026-04-26T17:52:16Z</time></trkpt><trkpt lat="43.62868405066296" lon="11.328661962410253"><ele>547.0</ele><time>2026-04-26T17:52:17Z</time></trkpt><trkpt lat="43.628620257565245" lon="11.328617815694786"><ele>546.0</ele><time>2026-04-26T17:52:18Z</time></trkpt><trkpt lat="43.62849905146387" lon="11.328598812552046"><ele>545.0</ele><time>2026-04-26T17:52:20Z</time></trkpt><trkpt lat="43.62843182771343" lon="11.328584423428529"><ele>544.0</ele><time>2026-04-26T17:52:21Z</time></trkpt><trkpt lat="43.628368212892575" lon="11.328570353324068"><ele>543.0</ele><time>2026-04-26T17:52:22Z</time></trkpt><trkpt lat="43.6283042744558" lon="11.328541003832662"><ele>542.0</ele><time>2026-04-26T17:52:23Z</time></trkpt><trkpt lat="43.62818404386377" lon="11.328563651295521"><ele>542.0</ele><time>2026-04-26T17:52:25Z</time></trkpt><trkpt lat="43.62811837847972" lon="11.328595874216305"><ele>542.0</ele><time>2026-04-26T17:52:26Z</time></trkpt><trkpt lat="43.628055350587466" lon="11.328636567346317"><ele>542.0</ele><time>2026-04-26T17:52:27Z</time></trkpt><trkpt lat="43.62795852360937" lon="11.328694759478008"><ele>542.0</ele><time>2026-04-26T17:52:29Z</time></trkpt><trkpt lat="43.62787088684035" lon="11.328700550271542"><ele>542.0</ele><time>2026-04-26T17:52:31Z</time></trkpt><trkpt lat="43.627808266804806" lon="11.328797327112545"><ele>542.0</ele><time>2026-04-26T17:52:33Z</time></trkpt><trkpt lat="43.62774436109118" lon="11.328871721663173"><ele>539.8000000000001</ele><time>2026-04-26T17:52:34.999Z</time></trkpt><trkpt lat="43.62763697070752" lon="11.32887379590802"><ele>537.6</ele><time>2026-04-26T17:52:36.999Z</time></trkpt><trkpt lat="43.627566339613125" lon="11.328856115223862"><ele>535.4000000000001</ele><time>2026-04-26T17:52:37.999Z</time></trkpt><trkpt lat="43.62746183477233" lon="11.328813275249374"><ele>533.2</ele><time>2026-04-26T17:52:39.999Z</time></trkpt><trkpt lat="43.62736493952758" lon="11.328768833826539"><ele>531.0</ele><time>2026-04-26T17:52:42.999Z</time></trkpt><trkpt lat="43.627302123536424" lon="11.328729552471582"><ele>531.0</ele><time>2026-04-26T17:52:44.999Z</time></trkpt><trkpt lat="43.62722446620197" lon="11.328688301840977"><ele>531.0</ele><time>2026-04-26T17:52:47.999Z</time></trkpt><trkpt lat="43.62713440230366" lon="11.328668984803159"><ele>531.0</ele><time>2026-04-26T17:52:50.999Z</time></trkpt><trkpt lat="43.62708715521349" lon="11.3285920584628"><ele>531.0</ele><time>2026-04-26T17:52:53.999Z</time></trkpt><trkpt lat="43.6270404090333" lon="11.328502657753189"><ele>531.0</ele><time>2026-04-26T17:52:56.999Z</time></trkpt><trkpt lat="43.626967310100135" lon="11.328445721231478"><ele>531.0</ele><time>2026-04-26T17:52:59.999Z</time></trkpt><trkpt lat="43.62686075162552" lon="11.32842017251919"><ele>528.8333333333334</ele><time>2026-04-26T17:53:01.999Z</time></trkpt><trkpt lat="43.626749700703904" lon="11.328390267890958"><ele>526.6666666666666</ele><time>2026-04-26T17:53:03.999Z</time></trkpt><trkpt lat="43.62667265326535" lon="11.328330404167541"><ele>524.5</ele><time>2026-04-26T17:53:05.999Z</time></trkpt><trkpt lat="43.6266003442703" lon="11.32828907096217"><ele>522.3333333333333</ele><time>2026-04-26T17:53:06.999Z</time></trkpt><trkpt lat="43.62653463593537" lon="11.328242011715306"><ele>520.1666666666666</ele><time>2026-04-26T17:53:07.999Z</time></trkpt><trkpt lat="43.6264421712793" lon="11.328236178849718"><ele>518.0</ele><time>2026-04-26T17:53:09.999Z</time></trkpt><trkpt lat="43.62634725137295" lon="11.328235497909967"><ele>518.0</ele><time>2026-04-26T17:53:11.999Z</time></trkpt><trkpt lat="43.62625547906089" lon="11.328180112436085"><ele>518.0</ele><time>2026-04-26T17:53:13.999Z</time></trkpt><trkpt lat="43.62616930559684" lon="11.32815697339194"><ele>518.0</ele><time>2026-04-26T17:53:15.999Z</time></trkpt><trkpt lat="43.62609087599664" lon="11.328140455150692"><ele>518.0</ele><time>2026-04-26T17:53:17.999Z</time></trkpt><trkpt lat="43.625987970752526" lon="11.328082258527939"><ele>518.0</ele><time>2026-04-26T17:53:19.999Z</time></trkpt><trkpt lat="43.62593250758726" lon="11.32803690878408"><ele>518.0</ele><time>2026-04-26T17:53:20.999Z</time></trkpt><trkpt lat="43.625841878068336" lon="11.328034953227657"><ele>517.0</ele><time>2026-04-26T17:53:22.999Z</time></trkpt><trkpt lat="43.625743535861574" lon="11.32804130275136"><ele>516.0</ele><time>2026-04-26T17:53:24.999Z</time></trkpt><trkpt lat="43.625682925119435" lon="11.328087373894485"><ele>515.0</ele><time>2026-04-26T17:53:26.999Z</time></trkpt><trkpt lat="43.625584446970315" lon="11.328095217124442"><ele>514.0</ele><time>2026-04-26T17:53:30Z</time></trkpt><trkpt lat="43.62549396324933" lon="11.328078665025142"><ele>513.0</ele><time>2026-04-26T17:53:32Z</time></trkpt><trkpt lat="43.625414461859584" lon="11.328026337394528"><ele>512.0</ele><time>2026-04-26T17:53:34Z</time></trkpt><trkpt lat="43.62533548378159" lon="11.32800381969471"><ele>507.66666666666663</ele><time>2026-04-26T17:53:36Z</time></trkpt><trkpt lat="43.62526027990849" lon="11.327949658887714"><ele>503.3333333333333</ele><time>2026-04-26T17:53:38Z</time></trkpt><trkpt lat="43.62520521817946" lon="11.327866011209855"><ele>499.0</ele><time>2026-04-26T17:53:40Z</time></trkpt><trkpt lat="43.62521362713718" lon="11.327778449284493"><ele>494.66666666666663</ele><time>2026-04-26T17:53:42Z</time></trkpt><trkpt lat="43.62528886074733" lon="11.32775514089337"><ele>490.3333333333333</ele><time>2026-04-26T17:53:44Z</time></trkpt><trkpt lat="43.625390813003065" lon="11.327743939420632"><ele>486.0</ele><time>2026-04-26T17:53:46Z</time></trkpt><trkpt lat="43.62547718316787" lon="11.327741054295357"><ele>486.0</ele><time>2026-04-26T17:53:48Z</time></trkpt><trkpt lat="43.62550606478356" lon="11.327649678400514"><ele>486.0</ele><time>2026-04-26T17:53:51Z</time></trkpt><trkpt lat="43.62544487922364" lon="11.327581956259664"><ele>486.0</ele><time>2026-04-26T17:53:53Z</time></trkpt><trkpt lat="43.625348754884705" lon="11.327567727280277"><ele>486.0</ele><time>2026-04-26T17:53:55Z</time></trkpt><trkpt lat="43.625275381591166" lon="11.327564293662345"><ele>486.0</ele><time>2026-04-26T17:53:56Z</time></trkpt><trkpt lat="43.62520381058307" lon="11.327566977869768"><ele>486.0</ele><time>2026-04-26T17:53:57Z</time></trkpt><trkpt lat="43.62513963423301" lon="11.327570586213646"><ele>484.4</ele><time>2026-04-26T17:53:58Z</time></trkpt><trkpt lat="43.62506765827616" lon="11.327550810750365"><ele>482.8</ele><time>2026-04-26T17:53:59Z</time></trkpt><trkpt lat="43.62498984952079" lon="11.327602300211058"><ele>481.19999999999993</ele><time>2026-04-26T17:54:00Z</time></trkpt><trkpt lat="43.62491481637508" lon="11.327585914495284"><ele>479.59999999999997</ele><time>2026-04-26T17:54:01Z</time></trkpt><trkpt lat="43.624807413361374" lon="11.327600529190928"><ele>478.0</ele><time>2026-04-26T17:54:03Z</time></trkpt><trkpt lat="43.624700287611056" lon="11.327615609771803"><ele>478.00000000000006</ele><time>2026-04-26T17:54:05Z</time></trkpt><trkpt lat="43.62458556290704" lon="11.327650560254414"><ele>478.0</ele><time>2026-04-26T17:54:07Z</time></trkpt><trkpt lat="43.624529800134916" lon="11.327713945953388"><ele>478.0</ele><time>2026-04-26T17:54:08Z</time></trkpt><trkpt lat="43.624497195244956" lon="11.32780055606143"><ele>478.0</ele><time>2026-04-26T17:54:09Z</time></trkpt><trkpt lat="43.62447302194074" lon="11.327890854007094"><ele>478.00000000000006</ele><time>2026-04-26T17:54:10Z</time></trkpt><trkpt lat="43.624433341570885" lon="11.327964451819279"><ele>478.0</ele><time>2026-04-26T17:54:11Z</time></trkpt><trkpt lat="43.62441094264672" lon="11.328062279062916"><ele>477.79999999999995</ele><time>2026-04-26T17:54:12Z</time></trkpt><trkpt lat="43.624345915951" lon="11.328100371067945"><ele>477.59999999999997</ele><time>2026-04-26T17:54:13Z</time></trkpt><trkpt lat="43.624279921140605" lon="11.328142542060736"><ele>477.40000000000003</ele><time>2026-04-26T17:54:14Z</time></trkpt><trkpt lat="43.62419663713658" lon="11.328180062695214"><ele>477.20000000000005</ele><time>2026-04-26T17:54:16Z</time></trkpt><trkpt lat="43.62408738009247" lon="11.32821822833392"><ele>477.0</ele><time>2026-04-26T17:54:18Z</time></trkpt><trkpt lat="43.62397744652592" lon="11.328244445589467"><ele>477.0</ele><time>2026-04-26T17:54:20Z</time></trkpt><trkpt lat="43.623891965965136" lon="11.328281847589976"><ele>477.0</ele><time>2026-04-26T17:54:22Z</time></trkpt><trkpt lat="43.62388991367243" lon="11.328374078637218"><ele>477.0</ele><time>2026-04-26T17:54:23Z</time></trkpt><trkpt lat="43.623809158152014" lon="11.328450232400296"><ele>477.0</ele><time>2026-04-26T17:54:25Z</time></trkpt><trkpt lat="43.623702523919896" lon="11.328470769971997"><ele>477.0</ele><time>2026-04-26T17:54:27Z</time></trkpt><trkpt lat="43.62363558568054" lon="11.328467035956567"><ele>477.0</ele><time>2026-04-26T17:54:28Z</time></trkpt><trkpt lat="43.623571544769796" lon="11.328480319743012"><ele>472.40000000000003</ele><time>2026-04-26T17:54:29Z</time></trkpt><trkpt lat="43.6234507792837" lon="11.328499043382465"><ele>467.80000000000007</ele><time>2026-04-26T17:54:31Z</time></trkpt><trkpt lat="43.623331145606734" lon="11.328554019260162"><ele>463.2</ele><time>2026-04-26T17:54:32.999Z</time></trkpt><trkpt lat="43.623265652435116" lon="11.328570972529256"><ele>458.6</ele><time>2026-04-26T17:54:33.999Z</time></trkpt><trkpt lat="43.623217116962564" lon="11.32865221109475"><ele>454.0</ele><time>2026-04-26T17:54:34.999Z</time></trkpt><trkpt lat="43.62311761379213" lon="11.328684410034167"><ele>454.00000000000006</ele><time>2026-04-26T17:54:36.999Z</time></trkpt><trkpt lat="43.623049957867" lon="11.328534040517265"><ele>454.0</ele><time>2026-04-26T17:54:38.999Z</time></trkpt><trkpt lat="43.62300894655583" lon="11.328429886677394"><ele>454.0</ele><time>2026-04-26T17:54:39.999Z</time></trkpt><trkpt lat="43.62297120126665" lon="11.328353552691723"><ele>454.0</ele><time>2026-04-26T17:54:40.999Z</time></trkpt><trkpt lat="43.622919851951394" lon="11.328282224106484"><ele>454.00000000000006</ele><time>2026-04-26T17:54:41.999Z</time></trkpt><trkpt lat="43.62287536965667" lon="11.32821556011566"><ele>454.0</ele><time>2026-04-26T17:54:42.999Z</time></trkpt><trkpt lat="43.62278306036408" lon="11.328145269982754"><ele>449.33333333333337</ele><time>2026-04-26T17:54:44.999Z</time></trkpt><trkpt lat="43.62267663946475" lon="11.328083013453975"><ele>444.6666666666667</ele><time>2026-04-26T17:54:46.999Z</time></trkpt><trkpt lat="43.62262668781828" lon="11.328024719203826"><ele>440.0</ele><time>2026-04-26T17:54:47.999Z</time></trkpt><trkpt lat="43.62258927329309" lon="11.327942096027353"><ele>435.33333333333337</ele><time>2026-04-26T17:54:48.999Z</time></trkpt><trkpt lat="43.622571510973955" lon="11.327854831058653"><ele>430.6666666666667</ele><time>2026-04-26T17:54:49.999Z</time></trkpt><trkpt lat="43.622565839210765" lon="11.3277450716033"><ele>426.0</ele><time>2026-04-26T17:54:50.999Z</time></trkpt><trkpt lat="43.62256680637129" lon="11.32761730702414"><ele>426.0</ele><time>2026-04-26T17:54:51.999Z</time></trkpt><trkpt lat="43.62256543165573" lon="11.327484686034028"><ele>426.0</ele><time>2026-04-26T17:54:52.999Z</time></trkpt><trkpt lat="43.62257330991253" lon="11.327346537484026"><ele>426.0</ele><time>2026-04-26T17:54:53.999Z</time></trkpt><trkpt lat="43.62258144941848" lon="11.327236866143558"><ele>426.0</ele><time>2026-04-26T17:54:54.999Z</time></trkpt><trkpt lat="43.62258212150402" lon="11.327138787214484"><ele>426.0</ele><time>2026-04-26T17:54:55.999Z</time></trkpt><trkpt lat="43.622577695734" lon="11.32704213539296"><ele>426.0</ele><time>2026-04-26T17:54:56.999Z</time></trkpt><trkpt lat="43.62257081611116" lon="11.32694587729234"><ele>424.85714285714283</ele><time>2026-04-26T17:54:57.999Z</time></trkpt><trkpt lat="43.6225629249399" lon="11.326847139157628"><ele>423.7142857142857</ele><time>2026-04-26T17:54:58.999Z</time></trkpt><trkpt lat="43.62255008624767" lon="11.326751336738923"><ele>422.57142857142856</ele><time>2026-04-26T17:54:59.999Z</time></trkpt><trkpt lat="43.62253383862084" lon="11.326666245545042"><ele>421.42857142857144</ele><time>2026-04-26T17:55:00.999Z</time></trkpt><trkpt lat="43.62250037919556" lon="11.326576897898507"><ele>420.2857142857143</ele><time>2026-04-26T17:55:01.999Z</time></trkpt><trkpt lat="43.62244643753084" lon="11.3264899711404"><ele>419.1428571428571</ele><time>2026-04-26T17:55:02.999Z</time></trkpt><trkpt lat="43.62239111018027" lon="11.32640939204986"><ele>418.0</ele><time>2026-04-26T17:55:03.999Z</time></trkpt><trkpt lat="43.622302300189936" lon="11.326301528836082"><ele>415.83333333333337</ele><time>2026-04-26T17:55:05.999Z</time></trkpt><trkpt lat="43.62218686952282" lon="11.326271003478844"><ele>413.6666666666667</ele><time>2026-04-26T17:55:07.999Z</time></trkpt><trkpt lat="43.62212576404918" lon="11.326294730452636"><ele>411.5</ele><time>2026-04-26T17:55:08.999Z</time></trkpt><trkpt lat="43.62205924911979" lon="11.326279826361057"><ele>409.33333333333337</ele><time>2026-04-26T17:55:09.999Z</time></trkpt><trkpt lat="43.62198682848018" lon="11.326232425624967"><ele>407.1666666666667</ele><time>2026-04-26T17:55:10.999Z</time></trkpt><trkpt lat="43.62190488142807" lon="11.32618447329058"><ele>405.0</ele><time>2026-04-26T17:55:11.999Z</time></trkpt><trkpt lat="43.6218390377586" lon="11.326122974037157"><ele>403.3333333333333</ele><time>2026-04-26T17:55:12.999Z</time></trkpt><trkpt lat="43.62178966322609" lon="11.326066672826162"><ele>401.66666666666663</ele><time>2026-04-26T17:55:13.999Z</time></trkpt><trkpt lat="43.621722125815225" lon="11.326003281844372"><ele>400.0</ele><time>2026-04-26T17:55:14.999Z</time></trkpt><trkpt lat="43.621648744961256" lon="11.325934354368618"><ele>398.3333333333333</ele><time>2026-04-26T17:55:15.999Z</time></trkpt><trkpt lat="43.62159943040824" lon="11.32583562877345"><ele>396.66666666666663</ele><time>2026-04-26T17:55:16.999Z</time></trkpt><trkpt lat="43.621537190633404" lon="11.325750972687976"><ele>395.0</ele><time>2026-04-26T17:55:17.999Z</time></trkpt><trkpt lat="43.62149800007496" lon="11.325636266356144"><ele>393.0</ele><time>2026-04-26T17:55:18.999Z</time></trkpt><trkpt lat="43.62136466487974" lon="11.325537236840972"><ele>391.0</ele><time>2026-04-26T17:55:19.999Z</time></trkpt><trkpt lat="43.62130273505851" lon="11.325418710778676"><ele>389.0</ele><time>2026-04-26T17:55:20.999Z</time></trkpt><trkpt lat="43.62123308147893" lon="11.325327016146806"><ele>387.0</ele><time>2026-04-26T17:55:21.999Z</time></trkpt><trkpt lat="43.621154437145634" lon="11.325252804058849"><ele>385.0</ele><time>2026-04-26T17:55:22.999Z</time></trkpt><trkpt lat="43.6210879061979" lon="11.325158427839114"><ele>383.83333333333337</ele><time>2026-04-26T17:55:23.999Z</time></trkpt><trkpt lat="43.621030861126854" lon="11.325083875003257"><ele>382.6666666666667</ele><time>2026-04-26T17:55:24.999Z</time></trkpt><trkpt lat="43.62097667638543" lon="11.325014534770526"><ele>381.5</ele><time>2026-04-26T17:55:25.999Z</time></trkpt><trkpt lat="43.62091772781816" lon="11.32495729691106"><ele>380.33333333333337</ele><time>2026-04-26T17:55:26.999Z</time></trkpt><trkpt lat="43.62085517852721" lon="11.324836250857146"><ele>379.1666666666667</ele><time>2026-04-26T17:55:28.999Z</time></trkpt><trkpt lat="43.620862338874446" lon="11.324705935320278"><ele>378.0</ele><time>2026-04-26T17:55:30.999Z</time></trkpt><trkpt lat="43.62089788850294" lon="11.32462692449519"><ele>377.0</ele><time>2026-04-26T17:55:31.999Z</time></trkpt><trkpt lat="43.62091295498913" lon="11.324454291574321"><ele>376.0</ele><time>2026-04-26T17:55:33.999Z</time></trkpt><trkpt lat="43.62090346156706" lon="11.324358579875703"><ele>375.0</ele><time>2026-04-26T17:55:34.999Z</time></trkpt><trkpt lat="43.620890795026554" lon="11.324267479056392"><ele>374.0</ele><time>2026-04-26T17:55:36Z</time></trkpt><trkpt lat="43.620866550778764" lon="11.32416902379473"><ele>373.0</ele><time>2026-04-26T17:55:37Z</time></trkpt><trkpt lat="43.62082271167988" lon="11.324067758294888"><ele>372.0</ele><time>2026-04-26T17:55:38Z</time></trkpt><trkpt lat="43.62076235274229" lon="11.323947138966508"><ele>370.8333333333333</ele><time>2026-04-26T17:55:39Z</time></trkpt><trkpt lat="43.620718355386195" lon="11.323844568748983"><ele>369.6666666666667</ele><time>2026-04-26T17:55:40Z</time></trkpt><trkpt lat="43.620681127495864" lon="11.323746033882136"><ele>368.5</ele><time>2026-04-26T17:55:41Z</time></trkpt><trkpt lat="43.62068947712874" lon="11.323637577638463"><ele>367.33333333333337</ele><time>2026-04-26T17:55:42Z</time></trkpt><trkpt lat="43.62067213364307" lon="11.323552134616282"><ele>366.1666666666667</ele><time>2026-04-26T17:55:43Z</time></trkpt><trkpt lat="43.62062608935926" lon="11.323440055106843"><ele>365.0</ele><time>2026-04-26T17:55:45Z</time></trkpt><trkpt lat="43.62049436451237" lon="11.323517487809095"><ele>365.0</ele><time>2026-04-26T17:56:30Z</time></trkpt><trkpt lat="43.62038807952813" lon="11.323578795466648"><ele>365.0</ele><time>2026-04-26T17:56:32Z</time></trkpt><trkpt lat="43.62027535788474" lon="11.32362136864523"><ele>365.0</ele><time>2026-04-26T17:56:34Z</time></trkpt><trkpt lat="43.62021250765848" lon="11.323639496364665"><ele>365.0</ele><time>2026-04-26T17:56:35Z</time></trkpt><trkpt lat="43.62010075122189" lon="11.323635229594448"><ele>365.0</ele><time>2026-04-26T17:56:37Z</time></trkpt><trkpt lat="43.62001969659066" lon="11.323617553465727"><ele>364.2</ele><time>2026-04-26T17:56:38.999Z</time></trkpt><trkpt lat="43.61995751696444" lon="11.323664272626443"><ele>363.4</ele><time>2026-04-26T17:56:40.999Z</time></trkpt><trkpt lat="43.619972493137325" lon="11.323798870136429"><ele>362.6</ele><time>2026-04-26T17:56:41.999Z</time></trkpt><trkpt lat="43.61996882756532" lon="11.323927074973057"><ele>361.8</ele><time>2026-04-26T17:56:43.999Z</time></trkpt><trkpt lat="43.61999006873326" lon="11.324053811826795"><ele>361.0</ele><time>2026-04-26T17:56:45.999Z</time></trkpt><trkpt lat="43.62001130999446" lon="11.324200609527429"><ele>361.0</ele><time>2026-04-26T17:56:47.999Z</time></trkpt><trkpt lat="43.620028929809145" lon="11.324340889094602"><ele>361.0</ele><time>2026-04-26T17:56:49.999Z</time></trkpt><trkpt lat="43.62004482826989" lon="11.324484815965755"><ele>361.0</ele><time>2026-04-26T17:56:51.999Z</time></trkpt><trkpt lat="43.62006161691988" lon="11.324572907209548"><ele>361.0</ele><time>2026-04-26T17:56:52.999Z</time></trkpt><trkpt lat="43.620075857383156" lon="11.32465916355209"><ele>361.0</ele><time>2026-04-26T17:56:53.999Z</time></trkpt><trkpt lat="43.620066626014186" lon="11.324750273436903"><ele>361.0</ele><time>2026-04-26T17:56:54.999Z</time></trkpt><trkpt lat="43.62008429631264" lon="11.32483443750834"><ele>360.66666666666663</ele><time>2026-04-26T17:56:55.999Z</time></trkpt><trkpt lat="43.620132527443396" lon="11.324933303591393"><ele>360.3333333333333</ele><time>2026-04-26T17:56:56.999Z</time></trkpt><trkpt lat="43.62015803437504" lon="11.325069942252666"><ele>360.0</ele><time>2026-04-26T17:56:57.999Z</time></trkpt><trkpt lat="43.620189134357304" lon="11.325171790077285"><ele>359.6666666666667</ele><time>2026-04-26T17:56:58.999Z</time></trkpt><trkpt lat="43.62018885819305" lon="11.32529268842858"><ele>359.33333333333337</ele><time>2026-04-26T17:56:59.999Z</time></trkpt><trkpt lat="43.62021323528126" lon="11.32539288559639"><ele>359.0</ele><time>2026-04-26T17:57:00.999Z</time></trkpt><trkpt lat="43.62023572908967" lon="11.325496250680677"><ele>359.6666666666667</ele><time>2026-04-26T17:57:01.999Z</time></trkpt><trkpt lat="43.62025297366488" lon="11.32558757920265"><ele>360.33333333333337</ele><time>2026-04-26T17:57:02.999Z</time></trkpt><trkpt lat="43.62026599737743" lon="11.325681541586365"><ele>361.0</ele><time>2026-04-26T17:57:03.999Z</time></trkpt><trkpt lat="43.620279352897164" lon="11.325829772076597"><ele>361.6666666666667</ele><time>2026-04-26T17:57:05.999Z</time></trkpt><trkpt lat="43.62023842883338" lon="11.325904266611744"><ele>362.3333333333333</ele><time>2026-04-26T17:57:08.999Z</time></trkpt><trkpt lat="43.62013690200363" lon="11.325972841082134"><ele>363.0</ele><time>2026-04-26T17:57:11.999Z</time></trkpt><trkpt lat="43.620067406239464" lon="11.325934228480907"><ele>363.0</ele><time>2026-04-26T17:57:13.999Z</time></trkpt><trkpt lat="43.62007842040246" lon="11.32561005014912"><ele>363.0</ele><time>2026-04-26T17:57:14.999Z</time></trkpt><trkpt lat="43.62004733566415" lon="11.325519696399883"><ele>363.0</ele><time>2026-04-26T17:57:15.999Z</time></trkpt><trkpt lat="43.62000419170155" lon="11.325445258262501"><ele>363.0</ele><time>2026-04-26T17:57:16.999Z</time></trkpt><trkpt lat="43.61995993669485" lon="11.325369596474344"><ele>363.0</ele><time>2026-04-26T17:57:17.999Z</time></trkpt><trkpt lat="43.619914270417155" lon="11.325298019014975"><ele>363.0</ele><time>2026-04-26T17:57:18.999Z</time></trkpt><trkpt lat="43.6198677044873" lon="11.325234485899774"><ele>363.0</ele><time>2026-04-26T17:57:19.999Z</time></trkpt><trkpt lat="43.6197676507911" lon="11.325191108589104"><ele>363.0</ele><time>2026-04-26T17:57:21.999Z</time></trkpt><trkpt lat="43.619701624264394" lon="11.325269993616864"><ele>363.0</ele><time>2026-04-26T17:57:23.999Z</time></trkpt><trkpt lat="43.61973617176961" lon="11.32541828211135"><ele>363.0</ele><time>2026-04-26T17:57:25.999Z</time></trkpt><trkpt lat="43.61975307689844" lon="11.32550455796929"><ele>363.0</ele><time>2026-04-26T17:57:26.999Z</time></trkpt><trkpt lat="43.61979036159632" lon="11.32558134788874"><ele>363.0</ele><time>2026-04-26T17:57:27.999Z</time></trkpt><trkpt lat="43.61983993737837" lon="11.32575061679995"><ele>363.0</ele><time>2026-04-26T17:57:29.999Z</time></trkpt><trkpt lat="43.61986517937173" lon="11.325844347188921"><ele>363.0</ele><time>2026-04-26T17:57:30.999Z</time></trkpt><trkpt lat="43.61989765523068" lon="11.325936759577772"><ele>363.0</ele><time>2026-04-26T17:57:31.999Z</time></trkpt><trkpt lat="43.619926735817444" lon="11.326020870333844"><ele>363.0</ele><time>2026-04-26T17:57:32.999Z</time></trkpt><trkpt lat="43.61994587842849" lon="11.326106882458166"><ele>363.0</ele><time>2026-04-26T17:57:33.999Z</time></trkpt><trkpt lat="43.619944027115984" lon="11.326195618248008"><ele>363.0</ele><time>2026-04-26T17:57:34.999Z</time></trkpt><trkpt lat="43.619936404279656" lon="11.326282223077785"><ele>363.0</ele><time>2026-04-26T17:57:35.999Z</time></trkpt><trkpt lat="43.619916287908765" lon="11.326379109041193"><ele>363.0</ele><time>2026-04-26T17:57:36.999Z</time></trkpt><trkpt lat="43.61989020805244" lon="11.326468634394002"><ele>363.0</ele><time>2026-04-26T17:57:37.999Z</time></trkpt><trkpt lat="43.61981433500572" lon="11.326497020649628"><ele>363.0</ele><time>2026-04-26T17:57:39.999Z</time></trkpt><trkpt lat="43.61972135487366" lon="11.326395850122086"><ele>363.0</ele><time>2026-04-26T17:57:42Z</time></trkpt><trkpt lat="43.619615737769486" lon="11.326295473561798"><ele>363.0</ele><time>2026-04-26T17:57:44Z</time></trkpt><trkpt lat="43.61956366236198" lon="11.326223601494334"><ele>363.0</ele><time>2026-04-26T17:57:45Z</time></trkpt><trkpt lat="43.61950999716335" lon="11.326166119815603"><ele>363.0</ele><time>2026-04-26T17:57:46Z</time></trkpt><trkpt lat="43.6194606314015" lon="11.326109609400776"><ele>363.0</ele><time>2026-04-26T17:57:47Z</time></trkpt><trkpt lat="43.619368632823466" lon="11.326009044237416"><ele>363.0</ele><time>2026-04-26T17:57:49Z</time></trkpt><trkpt lat="43.619289997065174" lon="11.325966118675325"><ele>363.0</ele><time>2026-04-26T17:57:50Z</time></trkpt><trkpt lat="43.619168890779555" lon="11.325942588853746"><ele>365.59999999999997</ele><time>2026-04-26T17:57:52Z</time></trkpt><trkpt lat="43.61904012912466" lon="11.325974871171015"><ele>368.2</ele><time>2026-04-26T17:57:54Z</time></trkpt><trkpt lat="43.618976014913876" lon="11.326009464896389"><ele>370.8</ele><time>2026-04-26T17:57:55Z</time></trkpt><trkpt lat="43.61886200049215" lon="11.3260525152785"><ele>373.4</ele><time>2026-04-26T17:57:57Z</time></trkpt><trkpt lat="43.618801945792825" lon="11.326085160422764"><ele>376.0</ele><time>2026-04-26T17:57:58Z</time></trkpt><trkpt lat="43.6187023593459" lon="11.326155253399143"><ele>376.0</ele><time>2026-04-26T17:58:00Z</time></trkpt><trkpt lat="43.61865143301894" lon="11.326210715946317"><ele>376.0</ele><time>2026-04-26T17:58:01Z</time></trkpt><trkpt lat="43.61854978287866" lon="11.326295631941353"><ele>376.0</ele><time>2026-04-26T17:58:03Z</time></trkpt><trkpt lat="43.61846732831061" lon="11.326361425607589"><ele>376.0</ele><time>2026-04-26T17:58:05Z</time></trkpt><trkpt lat="43.61836567726645" lon="11.326406210210804"><ele>376.0</ele><time>2026-04-26T17:58:07Z</time></trkpt><trkpt lat="43.618261263209725" lon="11.326355135224127"><ele>379.8</ele><time>2026-04-26T17:58:09Z</time></trkpt><trkpt lat="43.61819777673167" lon="11.326273333953273"><ele>383.6</ele><time>2026-04-26T17:58:10Z</time></trkpt><trkpt lat="43.618133431200214" lon="11.326181316982044"><ele>387.4</ele><time>2026-04-26T17:58:11Z</time></trkpt><trkpt lat="43.618082561479234" lon="11.326075220364187"><ele>391.2</ele><time>2026-04-26T17:58:12Z</time></trkpt><trkpt lat="43.61804108200653" lon="11.325998626071753"><ele>395.0</ele><time>2026-04-26T17:58:13Z</time></trkpt><trkpt lat="43.617937353936185" lon="11.325932417976837"><ele>397.99999999999994</ele><time>2026-04-26T17:58:15Z</time></trkpt><trkpt lat="43.617813204744884" lon="11.32594574612975"><ele>401.0</ele><time>2026-04-26T17:58:17Z</time></trkpt><trkpt lat="43.61775808462311" lon="11.326008472816971"><ele>404.0</ele><time>2026-04-26T17:58:18Z</time></trkpt><trkpt lat="43.61770660999281" lon="11.326083445208546"><ele>407.0</ele><time>2026-04-26T17:58:20Z</time></trkpt><trkpt lat="43.617639209658336" lon="11.326063801909227"><ele>409.99999999999994</ele><time>2026-04-26T17:58:22Z</time></trkpt><trkpt lat="43.617547934564044" lon="11.326088746945825"><ele>413.0</ele><time>2026-04-26T17:58:24Z</time></trkpt><trkpt lat="43.61745702502238" lon="11.326096796952987"><ele>412.99999999999994</ele><time>2026-04-26T17:58:26Z</time></trkpt><trkpt lat="43.61736745691678" lon="11.326122762122043"><ele>413.0</ele><time>2026-04-26T17:58:28Z</time></trkpt><trkpt lat="43.61724299127427" lon="11.326127824372248"><ele>413.0</ele><time>2026-04-26T17:58:30Z</time></trkpt><trkpt lat="43.61716279867911" lon="11.326182199029866"><ele>413.0</ele><time>2026-04-26T17:58:32Z</time></trkpt><trkpt lat="43.61711144357008" lon="11.326234860857355"><ele>412.99999999999994</ele><time>2026-04-26T17:58:33Z</time></trkpt><trkpt lat="43.617060453595336" lon="11.32629239957099"><ele>413.0</ele><time>2026-04-26T17:58:34Z</time></trkpt><trkpt lat="43.61701250431889" lon="11.326399189997025"><ele>413.59999999999997</ele><time>2026-04-26T17:58:36Z</time></trkpt><trkpt lat="43.61699260935226" lon="11.326568727793255"><ele>414.2</ele><time>2026-04-26T17:58:39Z</time></trkpt><trkpt lat="43.61696250580166" lon="11.32665192214343"><ele>414.8</ele><time>2026-04-26T17:58:40Z</time></trkpt><trkpt lat="43.61691497589353" lon="11.326778628769482"><ele>415.4</ele><time>2026-04-26T17:58:41.999Z</time></trkpt><trkpt lat="43.61687198892094" lon="11.326931335968043"><ele>416.0</ele><time>2026-04-26T17:58:43.999Z</time></trkpt><trkpt lat="43.616843537376035" lon="11.327078194524274"><ele>416.0</ele><time>2026-04-26T17:58:45.999Z</time></trkpt><trkpt lat="43.616814519577005" lon="11.32722210493804"><ele>416.0</ele><time>2026-04-26T17:58:47.999Z</time></trkpt><trkpt lat="43.6167779775506" lon="11.32735692649786"><ele>416.0</ele><time>2026-04-26T17:58:49.999Z</time></trkpt><trkpt lat="43.616747233085995" lon="11.327474120685558"><ele>416.0</ele><time>2026-04-26T17:58:51.999Z</time></trkpt><trkpt lat="43.61674678032311" lon="11.327623389409569"><ele>416.0</ele><time>2026-04-26T17:58:53.999Z</time></trkpt><trkpt lat="43.61672527244519" lon="11.327765484166255"><ele>418.6</ele><time>2026-04-26T17:58:55.999Z</time></trkpt><trkpt lat="43.61668363566038" lon="11.327843529236349"><ele>421.20000000000005</ele><time>2026-04-26T17:58:57.999Z</time></trkpt><trkpt lat="43.61660083074805" lon="11.327909422557969"><ele>423.79999999999995</ele><time>2026-04-26T17:58:59.999Z</time></trkpt><trkpt lat="43.61651631027797" lon="11.32796493395495"><ele>426.4</ele><time>2026-04-26T17:59:01.999Z</time></trkpt><trkpt lat="43.61643772251958" lon="11.328076522081531"><ele>429.0</ele><time>2026-04-26T17:59:03.999Z</time></trkpt><trkpt lat="43.61636951765475" lon="11.32818288379385"><ele>429.8333333333333</ele><time>2026-04-26T17:59:05.999Z</time></trkpt><trkpt lat="43.61630447656395" lon="11.32825121417663"><ele>430.66666666666663</ele><time>2026-04-26T17:59:07.999Z</time></trkpt><trkpt lat="43.616203931872874" lon="11.32822387234732"><ele>431.5</ele><time>2026-04-26T17:59:10.999Z</time></trkpt><trkpt lat="43.61612540811892" lon="11.328191401912333"><ele>432.3333333333333</ele><time>2026-04-26T17:59:13.999Z</time></trkpt><trkpt lat="43.61604493703692" lon="11.328083227385019"><ele>433.16666666666663</ele><time>2026-04-26T17:59:15.999Z</time></trkpt><trkpt lat="43.61599753373425" lon="11.328014698809168"><ele>434.0</ele><time>2026-04-26T17:59:16.999Z</time></trkpt><trkpt lat="43.61594202057898" lon="11.327939902954835"><ele>433.99999999999994</ele><time>2026-04-26T17:59:17.999Z</time></trkpt><trkpt lat="43.61587535850233" lon="11.327848998130033"><ele>434.0</ele><time>2026-04-26T17:59:19.999Z</time></trkpt><trkpt lat="43.615838248278365" lon="11.32777323035995"><ele>434.0</ele><time>2026-04-26T17:59:21.999Z</time></trkpt><trkpt lat="43.61578160503552" lon="11.327697560623815"><ele>434.0</ele><time>2026-04-26T17:59:23.999Z</time></trkpt><trkpt lat="43.615694267573325" lon="11.327604904678669"><ele>433.99999999999994</ele><time>2026-04-26T17:59:25.999Z</time></trkpt><trkpt lat="43.615640987663866" lon="11.327543534993772"><ele>434.0</ele><time>2026-04-26T17:59:26.999Z</time></trkpt><trkpt lat="43.61554628671066" lon="11.327441285852773"><ele>434.0</ele><time>2026-04-26T17:59:28.999Z</time></trkpt><trkpt lat="43.615471582626036" lon="11.327363853678747"><ele>434.0</ele><time>2026-04-26T17:59:30.999Z</time></trkpt><trkpt lat="43.61538274238644" lon="11.327323716105099"><ele>434.0</ele><time>2026-04-26T17:59:32.999Z</time></trkpt><trkpt lat="43.61528989373739" lon="11.327283625526425"><ele>434.0</ele><time>2026-04-26T17:59:34.999Z</time></trkpt><trkpt lat="43.61518575705572" lon="11.327217422183395"><ele>434.0</ele><time>2026-04-26T17:59:36.999Z</time></trkpt><trkpt lat="43.61513015446191" lon="11.327169408287622"><ele>433.2</ele><time>2026-04-26T17:59:37.999Z</time></trkpt><trkpt lat="43.61504100583906" lon="11.327093605281359"><ele>432.4</ele><time>2026-04-26T17:59:39.999Z</time></trkpt><trkpt lat="43.614961075360405" lon="11.327001496200552"><ele>431.6</ele><time>2026-04-26T17:59:41.999Z</time></trkpt><trkpt lat="43.61488996500778" lon="11.326914558641032"><ele>430.8</ele><time>2026-04-26T17:59:43.999Z</time></trkpt><trkpt lat="43.61478386456878" lon="11.32692749793044"><ele>430.0</ele><time>2026-04-26T17:59:46Z</time></trkpt><trkpt lat="43.61466458047679" lon="11.326953120388264"><ele>430.0</ele><time>2026-04-26T17:59:48Z</time></trkpt><trkpt lat="43.614578528556635" lon="11.327028753172817"><ele>430.0</ele><time>2026-04-26T17:59:50Z</time></trkpt><trkpt lat="43.614494907203394" lon="11.327093968454497"><ele>430.0</ele><time>2026-04-26T17:59:52Z</time></trkpt><trkpt lat="43.614432587757825" lon="11.327123092297402"><ele>430.0</ele><time>2026-04-26T17:59:53Z</time></trkpt><trkpt lat="43.61433305685055" lon="11.32716468444087"><ele>430.0</ele><time>2026-04-26T17:59:55Z</time></trkpt><trkpt lat="43.61419069086198" lon="11.327174877303333"><ele>430.0</ele><time>2026-04-26T17:59:57Z</time></trkpt><trkpt lat="43.61411710403454" lon="11.327202843486274"><ele>430.0</ele><time>2026-04-26T17:59:58Z</time></trkpt><trkpt lat="43.61401856438187" lon="11.327195775940496"><ele>430.0</ele><time>2026-04-26T18:00:00Z</time></trkpt><trkpt lat="43.61395696808096" lon="11.327166518116536"><ele>430.0</ele><time>2026-04-26T18:00:01Z</time></trkpt><trkpt lat="43.61384480759561" lon="11.327135586989487"><ele>430.0</ele><time>2026-04-26T18:00:03Z</time></trkpt><trkpt lat="43.613719150077145" lon="11.327134137457195"><ele>430.00000000000006</ele><time>2026-04-26T18:00:05Z</time></trkpt><trkpt lat="43.61364096384648" lon="11.32713832945715"><ele>430.0</ele><time>2026-04-26T18:00:07Z</time></trkpt><trkpt lat="43.61367744856268" lon="11.327260004419598"><ele>430.0</ele><time>2026-04-26T18:02:03Z</time></trkpt><trkpt lat="43.61370473845054" lon="11.327358401376857"><ele>430.0</ele><time>2026-04-26T18:02:05Z</time></trkpt><trkpt lat="43.61376432586123" lon="11.327443262750156"><ele>430.00000000000006</ele><time>2026-04-26T18:02:07Z</time></trkpt><trkpt lat="43.61386726366206" lon="11.327480095467498"><ele>430.0</ele><time>2026-04-26T18:02:09Z</time></trkpt><trkpt lat="43.6139256349248" lon="11.327515915634905"><ele>433.00000000000006</ele><time>2026-04-26T18:02:11Z</time></trkpt><trkpt lat="43.61400793229553" lon="11.327548992085898"><ele>436.0</ele><time>2026-04-26T18:02:13Z</time></trkpt><trkpt lat="43.61407174995972" lon="11.32759991882327"><ele>439.0</ele><time>2026-04-26T18:02:15Z</time></trkpt><trkpt lat="43.61414292884075" lon="11.32764648210337"><ele>442.0</ele><time>2026-04-26T18:02:17Z</time></trkpt><trkpt lat="43.61421123594808" lon="11.327690996465261"><ele>445.00000000000006</ele><time>2026-04-26T18:02:19Z</time></trkpt><trkpt lat="43.614272676085065" lon="11.327794426811236"><ele>448.0</ele><time>2026-04-26T18:02:21Z</time></trkpt><trkpt lat="43.61432487568245" lon="11.32784352109151"><ele>448.00000000000006</ele><time>2026-04-26T18:02:23Z</time></trkpt><trkpt lat="43.61440980702845" lon="11.327862034342445"><ele>448.0</ele><time>2026-04-26T18:02:26Z</time></trkpt><trkpt lat="43.61448559802171" lon="11.327901747239437"><ele>448.0</ele><time>2026-04-26T18:02:28Z</time></trkpt><trkpt lat="43.614545969574564" lon="11.32796890848588"><ele>448.0</ele><time>2026-04-26T18:02:30Z</time></trkpt><trkpt lat="43.614629905679905" lon="11.328046036163904"><ele>448.00000000000006</ele><time>2026-04-26T18:02:32Z</time></trkpt><trkpt lat="43.614715335777674" lon="11.328108668404115"><ele>448.0</ele><time>2026-04-26T18:02:34Z</time></trkpt><trkpt lat="43.61479485025861" lon="11.32819098411586"><ele>451.00000000000006</ele><time>2026-04-26T18:02:36Z</time></trkpt><trkpt lat="43.61486552000408" lon="11.328237685230079"><ele>454.0</ele><time>2026-04-26T18:02:37.999Z</time></trkpt><trkpt lat="43.61494799192453" lon="11.32831054793714"><ele>457.0</ele><time>2026-04-26T18:02:40.999Z</time></trkpt><trkpt lat="43.615029414719075" lon="11.328370806082248"><ele>460.0</ele><time>2026-04-26T18:02:42.999Z</time></trkpt><trkpt lat="43.615069113399215" lon="11.328448706669679"><ele>463.00000000000006</ele><time>2026-04-26T18:02:44.999Z</time></trkpt><trkpt lat="43.6150958919777" lon="11.328527905155024"><ele>466.0</ele><time>2026-04-26T18:02:46.999Z</time></trkpt><trkpt lat="43.61511737286585" lon="11.328624624639884"><ele>466.00000000000006</ele><time>2026-04-26T18:02:47.999Z</time></trkpt><trkpt lat="43.61514430891239" lon="11.328712466592869"><ele>466.0</ele><time>2026-04-26T18:02:48.999Z</time></trkpt><trkpt lat="43.615172523402926" lon="11.32882777379481"><ele>466.0</ele><time>2026-04-26T18:02:50.999Z</time></trkpt><trkpt lat="43.615212675705905" lon="11.328914216133223"><ele>466.0</ele><time>2026-04-26T18:02:52.999Z</time></trkpt><trkpt lat="43.61528114399666" lon="11.328988396528837"><ele>466.00000000000006</ele><time>2026-04-26T18:02:54.999Z</time></trkpt><trkpt lat="43.61534970512098" lon="11.3290575997277"><ele>466.0</ele><time>2026-04-26T18:02:56.999Z</time></trkpt><trkpt lat="43.615407598153425" lon="11.329109457337042"><ele>467.00000000000006</ele><time>2026-04-26T18:02:58.999Z</time></trkpt><trkpt lat="43.61547910844133" lon="11.329191621281735"><ele>468.0</ele><time>2026-04-26T18:03:00.999Z</time></trkpt><trkpt lat="43.615547453377395" lon="11.329256607512288"><ele>469.0</ele><time>2026-04-26T18:03:02.999Z</time></trkpt><trkpt lat="43.61559181669849" lon="11.329358428644863"><ele>470.0</ele><time>2026-04-26T18:03:16.999Z</time></trkpt><trkpt lat="43.61562244456102" lon="11.329453042096867"><ele>471.00000000000006</ele><time>2026-04-26T18:03:18.999Z</time></trkpt><trkpt lat="43.61562457322426" lon="11.329552218496225"><ele>472.0</ele><time>2026-04-26T18:03:20.999Z</time></trkpt><trkpt lat="43.61565952760233" lon="11.32965018779187"><ele>475.40000000000003</ele><time>2026-04-26T18:03:23.999Z</time></trkpt><trkpt lat="43.61569719711437" lon="11.329768919841767"><ele>478.80000000000007</ele><time>2026-04-26T18:03:26.999Z</time></trkpt><trkpt lat="43.61579833190588" lon="11.329891954803577"><ele>482.2</ele><time>2026-04-26T18:03:28.999Z</time></trkpt><trkpt lat="43.61581511216598" lon="11.32999825510019"><ele>485.6</ele><time>2026-04-26T18:04:31Z</time></trkpt><trkpt lat="43.61587095595765" lon="11.33006700080795"><ele>489.0</ele><time>2026-04-26T18:04:35Z</time></trkpt><trkpt lat="43.61587816370314" lon="11.330177936732742"><ele>489.0</ele><time>2026-04-26T18:04:38Z</time></trkpt><trkpt lat="43.61588436087525" lon="11.330328660327144"><ele>489.0</ele><time>2026-04-26T18:04:42.999Z</time></trkpt><trkpt lat="43.61593458629027" lon="11.330396428786601"><ele>489.0</ele><time>2026-04-26T18:04:44.999Z</time></trkpt><trkpt lat="43.615936710710066" lon="11.33050858047473"><ele>489.0</ele><time>2026-04-26T18:04:49.999Z</time></trkpt><trkpt lat="43.616000052432575" lon="11.330527661249164"><ele>489.0</ele><time>2026-04-26T18:04:52.999Z</time></trkpt><trkpt lat="43.616030105923905" lon="11.330610846946211"><ele>489.0</ele><time>2026-04-26T18:05:26.999Z</time></trkpt><trkpt lat="43.616090233044844" lon="11.33070672864014"><ele>490.8333333333333</ele><time>2026-04-26T18:05:36.999Z</time></trkpt><trkpt lat="43.6161374602637" lon="11.330798401327096"><ele>492.66666666666663</ele><time>2026-04-26T18:05:39.999Z</time></trkpt><trkpt lat="43.61617275289839" lon="11.330882611576062"><ele>494.5</ele><time>2026-04-26T18:05:42.999Z</time></trkpt><trkpt lat="43.616264808367106" lon="11.3309449467171"><ele>496.3333333333333</ele><time>2026-04-26T18:05:46.999Z</time></trkpt><trkpt lat="43.6163271615492" lon="11.331006230556216"><ele>498.16666666666663</ele><time>2026-04-26T18:05:48.999Z</time></trkpt><trkpt lat="43.61638630263792" lon="11.331109185838061"><ele>500.0</ele><time>2026-04-26T18:05:50.999Z</time></trkpt><trkpt lat="43.61641790344927" lon="11.331224451849373"><ele>501.4</ele><time>2026-04-26T18:05:52.999Z</time></trkpt><trkpt lat="43.616471952046716" lon="11.331346477243232"><ele>502.8</ele><time>2026-04-26T18:05:54.999Z</time></trkpt><trkpt lat="43.616512186409935" lon="11.331481489601229"><ele>504.20000000000005</ele><time>2026-04-26T18:05:56.999Z</time></trkpt><trkpt lat="43.6165638409125" lon="11.331573410082424"><ele>505.6</ele><time>2026-04-26T18:05:58.999Z</time></trkpt><trkpt lat="43.61664361114084" lon="11.331645719482015"><ele>507.0</ele><time>2026-04-26T18:06:00.999Z</time></trkpt><trkpt lat="43.61671863225326" lon="11.331719281967521"><ele>506.6666666666667</ele><time>2026-04-26T18:06:02.999Z</time></trkpt><trkpt lat="43.616779066481406" lon="11.331824890522432"><ele>506.33333333333337</ele><time>2026-04-26T18:06:05Z</time></trkpt><trkpt lat="43.61683777265291" lon="11.331926872164708"><ele>506.0</ele><time>2026-04-26T18:06:07Z</time></trkpt><trkpt lat="43.61687904872227" lon="11.33201737266004"><ele>505.6666666666667</ele><time>2026-04-26T18:06:09Z</time></trkpt><trkpt lat="43.61693326640457" lon="11.332099439434648"><ele>505.33333333333337</ele><time>2026-04-26T18:06:20Z</time></trkpt><trkpt lat="43.61698887815539" lon="11.3322081410168"><ele>505.0</ele><time>2026-04-26T18:06:22Z</time></trkpt><trkpt lat="43.61704853848906" lon="11.332334397327283"><ele>507.33333333333337</ele><time>2026-04-26T18:06:24Z</time></trkpt><trkpt lat="43.617086535123114" lon="11.332453751506947"><ele>509.6666666666667</ele><time>2026-04-26T18:06:26Z</time></trkpt><trkpt lat="43.61714147367557" lon="11.332547334879637"><ele>512.0</ele><time>2026-04-26T18:06:29Z</time></trkpt><trkpt lat="43.617205745139216" lon="11.332618130651438"><ele>514.3333333333334</ele><time>2026-04-26T18:06:31Z</time></trkpt><trkpt lat="43.617250717425605" lon="11.332702745374714"><ele>516.6666666666666</ele><time>2026-04-26T18:06:33Z</time></trkpt><trkpt lat="43.617306824279055" lon="11.332808298752566"><ele>519.0</ele><time>2026-04-26T18:06:35Z</time></trkpt><trkpt lat="43.61736506982507" lon="11.33286877617423"><ele>519.0</ele><time>2026-04-26T18:06:37Z</time></trkpt><trkpt lat="43.61741799025726" lon="11.332951510507536"><ele>519.0</ele><time>2026-04-26T18:06:39Z</time></trkpt><trkpt lat="43.61745190265922" lon="11.333041754407843"><ele>519.0</ele><time>2026-04-26T18:06:41Z</time></trkpt><trkpt lat="43.617534877975" lon="11.333117808976542"><ele>519.0</ele><time>2026-04-26T18:06:44Z</time></trkpt><trkpt lat="43.61756412671576" lon="11.333196658288928"><ele>519.0</ele><time>2026-04-26T18:06:46.999Z</time></trkpt><trkpt lat="43.61762286476516" lon="11.333255752232459"><ele>519.0</ele><time>2026-04-26T18:06:48.999Z</time></trkpt><trkpt lat="43.61769748233905" lon="11.333257166433304"><ele>520.5</ele><time>2026-04-26T18:06:50.999Z</time></trkpt><trkpt lat="43.61777577236599" lon="11.333267026482774"><ele>522.0</ele><time>2026-04-26T18:06:52.999Z</time></trkpt><trkpt lat="43.617831044776246" lon="11.333335907184818"><ele>523.5</ele><time>2026-04-26T18:06:55.999Z</time></trkpt><trkpt lat="43.617872699956735" lon="11.333420962539812"><ele>525.0</ele><time>2026-04-26T18:07:33.999Z</time></trkpt><trkpt lat="43.61794634496585" lon="11.333455147150339"><ele>526.5</ele><time>2026-04-26T18:07:36.999Z</time></trkpt><trkpt lat="43.61804199339841" lon="11.333595595238714"><ele>528.0</ele><time>2026-04-26T18:08:36Z</time></trkpt><trkpt lat="43.61809364881206" lon="11.333666100911515"><ele>529.3333333333334</ele><time>2026-04-26T18:08:38Z</time></trkpt><trkpt lat="43.61814290513433" lon="11.333738936623767"><ele>530.6666666666666</ele><time>2026-04-26T18:08:41Z</time></trkpt><trkpt lat="43.61818442134683" lon="11.333837362566957"><ele>532.0</ele><time>2026-04-26T18:08:44Z</time></trkpt><trkpt lat="43.61823774816797" lon="11.33389091754128"><ele>533.3333333333333</ele><time>2026-04-26T18:08:46Z</time></trkpt><trkpt lat="43.618298517559154" lon="11.333983048178046"><ele>534.6666666666666</ele><time>2026-04-26T18:08:49.999Z</time></trkpt><trkpt lat="43.618333711078606" lon="11.33406924902171"><ele>536.0</ele><time>2026-04-26T18:08:51.999Z</time></trkpt><trkpt lat="43.6183583380644" lon="11.334177741742275"><ele>538.3333333333333</ele><time>2026-04-26T18:08:54.999Z</time></trkpt><trkpt lat="43.61840135811024" lon="11.334244919607736"><ele>540.6666666666666</ele><time>2026-04-26T18:08:57.999Z</time></trkpt><trkpt lat="43.61844686991269" lon="11.334330758562576"><ele>543.0</ele><time>2026-04-26T18:09:51.999Z</time></trkpt><trkpt lat="43.61848084567293" lon="11.334439948542963"><ele>545.3333333333334</ele><time>2026-04-26T18:09:53.999Z</time></trkpt><trkpt lat="43.61851029396081" lon="11.334546611607902"><ele>547.6666666666667</ele><time>2026-04-26T18:09:55.999Z</time></trkpt><trkpt lat="43.61854343177165" lon="11.334658906203686"><ele>550.0</ele><time>2026-04-26T18:09:57.999Z</time></trkpt><trkpt lat="43.61856316892016" lon="11.33474762329235"><ele>551.0</ele><time>2026-04-26T18:09:59.999Z</time></trkpt><trkpt lat="43.61859033051029" lon="11.334848289461927"><ele>552.0</ele><time>2026-04-26T18:10:01.999Z</time></trkpt><trkpt lat="43.61860122493788" lon="11.334945543703705"><ele>553.0</ele><time>2026-04-26T18:10:03.999Z</time></trkpt><trkpt lat="43.61861092808552" lon="11.335035156025175"><ele>554.0</ele><time>2026-04-26T18:10:06.999Z</time></trkpt><trkpt lat="43.618631290327514" lon="11.335137107723511"><ele>555.0</ele><time>2026-04-26T18:10:09.999Z</time></trkpt><trkpt lat="43.618637525811344" lon="11.335249147924667"><ele>556.0</ele><time>2026-04-26T18:10:12.999Z</time></trkpt><trkpt lat="43.61860015069499" lon="11.335334112599488"><ele>557.0</ele><time>2026-04-26T18:10:14.999Z</time></trkpt><trkpt lat="43.61860233849327" lon="11.33545268576349"><ele>559.5</ele><time>2026-04-26T18:10:18Z</time></trkpt><trkpt lat="43.61863204982377" lon="11.335563640382947"><ele>562.0</ele><time>2026-04-26T18:10:20Z</time></trkpt><trkpt lat="43.61864452097297" lon="11.335684103401844"><ele>564.5</ele><time>2026-04-26T18:10:23Z</time></trkpt><trkpt lat="43.618644426158006" lon="11.335772811581723"><ele>567.0</ele><time>2026-04-26T18:10:25Z</time></trkpt><trkpt lat="43.61865202975329" lon="11.33587916713067"><ele>569.5</ele><time>2026-04-26T18:10:28Z</time></trkpt><trkpt lat="43.618636658519755" lon="11.335985774558537"><ele>572.0</ele><time>2026-04-26T18:10:40Z</time></trkpt><trkpt lat="43.61867807408851" lon="11.336078084622804"><ele>573.1666666666666</ele><time>2026-04-26T18:10:44Z</time></trkpt><trkpt lat="43.618738432438924" lon="11.336135117419513"><ele>574.3333333333333</ele><time>2026-04-26T18:10:46.999Z</time></trkpt><trkpt lat="43.61878296155527" lon="11.33621937841146"><ele>575.5</ele><time>2026-04-26T18:10:50.999Z</time></trkpt><trkpt lat="43.618841993674444" lon="11.336287275741503"><ele>576.6666666666666</ele><time>2026-04-26T18:10:53.999Z</time></trkpt><trkpt lat="43.61888720414947" lon="11.336374716794406"><ele>577.8333333333334</ele><time>2026-04-26T18:10:56.999Z</time></trkpt><trkpt lat="43.61889799987607" lon="11.336494087258547"><ele>579.0</ele><time>2026-04-26T18:10:59.999Z</time></trkpt><trkpt lat="43.61894347626236" lon="11.336600715029851"><ele>582.1666666666666</ele><time>2026-04-26T18:11:02.999Z</time></trkpt><trkpt lat="43.61895210265227" lon="11.336690643336901"><ele>585.3333333333334</ele><time>2026-04-26T18:11:04.999Z</time></trkpt><trkpt lat="43.61894070420078" lon="11.33682032406378"><ele>588.5</ele><time>2026-04-26T18:11:19.999Z</time></trkpt><trkpt lat="43.61896074951367" lon="11.336919880608498"><ele>591.6666666666667</ele><time>2026-04-26T18:11:21.999Z</time></trkpt><trkpt lat="43.61899175672874" lon="11.337031381493556"><ele>594.8333333333334</ele><time>2026-04-26T18:11:24.999Z</time></trkpt><trkpt lat="43.61901762182451" lon="11.337117984038548"><ele>598.0</ele><time>2026-04-26T18:11:26.999Z</time></trkpt><trkpt lat="43.61906435072832" lon="11.337185139173718"><ele>601.5</ele><time>2026-04-26T18:11:29.999Z</time></trkpt><trkpt lat="43.61912888060915" lon="11.337250005696841"><ele>605.0</ele><time>2026-04-26T18:11:32.999Z</time></trkpt><trkpt lat="43.619183859531965" lon="11.337340867057515"><ele>608.5</ele><time>2026-04-26T18:11:35.999Z</time></trkpt><trkpt lat="43.619214986106634" lon="11.337416807567735"><ele>612.0</ele><time>2026-04-26T18:11:37.999Z</time></trkpt><trkpt lat="43.61924607478863" lon="11.337502221102092"><ele>615.5</ele><time>2026-04-26T18:11:40.999Z</time></trkpt><trkpt lat="43.61930210731502" lon="11.337580003855413"><ele>619.0</ele><time>2026-04-26T18:11:43.999Z</time></trkpt><trkpt lat="43.61935863598042" lon="11.337643218491964"><ele>619.0</ele><time>2026-04-26T18:11:46.999Z</time></trkpt><trkpt lat="43.61940235576711" lon="11.337735281583972"><ele>619.0</ele><time>2026-04-26T18:11:49.999Z</time></trkpt><trkpt lat="43.619392542384816" lon="11.337857052175298"><ele>619.0</ele><time>2026-04-26T18:11:52.999Z</time></trkpt><trkpt lat="43.61938244015199" lon="11.337943236586929"><ele>619.0</ele><time>2026-04-26T18:11:54.999Z</time></trkpt><trkpt lat="43.61936284245681" lon="11.338026742834396"><ele>619.0</ele><time>2026-04-26T18:11:56.999Z</time></trkpt><trkpt lat="43.61936496347954" lon="11.338114630664913"><ele>619.0</ele><time>2026-04-26T18:11:58.999Z</time></trkpt><trkpt lat="43.619349549196066" lon="11.338210748349464"><ele>619.0</ele><time>2026-04-26T18:12:00.999Z</time></trkpt><trkpt lat="43.619424789449624" lon="11.338281175974979"><ele>623.5</ele><time>2026-04-26T18:12:03.999Z</time></trkpt><trkpt lat="43.61949096815822" lon="11.338357462051922"><ele>628.0</ele><time>2026-04-26T18:12:05.999Z</time></trkpt><trkpt lat="43.61954434657229" lon="11.338431187956195"><ele>632.5</ele><time>2026-04-26T18:12:07.999Z</time></trkpt><trkpt lat="43.619614269206416" lon="11.338521225697583"><ele>637.0</ele><time>2026-04-26T18:12:10.999Z</time></trkpt><trkpt lat="43.619664744552814" lon="11.338590206047753"><ele>641.5</ele><time>2026-04-26T18:12:12.999Z</time></trkpt><trkpt lat="43.61974335113578" lon="11.33864635494714"><ele>646.0</ele><time>2026-04-26T18:12:15.998Z</time></trkpt><trkpt lat="43.61979904190758" lon="11.338715955636472"><ele>646.0000000000001</ele><time>2026-04-26T18:12:17.998Z</time></trkpt><trkpt lat="43.61985556404396" lon="11.338768299961618"><ele>646.0</ele><time>2026-04-26T18:12:19.998Z</time></trkpt><trkpt lat="43.6198977836557" lon="11.338837142306707"><ele>646.0</ele><time>2026-04-26T18:12:22Z</time></trkpt><trkpt lat="43.619918896323405" lon="11.338751968782692"><ele>646.0</ele><time>2026-04-26T18:12:42Z</time></trkpt><trkpt lat="43.6199947576956" lon="11.33876507105696"><ele>646.0</ele><time>2026-04-26T18:12:48.999Z</time></trkpt><trkpt lat="43.61993868800253" lon="11.338720306212227"><ele>646.0000000000001</ele><time>2026-04-26T18:13:03.999Z</time></trkpt><trkpt lat="43.61987539173736" lon="11.338700723106975"><ele>646.0</ele><time>2026-04-26T18:13:06.999Z</time></trkpt><trkpt lat="43.61981686103003" lon="11.3386318678921"><ele>646.0000000000001</ele><time>2026-04-26T18:13:09.999Z</time></trkpt><trkpt lat="43.61974656823949" lon="11.338626402075489"><ele>646.0</ele><time>2026-04-26T18:13:12.999Z</time></trkpt><trkpt lat="43.61967915632358" lon="11.338614575780671"><ele>646.0</ele><time>2026-04-26T18:13:15.999Z</time></trkpt><trkpt lat="43.61963257438363" lon="11.338551477581897"><ele>646.0</ele><time>2026-04-26T18:13:18.999Z</time></trkpt><trkpt lat="43.61958619028415" lon="11.338484776606547"><ele>646.0</ele><time>2026-04-26T18:13:20.999Z</time></trkpt><trkpt lat="43.619527739507255" lon="11.338430246615621"><ele>646.0000000000001</ele><time>2026-04-26T18:13:22.999Z</time></trkpt><trkpt lat="43.61947898778071" lon="11.338361104952554"><ele>646.0</ele><time>2026-04-26T18:13:24.999Z</time></trkpt><trkpt lat="43.619422106720585" lon="11.338315195461291"><ele>644.4285714285714</ele><time>2026-04-26T18:13:26.999Z</time></trkpt><trkpt lat="43.61936381133873" lon="11.338269124129335"><ele>642.8571428571429</ele><time>2026-04-26T18:13:28.999Z</time></trkpt><trkpt lat="43.619355685543226" lon="11.338160180440845"><ele>641.2857142857142</ele><time>2026-04-26T18:13:31.999Z</time></trkpt><trkpt lat="43.61936738391822" lon="11.33806969658871"><ele>639.7142857142858</ele><time>2026-04-26T18:13:33.999Z</time></trkpt><trkpt lat="43.6193889711691" lon="11.33795093285689"><ele>638.1428571428571</ele><time>2026-04-26T18:13:36.999Z</time></trkpt><trkpt lat="43.61940714790274" lon="11.337864195210699"><ele>636.5714285714286</ele><time>2026-04-26T18:13:39.999Z</time></trkpt><trkpt lat="43.61941405097802" lon="11.337767948926478"><ele>635.0</ele><time>2026-04-26T18:13:42.999Z</time></trkpt><trkpt lat="43.61932553650203" lon="11.337762938979688"><ele>635.0</ele><time>2026-04-26T18:14:00.999Z</time></trkpt><trkpt lat="43.61924589277562" lon="11.33785184025248"><ele>635.0</ele><time>2026-04-26T18:14:02.999Z</time></trkpt><trkpt lat="43.61918093506042" lon="11.337953719815717"><ele>635.0</ele><time>2026-04-26T18:14:04.999Z</time></trkpt><trkpt lat="43.61907929972922" lon="11.338017635681725"><ele>635.0</ele><time>2026-04-26T18:14:06.999Z</time></trkpt><trkpt lat="43.6189838735308" lon="11.338113912165147"><ele>635.0</ele><time>2026-04-26T18:14:08.999Z</time></trkpt><trkpt lat="43.618942338370545" lon="11.33820486101824"><ele>635.0</ele><time>2026-04-26T18:14:09.999Z</time></trkpt><trkpt lat="43.618903317840655" lon="11.338292546090877"><ele>635.0</ele><time>2026-04-26T18:14:10.999Z</time></trkpt><trkpt lat="43.61881819450185" lon="11.338404392376463"><ele>635.0</ele><time>2026-04-26T18:14:12.999Z</time></trkpt><trkpt lat="43.61879407894261" lon="11.338526203562031"><ele>635.0</ele><time>2026-04-26T18:14:14.999Z</time></trkpt><trkpt lat="43.61878293685764" lon="11.338680715696823"><ele>635.0</ele><time>2026-04-26T18:14:16.998Z</time></trkpt><trkpt lat="43.61878799598389" lon="11.338813148193935"><ele>636.0</ele><time>2026-04-26T18:14:18.998Z</time></trkpt><trkpt lat="43.61882427728424" lon="11.338964529527038"><ele>637.0</ele><time>2026-04-26T18:14:20.998Z</time></trkpt><trkpt lat="43.61884657649409" lon="11.339046233257326"><ele>638.0</ele><time>2026-04-26T18:14:21.998Z</time></trkpt><trkpt lat="43.61890620994836" lon="11.339174791477545"><ele>639.0</ele><time>2026-04-26T18:14:23.998Z</time></trkpt><trkpt lat="43.61896923484517" lon="11.339262215075362"><ele>640.0</ele><time>2026-04-26T18:14:25.998Z</time></trkpt><trkpt lat="43.61898066445306" lon="11.339431570018986"><ele>640.0</ele><time>2026-04-26T18:14:28Z</time></trkpt><trkpt lat="43.61896608236821" lon="11.33960770199282"><ele>640.0</ele><time>2026-04-26T18:14:30Z</time></trkpt><trkpt lat="43.61893754540778" lon="11.339699808642614"><ele>640.0</ele><time>2026-04-26T18:14:31Z</time></trkpt><trkpt lat="43.61888189004706" lon="11.339866692243834"><ele>640.0</ele><time>2026-04-26T18:14:33Z</time></trkpt><trkpt lat="43.61883952844357" lon="11.339947592882318"><ele>640.0</ele><time>2026-04-26T18:14:34Z</time></trkpt><trkpt lat="43.618802366452535" lon="11.340030341641427"><ele>640.2</ele><time>2026-04-26T18:14:35Z</time></trkpt><trkpt lat="43.61873511105043" lon="11.340175957920623"><ele>640.4</ele><time>2026-04-26T18:14:37Z</time></trkpt><trkpt lat="43.618687224597494" lon="11.340256999731816"><ele>640.5999999999999</ele><time>2026-04-26T18:14:38Z</time></trkpt><trkpt lat="43.61866334896736" lon="11.340433104378594"><ele>640.8</ele><time>2026-04-26T18:14:40Z</time></trkpt><trkpt lat="43.618638691568144" lon="11.340539805180125"><ele>641.0</ele><time>2026-04-26T18:14:41Z</time></trkpt><trkpt lat="43.618630120778924" lon="11.340627762999942"><ele>638.8333333333333</ele><time>2026-04-26T18:14:42Z</time></trkpt><trkpt lat="43.61863757990089" lon="11.340735140615502"><ele>636.6666666666666</ele><time>2026-04-26T18:14:43Z</time></trkpt><trkpt lat="43.61863230747161" lon="11.34083306290324"><ele>634.5</ele><time>2026-04-26T18:14:44Z</time></trkpt><trkpt lat="43.61861792061361" lon="11.340918734893357"><ele>632.3333333333334</ele><time>2026-04-26T18:14:45Z</time></trkpt><trkpt lat="43.61860918334015" lon="11.341023512301375"><ele>630.1666666666667</ele><time>2026-04-26T18:14:45.999Z</time></trkpt><trkpt lat="43.61859663132178" lon="11.34111549276025"><ele>628.0</ele><time>2026-04-26T18:14:46.999Z</time></trkpt><trkpt lat="43.61855950825634" lon="11.341258420853109"><ele>629.1666666666667</ele><time>2026-04-26T18:14:48.999Z</time></trkpt><trkpt lat="43.61854664218197" lon="11.341393239799267"><ele>630.3333333333334</ele><time>2026-04-26T18:14:50.999Z</time></trkpt><trkpt lat="43.6185622117868" lon="11.34149774762714"><ele>631.5</ele><time>2026-04-26T18:14:51.999Z</time></trkpt><trkpt lat="43.618555259852926" lon="11.341622783500494"><ele>632.6666666666666</ele><time>2026-04-26T18:14:52.999Z</time></trkpt><trkpt lat="43.61853444164197" lon="11.341714885538376"><ele>633.8333333333333</ele><time>2026-04-26T18:14:53.999Z</time></trkpt><trkpt lat="43.618505137695756" lon="11.34181385189809"><ele>635.0</ele><time>2026-04-26T18:15:04.999Z</time></trkpt><trkpt lat="43.6184675293767" lon="11.341896530560108"><ele>635.0</ele><time>2026-04-26T18:15:06.999Z</time></trkpt><trkpt lat="43.61842814275635" lon="11.342016056852994"><ele>635.0</ele><time>2026-04-26T18:15:08.999Z</time></trkpt><trkpt lat="43.6183709621205" lon="11.342109341514877"><ele>635.0</ele><time>2026-04-26T18:15:10.999Z</time></trkpt><trkpt lat="43.618265615585834" lon="11.342122931077485"><ele>635.0</ele><time>2026-04-26T18:15:12.999Z</time></trkpt><trkpt lat="43.618185617433014" lon="11.341966914299316"><ele>635.0</ele><time>2026-04-26T18:15:14.999Z</time></trkpt><trkpt lat="43.61814586951861" lon="11.341875233448064"><ele>635.0</ele><time>2026-04-26T18:15:15.999Z</time></trkpt><trkpt lat="43.61804522032993" lon="11.341799669754252"><ele>635.0</ele><time>2026-04-26T18:15:17.999Z</time></trkpt><trkpt lat="43.617931555338046" lon="11.341793752978548"><ele>635.0</ele><time>2026-04-26T18:15:19.999Z</time></trkpt><trkpt lat="43.61782831370374" lon="11.341795035165296"><ele>635.0</ele><time>2026-04-26T18:15:21.999Z</time></trkpt><trkpt lat="43.617751993055556" lon="11.341713240692862"><ele>635.0</ele><time>2026-04-26T18:15:23.999Z</time></trkpt><trkpt lat="43.61766625136732" lon="11.34163246773841"><ele>634.3333333333333</ele><time>2026-04-26T18:15:25.999Z</time></trkpt><trkpt lat="43.617589950561886" lon="11.341614376432982"><ele>633.6666666666666</ele><time>2026-04-26T18:15:27.999Z</time></trkpt><trkpt lat="43.61751998487851" lon="11.341566607333498"><ele>633.0</ele><time>2026-04-26T18:15:29.999Z</time></trkpt><trkpt lat="43.6174537272122" lon="11.34150672618557"><ele>632.3333333333334</ele><time>2026-04-26T18:15:31.999Z</time></trkpt><trkpt lat="43.61737435515815" lon="11.341502901593834"><ele>631.6666666666667</ele><time>2026-04-26T18:15:33.999Z</time></trkpt><trkpt lat="43.61727790180613" lon="11.341495220159588"><ele>631.0</ele><time>2026-04-26T18:15:35.999Z</time></trkpt><trkpt lat="43.61718022225734" lon="11.341561930262415"><ele>631.0</ele><time>2026-04-26T18:15:37.999Z</time></trkpt><trkpt lat="43.617128672210676" lon="11.341635113694236"><ele>631.0</ele><time>2026-04-26T18:15:38.999Z</time></trkpt><trkpt lat="43.61707598052893" lon="11.341702508728421"><ele>631.0</ele><time>2026-04-26T18:15:39.999Z</time></trkpt><trkpt lat="43.61698156420262" lon="11.341833225689788"><ele>631.0</ele><time>2026-04-26T18:15:41.999Z</time></trkpt><trkpt lat="43.616932338009036" lon="11.34190622765056"><ele>631.0</ele><time>2026-04-26T18:15:42.999Z</time></trkpt><trkpt lat="43.61685098624823" lon="11.342013969167237"><ele>630.6666666666667</ele><time>2026-04-26T18:15:44.999Z</time></trkpt><trkpt lat="43.61676627747804" lon="11.342088799356414"><ele>630.3333333333334</ele><time>2026-04-26T18:15:46.999Z</time></trkpt><trkpt lat="43.61666436910264" lon="11.342106485069946"><ele>630.0</ele><time>2026-04-26T18:15:48.999Z</time></trkpt><trkpt lat="43.61658460539078" lon="11.342129281872653"><ele>629.6666666666666</ele><time>2026-04-26T18:15:50.999Z</time></trkpt><trkpt lat="43.616514227726285" lon="11.342191177741189"><ele>629.3333333333333</ele><time>2026-04-26T18:15:52.999Z</time></trkpt><trkpt lat="43.61644313224543" lon="11.34221437715949"><ele>629.0</ele><time>2026-04-26T18:15:54.999Z</time></trkpt><trkpt lat="43.616357451743454" lon="11.342259679182545"><ele>629.0</ele><time>2026-04-26T18:15:57.999Z</time></trkpt><trkpt lat="43.61626362613996" lon="11.34228128725694"><ele>629.0</ele><time>2026-04-26T18:15:59.999Z</time></trkpt><trkpt lat="43.616171037336194" lon="11.342280419351923"><ele>629.0</ele><time>2026-04-26T18:16:01.999Z</time></trkpt><trkpt lat="43.616069575658756" lon="11.342273359899137"><ele>629.0</ele><time>2026-04-26T18:16:03.999Z</time></trkpt><trkpt lat="43.615956712932444" lon="11.342225089109153"><ele>629.0</ele><time>2026-04-26T18:16:05.999Z</time></trkpt><trkpt lat="43.61587575583188" lon="11.342307041890354"><ele>626.2</ele><time>2026-04-26T18:16:07.999Z</time></trkpt><trkpt lat="43.61581386789266" lon="11.342403765595172"><ele>623.4</ele><time>2026-04-26T18:16:09.999Z</time></trkpt><trkpt lat="43.61576638702581" lon="11.342462866812424"><ele>620.6</ele><time>2026-04-26T18:16:10.999Z</time></trkpt><trkpt lat="43.61567095234877" lon="11.342544771175284"><ele>617.8</ele><time>2026-04-26T18:16:12.999Z</time></trkpt><trkpt lat="43.61558195396065" lon="11.342585802854515"><ele>615.0</ele><time>2026-04-26T18:16:14.999Z</time></trkpt><trkpt lat="43.61548758614701" lon="11.342624176541634"><ele>615.0</ele><time>2026-04-26T18:16:16.999Z</time></trkpt><trkpt lat="43.61538578279806" lon="11.342655725885589"><ele>615.0</ele><time>2026-04-26T18:16:18.999Z</time></trkpt><trkpt lat="43.61530289241" lon="11.342667971884671"><ele>615.0</ele><time>2026-04-26T18:16:20.999Z</time></trkpt><trkpt lat="43.61524369536595" lon="11.342637485838676"><ele>615.0</ele><time>2026-04-26T18:16:22.999Z</time></trkpt><trkpt lat="43.61515517385622" lon="11.342599638720712"><ele>615.0</ele><time>2026-04-26T18:16:24.998Z</time></trkpt><trkpt lat="43.615034707178474" lon="11.34259038958082"><ele>610.8</ele><time>2026-04-26T18:16:26.998Z</time></trkpt><trkpt lat="43.61492020986089" lon="11.34260391832641"><ele>606.6</ele><time>2026-04-26T18:16:28.998Z</time></trkpt><trkpt lat="43.61485635402241" lon="11.342629806922366"><ele>602.4</ele><time>2026-04-26T18:16:29.998Z</time></trkpt><trkpt lat="43.61474348866885" lon="11.342646299765828"><ele>598.2</ele><time>2026-04-26T18:16:31.998Z</time></trkpt><trkpt lat="43.61465743497435" lon="11.342670299111443"><ele>594.0</ele><time>2026-04-26T18:16:34Z</time></trkpt><trkpt lat="43.6145910529742" lon="11.342725445410977"><ele>594.0</ele><time>2026-04-26T18:16:36Z</time></trkpt><trkpt lat="43.61452287798452" lon="11.342760002358073"><ele>594.0</ele><time>2026-04-26T18:16:38Z</time></trkpt><trkpt lat="43.61444541323614" lon="11.342824908628725"><ele>594.0</ele><time>2026-04-26T18:16:41Z</time></trkpt><trkpt lat="43.6143851471881" lon="11.342868694520376"><ele>594.0</ele><time>2026-04-26T18:16:44Z</time></trkpt><trkpt lat="43.61431320775038" lon="11.34291309526156"><ele>594.0</ele><time>2026-04-26T18:16:46Z</time></trkpt><trkpt lat="43.6142227836605" lon="11.342974866750875"><ele>594.0</ele><time>2026-04-26T18:16:48Z</time></trkpt><trkpt lat="43.61415007696647" lon="11.343022100807763"><ele>594.0</ele><time>2026-04-26T18:16:50Z</time></trkpt><trkpt lat="43.614059165966225" lon="11.34309969887995"><ele>594.0</ele><time>2026-04-26T18:16:52Z</time></trkpt><trkpt lat="43.61399858524687" lon="11.343127542877545"><ele>594.0</ele><time>2026-04-26T18:16:52.999Z</time></trkpt><trkpt lat="43.61392634110891" lon="11.343179003456925"><ele>594.0</ele><time>2026-04-26T18:16:54.999Z</time></trkpt><trkpt lat="43.61381947324988" lon="11.343221780525926"><ele>594.0</ele><time>2026-04-26T18:16:56.999Z</time></trkpt><trkpt lat="43.61371720417884" lon="11.343261865325426"><ele>589.6</ele><time>2026-04-26T18:16:58.999Z</time></trkpt><trkpt lat="43.61362917686372" lon="11.343273967461865"><ele>585.2</ele><time>2026-04-26T18:17:00.999Z</time></trkpt><trkpt lat="43.61352138029736" lon="11.34330107921508"><ele>580.8000000000001</ele><time>2026-04-26T18:17:02.999Z</time></trkpt><trkpt lat="43.61341382874419" lon="11.343306251422296"><ele>576.4</ele><time>2026-04-26T18:17:04.999Z</time></trkpt><trkpt lat="43.61334813638024" lon="11.343329688937434"><ele>572.0</ele><time>2026-04-26T18:17:06.999Z</time></trkpt><trkpt lat="43.61326847286607" lon="11.343393264009581"><ele>572.0</ele><time>2026-04-26T18:17:08.999Z</time></trkpt><trkpt lat="43.61318953498874" lon="11.343450227054987"><ele>572.0</ele><time>2026-04-26T18:17:10.999Z</time></trkpt><trkpt lat="43.61312701706229" lon="11.343344427975461"><ele>572.0</ele><time>2026-04-26T18:17:13.999Z</time></trkpt><trkpt lat="43.61309826230695" lon="11.343185228185765"><ele>572.0</ele><time>2026-04-26T18:17:15.999Z</time></trkpt><trkpt lat="43.61310768317387" lon="11.343088698775633"><ele>572.0</ele><time>2026-04-26T18:17:17.999Z</time></trkpt><trkpt lat="43.61309863485602" lon="11.34295207071576"><ele>570.0</ele><time>2026-04-26T18:17:20.999Z</time></trkpt><trkpt lat="43.61308895283193" lon="11.342804330911456"><ele>568.0</ele><time>2026-04-26T18:17:22.999Z</time></trkpt><trkpt lat="43.61305338554353" lon="11.342672037858241"><ele>566.0</ele><time>2026-04-26T18:17:24.999Z</time></trkpt><trkpt lat="43.61297533564195" lon="11.342577333534265"><ele>564.0</ele><time>2026-04-26T18:17:26.999Z</time></trkpt><trkpt lat="43.61285422687353" lon="11.342516716219208"><ele>562.0</ele><time>2026-04-26T18:17:28.999Z</time></trkpt><trkpt lat="43.61278950443004" lon="11.342494438063213"><ele>562.0</ele><time>2026-04-26T18:17:29.999Z</time></trkpt><trkpt lat="43.612682356315055" lon="11.342470237631332"><ele>562.0</ele><time>2026-04-26T18:17:31.999Z</time></trkpt><trkpt lat="43.612580230741784" lon="11.34240940227793"><ele>562.0</ele><time>2026-04-26T18:17:33.999Z</time></trkpt><trkpt lat="43.612538804000984" lon="11.342330663668495"><ele>562.0</ele><time>2026-04-26T18:17:34.999Z</time></trkpt><trkpt lat="43.61251249260532" lon="11.34224908646309"><ele>562.0</ele><time>2026-04-26T18:17:35.999Z</time></trkpt><trkpt lat="43.61248434918069" lon="11.342156331941478"><ele>562.0</ele><time>2026-04-26T18:17:36.999Z</time></trkpt><trkpt lat="43.61245590108204" lon="11.342065219379911"><ele>557.6666666666667</ele><time>2026-04-26T18:17:37.999Z</time></trkpt><trkpt lat="43.61241074057421" lon="11.341990959347816"><ele>553.3333333333334</ele><time>2026-04-26T18:17:38.999Z</time></trkpt><trkpt lat="43.61236517109167" lon="11.34190522321563"><ele>549.0</ele><time>2026-04-26T18:17:39.999Z</time></trkpt><trkpt lat="43.61231352985022" lon="11.341828596685863"><ele>544.6666666666666</ele><time>2026-04-26T18:17:40.999Z</time></trkpt><trkpt lat="43.612224318734135" lon="11.34173069768144"><ele>540.3333333333333</ele><time>2026-04-26T18:17:42.999Z</time></trkpt><trkpt lat="43.61216639186692" lon="11.341686600262538"><ele>536.0</ele><time>2026-04-26T18:17:43.999Z</time></trkpt><trkpt lat="43.6120562695677" lon="11.341588400397974"><ele>535.0</ele><time>2026-04-26T18:17:45.999Z</time></trkpt><trkpt lat="43.611928427403974" lon="11.34150031812088"><ele>534.0</ele><time>2026-04-26T18:17:47.999Z</time></trkpt><trkpt lat="43.61185227246346" lon="11.341449658096767"><ele>533.0</ele><time>2026-04-26T18:17:48.999Z</time></trkpt><trkpt lat="43.611782176865404" lon="11.341385431843241"><ele>532.0</ele><time>2026-04-26T18:17:49.999Z</time></trkpt><trkpt lat="43.61170718672565" lon="11.341329716060061"><ele>531.0</ele><time>2026-04-26T18:17:50.999Z</time></trkpt><trkpt lat="43.61163747175952" lon="11.341296800622432"><ele>531.0</ele><time>2026-04-26T18:17:51.999Z</time></trkpt><trkpt lat="43.61157725067175" lon="11.34126999333364"><ele>531.0</ele><time>2026-04-26T18:17:52.999Z</time></trkpt><trkpt lat="43.61151318199906" lon="11.341252871371834"><ele>531.0</ele><time>2026-04-26T18:17:53.999Z</time></trkpt><trkpt lat="43.61144440282463" lon="11.341251499583775"><ele>531.0</ele><time>2026-04-26T18:17:54.999Z</time></trkpt><trkpt lat="43.61134394123684" lon="11.341246644871664"><ele>531.0</ele><time>2026-04-26T18:17:56.999Z</time></trkpt><trkpt lat="43.611244210298054" lon="11.341215025455993"><ele>531.0</ele><time>2026-04-26T18:17:58.999Z</time></trkpt><trkpt lat="43.611189284265016" lon="11.341165644369605"><ele>532.0</ele><time>2026-04-26T18:17:59.999Z</time></trkpt><trkpt lat="43.61114011124452" lon="11.34107884785384"><ele>533.0</ele><time>2026-04-26T18:18:00.999Z</time></trkpt><trkpt lat="43.61109304169212" lon="11.340992518537766"><ele>534.0</ele><time>2026-04-26T18:18:01.999Z</time></trkpt><trkpt lat="43.61097049594524" lon="11.340938981580765"><ele>535.0</ele><time>2026-04-26T18:18:03.999Z</time></trkpt><trkpt lat="43.61088798251379" lon="11.340924398157167"><ele>536.0</ele><time>2026-04-26T18:18:04.999Z</time></trkpt><trkpt lat="43.610785633090366" lon="11.340906243009629"><ele>536.0</ele><time>2026-04-26T18:18:06.999Z</time></trkpt><trkpt lat="43.610757804143134" lon="11.341014109256282"><ele>536.0</ele><time>2026-04-26T18:18:24.998Z</time></trkpt><trkpt lat="43.61074464827833" lon="11.341115593924004"><ele>536.0</ele><time>2026-04-26T18:18:26.998Z</time></trkpt><trkpt lat="43.6107420459809" lon="11.341217588208373"><ele>536.0</ele><time>2026-04-26T18:18:28.998Z</time></trkpt><trkpt lat="43.61073587147089" lon="11.341349203210514"><ele>536.0</ele><time>2026-04-26T18:18:30.998Z</time></trkpt><trkpt lat="43.61069263931609" lon="11.341444822434319"><ele>536.0</ele><time>2026-04-26T18:18:32.998Z</time></trkpt><trkpt lat="43.610643279463204" lon="11.3415626367465"><ele>538.2</ele><time>2026-04-26T18:18:34.998Z</time></trkpt><trkpt lat="43.61063431323701" lon="11.34171105543004"><ele>540.4000000000001</ele><time>2026-04-26T18:18:36.998Z</time></trkpt><trkpt lat="43.61065077241558" lon="11.341814794315672"><ele>542.6</ele><time>2026-04-26T18:18:39Z</time></trkpt><trkpt lat="43.610646431617916" lon="11.34195627310404"><ele>544.8000000000001</ele><time>2026-04-26T18:18:41Z</time></trkpt><trkpt lat="43.61063967246685" lon="11.342096480790584"><ele>547.0</ele><time>2026-04-26T18:18:43Z</time></trkpt><trkpt lat="43.61066385447723" lon="11.342262498023574"><ele>548.8000000000001</ele><time>2026-04-26T18:18:45Z</time></trkpt><trkpt lat="43.610669443773425" lon="11.342366543514176"><ele>550.6</ele><time>2026-04-26T18:18:46Z</time></trkpt><trkpt lat="43.610702768521584" lon="11.3425209451864"><ele>552.4000000000001</ele><time>2026-04-26T18:18:48Z</time></trkpt><trkpt lat="43.61072833456618" lon="11.34266357140317"><ele>554.2</ele><time>2026-04-26T18:18:50Z</time></trkpt><trkpt lat="43.61072858414027" lon="11.342763907391848"><ele>556.0</ele><time>2026-04-26T18:18:52Z</time></trkpt><trkpt lat="43.61072531149364" lon="11.342907182258884"><ele>558.4</ele><time>2026-04-26T18:18:54Z</time></trkpt><trkpt lat="43.610732765658696" lon="11.343057784807737"><ele>560.8</ele><time>2026-04-26T18:18:55.999Z</time></trkpt><trkpt lat="43.61075297420898" lon="11.343189333406674"><ele>563.1999999999999</ele><time>2026-04-26T18:18:57.999Z</time></trkpt><trkpt lat="43.610728604842855" lon="11.343304249874162"><ele>565.6</ele><time>2026-04-26T18:18:59.999Z</time></trkpt><trkpt lat="43.610671145199085" lon="11.343354808141944"><ele>568.0</ele><time>2026-04-26T18:19:01.999Z</time></trkpt><trkpt lat="43.61056623088887" lon="11.343335721158171"><ele>568.0</ele><time>2026-04-26T18:19:04.999Z</time></trkpt><trkpt lat="43.61047576219736" lon="11.343351528737038"><ele>568.0</ele><time>2026-04-26T18:19:06.999Z</time></trkpt><trkpt lat="43.61044423913058" lon="11.343431066282648"><ele>568.0</ele><time>2026-04-26T18:19:09Z</time></trkpt><trkpt lat="43.610381866501235" lon="11.343528746890708"><ele>568.0</ele><time>2026-04-26T18:19:11Z</time></trkpt><trkpt lat="43.610313991009164" lon="11.34361197293495"><ele>568.0</ele><time>2026-04-26T18:19:13Z</time></trkpt><trkpt lat="43.61022695408236" lon="11.343675323048931"><ele>568.0</ele><time>2026-04-26T18:19:15Z</time></trkpt><trkpt lat="43.610155930512576" lon="11.34370394084446"><ele>564.6</ele><time>2026-04-26T18:19:17Z</time></trkpt><trkpt lat="43.61006997016917" lon="11.343760400366303"><ele>561.1999999999999</ele><time>2026-04-26T18:19:19Z</time></trkpt><trkpt lat="43.609957911971435" lon="11.34378911871872"><ele>557.8</ele><time>2026-04-26T18:19:21Z</time></trkpt><trkpt lat="43.60985698992424" lon="11.343804920866885"><ele>554.4</ele><time>2026-04-26T18:19:23Z</time></trkpt><trkpt lat="43.60977164533189" lon="11.343825619288774"><ele>551.0</ele><time>2026-04-26T18:19:25Z</time></trkpt><trkpt lat="43.60968638391669" lon="11.343855490683678"><ele>552.4</ele><time>2026-04-26T18:19:27Z</time></trkpt><trkpt lat="43.609633579891735" lon="11.343972516401598"><ele>553.8</ele><time>2026-04-26T18:19:29Z</time></trkpt><trkpt lat="43.60956008110014" lon="11.344049327538794"><ele>555.1999999999999</ele><time>2026-04-26T18:19:31Z</time></trkpt><trkpt lat="43.60950393354467" lon="11.34409328584997"><ele>556.6</ele><time>2026-04-26T18:19:33Z</time></trkpt><trkpt lat="43.609434657184714" lon="11.344156094545578"><ele>558.0</ele><time>2026-04-26T18:19:35Z</time></trkpt><trkpt lat="43.609367085789856" lon="11.344296684793505"><ele>557.9999999999999</ele><time>2026-04-26T18:19:37Z</time></trkpt><trkpt lat="43.60931664410772" lon="11.3443576739471"><ele>558.0</ele><time>2026-04-26T18:19:38Z</time></trkpt><trkpt lat="43.60925754583912" lon="11.344452389579779"><ele>558.0</ele><time>2026-04-26T18:19:40Z</time></trkpt><trkpt lat="43.60919628807566" lon="11.344524016758303"><ele>558.0</ele><time>2026-04-26T18:19:43Z</time></trkpt><trkpt lat="43.60913253892108" lon="11.344589967517098"><ele>558.0</ele><time>2026-04-26T18:19:45Z</time></trkpt><trkpt lat="43.60908582164105" lon="11.344648519345762"><ele>557.9999999999999</ele><time>2026-04-26T18:19:46Z</time></trkpt><trkpt lat="43.60904002821873" lon="11.344713665709978"><ele>558.0</ele><time>2026-04-26T18:19:47Z</time></trkpt><trkpt lat="43.60897721362439" lon="11.344815253799151"><ele>560.8333333333334</ele><time>2026-04-26T18:19:49Z</time></trkpt><trkpt lat="43.60893706511134" lon="11.344898805048672"><ele>563.6666666666666</ele><time>2026-04-26T18:19:51Z</time></trkpt><trkpt lat="43.60889430473358" lon="11.344990694231702"><ele>566.5</ele><time>2026-04-26T18:19:53Z</time></trkpt><trkpt lat="43.6088902254687" lon="11.34508652373948"><ele>569.3333333333333</ele><time>2026-04-26T18:19:55Z</time></trkpt><trkpt lat="43.608854933379455" lon="11.34520354231371"><ele>572.1666666666666</ele><time>2026-04-26T18:19:57Z</time></trkpt><trkpt lat="43.60881758616136" lon="11.345281207655985"><ele>575.0</ele><time>2026-04-26T18:19:59Z</time></trkpt><trkpt lat="43.60879623428264" lon="11.345443421169142"><ele>577.8</ele><time>2026-04-26T18:20:01Z</time></trkpt><trkpt lat="43.608781986470945" lon="11.345579655069312"><ele>580.6</ele><time>2026-04-26T18:20:03Z</time></trkpt><trkpt lat="43.60877286357177" lon="11.345710671163774"><ele>583.4</ele><time>2026-04-26T18:20:05Z</time></trkpt><trkpt lat="43.60876024499017" lon="11.34581260167053"><ele>586.2</ele><time>2026-04-26T18:20:07Z</time></trkpt><trkpt lat="43.608730907161444" lon="11.345911704067518"><ele>589.0</ele><time>2026-04-26T18:20:09Z</time></trkpt><trkpt lat="43.60872246146306" lon="11.346053935074353"><ele>589.0</ele><time>2026-04-26T18:20:11Z</time></trkpt><trkpt lat="43.608740465695725" lon="11.346171527063262"><ele>589.0</ele><time>2026-04-26T18:20:13Z</time></trkpt><trkpt lat="43.60875928864521" lon="11.346302679888513"><ele>589.0</ele><time>2026-04-26T18:20:15Z</time></trkpt><trkpt lat="43.608799172772414" lon="11.346426487689156"><ele>589.0</ele><time>2026-04-26T18:20:18Z</time></trkpt><trkpt lat="43.608822066406056" lon="11.346520927642711"><ele>589.0</ele><time>2026-04-26T18:20:20Z</time></trkpt><trkpt lat="43.60878117435182" lon="11.346612674400117"><ele>589.0</ele><time>2026-04-26T18:20:22Z</time></trkpt><trkpt lat="43.60872531566573" lon="11.346676869773574"><ele>589.6666666666667</ele><time>2026-04-26T18:20:24Z</time></trkpt><trkpt lat="43.60866861382849" lon="11.346727922556058"><ele>590.3333333333334</ele><time>2026-04-26T18:20:27Z</time></trkpt><trkpt lat="43.608619971134" lon="11.346811638414495"><ele>591.0</ele><time>2026-04-26T18:20:30Z</time></trkpt><trkpt lat="43.60857210048588" lon="11.346868255393076"><ele>591.6666666666666</ele><time>2026-04-26T18:20:31.999Z</time></trkpt><trkpt lat="43.60848642780562" lon="11.346918666917933"><ele>592.3333333333333</ele><time>2026-04-26T18:20:33.999Z</time></trkpt><trkpt lat="43.60845024525109" lon="11.346997358831482"><ele>593.0</ele><time>2026-04-26T18:20:35.999Z</time></trkpt><trkpt lat="43.60842923011008" lon="11.347109507900534"><ele>590.1666666666666</ele><time>2026-04-26T18:20:37.999Z</time></trkpt><trkpt lat="43.60842011999488" lon="11.34721699596209"><ele>587.3333333333333</ele><time>2026-04-26T18:20:39.999Z</time></trkpt><trkpt lat="43.60840939375167" lon="11.34732392303709"><ele>584.5</ele><time>2026-04-26T18:20:41.999Z</time></trkpt><trkpt lat="43.60838684472048" lon="11.347440252613913"><ele>581.6666666666666</ele><time>2026-04-26T18:20:43.999Z</time></trkpt><trkpt lat="43.60836049370493" lon="11.347545513238282"><ele>578.8333333333334</ele><time>2026-04-26T18:20:46.001Z</time></trkpt><trkpt lat="43.608324810402415" lon="11.347652855572127"><ele>576.0</ele><time>2026-04-26T18:20:48.001Z</time></trkpt><trkpt lat="43.60830067523859" lon="11.347777590283663"><ele>576.0</ele><time>2026-04-26T18:20:50.001Z</time></trkpt><trkpt lat="43.608256401872104" lon="11.347885205655427"><ele>576.0</ele><time>2026-04-26T18:20:52.001Z</time></trkpt><trkpt lat="43.60817612635665" lon="11.347954865231856"><ele>576.0</ele><time>2026-04-26T18:20:54.001Z</time></trkpt><trkpt lat="43.608123564364675" lon="11.348021197598195"><ele>576.0</ele><time>2026-04-26T18:20:56.001Z</time></trkpt><trkpt lat="43.60805341792815" lon="11.348101250587797"><ele>576.0</ele><time>2026-04-26T18:20:59.001Z</time></trkpt><trkpt lat="43.60797824863279" lon="11.348143710776542"><ele>576.0</ele><time>2026-04-26T18:21:01Z</time></trkpt><trkpt lat="43.6079032542333" lon="11.348212755263376"><ele>576.0</ele><time>2026-04-26T18:21:03Z</time></trkpt><trkpt lat="43.607853194501864" lon="11.34827768647483"><ele>576.0</ele><time>2026-04-26T18:21:05Z</time></trkpt><trkpt lat="43.60778552030908" lon="11.348379793703987"><ele>576.0</ele><time>2026-04-26T18:21:07Z</time></trkpt><trkpt lat="43.60771687524555" lon="11.348469280376792"><ele>576.0</ele><time>2026-04-26T18:21:09Z</time></trkpt><trkpt lat="43.60763285651986" lon="11.34857999636891"><ele>576.0</ele><time>2026-04-26T18:21:11Z</time></trkpt><trkpt lat="43.60757827276474" lon="11.348660579853206"><ele>576.0</ele><time>2026-04-26T18:21:13Z</time></trkpt><trkpt lat="43.60752603565369" lon="11.348728811317109"><ele>576.0</ele><time>2026-04-26T18:21:15Z</time></trkpt><trkpt lat="43.607501899412725" lon="11.348830468798296"><ele>576.0</ele><time>2026-04-26T18:21:17Z</time></trkpt><trkpt lat="43.607473526448004" lon="11.348922691423187"><ele>576.0</ele><time>2026-04-26T18:21:19Z</time></trkpt><trkpt lat="43.60746312275726" lon="11.349034782493122"><ele>576.0</ele><time>2026-04-26T18:21:21Z</time></trkpt><trkpt lat="43.607450549777155" lon="11.349143298574273"><ele>576.0</ele><time>2026-04-26T18:21:23Z</time></trkpt><trkpt lat="43.607428327069485" lon="11.349290511479513"><ele>579.0</ele><time>2026-04-26T18:21:26Z</time></trkpt><trkpt lat="43.60741292397803" lon="11.34937971221271"><ele>582.0</ele><time>2026-04-26T18:21:28Z</time></trkpt><trkpt lat="43.60737977366605" lon="11.349485983150267"><ele>585.0</ele><time>2026-04-26T18:21:30Z</time></trkpt><trkpt lat="43.607310875182364" lon="11.349546415299598"><ele>588.0</ele><time>2026-04-26T18:21:32Z</time></trkpt><trkpt lat="43.60727012373625" lon="11.34963769954428"><ele>591.0</ele><time>2026-04-26T18:21:35Z</time></trkpt><trkpt lat="43.607214363136194" lon="11.34975513789747"><ele>594.0</ele><time>2026-04-26T18:21:37Z</time></trkpt><trkpt lat="43.60715408861826" lon="11.349843268117318"><ele>592.6666666666666</ele><time>2026-04-26T18:21:39Z</time></trkpt><trkpt lat="43.607083178440625" lon="11.349941359544273"><ele>591.3333333333334</ele><time>2026-04-26T18:21:41Z</time></trkpt><trkpt lat="43.60702991148675" lon="11.350040826867112"><ele>590.0</ele><time>2026-04-26T18:21:43Z</time></trkpt><trkpt lat="43.606966254880916" lon="11.35015569279725"><ele>588.6666666666667</ele><time>2026-04-26T18:21:45Z</time></trkpt><trkpt lat="43.60692504039645" lon="11.350236072656502"><ele>587.3333333333334</ele><time>2026-04-26T18:21:47Z</time></trkpt><trkpt lat="43.60686780594892" lon="11.350304189586755"><ele>586.0</ele><time>2026-04-26T18:21:49Z</time></trkpt><trkpt lat="43.60683887934588" lon="11.350412644955139"><ele>586.0</ele><time>2026-04-26T18:21:51Z</time></trkpt><trkpt lat="43.60677821076606" lon="11.350520861295543"><ele>586.0</ele><time>2026-04-26T18:21:53Z</time></trkpt><trkpt lat="43.606732578799246" lon="11.350607320293316"><ele>586.0</ele><time>2026-04-26T18:21:54Z</time></trkpt><trkpt lat="43.60667536875693" lon="11.350735602751637"><ele>586.0</ele><time>2026-04-26T18:21:56Z</time></trkpt><trkpt lat="43.606601232920895" lon="11.350835244101049"><ele>586.0</ele><time>2026-04-26T18:21:58Z</time></trkpt><trkpt lat="43.60654505645467" lon="11.350933607247834"><ele>589.6</ele><time>2026-04-26T18:22:00Z</time></trkpt><trkpt lat="43.606480129583524" lon="11.351043163128132"><ele>593.2</ele><time>2026-04-26T18:22:02Z</time></trkpt><trkpt lat="43.6063896419917" lon="11.351185985091329"><ele>596.8</ele><time>2026-04-26T18:22:04Z</time></trkpt><trkpt lat="43.60634553545526" lon="11.351270372309612"><ele>600.4</ele><time>2026-04-26T18:22:05Z</time></trkpt><trkpt lat="43.606271134069424" lon="11.351397894340339"><ele>604.0</ele><time>2026-04-26T18:22:07Z</time></trkpt><trkpt lat="43.60622750261551" lon="11.351501694404075"><ele>602.3333333333334</ele><time>2026-04-26T18:22:09Z</time></trkpt><trkpt lat="43.606155934837716" lon="11.351600399482459"><ele>600.6666666666667</ele><time>2026-04-26T18:22:11Z</time></trkpt><trkpt lat="43.60609728311703" lon="11.351699885820848"><ele>599.0</ele><time>2026-04-26T18:22:13Z</time></trkpt><trkpt lat="43.6061082200441" lon="11.351792266832195"><ele>597.3333333333334</ele><time>2026-04-26T18:22:15Z</time></trkpt><trkpt lat="43.606109779108316" lon="11.351902143056616"><ele>595.6666666666666</ele><time>2026-04-26T18:22:17Z</time></trkpt><trkpt lat="43.60608234184305" lon="11.351984521017547"><ele>594.0</ele><time>2026-04-26T18:22:18Z</time></trkpt><trkpt lat="43.606066588938454" lon="11.352084911533778"><ele>596.2</ele><time>2026-04-26T18:22:20Z</time></trkpt><trkpt lat="43.60602550856724" lon="11.352208602924216"><ele>598.4</ele><time>2026-04-26T18:22:22Z</time></trkpt><trkpt lat="43.60599050054283" lon="11.352291987336883"><ele>600.6</ele><time>2026-04-26T18:22:23Z</time></trkpt><trkpt lat="43.605932581119106" lon="11.352426405525664"><ele>602.8</ele><time>2026-04-26T18:22:25Z</time></trkpt><trkpt lat="43.605875914216995" lon="11.352543763796003"><ele>605.0</ele><time>2026-04-26T18:22:27Z</time></trkpt><trkpt lat="43.60586168448723" lon="11.352645948081683"><ele>605.0</ele><time>2026-04-26T18:22:29Z</time></trkpt><trkpt lat="43.60585824732006" lon="11.352741936338154"><ele>605.0</ele><time>2026-04-26T18:22:30Z</time></trkpt><trkpt lat="43.60582292588313" lon="11.352865250742164"><ele>605.0</ele><time>2026-04-26T18:22:31.999Z</time></trkpt><trkpt lat="43.60580326440895" lon="11.352980481016976"><ele>605.0</ele><time>2026-04-26T18:22:33.999Z</time></trkpt><trkpt lat="43.60575629713944" lon="11.353073651787296"><ele>605.0</ele><time>2026-04-26T18:22:35.999Z</time></trkpt><trkpt lat="43.60573281163143" lon="11.353209722293718"><ele>605.0</ele><time>2026-04-26T18:22:37.999Z</time></trkpt><trkpt lat="43.60570579506575" lon="11.353318873501355"><ele>606.8</ele><time>2026-04-26T18:22:39.999Z</time></trkpt><trkpt lat="43.60568024609754" lon="11.353423833818745"><ele>608.6</ele><time>2026-04-26T18:22:41.999Z</time></trkpt><trkpt lat="43.60568198341774" lon="11.353549376396998"><ele>610.4</ele><time>2026-04-26T18:22:43.999Z</time></trkpt><trkpt lat="43.60569662220186" lon="11.353697126847818"><ele>612.2</ele><time>2026-04-26T18:22:45.999Z</time></trkpt><trkpt lat="43.60571377441163" lon="11.353834016421457"><ele>614.0</ele><time>2026-04-26T18:22:47.999Z</time></trkpt><trkpt lat="43.60571467872556" lon="11.35399127723352"><ele>615.8</ele><time>2026-04-26T18:22:49.999Z</time></trkpt><trkpt lat="43.60569875259253" lon="11.354124646487216"><ele>617.5999999999999</ele><time>2026-04-26T18:22:52Z</time></trkpt><trkpt lat="43.60565869534246" lon="11.354257490200974"><ele>619.4</ele><time>2026-04-26T18:22:54Z</time></trkpt><trkpt lat="43.60562604550566" lon="11.354380144304837"><ele>621.1999999999999</ele><time>2026-04-26T18:22:56Z</time></trkpt><trkpt lat="43.605575266820985" lon="11.354453132666269"><ele>623.0</ele><time>2026-04-26T18:22:58Z</time></trkpt><trkpt lat="43.60548765360376" lon="11.354518192004925"><ele>623.0</ele><time>2026-04-26T18:23:00Z</time></trkpt><trkpt lat="43.605386647522764" lon="11.354586390241874"><ele>623.0</ele><time>2026-04-26T18:23:02Z</time></trkpt><trkpt lat="43.605307825680406" lon="11.35465953500551"><ele>623.0</ele><time>2026-04-26T18:23:04Z</time></trkpt><trkpt lat="43.60528762304718" lon="11.354782534681807"><ele>623.0</ele><time>2026-04-26T18:23:06Z</time></trkpt><trkpt lat="43.60533921415579" lon="11.354870803708629"><ele>623.0</ele><time>2026-04-26T18:23:08Z</time></trkpt><trkpt lat="43.605413348127485" lon="11.354926436400152"><ele>622.5</ele><time>2026-04-26T18:23:10Z</time></trkpt><trkpt lat="43.60546410005867" lon="11.354989960869704"><ele>622.0</ele><time>2026-04-26T18:23:11Z</time></trkpt><trkpt lat="43.60551733267587" lon="11.35506227181283"><ele>621.5</ele><time>2026-04-26T18:23:12Z</time></trkpt><trkpt lat="43.605569655190266" lon="11.355133279822248"><ele>621.0</ele><time>2026-04-26T18:23:13Z</time></trkpt><trkpt lat="43.60561784638592" lon="11.355199202117891"><ele>620.5</ele><time>2026-04-26T18:23:14Z</time></trkpt><trkpt lat="43.60566758474967" lon="11.355255464241269"><ele>620.0</ele><time>2026-04-26T18:23:15Z</time></trkpt><trkpt lat="43.60576718927156" lon="11.355337964605466"><ele>620.0</ele><time>2026-04-26T18:23:17Z</time></trkpt><trkpt lat="43.6058733325092" lon="11.355403943676185"><ele>620.0</ele><time>2026-04-26T18:23:19Z</time></trkpt><trkpt lat="43.605991596254825" lon="11.35548166666535"><ele>620.0</ele><time>2026-04-26T18:23:21Z</time></trkpt><trkpt lat="43.60605357562188" lon="11.355527955374788"><ele>620.0</ele><time>2026-04-26T18:23:22Z</time></trkpt><trkpt lat="43.60611932792727" lon="11.355577788195035"><ele>620.0</ele><time>2026-04-26T18:23:23Z</time></trkpt><trkpt lat="43.606180612932995" lon="11.355621086379312"><ele>618.5</ele><time>2026-04-26T18:23:24Z</time></trkpt><trkpt lat="43.606242334794246" lon="11.355665829465016"><ele>617.0</ele><time>2026-04-26T18:23:25Z</time></trkpt><trkpt lat="43.60635351657231" lon="11.355749460345475"><ele>615.5</ele><time>2026-04-26T18:23:27Z</time></trkpt><trkpt lat="43.60641078281436" lon="11.355792613289353"><ele>614.0</ele><time>2026-04-26T18:23:28Z</time></trkpt><trkpt lat="43.60645611275203" lon="11.355879806074846"><ele>612.5</ele><time>2026-04-26T18:23:29Z</time></trkpt><trkpt lat="43.60652398588245" lon="11.355927551715151"><ele>611.0</ele><time>2026-04-26T18:23:30Z</time></trkpt><trkpt lat="43.606599465265525" lon="11.355979568082338"><ele>611.0</ele><time>2026-04-26T18:23:31Z</time></trkpt><trkpt lat="43.60666142070948" lon="11.356021526004422"><ele>611.0</ele><time>2026-04-26T18:23:32Z</time></trkpt><trkpt lat="43.606733569032876" lon="11.356069278611464"><ele>611.0</ele><time>2026-04-26T18:23:33Z</time></trkpt><trkpt lat="43.60684700634771" lon="11.356153541922682"><ele>611.0</ele><time>2026-04-26T18:23:35Z</time></trkpt><trkpt lat="43.606938753509084" lon="11.356251861447214"><ele>611.0</ele><time>2026-04-26T18:23:37Z</time></trkpt><trkpt lat="43.6069580278572" lon="11.356408390386452"><ele>609.0000000000001</ele><time>2026-04-26T18:23:39Z</time></trkpt><trkpt lat="43.60694815600463" lon="11.35650026033093"><ele>607.0</ele><time>2026-04-26T18:23:40Z</time></trkpt><trkpt lat="43.60691675095102" lon="11.356584834984604"><ele>605.0</ele><time>2026-04-26T18:23:41Z</time></trkpt><trkpt lat="43.60685880969414" lon="11.35664623110749"><ele>603.0</ele><time>2026-04-26T18:23:42Z</time></trkpt><trkpt lat="43.606805924492406" lon="11.356712811927794"><ele>601.0</ele><time>2026-04-26T18:23:43Z</time></trkpt><trkpt lat="43.606760734518346" lon="11.356785149682223"><ele>599.0000000000001</ele><time>2026-04-26T18:23:44Z</time></trkpt><trkpt lat="43.60669690620094" lon="11.356824485710765"><ele>597.0</ele><time>2026-04-26T18:23:45Z</time></trkpt><trkpt lat="43.606636302368834" lon="11.35686264423961"><ele>597.0</ele><time>2026-04-26T18:23:46Z</time></trkpt><trkpt lat="43.606578228350905" lon="11.356902222561075"><ele>597.0</ele><time>2026-04-26T18:23:47Z</time></trkpt><trkpt lat="43.60651954191528" lon="11.356957400708016"><ele>597.0</ele><time>2026-04-26T18:23:48Z</time></trkpt><trkpt lat="43.60645243500787" lon="11.357036162340098"><ele>597.0</ele><time>2026-04-26T18:23:49Z</time></trkpt><trkpt lat="43.6063633426443" lon="11.357151252308446"><ele>597.0</ele><time>2026-04-26T18:23:50Z</time></trkpt><trkpt lat="43.60626833331005" lon="11.357272748751425"><ele>596.8000000000001</ele><time>2026-04-26T18:23:51Z</time></trkpt><trkpt lat="43.606189798373244" lon="11.357390222640861"><ele>596.6</ele><time>2026-04-26T18:23:52Z</time></trkpt><trkpt lat="43.60612026270868" lon="11.357489120801274"><ele>596.4000000000001</ele><time>2026-04-26T18:23:53Z</time></trkpt><trkpt lat="43.60605430817905" lon="11.357580328923525"><ele>596.2</ele><time>2026-04-26T18:23:54Z</time></trkpt><trkpt lat="43.605983601914666" lon="11.35766681059505"><ele>596.0</ele><time>2026-04-26T18:23:55Z</time></trkpt><trkpt lat="43.60592943947894" lon="11.357760566064385"><ele>594.0</ele><time>2026-04-26T18:23:56Z</time></trkpt><trkpt lat="43.605871828659566" lon="11.357836146179096"><ele>592.0</ele><time>2026-04-26T18:23:57Z</time></trkpt><trkpt lat="43.60580365426261" lon="11.357903425667915"><ele>590.0</ele><time>2026-04-26T18:23:58Z</time></trkpt><trkpt lat="43.60573469275969" lon="11.357959908654587"><ele>588.0</ele><time>2026-04-26T18:23:59Z</time></trkpt><trkpt lat="43.60565678150544" lon="11.358016280102007"><ele>586.0</ele><time>2026-04-26T18:24:00Z</time></trkpt><trkpt lat="43.60557347334065" lon="11.358070851973878"><ele>584.0</ele><time>2026-04-26T18:24:01Z</time></trkpt><trkpt lat="43.60545983077301" lon="11.358123887609505"><ele>583.2</ele><time>2026-04-26T18:24:02Z</time></trkpt><trkpt lat="43.605359203151814" lon="11.358192270847724"><ele>582.4</ele><time>2026-04-26T18:24:03Z</time></trkpt><trkpt lat="43.605266567823385" lon="11.358254316759158"><ele>581.6</ele><time>2026-04-26T18:24:04Z</time></trkpt><trkpt lat="43.605175717076655" lon="11.358316085326594"><ele>580.8</ele><time>2026-04-26T18:24:05Z</time></trkpt><trkpt lat="43.60508752861546" lon="11.358376984036823"><ele>580.0</ele><time>2026-04-26T18:24:06Z</time></trkpt><trkpt lat="43.60500551168376" lon="11.358432453070222"><ele>578.2</ele><time>2026-04-26T18:24:07Z</time></trkpt><trkpt lat="43.604927582239" lon="11.358503298065733"><ele>576.4</ele><time>2026-04-26T18:24:08Z</time></trkpt><trkpt lat="43.604844965934355" lon="11.358557704448287"><ele>574.6</ele><time>2026-04-26T18:24:09Z</time></trkpt><trkpt lat="43.60475239854621" lon="11.358574291233209"><ele>572.8</ele><time>2026-04-26T18:24:10Z</time></trkpt><trkpt lat="43.60465775763751" lon="11.358613019109226"><ele>571.0</ele><time>2026-04-26T18:24:11Z</time></trkpt><trkpt lat="43.6045668130363" lon="11.35865100222111"><ele>568.6</ele><time>2026-04-26T18:24:12Z</time></trkpt><trkpt lat="43.604475542649304" lon="11.358691975963783"><ele>566.2</ele><time>2026-04-26T18:24:13Z</time></trkpt><trkpt lat="43.60438263586806" lon="11.358746021794596"><ele>563.8</ele><time>2026-04-26T18:24:14Z</time></trkpt><trkpt lat="43.60428481557746" lon="11.358783481465629"><ele>561.4</ele><time>2026-04-26T18:24:15Z</time></trkpt><trkpt lat="43.60418691425075" lon="11.358815479168928"><ele>559.0</ele><time>2026-04-26T18:24:16Z</time></trkpt><trkpt lat="43.60409541547637" lon="11.35884738767195"><ele>559.2</ele><time>2026-04-26T18:24:17Z</time></trkpt><trkpt lat="43.603990556813784" lon="11.358892202950969"><ele>559.4</ele><time>2026-04-26T18:24:18Z</time></trkpt><trkpt lat="43.603882021715435" lon="11.358936152419687"><ele>559.6</ele><time>2026-04-26T18:24:19Z</time></trkpt><trkpt lat="43.60379015159711" lon="11.358979709139689"><ele>559.8</ele><time>2026-04-26T18:24:20Z</time></trkpt><trkpt lat="43.60370437139549" lon="11.359013940719374"><ele>560.0</ele><time>2026-04-26T18:24:21Z</time></trkpt><trkpt lat="43.603622060442724" lon="11.359044327196463"><ele>560.0</ele><time>2026-04-26T18:24:22Z</time></trkpt><trkpt lat="43.603536902343926" lon="11.359072935893376"><ele>560.0</ele><time>2026-04-26T18:24:23Z</time></trkpt><trkpt lat="43.60345023306388" lon="11.359093528771957"><ele>560.0</ele><time>2026-04-26T18:24:24Z</time></trkpt><trkpt lat="43.603358962926706" lon="11.35910336918659"><ele>560.0</ele><time>2026-04-26T18:24:25Z</time></trkpt><trkpt lat="43.603269460795126" lon="11.35911188925276"><ele>560.0</ele><time>2026-04-26T18:24:26Z</time></trkpt><trkpt lat="43.60318279182357" lon="11.359118187257387"><ele>560.0</ele><time>2026-04-26T18:24:27Z</time></trkpt><trkpt lat="43.60309218215549" lon="11.359107471154516"><ele>560.0</ele><time>2026-04-26T18:24:28Z</time></trkpt><trkpt lat="43.603009364478666" lon="11.359149296023354"><ele>560.0</ele><time>2026-04-26T18:24:29Z</time></trkpt><trkpt lat="43.60291943245567" lon="11.35917125253133"><ele>560.0</ele><time>2026-04-26T18:24:29.999Z</time></trkpt><trkpt lat="43.602826958093786" lon="11.359193545064027"><ele>560.0</ele><time>2026-04-26T18:24:30.999Z</time></trkpt><trkpt lat="43.60273092486709" lon="11.359219621000651"><ele>560.0</ele><time>2026-04-26T18:24:31.999Z</time></trkpt><trkpt lat="43.602638682688976" lon="11.359242723809139"><ele>558.6</ele><time>2026-04-26T18:24:32.999Z</time></trkpt><trkpt lat="43.60254724019094" lon="11.359267996647581"><ele>557.2</ele><time>2026-04-26T18:24:33.999Z</time></trkpt><trkpt lat="43.60246099691663" lon="11.359287503322086"><ele>555.8</ele><time>2026-04-26T18:24:34.999Z</time></trkpt><trkpt lat="43.60236932670192" lon="11.359310534654064"><ele>554.4</ele><time>2026-04-26T18:24:35.999Z</time></trkpt><trkpt lat="43.60227423166373" lon="11.359336311863593"><ele>553.0</ele><time>2026-04-26T18:24:36.999Z</time></trkpt><trkpt lat="43.602188273261284" lon="11.359360759833303"><ele>553.0</ele><time>2026-04-26T18:24:37.999Z</time></trkpt><trkpt lat="43.60210892042359" lon="11.359405925796366"><ele>553.0</ele><time>2026-04-26T18:24:38.999Z</time></trkpt><trkpt lat="43.602040969091114" lon="11.359455262246708"><ele>553.0</ele><time>2026-04-26T18:24:39.999Z</time></trkpt><trkpt lat="43.60196980198922" lon="11.359524819927806"><ele>553.0</ele><time>2026-04-26T18:24:40.999Z</time></trkpt><trkpt lat="43.60190765886433" lon="11.359601096205417"><ele>553.0</ele><time>2026-04-26T18:24:41.999Z</time></trkpt><trkpt lat="43.601843622382866" lon="11.35968856504533"><ele>553.0</ele><time>2026-04-26T18:24:42.999Z</time></trkpt><trkpt lat="43.60178444369545" lon="11.359775323628215"><ele>552.5</ele><time>2026-04-26T18:24:43.999Z</time></trkpt><trkpt lat="43.601720609221715" lon="11.359870909238127"><ele>552.0</ele><time>2026-04-26T18:24:44.999Z</time></trkpt><trkpt lat="43.60165296039355" lon="11.359955452466746"><ele>551.5</ele><time>2026-04-26T18:24:45.999Z</time></trkpt><trkpt lat="43.60158766457703" lon="11.3600267723181"><ele>551.0</ele><time>2026-04-26T18:24:46.999Z</time></trkpt><trkpt lat="43.601517833914855" lon="11.36009281736011"><ele>550.5</ele><time>2026-04-26T18:24:47.999Z</time></trkpt><trkpt lat="43.6014512418832" lon="11.36014616722355"><ele>550.0</ele><time>2026-04-26T18:24:48.999Z</time></trkpt><trkpt lat="43.601398563923176" lon="11.360232733825713"><ele>550.0</ele><time>2026-04-26T18:24:49.999Z</time></trkpt><trkpt lat="43.601353222638174" lon="11.360321516802577"><ele>550.0</ele><time>2026-04-26T18:24:50.999Z</time></trkpt><trkpt lat="43.60130820975831" lon="11.36042070680863"><ele>550.0</ele><time>2026-04-26T18:24:51.999Z</time></trkpt><trkpt lat="43.60126856275168" lon="11.360527049085025"><ele>550.0</ele><time>2026-04-26T18:24:52.999Z</time></trkpt><trkpt lat="43.601228454808215" lon="11.360647055602831"><ele>550.0</ele><time>2026-04-26T18:24:53.999Z</time></trkpt><trkpt lat="43.60118880281129" lon="11.360770755821447"><ele>550.0</ele><time>2026-04-26T18:24:54.999Z</time></trkpt><trkpt lat="43.601151259924166" lon="11.360889332792333"><ele>548.5714285714286</ele><time>2026-04-26T18:24:56Z</time></trkpt><trkpt lat="43.60111538746416" lon="11.360983902531688"><ele>547.1428571428571</ele><time>2026-04-26T18:24:57Z</time></trkpt><trkpt lat="43.60107413600959" lon="11.361082710648265"><ele>545.7142857142857</ele><time>2026-04-26T18:24:58Z</time></trkpt><trkpt lat="43.601032396273446" lon="11.361167048421326"><ele>544.2857142857142</ele><time>2026-04-26T18:24:59Z</time></trkpt><trkpt lat="43.60098291863483" lon="11.361240016323814"><ele>542.8571428571428</ele><time>2026-04-26T18:25:00Z</time></trkpt><trkpt lat="43.600936838818434" lon="11.361300305632367"><ele>541.4285714285714</ele><time>2026-04-26T18:25:01Z</time></trkpt><trkpt lat="43.60088802188832" lon="11.361355881414484"><ele>540.0</ele><time>2026-04-26T18:25:02Z</time></trkpt><trkpt lat="43.60083263150093" lon="11.361400202926086"><ele>540.0</ele><time>2026-04-26T18:25:03Z</time></trkpt><trkpt lat="43.600723034544956" lon="11.36148249844164"><ele>540.0</ele><time>2026-04-26T18:25:05Z</time></trkpt><trkpt lat="43.600668275576474" lon="11.361525768874767"><ele>540.0</ele><time>2026-04-26T18:25:06Z</time></trkpt><trkpt lat="43.60055614500491" lon="11.36161498145739"><ele>540.0</ele><time>2026-04-26T18:25:08Z</time></trkpt><trkpt lat="43.6004921792446" lon="11.361666507728831"><ele>540.0</ele><time>2026-04-26T18:25:09Z</time></trkpt><trkpt lat="43.60043593339909" lon="11.361743306488764"><ele>540.0</ele><time>2026-04-26T18:25:10Z</time></trkpt><trkpt lat="43.60036045671327" lon="11.3618057982707"><ele>540.0</ele><time>2026-04-26T18:25:11Z</time></trkpt><trkpt lat="43.60029008164289" lon="11.361872122327126"><ele>540.0</ele><time>2026-04-26T18:25:12Z</time></trkpt><trkpt lat="43.60022257035879" lon="11.361930699253032"><ele>540.0</ele><time>2026-04-26T18:25:13Z</time></trkpt><trkpt lat="43.600161845783674" lon="11.362009419026613"><ele>540.0</ele><time>2026-04-26T18:25:14Z</time></trkpt><trkpt lat="43.600107545971085" lon="11.362087626514752"><ele>540.0</ele><time>2026-04-26T18:25:15Z</time></trkpt><trkpt lat="43.60004246714043" lon="11.362184662922765"><ele>539.6666666666666</ele><time>2026-04-26T18:25:16Z</time></trkpt><trkpt lat="43.5999834883904" lon="11.362276032770426"><ele>539.3333333333334</ele><time>2026-04-26T18:25:17Z</time></trkpt><trkpt lat="43.599925304752475" lon="11.36236397749655"><ele>539.0</ele><time>2026-04-26T18:25:18Z</time></trkpt><trkpt lat="43.599863446276274" lon="11.362454818774992"><ele>538.6666666666667</ele><time>2026-04-26T18:25:19Z</time></trkpt><trkpt lat="43.59980097191919" lon="11.36254656450062"><ele>538.3333333333334</ele><time>2026-04-26T18:25:20Z</time></trkpt><trkpt lat="43.59973903774471" lon="11.362637516932335"><ele>538.0</ele><time>2026-04-26T18:25:21Z</time></trkpt><trkpt lat="43.59968619329979" lon="11.362715120801617"><ele>538.0</ele><time>2026-04-26T18:25:22Z</time></trkpt><trkpt lat="43.59963543436581" lon="11.36278797382044"><ele>538.0</ele><time>2026-04-26T18:25:23Z</time></trkpt><trkpt lat="43.59958052781603" lon="11.362865178006828"><ele>538.0</ele><time>2026-04-26T18:25:24Z</time></trkpt><trkpt lat="43.59952034228975" lon="11.362952328539214"><ele>538.0</ele><time>2026-04-26T18:25:25Z</time></trkpt><trkpt lat="43.599451929219526" lon="11.36304736000409"><ele>538.0</ele><time>2026-04-26T18:25:26Z</time></trkpt><trkpt lat="43.59938734601037" lon="11.363127096975548"><ele>538.0</ele><time>2026-04-26T18:25:27Z</time></trkpt><trkpt lat="43.599332395247316" lon="11.36319171585373"><ele>537.5</ele><time>2026-04-26T18:25:28Z</time></trkpt><trkpt lat="43.59927566853019" lon="11.36327189429539"><ele>537.0</ele><time>2026-04-26T18:25:29Z</time></trkpt><trkpt lat="43.599206461057655" lon="11.36329448030419"><ele>536.5</ele><time>2026-04-26T18:25:30Z</time></trkpt><trkpt lat="43.59913695049204" lon="11.363333552964411"><ele>536.0</ele><time>2026-04-26T18:25:31Z</time></trkpt><trkpt lat="43.599017101977054" lon="11.363405672768225"><ele>535.5</ele><time>2026-04-26T18:25:33Z</time></trkpt><trkpt lat="43.59894553838577" lon="11.363445461364053"><ele>535.0</ele><time>2026-04-26T18:25:34Z</time></trkpt><trkpt lat="43.59887117519363" lon="11.363496279405116"><ele>535.0</ele><time>2026-04-26T18:25:35Z</time></trkpt><trkpt lat="43.59879510032478" lon="11.363534696872975"><ele>535.0</ele><time>2026-04-26T18:25:36Z</time></trkpt><trkpt lat="43.59872216190648" lon="11.363576353237399"><ele>535.0</ele><time>2026-04-26T18:25:37Z</time></trkpt><trkpt lat="43.598650760485334" lon="11.363609691457794"><ele>535.0</ele><time>2026-04-26T18:25:38Z</time></trkpt><trkpt lat="43.5985872722316" lon="11.363645771681787"><ele>535.0</ele><time>2026-04-26T18:25:39Z</time></trkpt><trkpt lat="43.598519619380454" lon="11.36368186320709"><ele>535.0</ele><time>2026-04-26T18:25:40Z</time></trkpt><trkpt lat="43.59845889718488" lon="11.363716456442948"><ele>535.0</ele><time>2026-04-26T18:25:41Z</time></trkpt><trkpt lat="43.59835306902435" lon="11.363771554486666"><ele>534.5</ele><time>2026-04-26T18:25:43Z</time></trkpt><trkpt lat="43.59827238179917" lon="11.363801690910266"><ele>534.0</ele><time>2026-04-26T18:25:45Z</time></trkpt><trkpt lat="43.5982066413619" lon="11.363686489081173"><ele>533.5</ele><time>2026-04-26T18:25:48Z</time></trkpt><trkpt lat="43.5981813781646" lon="11.363606116851928"><ele>533.0</ele><time>2026-04-26T18:25:49Z</time></trkpt><trkpt lat="43.59813467198707" lon="11.363512938564181"><ele>532.5</ele><time>2026-04-26T18:25:50Z</time></trkpt><trkpt lat="43.598079721318705" lon="11.363419406016275"><ele>532.0</ele><time>2026-04-26T18:25:51Z</time></trkpt><trkpt lat="43.5980253885176" lon="11.363345924110615"><ele>532.0</ele><time>2026-04-26T18:25:52Z</time></trkpt><trkpt lat="43.59796348972505" lon="11.363283586919732"><ele>532.0</ele><time>2026-04-26T18:25:53Z</time></trkpt><trkpt lat="43.597893126048646" lon="11.363232787847325"><ele>532.0</ele><time>2026-04-26T18:25:54Z</time></trkpt><trkpt lat="43.59781621691341" lon="11.363190892002342"><ele>532.0</ele><time>2026-04-26T18:25:55Z</time></trkpt><trkpt lat="43.59773991807205" lon="11.363156639065672"><ele>532.0</ele><time>2026-04-26T18:25:56Z</time></trkpt><trkpt lat="43.59765799199183" lon="11.363129717027588"><ele>532.0</ele><time>2026-04-26T18:25:57Z</time></trkpt><trkpt lat="43.59756925688853" lon="11.363105745494453"><ele>532.0</ele><time>2026-04-26T18:25:58Z</time></trkpt><trkpt lat="43.59747885029725" lon="11.363078828008673"><ele>532.0</ele><time>2026-04-26T18:25:59Z</time></trkpt><trkpt lat="43.59738748940878" lon="11.363049921871665"><ele>532.0</ele><time>2026-04-26T18:26:00Z</time></trkpt><trkpt lat="43.59730123823004" lon="11.363020310781778"><ele>532.0</ele><time>2026-04-26T18:26:01Z</time></trkpt><trkpt lat="43.59721414787573" lon="11.362992414185067"><ele>532.0</ele><time>2026-04-26T18:26:02Z</time></trkpt><trkpt lat="43.59713177864651" lon="11.362957523886125"><ele>531.0</ele><time>2026-04-26T18:26:03Z</time></trkpt><trkpt lat="43.59704804533903" lon="11.362913971901607"><ele>530.0</ele><time>2026-04-26T18:26:04Z</time></trkpt><trkpt lat="43.596967561692594" lon="11.362864259587745"><ele>529.0</ele><time>2026-04-26T18:26:05Z</time></trkpt><trkpt lat="43.59689512443523" lon="11.362800219210028"><ele>528.0</ele><time>2026-04-26T18:26:06Z</time></trkpt><trkpt lat="43.59683250805078" lon="11.36271062408849"><ele>527.0</ele><time>2026-04-26T18:26:07Z</time></trkpt><trkpt lat="43.596781287845076" lon="11.362610814923645"><ele>526.0</ele><time>2026-04-26T18:26:08Z</time></trkpt><trkpt lat="43.596741906428754" lon="11.362500881442726"><ele>526.0</ele><time>2026-04-26T18:26:09Z</time></trkpt><trkpt lat="43.59670063153234" lon="11.362387273519067"><ele>526.0</ele><time>2026-04-26T18:26:10Z</time></trkpt><trkpt lat="43.59664728665084" lon="11.362288518823402"><ele>526.0</ele><time>2026-04-26T18:26:11Z</time></trkpt><trkpt lat="43.59659386808334" lon="11.362189701285065"><ele>526.0</ele><time>2026-04-26T18:26:12Z</time></trkpt><trkpt lat="43.59651186403586" lon="11.362136733913308"><ele>526.0</ele><time>2026-04-26T18:26:13Z</time></trkpt><trkpt lat="43.596418412650195" lon="11.362141916149252"><ele>525.4</ele><time>2026-04-26T18:26:14Z</time></trkpt><trkpt lat="43.596328414782896" lon="11.362143095078062"><ele>524.8</ele><time>2026-04-26T18:26:15Z</time></trkpt><trkpt lat="43.596236530948694" lon="11.362153619964186"><ele>524.1999999999999</ele><time>2026-04-26T18:26:16Z</time></trkpt><trkpt lat="43.59614537919346" lon="11.362171589471718"><ele>523.6</ele><time>2026-04-26T18:26:17Z</time></trkpt><trkpt lat="43.596055914355624" lon="11.362202650107264"><ele>523.0</ele><time>2026-04-26T18:26:18Z</time></trkpt><trkpt lat="43.595969053643806" lon="11.362252362020403"><ele>523.0</ele><time>2026-04-26T18:26:19Z</time></trkpt><trkpt lat="43.595889250596485" lon="11.362311916144742"><ele>523.0</ele><time>2026-04-26T18:26:20Z</time></trkpt><trkpt lat="43.59580560130918" lon="11.362352552212183"><ele>523.0</ele><time>2026-04-26T18:26:21Z</time></trkpt><trkpt lat="43.59573010112129" lon="11.362409436601606"><ele>523.0</ele><time>2026-04-26T18:26:22Z</time></trkpt><trkpt lat="43.59566292722052" lon="11.36248725401344"><ele>523.0</ele><time>2026-04-26T18:26:23Z</time></trkpt><trkpt lat="43.59559326474903" lon="11.36254135636959"><ele>523.0</ele><time>2026-04-26T18:26:24Z</time></trkpt><trkpt lat="43.595512002038724" lon="11.362581968592277"><ele>523.0</ele><time>2026-04-26T18:26:25Z</time></trkpt><trkpt lat="43.595439474812636" lon="11.362641202306285"><ele>523.0</ele><time>2026-04-26T18:26:26Z</time></trkpt><trkpt lat="43.595367499679774" lon="11.362718719896952"><ele>523.0</ele><time>2026-04-26T18:26:27Z</time></trkpt><trkpt lat="43.59528625474012" lon="11.362767425173073"><ele>523.0</ele><time>2026-04-26T18:26:28Z</time></trkpt><trkpt lat="43.59520246906425" lon="11.362813850768449"><ele>523.0</ele><time>2026-04-26T18:26:29Z</time></trkpt><trkpt lat="43.59511541497436" lon="11.362860702844749"><ele>523.0</ele><time>2026-04-26T18:26:29.999Z</time></trkpt><trkpt lat="43.59503069150066" lon="11.36291103909069"><ele>524.0</ele><time>2026-04-26T18:26:30.999Z</time></trkpt><trkpt lat="43.594941586857054" lon="11.36294549928"><ele>525.0</ele><time>2026-04-26T18:26:31.999Z</time></trkpt><trkpt lat="43.59486357093169" lon="11.363025491695074"><ele>526.0</ele><time>2026-04-26T18:26:32.999Z</time></trkpt><trkpt lat="43.5947939664589" lon="11.36310870537416"><ele>527.0</ele><time>2026-04-26T18:26:33.999Z</time></trkpt><trkpt lat="43.5947259532461" lon="11.363188579657319"><ele>528.0</ele><time>2026-04-26T18:26:34.999Z</time></trkpt><trkpt lat="43.594655268911666" lon="11.363269788862691"><ele>528.0</ele><time>2026-04-26T18:26:35.999Z</time></trkpt><trkpt lat="43.59457502029986" lon="11.363356198308875"><ele>528.0</ele><time>2026-04-26T18:26:36.999Z</time></trkpt><trkpt lat="43.59448278324217" lon="11.363418603699833"><ele>528.0</ele><time>2026-04-26T18:26:37.999Z</time></trkpt><trkpt lat="43.59439584080998" lon="11.363460077548796"><ele>528.0</ele><time>2026-04-26T18:26:38.999Z</time></trkpt><trkpt lat="43.59430721085" lon="11.3634772049818"><ele>528.0</ele><time>2026-04-26T18:26:39.999Z</time></trkpt><trkpt lat="43.59421445264385" lon="11.363457287541388"><ele>526.4</ele><time>2026-04-26T18:26:40.999Z</time></trkpt><trkpt lat="43.594121046623414" lon="11.363409126505177"><ele>524.8</ele><time>2026-04-26T18:26:41.999Z</time></trkpt><trkpt lat="43.59402677425002" lon="11.363344482107733"><ele>523.2</ele><time>2026-04-26T18:26:42.999Z</time></trkpt><trkpt lat="43.593934256587524" lon="11.363360638660385"><ele>521.6</ele><time>2026-04-26T18:26:43.999Z</time></trkpt><trkpt lat="43.5938366718343" lon="11.363320935731654"><ele>520.0</ele><time>2026-04-26T18:26:44.999Z</time></trkpt><trkpt lat="43.5937464594006" lon="11.363282096134752"><ele>521.4</ele><time>2026-04-26T18:26:45.999Z</time></trkpt><trkpt lat="43.59365290265078" lon="11.363236234991435"><ele>522.8</ele><time>2026-04-26T18:26:46.999Z</time></trkpt><trkpt lat="43.59355985741765" lon="11.363211738966728"><ele>524.2</ele><time>2026-04-26T18:26:47.999Z</time></trkpt><trkpt lat="43.593465605650394" lon="11.363203731368545"><ele>525.6</ele><time>2026-04-26T18:26:48.999Z</time></trkpt><trkpt lat="43.59336822441754" lon="11.363208090841656"><ele>527.0</ele><time>2026-04-26T18:26:49.999Z</time></trkpt><trkpt lat="43.593270056760005" lon="11.363220693745784"><ele>527.0</ele><time>2026-04-26T18:26:50.999Z</time></trkpt><trkpt lat="43.593170435831446" lon="11.363237600326604"><ele>527.0</ele><time>2026-04-26T18:26:51.999Z</time></trkpt><trkpt lat="43.593076322907734" lon="11.36325760169485"><ele>527.0</ele><time>2026-04-26T18:26:52.999Z</time></trkpt><trkpt lat="43.592992151848684" lon="11.363281413191588"><ele>527.0</ele><time>2026-04-26T18:26:53.999Z</time></trkpt><trkpt lat="43.59290792219171" lon="11.363290798189185"><ele>527.0</ele><time>2026-04-26T18:26:54.999Z</time></trkpt><trkpt lat="43.59282825580543" lon="11.363306413392204"><ele>527.0</ele><time>2026-04-26T18:26:55.999Z</time></trkpt><trkpt lat="43.59274393854377" lon="11.36331095354904"><ele>527.8333333333333</ele><time>2026-04-26T18:26:56.999Z</time></trkpt><trkpt lat="43.59266783220731" lon="11.36329910841014"><ele>528.6666666666666</ele><time>2026-04-26T18:26:57.999Z</time></trkpt><trkpt lat="43.59259610929884" lon="11.3632638545648"><ele>529.5</ele><time>2026-04-26T18:26:58.999Z</time></trkpt><trkpt lat="43.592531588359286" lon="11.363199650789559"><ele>530.3333333333334</ele><time>2026-04-26T18:26:59.999Z</time></trkpt><trkpt lat="43.59248544265572" lon="11.363114257478948"><ele>531.1666666666667</ele><time>2026-04-26T18:27:00.999Z</time></trkpt><trkpt lat="43.59246626292852" lon="11.362997569347392"><ele>532.0</ele><time>2026-04-26T18:27:02Z</time></trkpt><trkpt lat="43.59247390714019" lon="11.362878120851521"><ele>532.0</ele><time>2026-04-26T18:27:03Z</time></trkpt><trkpt lat="43.59250038483845" lon="11.36274854795295"><ele>532.0</ele><time>2026-04-26T18:27:04Z</time></trkpt><trkpt lat="43.59253394314133" lon="11.362623167213835"><ele>532.0</ele><time>2026-04-26T18:27:05Z</time></trkpt><trkpt lat="43.592567710235386" lon="11.362495242843323"><ele>532.0</ele><time>2026-04-26T18:27:06Z</time></trkpt><trkpt lat="43.59260666090103" lon="11.362372891948336"><ele>532.0</ele><time>2026-04-26T18:27:07Z</time></trkpt><trkpt lat="43.592651086730314" lon="11.362255069913445"><ele>532.0</ele><time>2026-04-26T18:27:08Z</time></trkpt><trkpt lat="43.5927010171642" lon="11.362137447362386"><ele>532.0</ele><time>2026-04-26T18:27:09Z</time></trkpt><trkpt lat="43.59274835346185" lon="11.362021536867797"><ele>532.0</ele><time>2026-04-26T18:27:10Z</time></trkpt><trkpt lat="43.592801026061416" lon="11.361910334317505"><ele>532.0</ele><time>2026-04-26T18:27:11Z</time></trkpt><trkpt lat="43.592845026903376" lon="11.361793794493229"><ele>532.0</ele><time>2026-04-26T18:27:12Z</time></trkpt><trkpt lat="43.5928795203916" lon="11.361668828581852"><ele>523.8000000000001</ele><time>2026-04-26T18:27:13Z</time></trkpt><trkpt lat="43.592901912320386" lon="11.361537699948444"><ele>515.6</ele><time>2026-04-26T18:27:14Z</time></trkpt><trkpt lat="43.59291493627856" lon="11.361406860052417"><ele>507.40000000000003</ele><time>2026-04-26T18:27:15Z</time></trkpt><trkpt lat="43.592921265401934" lon="11.361270618781058"><ele>499.20000000000005</ele><time>2026-04-26T18:27:16Z</time></trkpt><trkpt lat="43.59290954880576" lon="11.36114580906019"><ele>491.0</ele><time>2026-04-26T18:27:17Z</time></trkpt><trkpt lat="43.59288546062185" lon="11.361032436177917"><ele>489.66666666666663</ele><time>2026-04-26T18:27:18Z</time></trkpt><trkpt lat="43.59284839484071" lon="11.360929618737297"><ele>488.3333333333333</ele><time>2026-04-26T18:27:19Z</time></trkpt><trkpt lat="43.59279103299933" lon="11.360850413822435"><ele>487.0</ele><time>2026-04-26T18:27:20Z</time></trkpt><trkpt lat="43.59272050108258" lon="11.360792570348735"><ele>485.66666666666663</ele><time>2026-04-26T18:27:21Z</time></trkpt><trkpt lat="43.592640263476135" lon="11.360750616482902"><ele>484.3333333333333</ele><time>2026-04-26T18:27:22Z</time></trkpt><trkpt lat="43.592561389477844" lon="11.360704213198252"><ele>483.0</ele><time>2026-04-26T18:27:23Z</time></trkpt><trkpt lat="43.59249295321725" lon="11.360640715261468"><ele>488.0</ele><time>2026-04-26T18:27:24Z</time></trkpt><trkpt lat="43.592437649220734" lon="11.360548097910602"><ele>492.99999999999994</ele><time>2026-04-26T18:27:25Z</time></trkpt><trkpt lat="43.592385938925545" lon="11.360478444432413"><ele>497.99999999999994</ele><time>2026-04-26T18:27:26Z</time></trkpt><trkpt lat="43.592380813217844" lon="11.36034760874481"><ele>503.0</ele><time>2026-04-26T18:27:27Z</time></trkpt><trkpt lat="43.59239547948263" lon="11.36021849863062"><ele>508.0</ele><time>2026-04-26T18:27:28Z</time></trkpt><trkpt lat="43.5924142217997" lon="11.360068479671456"><ele>508.0</ele><time>2026-04-26T18:27:29Z</time></trkpt><trkpt lat="43.59242641329168" lon="11.359921976203884"><ele>507.99999999999994</ele><time>2026-04-26T18:27:30Z</time></trkpt><trkpt lat="43.59244429186496" lon="11.359788144876106"><ele>507.99999999999994</ele><time>2026-04-26T18:27:31Z</time></trkpt><trkpt lat="43.59245708407161" lon="11.359659725614364"><ele>508.0</ele><time>2026-04-26T18:27:32Z</time></trkpt><trkpt lat="43.59247997983876" lon="11.359535171048858"><ele>508.0</ele><time>2026-04-26T18:27:33Z</time></trkpt><trkpt lat="43.59250931514868" lon="11.359421021087403"><ele>507.79999999999995</ele><time>2026-04-26T18:27:34Z</time></trkpt><trkpt lat="43.59254976623782" lon="11.359305902224767"><ele>507.59999999999997</ele><time>2026-04-26T18:27:35Z</time></trkpt><trkpt lat="43.59261162426987" lon="11.359202445960511"><ele>507.40000000000003</ele><time>2026-04-26T18:27:36Z</time></trkpt><trkpt lat="43.592680470019424" lon="11.3591106515727"><ele>507.20000000000005</ele><time>2026-04-26T18:27:37Z</time></trkpt><trkpt lat="43.59273911803519" lon="11.35902062643634"><ele>507.0</ele><time>2026-04-26T18:27:38Z</time></trkpt><trkpt lat="43.59277675214874" lon="11.358919271667887"><ele>506.20000000000005</ele><time>2026-04-26T18:27:39Z</time></trkpt><trkpt lat="43.59278181537404" lon="11.358803738950039"><ele>505.40000000000003</ele><time>2026-04-26T18:27:40Z</time></trkpt><trkpt lat="43.59275602174816" lon="11.358678292040684"><ele>504.59999999999997</ele><time>2026-04-26T18:27:41Z</time></trkpt><trkpt lat="43.592697029556774" lon="11.358563965695968"><ele>503.79999999999995</ele><time>2026-04-26T18:27:42Z</time></trkpt><trkpt lat="43.5926330409279" lon="11.358457757093769"><ele>503.0</ele><time>2026-04-26T18:27:43Z</time></trkpt><trkpt lat="43.592571439730285" lon="11.358357655001264"><ele>503.0</ele><time>2026-04-26T18:27:44Z</time></trkpt><trkpt lat="43.59251967356372" lon="11.358229307093875"><ele>502.99999999999994</ele><time>2026-04-26T18:27:45Z</time></trkpt><trkpt lat="43.59247848611229" lon="11.358097386388257"><ele>502.99999999999994</ele><time>2026-04-26T18:27:46Z</time></trkpt><trkpt lat="43.59244793995773" lon="11.357957000868304"><ele>503.0</ele><time>2026-04-26T18:27:47Z</time></trkpt><trkpt lat="43.59242224462925" lon="11.357821209607717"><ele>503.0</ele><time>2026-04-26T18:27:48Z</time></trkpt><trkpt lat="43.59239494818483" lon="11.35769373239817"><ele>499.4</ele><time>2026-04-26T18:27:49Z</time></trkpt><trkpt lat="43.59237091612606" lon="11.35756888842359"><ele>495.79999999999995</ele><time>2026-04-26T18:27:50Z</time></trkpt><trkpt lat="43.59235179280793" lon="11.357442255696094"><ele>492.2</ele><time>2026-04-26T18:27:51Z</time></trkpt><trkpt lat="43.59233010047659" lon="11.357311206818851"><ele>488.6</ele><time>2026-04-26T18:27:52Z</time></trkpt><trkpt lat="43.59230966349658" lon="11.357175748182264"><ele>485.0</ele><time>2026-04-26T18:27:53Z</time></trkpt><trkpt lat="43.592289204733966" lon="11.357034725037854"><ele>481.8</ele><time>2026-04-26T18:27:54Z</time></trkpt><trkpt lat="43.59226402125245" lon="11.356893163426303"><ele>478.6</ele><time>2026-04-26T18:27:55Z</time></trkpt><trkpt lat="43.59223994663892" lon="11.356756686225767"><ele>475.4</ele><time>2026-04-26T18:27:56Z</time></trkpt><trkpt lat="43.59220987853667" lon="11.356630218625444"><ele>472.2</ele><time>2026-04-26T18:27:57Z</time></trkpt><trkpt lat="43.59217054938423" lon="11.356519467093879"><ele>469.0</ele><time>2026-04-26T18:27:58Z</time></trkpt><trkpt lat="43.59211151771703" lon="11.356430596610542"><ele>470.2</ele><time>2026-04-26T18:27:59Z</time></trkpt><trkpt lat="43.59203714978211" lon="11.356362717234056"><ele>471.4</ele><time>2026-04-26T18:28:00Z</time></trkpt><trkpt lat="43.591954107808924" lon="11.356306235395468"><ele>472.6</ele><time>2026-04-26T18:28:01Z</time></trkpt><trkpt lat="43.5918466918641" lon="11.356257157612124"><ele>473.8</ele><time>2026-04-26T18:28:02Z</time></trkpt><trkpt lat="43.59175846670342" lon="11.356177616099187"><ele>475.0</ele><time>2026-04-26T18:28:03Z</time></trkpt><trkpt lat="43.591683981904445" lon="11.356085074144548"><ele>475.00000000000006</ele><time>2026-04-26T18:28:04Z</time></trkpt><trkpt lat="43.591626973263594" lon="11.355981410863066"><ele>475.0</ele><time>2026-04-26T18:28:05Z</time></trkpt><trkpt lat="43.59157536836263" lon="11.355878593268178"><ele>475.0</ele><time>2026-04-26T18:28:06Z</time></trkpt><trkpt lat="43.59151652707293" lon="11.355792437075632"><ele>475.0</ele><time>2026-04-26T18:28:07Z</time></trkpt><trkpt lat="43.591453464546845" lon="11.355715966353394"><ele>475.00000000000006</ele><time>2026-04-26T18:28:08Z</time></trkpt><trkpt lat="43.5913595752027" lon="11.355718112101925"><ele>475.0</ele><time>2026-04-26T18:28:09Z</time></trkpt><trkpt lat="43.59126709334538" lon="11.35573615925666"><ele>475.0</ele><time>2026-04-26T18:28:10Z</time></trkpt><trkpt lat="43.59117593798241" lon="11.355768345825492"><ele>475.0</ele><time>2026-04-26T18:28:11Z</time></trkpt><trkpt lat="43.59108810624973" lon="11.355795293537403"><ele>475.0</ele><time>2026-04-26T18:28:12Z</time></trkpt><trkpt lat="43.59099748162211" lon="11.355801915136615"><ele>475.0</ele><time>2026-04-26T18:28:13Z</time></trkpt><trkpt lat="43.59090805447455" lon="11.355770435007662"><ele>475.0</ele><time>2026-04-26T18:28:14Z</time></trkpt><trkpt lat="43.590829688776225" lon="11.355703113550467"><ele>475.6</ele><time>2026-04-26T18:28:15Z</time></trkpt><trkpt lat="43.590769255823616" lon="11.355610665245221"><ele>476.2</ele><time>2026-04-26T18:28:16Z</time></trkpt><trkpt lat="43.59074020877733" lon="11.355488380668863"><ele>476.79999999999995</ele><time>2026-04-26T18:28:17Z</time></trkpt><trkpt lat="43.59075078595136" lon="11.355356251863437"><ele>477.4</ele><time>2026-04-26T18:28:18Z</time></trkpt><trkpt lat="43.5907939386808" lon="11.355236742188788"><ele>478.0</ele><time>2026-04-26T18:28:19Z</time></trkpt><trkpt lat="43.590862125871354" lon="11.355133948666976"><ele>478.2</ele><time>2026-04-26T18:28:20Z</time></trkpt><trkpt lat="43.590950801893186" lon="11.355054393178975"><ele>478.4</ele><time>2026-04-26T18:28:21Z</time></trkpt><trkpt lat="43.59104728129554" lon="11.354996736817272"><ele>478.59999999999997</ele><time>2026-04-26T18:28:22Z</time></trkpt><trkpt lat="43.59114764984954" lon="11.354951296133938"><ele>478.79999999999995</ele><time>2026-04-26T18:28:23Z</time></trkpt><trkpt lat="43.59124956017847" lon="11.354909968907236"><ele>479.0</ele><time>2026-04-26T18:28:24Z</time></trkpt><trkpt lat="43.59134582911856" lon="11.354862213192428"><ele>480.0</ele><time>2026-04-26T18:28:25Z</time></trkpt><trkpt lat="43.591438022668086" lon="11.354818276204236"><ele>481.0</ele><time>2026-04-26T18:28:26Z</time></trkpt><trkpt lat="43.591524844666175" lon="11.354755092131434"><ele>482.0</ele><time>2026-04-26T18:28:27Z</time></trkpt><trkpt lat="43.59160766281426" lon="11.354688300696658"><ele>483.0</ele><time>2026-04-26T18:28:28Z</time></trkpt><trkpt lat="43.591694068152385" lon="11.354610945689167"><ele>484.0</ele><time>2026-04-26T18:28:29Z</time></trkpt><trkpt lat="43.59177333521035" lon="11.354525182748816"><ele>484.0</ele><time>2026-04-26T18:28:30Z</time></trkpt><trkpt lat="43.59186222434514" lon="11.354446624197411"><ele>484.0</ele><time>2026-04-26T18:28:31Z</time></trkpt><trkpt lat="43.591953177045816" lon="11.354377367295024"><ele>484.0</ele><time>2026-04-26T18:28:32Z</time></trkpt><trkpt lat="43.59205464709778" lon="11.354328471258857"><ele>484.0</ele><time>2026-04-26T18:28:32.999Z</time></trkpt><trkpt lat="43.592153318551276" lon="11.354306022670299"><ele>484.0</ele><time>2026-04-26T18:28:33.999Z</time></trkpt><trkpt lat="43.592241183155664" lon="11.354269940346269"><ele>481.2</ele><time>2026-04-26T18:28:34.999Z</time></trkpt><trkpt lat="43.592320108179585" lon="11.354202704754224"><ele>478.4</ele><time>2026-04-26T18:28:35.999Z</time></trkpt><trkpt lat="43.592390066721926" lon="11.354106818254152"><ele>475.6</ele><time>2026-04-26T18:28:36.999Z</time></trkpt><trkpt lat="43.59245891173688" lon="11.354008942136957"><ele>472.8</ele><time>2026-04-26T18:28:37.999Z</time></trkpt><trkpt lat="43.592527640213426" lon="11.353903924822461"><ele>470.0</ele><time>2026-04-26T18:28:38.999Z</time></trkpt><trkpt lat="43.59260238703203" lon="11.353804992840521"><ele>470.0</ele><time>2026-04-26T18:28:39.999Z</time></trkpt><trkpt lat="43.59267811537214" lon="11.35371137708382"><ele>470.0</ele><time>2026-04-26T18:28:40.999Z</time></trkpt><trkpt lat="43.592753850217605" lon="11.35361476812544"><ele>470.0</ele><time>2026-04-26T18:28:41.999Z</time></trkpt><trkpt lat="43.59282038914092" lon="11.353519526117733"><ele>470.0</ele><time>2026-04-26T18:28:42.999Z</time></trkpt><trkpt lat="43.592877629596806" lon="11.35341985256285"><ele>470.0</ele><time>2026-04-26T18:28:43.999Z</time></trkpt><trkpt lat="43.592924861498304" lon="11.353322627476818"><ele>468.99999999999994</ele><time>2026-04-26T18:28:44.999Z</time></trkpt><trkpt lat="43.59295648461439" lon="11.353214611880613"><ele>468.0</ele><time>2026-04-26T18:28:45.999Z</time></trkpt><trkpt lat="43.592978970015174" lon="11.35309732701307"><ele>467.0</ele><time>2026-04-26T18:28:46.999Z</time></trkpt><trkpt lat="43.59299352944736" lon="11.352981096524788"><ele>466.0</ele><time>2026-04-26T18:28:47.999Z</time></trkpt><trkpt lat="43.59300556213117" lon="11.352862064232655"><ele>464.99999999999994</ele><time>2026-04-26T18:28:48.999Z</time></trkpt><trkpt lat="43.59303113366527" lon="11.352744969629512"><ele>464.0</ele><time>2026-04-26T18:28:49.999Z</time></trkpt><trkpt lat="43.59307982430574" lon="11.352635019510675"><ele>464.0</ele><time>2026-04-26T18:28:50.999Z</time></trkpt><trkpt lat="43.59314710644061" lon="11.35253136015054"><ele>464.0</ele><time>2026-04-26T18:28:51.999Z</time></trkpt><trkpt lat="43.59321726124647" lon="11.352433482324574"><ele>464.0</ele><time>2026-04-26T18:28:52.999Z</time></trkpt><trkpt lat="43.59328097847446" lon="11.352330234876796"><ele>464.0</ele><time>2026-04-26T18:28:53.999Z</time></trkpt><trkpt lat="43.59334380364068" lon="11.352226217368496"><ele>464.0</ele><time>2026-04-26T18:28:54.999Z</time></trkpt><trkpt lat="43.59339769454722" lon="11.35211976148056"><ele>465.79999999999995</ele><time>2026-04-26T18:28:55.999Z</time></trkpt><trkpt lat="43.593445814395466" lon="11.352010404032512"><ele>467.59999999999997</ele><time>2026-04-26T18:28:56.999Z</time></trkpt><trkpt lat="43.59349271811086" lon="11.351906591689382"><ele>469.4</ele><time>2026-04-26T18:28:57.999Z</time></trkpt><trkpt lat="43.59353249265205" lon="11.351795821205126"><ele>471.2</ele><time>2026-04-26T18:28:58.999Z</time></trkpt><trkpt lat="43.59356930565734" lon="11.351678700067886"><ele>473.0</ele><time>2026-04-26T18:28:59.999Z</time></trkpt><trkpt lat="43.59360445301472" lon="11.351565796503102"><ele>473.0</ele><time>2026-04-26T18:29:00.999Z</time></trkpt><trkpt lat="43.59363190438036" lon="11.35144935612672"><ele>472.99999999999994</ele><time>2026-04-26T18:29:01.999Z</time></trkpt><trkpt lat="43.59365643885782" lon="11.351328872546928"><ele>472.99999999999994</ele><time>2026-04-26T18:29:02.999Z</time></trkpt><trkpt lat="43.59367291393771" lon="11.35120253699996"><ele>473.0</ele><time>2026-04-26T18:29:03.999Z</time></trkpt><trkpt lat="43.593682131640506" lon="11.351070187116909"><ele>473.0</ele><time>2026-04-26T18:29:04.999Z</time></trkpt><trkpt lat="43.59368089368533" lon="11.350942126424746"><ele>473.0</ele><time>2026-04-26T18:29:05.999Z</time></trkpt><trkpt lat="43.59366060604265" lon="11.350820561346358"><ele>472.99999999999994</ele><time>2026-04-26T18:29:06.999Z</time></trkpt><trkpt lat="43.59362346120713" lon="11.350698958656961"><ele>472.99999999999994</ele><time>2026-04-26T18:29:08Z</time></trkpt><trkpt lat="43.593576265738385" lon="11.350582233702955"><ele>473.0</ele><time>2026-04-26T18:29:09Z</time></trkpt><trkpt lat="43.59352598435262" lon="11.350471738909386"><ele>473.0</ele><time>2026-04-26T18:29:10Z</time></trkpt><trkpt lat="43.5934788398035" lon="11.350357591355516"><ele>471.4</ele><time>2026-04-26T18:29:11Z</time></trkpt><trkpt lat="43.593438153470885" lon="11.35024263127214"><ele>469.79999999999995</ele><time>2026-04-26T18:29:12Z</time></trkpt><trkpt lat="43.59340348135994" lon="11.350133076245081"><ele>468.2</ele><time>2026-04-26T18:29:13Z</time></trkpt><trkpt lat="43.59337974101277" lon="11.350011510657781"><ele>466.6</ele><time>2026-04-26T18:29:14Z</time></trkpt><trkpt lat="43.59336805706487" lon="11.349882918597368"><ele>465.0</ele><time>2026-04-26T18:29:15Z</time></trkpt><trkpt lat="43.59336161661619" lon="11.349752411470028"><ele>463.2</ele><time>2026-04-26T18:29:16Z</time></trkpt><trkpt lat="43.59337442255697" lon="11.349618727415926"><ele>461.4</ele><time>2026-04-26T18:29:17Z</time></trkpt><trkpt lat="43.59340575610481" lon="11.34948319436055"><ele>459.6</ele><time>2026-04-26T18:29:18Z</time></trkpt><trkpt lat="43.59343755765398" lon="11.349353964722896"><ele>457.8</ele><time>2026-04-26T18:29:19Z</time></trkpt><trkpt lat="43.5934709943426" lon="11.349239368654944"><ele>456.0</ele><time>2026-04-26T18:29:20Z</time></trkpt><trkpt lat="43.59349152336968" lon="11.349122423239196"><ele>456.0</ele><time>2026-04-26T18:29:21Z</time></trkpt><trkpt lat="43.593495109473864" lon="11.348995965890193"><ele>456.0</ele><time>2026-04-26T18:29:22Z</time></trkpt><trkpt lat="43.59346999432746" lon="11.348868451930224"><ele>456.0</ele><time>2026-04-26T18:29:23Z</time></trkpt><trkpt lat="43.59342143808269" lon="11.348751695263736"><ele>456.0</ele><time>2026-04-26T18:29:24Z</time></trkpt><trkpt lat="43.59336337124977" lon="11.348639477966532"><ele>456.0</ele><time>2026-04-26T18:29:25Z</time></trkpt><trkpt lat="43.593315258706475" lon="11.34851692896521"><ele>453.6</ele><time>2026-04-26T18:29:26Z</time></trkpt><trkpt lat="43.59326872034385" lon="11.34839141685738"><ele>451.20000000000005</ele><time>2026-04-26T18:29:27Z</time></trkpt><trkpt lat="43.59322527508099" lon="11.348270989666169"><ele>448.79999999999995</ele><time>2026-04-26T18:29:28Z</time></trkpt><trkpt lat="43.593181536756106" lon="11.348155014115317"><ele>446.4</ele><time>2026-04-26T18:29:29Z</time></trkpt><trkpt lat="43.59314573815901" lon="11.348038034125143"><ele>444.0</ele><time>2026-04-26T18:29:30Z</time></trkpt><trkpt lat="43.59313247816515" lon="11.347912236415732"><ele>443.0</ele><time>2026-04-26T18:29:31Z</time></trkpt><trkpt lat="43.59314934582894" lon="11.3477870114265"><ele>442.0</ele><time>2026-04-26T18:29:32Z</time></trkpt><trkpt lat="43.59317571293371" lon="11.347663601190542"><ele>441.0</ele><time>2026-04-26T18:29:33Z</time></trkpt><trkpt lat="43.59319864197538" lon="11.347545971903653"><ele>440.0</ele><time>2026-04-26T18:29:34Z</time></trkpt><trkpt lat="43.593217928138316" lon="11.347431685607225"><ele>439.0</ele><time>2026-04-26T18:29:35Z</time></trkpt><trkpt lat="43.59322600110307" lon="11.347316458566574"><ele>438.0</ele><time>2026-04-26T18:29:36Z</time></trkpt><trkpt lat="43.593214413363086" lon="11.34720371318884"><ele>435.2</ele><time>2026-04-26T18:29:37Z</time></trkpt><trkpt lat="43.593176940355846" lon="11.347098692880769"><ele>432.4</ele><time>2026-04-26T18:29:38Z</time></trkpt><trkpt lat="43.59311947042912" lon="11.347000281187643"><ele>429.59999999999997</ele><time>2026-04-26T18:29:39Z</time></trkpt><trkpt lat="43.593049306079024" lon="11.34690811475095"><ele>426.79999999999995</ele><time>2026-04-26T18:29:40Z</time></trkpt><trkpt lat="43.59297354421149" lon="11.34682572065313"><ele>424.0</ele><time>2026-04-26T18:29:41Z</time></trkpt><trkpt lat="43.5928991323842" lon="11.346739004159247"><ele>423.4</ele><time>2026-04-26T18:29:42Z</time></trkpt><trkpt lat="43.59281858887451" lon="11.346651933969426"><ele>422.79999999999995</ele><time>2026-04-26T18:29:43Z</time></trkpt><trkpt lat="43.59273852320659" lon="11.346569942089044"><ele>422.20000000000005</ele><time>2026-04-26T18:29:44Z</time></trkpt><trkpt lat="43.59265699511557" lon="11.346490012202608"><ele>421.6</ele><time>2026-04-26T18:29:45Z</time></trkpt><trkpt lat="43.59257621065903" lon="11.3464184001608"><ele>421.0</ele><time>2026-04-26T18:29:46Z</time></trkpt><trkpt lat="43.59249202463683" lon="11.34635757221106"><ele>421.0</ele><time>2026-04-26T18:29:47Z</time></trkpt><trkpt lat="43.59239840980595" lon="11.346312661068266"><ele>421.0</ele><time>2026-04-26T18:29:48Z</time></trkpt><trkpt lat="43.592306004889764" lon="11.346277159078003"><ele>421.0</ele><time>2026-04-26T18:29:49Z</time></trkpt><trkpt lat="43.59221324657124" lon="11.346253141422107"><ele>421.0</ele><time>2026-04-26T18:29:50Z</time></trkpt><trkpt lat="43.592116800588066" lon="11.346244948090522"><ele>421.0</ele><time>2026-04-26T18:29:51Z</time></trkpt><trkpt lat="43.59202599715232" lon="11.346249523486732"><ele>422.20000000000005</ele><time>2026-04-26T18:29:52Z</time></trkpt><trkpt lat="43.591932191952914" lon="11.346260452097447"><ele>423.40000000000003</ele><time>2026-04-26T18:29:53Z</time></trkpt><trkpt lat="43.59183632428819" lon="11.346271060325629"><ele>424.6</ele><time>2026-04-26T18:29:54Z</time></trkpt><trkpt lat="43.59174084106675" lon="11.34628224300434"><ele>425.8</ele><time>2026-04-26T18:29:55Z</time></trkpt><trkpt lat="43.591638521187754" lon="11.346290287496231"><ele>427.0</ele><time>2026-04-26T18:29:56Z</time></trkpt><trkpt lat="43.59153973317619" lon="11.346289500620083"><ele>427.0</ele><time>2026-04-26T18:29:57Z</time></trkpt><trkpt lat="43.59145079898376" lon="11.346269707310453"><ele>427.00000000000006</ele><time>2026-04-26T18:29:58Z</time></trkpt><trkpt lat="43.591365710246535" lon="11.346223543446097"><ele>427.00000000000006</ele><time>2026-04-26T18:29:59Z</time></trkpt><trkpt lat="43.59128820304905" lon="11.346147812432681"><ele>427.0</ele><time>2026-04-26T18:30:00Z</time></trkpt><trkpt lat="43.59122439690144" lon="11.34604720541382"><ele>427.0</ele><time>2026-04-26T18:30:01Z</time></trkpt><trkpt lat="43.591171510823244" lon="11.345927369826338"><ele>427.8</ele><time>2026-04-26T18:30:02Z</time></trkpt><trkpt lat="43.59114163653617" lon="11.345799927499208"><ele>428.6</ele><time>2026-04-26T18:30:03Z</time></trkpt><trkpt lat="43.591127216206594" lon="11.34565846988061"><ele>429.40000000000003</ele><time>2026-04-26T18:30:04Z</time></trkpt><trkpt lat="43.59112115525732" lon="11.345511178733041"><ele>430.20000000000005</ele><time>2026-04-26T18:30:05Z</time></trkpt><trkpt lat="43.59111905781928" lon="11.345365638539286"><ele>431.0</ele><time>2026-04-26T18:30:06Z</time></trkpt><trkpt lat="43.59112420196141" lon="11.345221349026458"><ele>431.0</ele><time>2026-04-26T18:30:07Z</time></trkpt><trkpt lat="43.59114697743996" lon="11.34507802064757"><ele>431.0</ele><time>2026-04-26T18:30:08Z</time></trkpt><trkpt lat="43.591185013791915" lon="11.34493910219469"><ele>431.0</ele><time>2026-04-26T18:30:09Z</time></trkpt><trkpt lat="43.591229919997666" lon="11.344799690801008"><ele>431.0</ele><time>2026-04-26T18:30:10Z</time></trkpt><trkpt lat="43.59127674764472" lon="11.344661686366855"><ele>431.0</ele><time>2026-04-26T18:30:11Z</time></trkpt><trkpt lat="43.59132693465874" lon="11.344525996390068"><ele>429.4</ele><time>2026-04-26T18:30:12Z</time></trkpt><trkpt lat="43.591375185716295" lon="11.344390040748594"><ele>427.8</ele><time>2026-04-26T18:30:13Z</time></trkpt><trkpt lat="43.591426047947" lon="11.344264777774328"><ele>426.2</ele><time>2026-04-26T18:30:14Z</time></trkpt><trkpt lat="43.59146824130196" lon="11.344134509758586"><ele>424.59999999999997</ele><time>2026-04-26T18:30:15Z</time></trkpt><trkpt lat="43.59151514332008" lon="11.344005106156823"><ele>423.0</ele><time>2026-04-26T18:30:16Z</time></trkpt><trkpt lat="43.59156134304317" lon="11.34387706437017"><ele>422.79999999999995</ele><time>2026-04-26T18:30:17Z</time></trkpt><trkpt lat="43.591606546396875" lon="11.34376012149594"><ele>422.6</ele><time>2026-04-26T18:30:18Z</time></trkpt><trkpt lat="43.591653029357275" lon="11.343652153027296"><ele>422.4</ele><time>2026-04-26T18:30:19Z</time></trkpt><trkpt lat="43.59170257497171" lon="11.3435478683371"><ele>422.20000000000005</ele><time>2026-04-26T18:30:20Z</time></trkpt><trkpt lat="43.591765627930535" lon="11.34345257671985"><ele>422.0</ele><time>2026-04-26T18:30:21Z</time></trkpt><trkpt lat="43.59184402666701" lon="11.34336955215588"><ele>422.0</ele><time>2026-04-26T18:30:22Z</time></trkpt><trkpt lat="43.59194441238186" lon="11.343327191263013"><ele>422.0</ele><time>2026-04-26T18:30:23Z</time></trkpt><trkpt lat="43.59204211624081" lon="11.343270245012564"><ele>422.0</ele><time>2026-04-26T18:30:24Z</time></trkpt><trkpt lat="43.592135991803524" lon="11.343197589599262"><ele>422.0</ele><time>2026-04-26T18:30:25Z</time></trkpt><trkpt lat="43.59222761599183" lon="11.343141507770865"><ele>422.0</ele><time>2026-04-26T18:30:26Z</time></trkpt><trkpt lat="43.59230643764384" lon="11.343075007025123"><ele>422.16666666666663</ele><time>2026-04-26T18:30:27Z</time></trkpt><trkpt lat="43.592370454134155" lon="11.342999265185085"><ele>422.3333333333333</ele><time>2026-04-26T18:30:28Z</time></trkpt><trkpt lat="43.5924119342377" lon="11.342899577471048"><ele>422.5</ele><time>2026-04-26T18:30:29Z</time></trkpt><trkpt lat="43.592437455495876" lon="11.3427954150285"><ele>422.66666666666663</ele><time>2026-04-26T18:30:30Z</time></trkpt><trkpt lat="43.59244981094741" lon="11.342698491904107"><ele>422.8333333333333</ele><time>2026-04-26T18:30:31Z</time></trkpt><trkpt lat="43.59245688272246" lon="11.34260342269715"><ele>423.0</ele><time>2026-04-26T18:30:32Z</time></trkpt><trkpt lat="43.59248726039161" lon="11.342519299882218"><ele>423.0</ele><time>2026-04-26T18:30:33Z</time></trkpt><trkpt lat="43.592536480617596" lon="11.342445404100076"><ele>423.0</ele><time>2026-04-26T18:30:34Z</time></trkpt><trkpt lat="43.59260295462609" lon="11.34238925111201"><ele>423.0</ele><time>2026-04-26T18:30:35Z</time></trkpt><trkpt lat="43.592690023322014" lon="11.342404945424404"><ele>423.0</ele><time>2026-04-26T18:30:35.999Z</time></trkpt><trkpt lat="43.592777865055304" lon="11.342397479384777"><ele>423.0</ele><time>2026-04-26T18:30:36.999Z</time></trkpt><trkpt lat="43.59285792149833" lon="11.34235194066758"><ele>423.0</ele><time>2026-04-26T18:30:37.999Z</time></trkpt><trkpt lat="43.592940371882335" lon="11.342291550739146"><ele>421.4</ele><time>2026-04-26T18:30:38.999Z</time></trkpt><trkpt lat="43.59302013818341" lon="11.342217305084766"><ele>419.79999999999995</ele><time>2026-04-26T18:30:39.999Z</time></trkpt><trkpt lat="43.59309576185801" lon="11.342138372141687"><ele>418.2</ele><time>2026-04-26T18:30:40.999Z</time></trkpt><trkpt lat="43.59318179286641" lon="11.342089168210208"><ele>416.6</ele><time>2026-04-26T18:30:41.999Z</time></trkpt><trkpt lat="43.593259653879336" lon="11.342026942070751"><ele>415.0</ele><time>2026-04-26T18:30:42.999Z</time></trkpt><trkpt lat="43.59333860654851" lon="11.341964764869173"><ele>415.00000000000006</ele><time>2026-04-26T18:30:43.999Z</time></trkpt><trkpt lat="43.593412646891885" lon="11.341905167714232"><ele>415.0</ele><time>2026-04-26T18:30:44.999Z</time></trkpt><trkpt lat="43.59347453177309" lon="11.341821710035397"><ele>415.0</ele><time>2026-04-26T18:30:45.999Z</time></trkpt><trkpt lat="43.59354092054863" lon="11.341760705494565"><ele>415.0</ele><time>2026-04-26T18:30:46.999Z</time></trkpt><trkpt lat="43.59359326835725" lon="11.341676288944809"><ele>415.00000000000006</ele><time>2026-04-26T18:30:47.999Z</time></trkpt><trkpt lat="43.59362087606069" lon="11.341570594605138"><ele>415.0</ele><time>2026-04-26T18:30:48.999Z</time></trkpt><trkpt lat="43.593626643116586" lon="11.341448476815176"><ele>414.0</ele><time>2026-04-26T18:30:49.999Z</time></trkpt><trkpt lat="43.593601634326696" lon="11.341317491105078"><ele>413.0</ele><time>2026-04-26T18:30:50.999Z</time></trkpt><trkpt lat="43.59354707205264" lon="11.341190568104757"><ele>412.0</ele><time>2026-04-26T18:30:51.999Z</time></trkpt><trkpt lat="43.59347781299548" lon="11.341081275698729"><ele>411.0</ele><time>2026-04-26T18:30:52.999Z</time></trkpt><trkpt lat="43.59340541436321" lon="11.340989822695448"><ele>410.0</ele><time>2026-04-26T18:30:53.999Z</time></trkpt><trkpt lat="43.59333471304739" lon="11.34090527616432"><ele>410.0</ele><time>2026-04-26T18:30:54.999Z</time></trkpt><trkpt lat="43.59326319118104" lon="11.340826297224963"><ele>410.0</ele><time>2026-04-26T18:30:55.999Z</time></trkpt><trkpt lat="43.59318273021401" lon="11.340755771299683"><ele>410.0</ele><time>2026-04-26T18:30:56.999Z</time></trkpt><trkpt lat="43.59309378115618" lon="11.340686663739934"><ele>410.0</ele><time>2026-04-26T18:30:57.999Z</time></trkpt><trkpt lat="43.5930042739249" lon="11.340621623529785"><ele>410.0</ele><time>2026-04-26T18:30:58.999Z</time></trkpt><trkpt lat="43.59292303758027" lon="11.340561694821863"><ele>409.99999999999994</ele><time>2026-04-26T18:30:59.999Z</time></trkpt><trkpt lat="43.592851925697396" lon="11.340496315598038"><ele>410.0</ele><time>2026-04-26T18:31:00.999Z</time></trkpt><trkpt lat="43.59279464106249" lon="11.340425516789905"><ele>410.0</ele><time>2026-04-26T18:31:01.999Z</time></trkpt><trkpt lat="43.59273526960128" lon="11.340346318206644"><ele>410.0</ele><time>2026-04-26T18:31:02.999Z</time></trkpt><trkpt lat="43.59268690095518" lon="11.340254982399141"><ele>409.99999999999994</ele><time>2026-04-26T18:31:03.999Z</time></trkpt><trkpt lat="43.59264315024684" lon="11.340163960122434"><ele>410.0</ele><time>2026-04-26T18:31:04.999Z</time></trkpt><trkpt lat="43.59259958135372" lon="11.340073355821032"><ele>410.0</ele><time>2026-04-26T18:31:05.999Z</time></trkpt><trkpt lat="43.592563188746176" lon="11.339977100802548"><ele>410.0</ele><time>2026-04-26T18:31:06.999Z</time></trkpt><trkpt lat="43.59253691418662" lon="11.339868394632052"><ele>410.0</ele><time>2026-04-26T18:31:07.999Z</time></trkpt><trkpt lat="43.59251458827393" lon="11.339749130896505"><ele>410.0</ele><time>2026-04-26T18:31:08.999Z</time></trkpt><trkpt lat="43.59249078886331" lon="11.33961380282324"><ele>410.0</ele><time>2026-04-26T18:31:09.999Z</time></trkpt><trkpt lat="43.592464345993186" lon="11.33946169317208"><ele>407.8</ele><time>2026-04-26T18:31:10.999Z</time></trkpt><trkpt lat="43.59243533250836" lon="11.339318085086688"><ele>405.6</ele><time>2026-04-26T18:31:11.999Z</time></trkpt><trkpt lat="43.59240518471487" lon="11.33918155532137"><ele>403.4</ele><time>2026-04-26T18:31:12.999Z</time></trkpt><trkpt lat="43.59237259357292" lon="11.339047943415496"><ele>401.2</ele><time>2026-04-26T18:31:14Z</time></trkpt><trkpt lat="43.59234178026579" lon="11.338913747072608"><ele>399.0</ele><time>2026-04-26T18:31:15Z</time></trkpt><trkpt lat="43.592312858698484" lon="11.338778553122388"><ele>397.0</ele><time>2026-04-26T18:31:16Z</time></trkpt><trkpt lat="43.59228172851394" lon="11.338642990816485"><ele>395.0</ele><time>2026-04-26T18:31:17Z</time></trkpt><trkpt lat="43.592249353859366" lon="11.338506623024324"><ele>393.0</ele><time>2026-04-26T18:31:18Z</time></trkpt><trkpt lat="43.59221775611123" lon="11.338375066731473"><ele>391.0</ele><time>2026-04-26T18:31:19Z</time></trkpt><trkpt lat="43.59218599143216" lon="11.33824768991081"><ele>389.0</ele><time>2026-04-26T18:31:20Z</time></trkpt><trkpt lat="43.592150276338" lon="11.338125708830642"><ele>389.4</ele><time>2026-04-26T18:31:21Z</time></trkpt><trkpt lat="43.59210200831564" lon="11.338014035187197"><ele>389.79999999999995</ele><time>2026-04-26T18:31:22Z</time></trkpt><trkpt lat="43.59203946524965" lon="11.337911904645106"><ele>390.20000000000005</ele><time>2026-04-26T18:31:23Z</time></trkpt><trkpt lat="43.59196539988321" lon="11.33783205634683"><ele>390.6</ele><time>2026-04-26T18:31:24Z</time></trkpt><trkpt lat="43.59187591352146" lon="11.337764330717361"><ele>391.0</ele><time>2026-04-26T18:31:25Z</time></trkpt><trkpt lat="43.59179676543736" lon="11.33769491157509"><ele>391.0</ele><time>2026-04-26T18:31:26Z</time></trkpt><trkpt lat="43.59172871117264" lon="11.337604967262969"><ele>391.0</ele><time>2026-04-26T18:31:27Z</time></trkpt><trkpt lat="43.59164486489535" lon="11.337526254938144"><ele>391.0</ele><time>2026-04-26T18:31:28Z</time></trkpt><trkpt lat="43.59157416475764" lon="11.337436634598921"><ele>391.0</ele><time>2026-04-26T18:31:29Z</time></trkpt><trkpt lat="43.59150977184506" lon="11.337340574385527"><ele>391.0</ele><time>2026-04-26T18:31:30Z</time></trkpt><trkpt lat="43.591464755729625" lon="11.33722742541381"><ele>386.8</ele><time>2026-04-26T18:31:31Z</time></trkpt><trkpt lat="43.591428068080674" lon="11.337087667557332"><ele>382.6</ele><time>2026-04-26T18:31:32Z</time></trkpt><trkpt lat="43.59140064505626" lon="11.336935670113226"><ele>378.4</ele><time>2026-04-26T18:31:33Z</time></trkpt><trkpt lat="43.59138589242745" lon="11.336788332811649"><ele>374.2</ele><time>2026-04-26T18:31:34Z</time></trkpt><trkpt lat="43.59137266692259" lon="11.33664270787039"><ele>370.0</ele><time>2026-04-26T18:31:35Z</time></trkpt><trkpt lat="43.5913536203547" lon="11.336501501618079"><ele>371.6</ele><time>2026-04-26T18:31:36Z</time></trkpt><trkpt lat="43.59132170138538" lon="11.336361605202232"><ele>373.2</ele><time>2026-04-26T18:31:37Z</time></trkpt><trkpt lat="43.5912823180371" lon="11.336243067033331"><ele>374.79999999999995</ele><time>2026-04-26T18:31:38Z</time></trkpt><trkpt lat="43.591236392975475" lon="11.336127489783463"><ele>376.4</ele><time>2026-04-26T18:31:39Z</time></trkpt><trkpt lat="43.59117709255995" lon="11.33602198673305"><ele>378.0</ele><time>2026-04-26T18:31:40Z</time></trkpt><trkpt lat="43.591112930454806" lon="11.335921799667954"><ele>378.0</ele><time>2026-04-26T18:31:41Z</time></trkpt><trkpt lat="43.5910388576853" lon="11.335828976415323"><ele>378.0</ele><time>2026-04-26T18:31:42Z</time></trkpt><trkpt lat="43.590973063448914" lon="11.335737756379379"><ele>378.0</ele><time>2026-04-26T18:31:43Z</time></trkpt><trkpt lat="43.59090513843085" lon="11.335655054598538"><ele>378.0</ele><time>2026-04-26T18:31:44Z</time></trkpt><trkpt lat="43.590831446357676" lon="11.335555624604902"><ele>378.0</ele><time>2026-04-26T18:31:45Z</time></trkpt><trkpt lat="43.59075172293959" lon="11.335442930080871"><ele>374.4</ele><time>2026-04-26T18:31:46Z</time></trkpt><trkpt lat="43.59068359988948" lon="11.335339795025986"><ele>370.79999999999995</ele><time>2026-04-26T18:31:47Z</time></trkpt><trkpt lat="43.590613475201884" lon="11.335237849375865"><ele>367.2</ele><time>2026-04-26T18:31:48Z</time></trkpt><trkpt lat="43.59054872664321" lon="11.335143435930968"><ele>363.6</ele><time>2026-04-26T18:31:49Z</time></trkpt><trkpt lat="43.59048541526915" lon="11.335061260473488"><ele>360.0</ele><time>2026-04-26T18:31:50Z</time></trkpt><trkpt lat="43.59042349255186" lon="11.334979855589225"><ele>360.0</ele><time>2026-04-26T18:31:51Z</time></trkpt><trkpt lat="43.59035164973268" lon="11.334909133706166"><ele>360.0</ele><time>2026-04-26T18:31:52Z</time></trkpt><trkpt lat="43.59029404992335" lon="11.334847824537658"><ele>360.0</ele><time>2026-04-26T18:31:53Z</time></trkpt><trkpt lat="43.59025565829528" lon="11.334775997961037"><ele>360.0</ele><time>2026-04-26T18:31:54Z</time></trkpt><trkpt lat="43.59016901563324" lon="11.334695844446863"><ele>360.0</ele><time>2026-04-26T18:31:56Z</time></trkpt><trkpt lat="43.59018390172302" lon="11.3346072256064"><ele>360.0</ele><time>2026-04-26T18:31:58Z</time></trkpt><trkpt lat="43.590240345319465" lon="11.334671340575401"><ele>360.0</ele><time>2026-04-26T18:32:00Z</time></trkpt><trkpt lat="43.59030106385676" lon="11.33476172629436"><ele>360.0</ele><time>2026-04-26T18:32:03Z</time></trkpt><trkpt lat="43.590365366641564" lon="11.334811479948934"><ele>360.0</ele><time>2026-04-26T18:32:05Z</time></trkpt><trkpt lat="43.59044546101702" lon="11.334874589086006"><ele>360.0</ele><time>2026-04-26T18:32:07Z</time></trkpt><trkpt lat="43.59052174263874" lon="11.334937876965917"><ele>360.0</ele><time>2026-04-26T18:32:09Z</time></trkpt><trkpt lat="43.59058783571789" lon="11.33499008186916"><ele>360.0</ele><time>2026-04-26T18:32:11Z</time></trkpt><trkpt lat="43.59058666439806" lon="11.33468095864211"><ele>356.0</ele><time>2026-04-26T18:32:16Z</time></trkpt><trkpt lat="43.59050554343304" lon="11.33462923690277"><ele>352.0</ele><time>2026-04-26T18:32:17Z</time></trkpt><trkpt lat="43.59045375988675" lon="11.334566570454612"><ele>348.0</ele><time>2026-04-26T18:32:18Z</time></trkpt><trkpt lat="43.590416288045525" lon="11.33442428413302"><ele>344.0</ele><time>2026-04-26T18:32:20Z</time></trkpt><trkpt lat="43.59038152624314" lon="11.334299128492441"><ele>340.0</ele><time>2026-04-26T18:32:22Z</time></trkpt><trkpt lat="43.59036479309279" lon="11.334178295365875"><ele>340.0</ele><time>2026-04-26T18:32:24Z</time></trkpt><trkpt lat="43.5903506515857" lon="11.334046341671362"><ele>340.0</ele><time>2026-04-26T18:32:26Z</time></trkpt><trkpt lat="43.59032439456886" lon="11.333967339531775"><ele>340.0</ele><time>2026-04-26T18:32:27Z</time></trkpt><trkpt lat="43.59026554643459" lon="11.333841326115895"><ele>340.0</ele><time>2026-04-26T18:32:29Z</time></trkpt><trkpt lat="43.59020364379403" lon="11.333758175073065"><ele>340.0</ele><time>2026-04-26T18:32:31Z</time></trkpt><trkpt lat="43.59014832469927" lon="11.333664378490957"><ele>340.0</ele><time>2026-04-26T18:32:34Z</time></trkpt><trkpt lat="43.59012313351673" lon="11.333744921433361"><ele>341.0</ele><time>2026-04-26T18:32:41.999Z</time></trkpt><trkpt lat="43.59011882125045" lon="11.333839824551319"><ele>342.0</ele><time>2026-04-26T18:32:45.999Z</time></trkpt><trkpt lat="43.59006284183807" lon="11.333790719112034"><ele>343.0</ele><time>2026-04-26T18:33:07.999Z</time></trkpt><trkpt lat="43.590006485808615" lon="11.333746281397726"><ele>344.0</ele><time>2026-04-26T18:33:32Z</time></trkpt><trkpt lat="43.590013563544815" lon="11.33384214465013"><ele>345.0</ele><time>2026-04-26T18:34:03Z</time></trkpt><trkpt lat="43.590061536315154" lon="11.333911797986197"><ele>346.0</ele><time>2026-04-26T18:34:32Z</time></trkpt><trkpt lat="43.59012026305432" lon="11.333829131371836"><ele>347.0</ele><time>2026-04-26T18:39:27.999Z</time></trkpt><trkpt lat="43.590113087903575" lon="11.333741132971372"><ele>347.0</ele><time>2026-04-26T18:39:44Z</time></trkpt><trkpt lat="43.59018137138842" lon="11.333716080135954"><ele>347.0</ele><time>2026-04-26T18:39:50Z</time></trkpt><trkpt lat="43.59023332058124" lon="11.333776798834688"><ele>347.0</ele><time>2026-04-26T18:39:52Z</time></trkpt><trkpt lat="43.59028288398906" lon="11.333856556414624"><ele>347.0</ele><time>2026-04-26T18:39:55Z</time></trkpt><trkpt lat="43.590342522599286" lon="11.3339804167156"><ele>347.0</ele><time>2026-04-26T18:39:57Z</time></trkpt><trkpt lat="43.59036729825653" lon="11.334083912165354"><ele>347.0</ele><time>2026-04-26T18:40:00Z</time></trkpt><trkpt lat="43.59038385204061" lon="11.334205477386845"><ele>345.6</ele><time>2026-04-26T18:40:03Z</time></trkpt><trkpt lat="43.59040689692347" lon="11.334321367968785"><ele>344.20000000000005</ele><time>2026-04-26T18:40:05Z</time></trkpt><trkpt lat="43.59043495266593" lon="11.334438591421486"><ele>342.8</ele><time>2026-04-26T18:40:07Z</time></trkpt><trkpt lat="43.59048860062386" lon="11.334593028069559"><ele>341.4</ele><time>2026-04-26T18:40:09Z</time></trkpt><trkpt lat="43.5905492700797" lon="11.334662533126673"><ele>340.0</ele><time>2026-04-26T18:40:11Z</time></trkpt><trkpt lat="43.590644469300756" lon="11.334719650415668"><ele>340.0</ele><time>2026-04-26T18:40:13Z</time></trkpt><trkpt lat="43.590695638328846" lon="11.33477577764346"><ele>340.0</ele><time>2026-04-26T18:40:15Z</time></trkpt><trkpt lat="43.59068682629446" lon="11.334884605050084"><ele>340.0</ele><time>2026-04-26T18:40:19Z</time></trkpt><trkpt lat="43.59065925325835" lon="11.334780451094883"><ele>340.0</ele><time>2026-04-26T18:40:38Z</time></trkpt><trkpt lat="43.590574758484706" lon="11.33468261857895"><ele>340.0</ele><time>2026-04-26T18:40:40Z</time></trkpt><trkpt lat="43.59050072664805" lon="11.33459599018179"><ele>340.0</ele><time>2026-04-26T18:40:41Z</time></trkpt><trkpt lat="43.590440675205976" lon="11.33446987780543"><ele>340.0</ele><time>2026-04-26T18:40:43Z</time></trkpt><trkpt lat="43.59040096666841" lon="11.334321595946152"><ele>340.0</ele><time>2026-04-26T18:40:45Z</time></trkpt><trkpt lat="43.59037033167681" lon="11.334186727452881"><ele>340.0</ele><time>2026-04-26T18:40:47Z</time></trkpt><trkpt lat="43.590350870036374" lon="11.334049572081165"><ele>340.0</ele><time>2026-04-26T18:40:49Z</time></trkpt><trkpt lat="43.590311139733124" lon="11.333914201789675"><ele>340.0</ele><time>2026-04-26T18:40:51Z</time></trkpt><trkpt lat="43.590251397077004" lon="11.333824034290364"><ele>341.16666666666663</ele><time>2026-04-26T18:40:53Z</time></trkpt><trkpt lat="43.590184419004906" lon="11.333744548883061"><ele>342.3333333333333</ele><time>2026-04-26T18:40:54.999Z</time></trkpt><trkpt lat="43.59009965917028" lon="11.333698902630557"><ele>343.5</ele><time>2026-04-26T18:40:57.999Z</time></trkpt><trkpt lat="43.59003427745823" lon="11.33365770727225"><ele>344.6666666666667</ele><time>2026-04-26T18:40:59.999Z</time></trkpt><trkpt lat="43.58997394420506" lon="11.333580299847382"><ele>345.83333333333337</ele><time>2026-04-26T18:41:02.999Z</time></trkpt><trkpt lat="43.58994322232058" lon="11.33349708116556"><ele>347.0</ele><time>2026-04-26T18:41:04.999Z</time></trkpt><trkpt lat="43.589912329126165" lon="11.333411494269368"><ele>347.0</ele><time>2026-04-26T18:41:08.999Z</time></trkpt></trkseg></trk></gpx>